<?xml version='1.0' encoding='UTF-8'?><gpx version="1.1" creator="JPX - https://github.com/jenetics/jpx" xmlns="http://www.topografix.com/GPX/1/1"><trk><trkseg><trkpt lat="42.8542367" lon="2.33412"><ele>692.0</ele><time>2026-04-11T10:05:29.969Z</time></trkpt><trkpt lat="42.8542533" lon="2.33397"><ele>692.0</ele><time>2026-04-11T10:05:31.968Z</time></trkpt><trkpt lat="42.854285" lon="2.3338533"><ele>692.0</ele><time>2026-04-11T10:05:32.969Z</time></trkpt><trkpt lat="42.8543017" lon="2.3337683"><ele>692.0</ele><time>2026-04-11T10:05:33.968Z</time></trkpt><trkpt lat="42.8543233" lon="2.3336583"><ele>692.0</ele><time>2026-04-11T10:05:34.968Z</time></trkpt><trkpt lat="42.854345" lon="2.3335517"><ele>692.0</ele><time>2026-04-11T10:05:35.969Z</time></trkpt><trkpt lat="42.8543567" lon="2.3334467"><ele>692.5</ele><time>2026-04-11T10:05:36.969Z</time></trkpt><trkpt lat="42.8543683" lon="2.33334"><ele>693.0</ele><time>2026-04-11T10:05:37.97Z</time></trkpt><trkpt lat="42.854375" lon="2.333235"><ele>693.5</ele><time>2026-04-11T10:05:38.968Z</time></trkpt><trkpt lat="42.85438" lon="2.3331233"><ele>694.0</ele><time>2026-04-11T10:05:39.968Z</time></trkpt><trkpt lat="42.85439" lon="2.3330067"><ele>694.5</ele><time>2026-04-11T10:05:40.968Z</time></trkpt><trkpt lat="42.8544033" lon="2.3328933"><ele>695.0</ele><time>2026-04-11T10:05:41.968Z</time></trkpt><trkpt lat="42.85442" lon="2.3327817"><ele>695.0</ele><time>2026-04-11T10:05:42.968Z</time></trkpt><trkpt lat="42.8544367" lon="2.33267"><ele>695.0</ele><time>2026-04-11T10:05:43.969Z</time></trkpt><trkpt lat="42.8544533" lon="2.3325583"><ele>695.0</ele><time>2026-04-11T10:05:44.969Z</time></trkpt><trkpt lat="42.8544733" lon="2.3324483"><ele>695.0</ele><time>2026-04-11T10:05:45.969Z</time></trkpt><trkpt lat="42.8545" lon="2.3323317"><ele>695.0</ele><time>2026-04-11T10:05:46.969Z</time></trkpt><trkpt lat="42.854525" lon="2.332215"><ele>695.0</ele><time>2026-04-11T10:05:47.97Z</time></trkpt><trkpt lat="42.8545467" lon="2.3321"><ele>697.8333333333333</ele><time>2026-04-11T10:05:48.969Z</time></trkpt><trkpt lat="42.85457" lon="2.3319883"><ele>700.6666666666666</ele><time>2026-04-11T10:05:49.969Z</time></trkpt><trkpt lat="42.8545933" lon="2.33189"><ele>703.5</ele><time>2026-04-11T10:05:50.969Z</time></trkpt><trkpt lat="42.8546217" lon="2.3317933"><ele>706.3333333333334</ele><time>2026-04-11T10:05:51.969Z</time></trkpt><trkpt lat="42.8546533" lon="2.3317033"><ele>709.1666666666667</ele><time>2026-04-11T10:05:52.969Z</time></trkpt><trkpt lat="42.8547133" lon="2.3315617"><ele>712.0</ele><time>2026-04-11T10:05:54.969Z</time></trkpt><trkpt lat="42.85476" lon="2.3314383"><ele>712.6</ele><time>2026-04-11T10:05:56.969Z</time></trkpt><trkpt lat="42.8547933" lon="2.3313083"><ele>713.2</ele><time>2026-04-11T10:05:58.968Z</time></trkpt><trkpt lat="42.8548183" lon="2.331165"><ele>713.8</ele><time>2026-04-11T10:06:00.97Z</time></trkpt><trkpt lat="42.854855" lon="2.3310233"><ele>714.4</ele><time>2026-04-11T10:06:02.969Z</time></trkpt><trkpt lat="42.85491" lon="2.3308783"><ele>715.0</ele><time>2026-04-11T10:06:04.968Z</time></trkpt><trkpt lat="42.85498" lon="2.33074"><ele>715.0</ele><time>2026-04-11T10:06:06.969Z</time></trkpt><trkpt lat="42.8550117" lon="2.3306617"><ele>715.0</ele><time>2026-04-11T10:06:07.969Z</time></trkpt><trkpt lat="42.855045" lon="2.330585"><ele>715.0</ele><time>2026-04-11T10:06:08.97Z</time></trkpt><trkpt lat="42.8550833" lon="2.3305083"><ele>715.0</ele><time>2026-04-11T10:06:09.97Z</time></trkpt><trkpt lat="42.8551217" lon="2.3304283"><ele>715.0</ele><time>2026-04-11T10:06:10.969Z</time></trkpt><trkpt lat="42.8551617" lon="2.3303483"><ele>715.0</ele><time>2026-04-11T10:06:11.969Z</time></trkpt><trkpt lat="42.8552067" lon="2.3302633"><ele>715.0</ele><time>2026-04-11T10:06:12.969Z</time></trkpt><trkpt lat="42.8552483" lon="2.3301833"><ele>716.4285714285714</ele><time>2026-04-11T10:06:13.97Z</time></trkpt><trkpt lat="42.8552933" lon="2.330095"><ele>717.8571428571428</ele><time>2026-04-11T10:06:14.97Z</time></trkpt><trkpt lat="42.855335" lon="2.3300133"><ele>719.2857142857142</ele><time>2026-04-11T10:06:15.969Z</time></trkpt><trkpt lat="42.8553783" lon="2.3299283"><ele>720.7142857142858</ele><time>2026-04-11T10:06:16.969Z</time></trkpt><trkpt lat="42.8554217" lon="2.329855"><ele>722.1428571428571</ele><time>2026-04-11T10:06:17.97Z</time></trkpt><trkpt lat="42.855465" lon="2.329775"><ele>723.5714285714286</ele><time>2026-04-11T10:06:18.969Z</time></trkpt><trkpt lat="42.8555117" lon="2.3296883"><ele>725.0</ele><time>2026-04-11T10:06:19.969Z</time></trkpt><trkpt lat="42.8555583" lon="2.3295933"><ele>725.0</ele><time>2026-04-11T10:06:20.971Z</time></trkpt><trkpt lat="42.8556033" lon="2.3294867"><ele>725.0</ele><time>2026-04-11T10:06:21.969Z</time></trkpt><trkpt lat="42.8556383" lon="2.3293733"><ele>725.0</ele><time>2026-04-11T10:06:22.969Z</time></trkpt><trkpt lat="42.8556683" lon="2.3292467"><ele>725.0</ele><time>2026-04-11T10:06:23.972Z</time></trkpt><trkpt lat="42.8557" lon="2.329115"><ele>725.0</ele><time>2026-04-11T10:06:24.969Z</time></trkpt><trkpt lat="42.855725" lon="2.3289833"><ele>723.8333333333333</ele><time>2026-04-11T10:06:25.97Z</time></trkpt><trkpt lat="42.8557367" lon="2.3288633"><ele>722.6666666666666</ele><time>2026-04-11T10:06:26.969Z</time></trkpt><trkpt lat="42.8557433" lon="2.3287517"><ele>721.5</ele><time>2026-04-11T10:06:27.969Z</time></trkpt><trkpt lat="42.85575" lon="2.3286483"><ele>720.3333333333334</ele><time>2026-04-11T10:06:28.968Z</time></trkpt><trkpt lat="42.8557667" lon="2.3285567"><ele>719.1666666666667</ele><time>2026-04-11T10:06:29.969Z</time></trkpt><trkpt lat="42.8557933" lon="2.328475"><ele>718.0</ele><time>2026-04-11T10:06:30.97Z</time></trkpt><trkpt lat="42.8558433" lon="2.3283317"><ele>718.0</ele><time>2026-04-11T10:06:32.969Z</time></trkpt><trkpt lat="42.855865" lon="2.3282467"><ele>718.0</ele><time>2026-04-11T10:06:33.969Z</time></trkpt><trkpt lat="42.8558883" lon="2.3281417"><ele>718.0</ele><time>2026-04-11T10:06:34.97Z</time></trkpt><trkpt lat="42.85591" lon="2.328045"><ele>718.0</ele><time>2026-04-11T10:06:35.969Z</time></trkpt><trkpt lat="42.85593" lon="2.3279367"><ele>718.0</ele><time>2026-04-11T10:06:36.968Z</time></trkpt><trkpt lat="42.8559467" lon="2.3278217"><ele>718.0</ele><time>2026-04-11T10:06:37.969Z</time></trkpt><trkpt lat="42.8559633" lon="2.32771"><ele>717.6666666666667</ele><time>2026-04-11T10:06:38.97Z</time></trkpt><trkpt lat="42.85598" lon="2.3275917"><ele>717.3333333333334</ele><time>2026-04-11T10:06:39.968Z</time></trkpt><trkpt lat="42.855995" lon="2.3274767"><ele>717.0</ele><time>2026-04-11T10:06:40.969Z</time></trkpt><trkpt lat="42.85602" lon="2.32737"><ele>716.6666666666666</ele><time>2026-04-11T10:06:41.969Z</time></trkpt><trkpt lat="42.8560517" lon="2.3272633"><ele>716.3333333333333</ele><time>2026-04-11T10:06:42.969Z</time></trkpt><trkpt lat="42.856085" lon="2.3271567"><ele>716.0</ele><time>2026-04-11T10:06:43.969Z</time></trkpt><trkpt lat="42.85612" lon="2.32706"><ele>716.0</ele><time>2026-04-11T10:06:44.969Z</time></trkpt><trkpt lat="42.8561617" lon="2.32697"><ele>716.0</ele><time>2026-04-11T10:06:45.969Z</time></trkpt><trkpt lat="42.8562117" lon="2.3268767"><ele>716.0</ele><time>2026-04-11T10:06:46.968Z</time></trkpt><trkpt lat="42.8562633" lon="2.3267917"><ele>716.0</ele><time>2026-04-11T10:06:47.969Z</time></trkpt><trkpt lat="42.8563167" lon="2.3267117"><ele>716.0</ele><time>2026-04-11T10:06:48.969Z</time></trkpt><trkpt lat="42.856375" lon="2.3266433"><ele>716.0</ele><time>2026-04-11T10:06:49.97Z</time></trkpt><trkpt lat="42.8564433" lon="2.326595"><ele>716.0</ele><time>2026-04-11T10:06:50.969Z</time></trkpt><trkpt lat="42.8565233" lon="2.3265567"><ele>716.0</ele><time>2026-04-11T10:06:51.969Z</time></trkpt><trkpt lat="42.8566117" lon="2.32653"><ele>716.0</ele><time>2026-04-11T10:06:52.969Z</time></trkpt><trkpt lat="42.8567017" lon="2.3265017"><ele>716.0</ele><time>2026-04-11T10:06:53.969Z</time></trkpt><trkpt lat="42.8567867" lon="2.32647"><ele>716.0</ele><time>2026-04-11T10:06:54.969Z</time></trkpt><trkpt lat="42.8568767" lon="2.3264317"><ele>715.8</ele><time>2026-04-11T10:06:55.969Z</time></trkpt><trkpt lat="42.8569633" lon="2.3263967"><ele>715.5999999999999</ele><time>2026-04-11T10:06:56.969Z</time></trkpt><trkpt lat="42.8570483" lon="2.3263583"><ele>715.4</ele><time>2026-04-11T10:06:57.969Z</time></trkpt><trkpt lat="42.8571317" lon="2.32631"><ele>715.2</ele><time>2026-04-11T10:06:58.969Z</time></trkpt><trkpt lat="42.8572167" lon="2.3262633"><ele>715.0</ele><time>2026-04-11T10:06:59.969Z</time></trkpt><trkpt lat="42.8572983" lon="2.326205"><ele>715.0</ele><time>2026-04-11T10:07:00.971Z</time></trkpt><trkpt lat="42.8573767" lon="2.3261617"><ele>715.0</ele><time>2026-04-11T10:07:01.969Z</time></trkpt><trkpt lat="42.8574583" lon="2.326135"><ele>715.0</ele><time>2026-04-11T10:07:02.971Z</time></trkpt><trkpt lat="42.8575433" lon="2.3261217"><ele>715.0</ele><time>2026-04-11T10:07:03.969Z</time></trkpt><trkpt lat="42.8576333" lon="2.32612"><ele>715.0</ele><time>2026-04-11T10:07:04.969Z</time></trkpt><trkpt lat="42.85773" lon="2.3261133"><ele>715.0</ele><time>2026-04-11T10:07:05.969Z</time></trkpt><trkpt lat="42.8578183" lon="2.32611"><ele>716.1428571428572</ele><time>2026-04-11T10:07:06.969Z</time></trkpt><trkpt lat="42.857895" lon="2.3261"><ele>717.2857142857142</ele><time>2026-04-11T10:07:07.969Z</time></trkpt><trkpt lat="42.8579667" lon="2.3260933"><ele>718.4285714285714</ele><time>2026-04-11T10:07:08.969Z</time></trkpt><trkpt lat="42.8580383" lon="2.3260867"><ele>719.5714285714287</ele><time>2026-04-11T10:07:09.969Z</time></trkpt><trkpt lat="42.8581133" lon="2.3260917"><ele>720.7142857142858</ele><time>2026-04-11T10:07:10.969Z</time></trkpt><trkpt lat="42.8581867" lon="2.3261167"><ele>721.8571428571429</ele><time>2026-04-11T10:07:11.969Z</time></trkpt><trkpt lat="42.8582567" lon="2.32615"><ele>723.0</ele><time>2026-04-11T10:07:12.969Z</time></trkpt><trkpt lat="42.8583183" lon="2.3261867"><ele>723.0</ele><time>2026-04-11T10:07:13.969Z</time></trkpt><trkpt lat="42.858415" lon="2.326255"><ele>723.0</ele><time>2026-04-11T10:07:15.969Z</time></trkpt><trkpt lat="42.8584633" lon="2.3263383"><ele>723.0</ele><time>2026-04-11T10:07:17.969Z</time></trkpt><trkpt lat="42.8584133" lon="2.3264317"><ele>723.0</ele><time>2026-04-11T10:07:20.969Z</time></trkpt><trkpt lat="42.858345" lon="2.3264183"><ele>723.0</ele><time>2026-04-11T10:07:22.969Z</time></trkpt><trkpt lat="42.8582533" lon="2.3263283"><ele>723.0</ele><time>2026-04-11T10:07:24.969Z</time></trkpt><trkpt lat="42.8581467" lon="2.3262917"><ele>723.0</ele><time>2026-04-11T10:07:26.97Z</time></trkpt><trkpt lat="42.8580383" lon="2.3263233"><ele>723.0</ele><time>2026-04-11T10:07:28.969Z</time></trkpt><trkpt lat="42.85792" lon="2.3264"><ele>723.0</ele><time>2026-04-11T10:07:30.971Z</time></trkpt><trkpt lat="42.8578617" lon="2.3264417"><ele>723.0</ele><time>2026-04-11T10:07:31.969Z</time></trkpt><trkpt lat="42.8578033" lon="2.326475"><ele>724.0</ele><time>2026-04-11T10:07:32.97Z</time></trkpt><trkpt lat="42.8577417" lon="2.3264933"><ele>725.0</ele><time>2026-04-11T10:07:33.969Z</time></trkpt><trkpt lat="42.8576367" lon="2.3265267"><ele>726.0</ele><time>2026-04-11T10:07:35.97Z</time></trkpt><trkpt lat="42.8575867" lon="2.3266133"><ele>727.0</ele><time>2026-04-11T10:07:37.969Z</time></trkpt><trkpt lat="42.857615" lon="2.3267"><ele>728.0</ele><time>2026-04-11T10:07:39.969Z</time></trkpt><trkpt lat="42.8577017" lon="2.3267217"><ele>729.0</ele><time>2026-04-11T10:07:41.969Z</time></trkpt><trkpt lat="42.8577667" lon="2.3267117"><ele>729.4000000000001</ele><time>2026-04-11T10:07:42.97Z</time></trkpt><trkpt lat="42.8579017" lon="2.3266917"><ele>729.8</ele><time>2026-04-11T10:07:44.969Z</time></trkpt><trkpt lat="42.857985" lon="2.3266883"><ele>730.2</ele><time>2026-04-11T10:07:45.969Z</time></trkpt><trkpt lat="42.8580583" lon="2.3267033"><ele>730.5999999999999</ele><time>2026-04-11T10:07:46.969Z</time></trkpt><trkpt lat="42.8581333" lon="2.3267367"><ele>731.0</ele><time>2026-04-11T10:07:47.97Z</time></trkpt><trkpt lat="42.8582117" lon="2.3267967"><ele>731.0</ele><time>2026-04-11T10:07:48.972Z</time></trkpt><trkpt lat="42.8582817" lon="2.32687"><ele>731.0</ele><time>2026-04-11T10:07:49.969Z</time></trkpt><trkpt lat="42.8583367" lon="2.3269467"><ele>731.0</ele><time>2026-04-11T10:07:50.972Z</time></trkpt><trkpt lat="42.858385" lon="2.327035"><ele>731.0</ele><time>2026-04-11T10:07:51.969Z</time></trkpt><trkpt lat="42.8584267" lon="2.32713"><ele>731.0</ele><time>2026-04-11T10:07:52.969Z</time></trkpt><trkpt lat="42.858465" lon="2.3272317"><ele>731.0</ele><time>2026-04-11T10:07:53.969Z</time></trkpt><trkpt lat="42.8584983" lon="2.3273333"><ele>733.1428571428571</ele><time>2026-04-11T10:07:54.969Z</time></trkpt><trkpt lat="42.858525" lon="2.3274283"><ele>735.2857142857142</ele><time>2026-04-11T10:07:55.969Z</time></trkpt><trkpt lat="42.858545" lon="2.327525"><ele>737.4285714285714</ele><time>2026-04-11T10:07:56.969Z</time></trkpt><trkpt lat="42.8585583" lon="2.3276217"><ele>739.5714285714286</ele><time>2026-04-11T10:07:57.969Z</time></trkpt><trkpt lat="42.858575" lon="2.3277217"><ele>741.7142857142858</ele><time>2026-04-11T10:07:58.969Z</time></trkpt><trkpt lat="42.8585917" lon="2.3278183"><ele>743.8571428571429</ele><time>2026-04-11T10:07:59.97Z</time></trkpt><trkpt lat="42.8586117" lon="2.3279217"><ele>746.0</ele><time>2026-04-11T10:08:00.969Z</time></trkpt><trkpt lat="42.85864" lon="2.32802"><ele>746.7142857142858</ele><time>2026-04-11T10:08:01.969Z</time></trkpt><trkpt lat="42.8586817" lon="2.3281117"><ele>747.4285714285714</ele><time>2026-04-11T10:08:02.969Z</time></trkpt><trkpt lat="42.85872" lon="2.3281933"><ele>748.1428571428571</ele><time>2026-04-11T10:08:03.969Z</time></trkpt><trkpt lat="42.8587732" lon="2.3282551"><ele>748.8571428571429</ele><time>2026-04-11T10:08:04.969Z</time></trkpt><trkpt lat="42.8588384" lon="2.3283037"><ele>749.5714285714286</ele><time>2026-04-11T10:08:05.969Z</time></trkpt><trkpt lat="42.8588958" lon="2.3283525"><ele>750.2857142857143</ele><time>2026-04-11T10:08:06.969Z</time></trkpt><trkpt lat="42.8589497" lon="2.3284121"><ele>751.0</ele><time>2026-04-11T10:08:07.969Z</time></trkpt><trkpt lat="42.8589891" lon="2.3284947"><ele>751.0</ele><time>2026-04-11T10:08:08.969Z</time></trkpt><trkpt lat="42.8590132" lon="2.3285932"><ele>751.0</ele><time>2026-04-11T10:08:09.969Z</time></trkpt><trkpt lat="42.8590315" lon="2.3286869"><ele>751.0</ele><time>2026-04-11T10:08:10.969Z</time></trkpt><trkpt lat="42.859072" lon="2.3288201"><ele>751.0</ele><time>2026-04-11T10:08:12.97Z</time></trkpt><trkpt lat="42.8591494" lon="2.3288536"><ele>751.0</ele><time>2026-04-11T10:08:14.969Z</time></trkpt><trkpt lat="42.8592442" lon="2.3288212"><ele>751.0</ele><time>2026-04-11T10:08:16.969Z</time></trkpt><trkpt lat="42.8593137" lon="2.3286998"><ele>753.5</ele><time>2026-04-11T10:08:18.969Z</time></trkpt><trkpt lat="42.8593404" lon="2.328552"><ele>756.0</ele><time>2026-04-11T10:08:20.97Z</time></trkpt><trkpt lat="42.859354" lon="2.3284278"><ele>758.5</ele><time>2026-04-11T10:08:22.969Z</time></trkpt><trkpt lat="42.8594058" lon="2.3283659"><ele>761.0</ele><time>2026-04-11T10:08:24.97Z</time></trkpt><trkpt lat="42.8594605" lon="2.3284469"><ele>763.5</ele><time>2026-04-11T10:08:26.97Z</time></trkpt><trkpt lat="42.859462" lon="2.3285744"><ele>766.0</ele><time>2026-04-11T10:08:28.969Z</time></trkpt><trkpt lat="42.8594496" lon="2.3286758"><ele>766.0</ele><time>2026-04-11T10:08:29.97Z</time></trkpt><trkpt lat="42.859439" lon="2.3287844"><ele>766.0</ele><time>2026-04-11T10:08:30.969Z</time></trkpt><trkpt lat="42.859431" lon="2.3288951"><ele>766.0</ele><time>2026-04-11T10:08:31.97Z</time></trkpt><trkpt lat="42.8594219" lon="2.3290002"><ele>766.0</ele><time>2026-04-11T10:08:32.97Z</time></trkpt><trkpt lat="42.8594105" lon="2.3290947"><ele>766.0</ele><time>2026-04-11T10:08:33.97Z</time></trkpt><trkpt lat="42.859401" lon="2.3291821"><ele>766.0</ele><time>2026-04-11T10:08:34.97Z</time></trkpt><trkpt lat="42.8593629" lon="2.3293375"><ele>765.0</ele><time>2026-04-11T10:08:36.969Z</time></trkpt><trkpt lat="42.8593352" lon="2.3294293"><ele>764.0</ele><time>2026-04-11T10:08:37.969Z</time></trkpt><trkpt lat="42.8593126" lon="2.329537"><ele>763.0</ele><time>2026-04-11T10:08:38.969Z</time></trkpt><trkpt lat="42.8592934" lon="2.3296475"><ele>762.0</ele><time>2026-04-11T10:08:39.969Z</time></trkpt><trkpt lat="42.8592739" lon="2.329756"><ele>761.0</ele><time>2026-04-11T10:08:40.969Z</time></trkpt><trkpt lat="42.8592524" lon="2.3298496"><ele>760.0</ele><time>2026-04-11T10:08:41.969Z</time></trkpt><trkpt lat="42.8592265" lon="2.3299282"><ele>760.0</ele><time>2026-04-11T10:08:42.97Z</time></trkpt><trkpt lat="42.8592095" lon="2.3300236"><ele>760.0</ele><time>2026-04-11T10:08:43.969Z</time></trkpt><trkpt lat="42.8591922" lon="2.3301191"><ele>760.0</ele><time>2026-04-11T10:08:44.969Z</time></trkpt><trkpt lat="42.8591807" lon="2.3302329"><ele>760.0</ele><time>2026-04-11T10:08:45.97Z</time></trkpt><trkpt lat="42.8591756" lon="2.3303387"><ele>760.0</ele><time>2026-04-11T10:08:46.968Z</time></trkpt><trkpt lat="42.8591804" lon="2.3304364"><ele>760.0</ele><time>2026-04-11T10:08:47.968Z</time></trkpt><trkpt lat="42.8591996" lon="2.3305264"><ele>760.0</ele><time>2026-04-11T10:08:48.968Z</time></trkpt><trkpt lat="42.8592246" lon="2.3306129"><ele>760.8333333333334</ele><time>2026-04-11T10:08:49.969Z</time></trkpt><trkpt lat="42.8592593" lon="2.3306998"><ele>761.6666666666667</ele><time>2026-04-11T10:08:50.968Z</time></trkpt><trkpt lat="42.8593064" lon="2.3307968"><ele>762.5</ele><time>2026-04-11T10:08:51.97Z</time></trkpt><trkpt lat="42.859356" lon="2.3309076"><ele>763.3333333333334</ele><time>2026-04-11T10:08:52.968Z</time></trkpt><trkpt lat="42.8594001" lon="2.3310238"><ele>764.1666666666666</ele><time>2026-04-11T10:08:53.968Z</time></trkpt><trkpt lat="42.8594344" lon="2.3311469"><ele>765.0</ele><time>2026-04-11T10:08:54.968Z</time></trkpt><trkpt lat="42.8594649" lon="2.3312618"><ele>768.4</ele><time>2026-04-11T10:08:55.969Z</time></trkpt><trkpt lat="42.8594951" lon="2.3313614"><ele>771.8</ele><time>2026-04-11T10:08:56.968Z</time></trkpt><trkpt lat="42.8595237" lon="2.3314447"><ele>775.2</ele><time>2026-04-11T10:08:57.968Z</time></trkpt><trkpt lat="42.8595668" lon="2.3315841"><ele>778.6</ele><time>2026-04-11T10:08:59.968Z</time></trkpt><trkpt lat="42.8596138" lon="2.3317436"><ele>782.0</ele><time>2026-04-11T10:09:01.968Z</time></trkpt><trkpt lat="42.8596461" lon="2.3318333"><ele>782.0000000000001</ele><time>2026-04-11T10:09:02.969Z</time></trkpt><trkpt lat="42.8596828" lon="2.3319269"><ele>782.0</ele><time>2026-04-11T10:09:03.968Z</time></trkpt><trkpt lat="42.8597219" lon="2.3320168"><ele>782.0</ele><time>2026-04-11T10:09:04.968Z</time></trkpt><trkpt lat="42.8597657" lon="2.3321058"><ele>782.0</ele><time>2026-04-11T10:09:05.969Z</time></trkpt><trkpt lat="42.8598165" lon="2.3321903"><ele>782.0000000000001</ele><time>2026-04-11T10:09:06.969Z</time></trkpt><trkpt lat="42.8598745" lon="2.3322692"><ele>782.0</ele><time>2026-04-11T10:09:07.968Z</time></trkpt><trkpt lat="42.8599392" lon="2.3323399"><ele>781.5000000000001</ele><time>2026-04-11T10:09:08.968Z</time></trkpt><trkpt lat="42.860012" lon="2.3323989"><ele>781.0</ele><time>2026-04-11T10:09:09.969Z</time></trkpt><trkpt lat="42.8600889" lon="2.3324474"><ele>780.5</ele><time>2026-04-11T10:09:10.967Z</time></trkpt><trkpt lat="42.8601682" lon="2.3324815"><ele>780.0</ele><time>2026-04-11T10:09:11.969Z</time></trkpt><trkpt lat="42.8602543" lon="2.3325045"><ele>779.5000000000001</ele><time>2026-04-11T10:09:12.968Z</time></trkpt><trkpt lat="42.8603419" lon="2.3325152"><ele>779.0</ele><time>2026-04-11T10:09:13.968Z</time></trkpt><trkpt lat="42.8604227" lon="2.3325194"><ele>779.0000000000001</ele><time>2026-04-11T10:09:14.968Z</time></trkpt><trkpt lat="42.8604954" lon="2.3325158"><ele>779.0</ele><time>2026-04-11T10:09:15.968Z</time></trkpt><trkpt lat="42.8605636" lon="2.3325031"><ele>779.0</ele><time>2026-04-11T10:09:16.969Z</time></trkpt><trkpt lat="42.8606308" lon="2.3324853"><ele>779.0</ele><time>2026-04-11T10:09:17.968Z</time></trkpt><trkpt lat="42.8606935" lon="2.3324616"><ele>779.0000000000001</ele><time>2026-04-11T10:09:18.969Z</time></trkpt><trkpt lat="42.8607533" lon="2.3324332"><ele>779.0</ele><time>2026-04-11T10:09:19.969Z</time></trkpt><trkpt lat="42.8608498" lon="2.3323417"><ele>780.2</ele><time>2026-04-11T10:09:21.968Z</time></trkpt><trkpt lat="42.8609153" lon="2.3322161"><ele>781.4000000000001</ele><time>2026-04-11T10:09:23.968Z</time></trkpt><trkpt lat="42.8609942" lon="2.3320781"><ele>782.6</ele><time>2026-04-11T10:09:25.968Z</time></trkpt><trkpt lat="42.8610498" lon="2.332029"><ele>783.8</ele><time>2026-04-11T10:09:26.969Z</time></trkpt><trkpt lat="42.8611129" lon="2.3320029"><ele>785.0</ele><time>2026-04-11T10:09:27.968Z</time></trkpt><trkpt lat="42.8612297" lon="2.3320113"><ele>785.1666666666667</ele><time>2026-04-11T10:09:29.968Z</time></trkpt><trkpt lat="42.8613044" lon="2.332098"><ele>785.3333333333334</ele><time>2026-04-11T10:09:31.968Z</time></trkpt><trkpt lat="42.8613501" lon="2.3321709"><ele>785.5</ele><time>2026-04-11T10:09:32.971Z</time></trkpt><trkpt lat="42.8614134" lon="2.3322582"><ele>785.6666666666667</ele><time>2026-04-11T10:09:33.968Z</time></trkpt><trkpt lat="42.8614805" lon="2.3323472"><ele>785.8333333333334</ele><time>2026-04-11T10:09:34.968Z</time></trkpt><trkpt lat="42.8615518" lon="2.3324284"><ele>786.0</ele><time>2026-04-11T10:09:35.968Z</time></trkpt><trkpt lat="42.8616211" lon="2.332504"><ele>786.0000000000001</ele><time>2026-04-11T10:09:36.968Z</time></trkpt><trkpt lat="42.861687" lon="2.3325631"><ele>786.0</ele><time>2026-04-11T10:09:37.969Z</time></trkpt><trkpt lat="42.8617371" lon="2.332619"><ele>786.0</ele><time>2026-04-11T10:09:38.97Z</time></trkpt><trkpt lat="42.8617781" lon="2.3326855"><ele>786.0</ele><time>2026-04-11T10:09:39.969Z</time></trkpt><trkpt lat="42.8618165" lon="2.3327642"><ele>786.0</ele><time>2026-04-11T10:09:40.968Z</time></trkpt><trkpt lat="42.8618578" lon="2.3328468"><ele>786.0000000000001</ele><time>2026-04-11T10:09:41.968Z</time></trkpt><trkpt lat="42.8618993" lon="2.3329305"><ele>786.0</ele><time>2026-04-11T10:09:42.968Z</time></trkpt><trkpt lat="42.8619537" lon="2.333007"><ele>788.3333333333334</ele><time>2026-04-11T10:09:43.968Z</time></trkpt><trkpt lat="42.862013" lon="2.3330827"><ele>790.6666666666667</ele><time>2026-04-11T10:09:44.97Z</time></trkpt><trkpt lat="42.862076" lon="2.3331615"><ele>793.0</ele><time>2026-04-11T10:09:45.968Z</time></trkpt><trkpt lat="42.862136" lon="2.3332361"><ele>795.3333333333334</ele><time>2026-04-11T10:09:46.968Z</time></trkpt><trkpt lat="42.8621985" lon="2.3333182"><ele>797.6666666666667</ele><time>2026-04-11T10:09:47.969Z</time></trkpt><trkpt lat="42.8622497" lon="2.333405"><ele>800.0</ele><time>2026-04-11T10:09:48.968Z</time></trkpt><trkpt lat="42.8622867" lon="2.333494"><ele>800.0000000000001</ele><time>2026-04-11T10:09:49.969Z</time></trkpt><trkpt lat="42.8623098" lon="2.3335995"><ele>800.0</ele><time>2026-04-11T10:09:50.968Z</time></trkpt><trkpt lat="42.8623269" lon="2.3337151"><ele>800.0</ele><time>2026-04-11T10:09:51.968Z</time></trkpt><trkpt lat="42.8623355" lon="2.3338335"><ele>800.0</ele><time>2026-04-11T10:09:52.969Z</time></trkpt><trkpt lat="42.8623418" lon="2.3339495"><ele>800.0000000000001</ele><time>2026-04-11T10:09:53.968Z</time></trkpt><trkpt lat="42.8623452" lon="2.3340506"><ele>800.0</ele><time>2026-04-11T10:09:54.969Z</time></trkpt><trkpt lat="42.8623602" lon="2.3341786"><ele>800.0000000000001</ele><time>2026-04-11T10:09:56.968Z</time></trkpt><trkpt lat="42.8624348" lon="2.334187"><ele>800.0</ele><time>2026-04-11T10:09:59.97Z</time></trkpt><trkpt lat="42.8624766" lon="2.3340768"><ele>800.0</ele><time>2026-04-11T10:10:01.969Z</time></trkpt><trkpt lat="42.8624608" lon="2.3339156"><ele>800.0</ele><time>2026-04-11T10:10:03.968Z</time></trkpt><trkpt lat="42.8624579" lon="2.3338187"><ele>800.0000000000001</ele><time>2026-04-11T10:10:04.968Z</time></trkpt><trkpt lat="42.8624653" lon="2.3337134"><ele>800.0</ele><time>2026-04-11T10:10:05.968Z</time></trkpt><trkpt lat="42.8624777" lon="2.3335991"><ele>800.0000000000001</ele><time>2026-04-11T10:10:06.969Z</time></trkpt><trkpt lat="42.8624861" lon="2.3334836"><ele>800.0</ele><time>2026-04-11T10:10:07.968Z</time></trkpt><trkpt lat="42.8624904" lon="2.3333699"><ele>800.0</ele><time>2026-04-11T10:10:08.969Z</time></trkpt><trkpt lat="42.8624846" lon="2.3332583"><ele>800.0</ele><time>2026-04-11T10:10:09.969Z</time></trkpt><trkpt lat="42.862481" lon="2.3331537"><ele>800.0000000000001</ele><time>2026-04-11T10:10:10.969Z</time></trkpt><trkpt lat="42.86248" lon="2.3330528"><ele>800.0</ele><time>2026-04-11T10:10:11.968Z</time></trkpt><trkpt lat="42.8624746" lon="2.3329594"><ele>801.1666666666667</ele><time>2026-04-11T10:10:12.969Z</time></trkpt><trkpt lat="42.8624578" lon="2.3327898"><ele>802.3333333333334</ele><time>2026-04-11T10:10:14.969Z</time></trkpt><trkpt lat="42.8624523" lon="2.3327038"><ele>803.5</ele><time>2026-04-11T10:10:15.968Z</time></trkpt><trkpt lat="42.8624501" lon="2.3326146"><ele>804.6666666666667</ele><time>2026-04-11T10:10:16.968Z</time></trkpt><trkpt lat="42.8624487" lon="2.3325219"><ele>805.8333333333334</ele><time>2026-04-11T10:10:17.97Z</time></trkpt><trkpt lat="42.8624406" lon="2.3324182"><ele>807.0</ele><time>2026-04-11T10:10:18.969Z</time></trkpt><trkpt lat="42.8624266" lon="2.3323061"><ele>808.1428571428572</ele><time>2026-04-11T10:10:19.968Z</time></trkpt><trkpt lat="42.8624095" lon="2.3321884"><ele>809.2857142857143</ele><time>2026-04-11T10:10:20.969Z</time></trkpt><trkpt lat="42.8623931" lon="2.3320811"><ele>810.4285714285714</ele><time>2026-04-11T10:10:21.969Z</time></trkpt><trkpt lat="42.8623699" lon="2.3319728"><ele>811.5714285714287</ele><time>2026-04-11T10:10:22.968Z</time></trkpt><trkpt lat="42.8623522" lon="2.3318832"><ele>812.7142857142857</ele><time>2026-04-11T10:10:23.97Z</time></trkpt><trkpt lat="42.862331" lon="2.3318018"><ele>813.8571428571429</ele><time>2026-04-11T10:10:24.969Z</time></trkpt><trkpt lat="42.862313" lon="2.3317181"><ele>815.0</ele><time>2026-04-11T10:10:25.969Z</time></trkpt><trkpt lat="42.8623025" lon="2.3316285"><ele>815.0000000000001</ele><time>2026-04-11T10:10:26.969Z</time></trkpt><trkpt lat="42.8622993" lon="2.3315307"><ele>815.0</ele><time>2026-04-11T10:10:27.968Z</time></trkpt><trkpt lat="42.8623021" lon="2.3314216"><ele>815.0</ele><time>2026-04-11T10:10:28.968Z</time></trkpt><trkpt lat="42.862305" lon="2.3313071"><ele>815.0</ele><time>2026-04-11T10:10:29.968Z</time></trkpt><trkpt lat="42.8623154" lon="2.3311887"><ele>815.0000000000001</ele><time>2026-04-11T10:10:30.972Z</time></trkpt><trkpt lat="42.8623213" lon="2.3310703"><ele>815.0</ele><time>2026-04-11T10:10:31.969Z</time></trkpt><trkpt lat="42.8623357" lon="2.3309608"><ele>816.6</ele><time>2026-04-11T10:10:32.969Z</time></trkpt><trkpt lat="42.8623474" lon="2.3308717"><ele>818.2</ele><time>2026-04-11T10:10:33.968Z</time></trkpt><trkpt lat="42.8623599" lon="2.3307204"><ele>819.8</ele><time>2026-04-11T10:10:35.968Z</time></trkpt><trkpt lat="42.8623418" lon="2.3305717"><ele>821.4</ele><time>2026-04-11T10:10:37.969Z</time></trkpt><trkpt lat="42.8623156" lon="2.3304024"><ele>823.0</ele><time>2026-04-11T10:10:39.968Z</time></trkpt><trkpt lat="42.8622963" lon="2.3303084"><ele>823.8333333333333</ele><time>2026-04-11T10:10:40.969Z</time></trkpt><trkpt lat="42.862274" lon="2.3302112"><ele>824.6666666666666</ele><time>2026-04-11T10:10:41.968Z</time></trkpt><trkpt lat="42.8622623" lon="2.3301086"><ele>825.5</ele><time>2026-04-11T10:10:42.969Z</time></trkpt><trkpt lat="42.8622535" lon="2.330009"><ele>826.3333333333333</ele><time>2026-04-11T10:10:43.97Z</time></trkpt><trkpt lat="42.8622462" lon="2.3298521"><ele>827.1666666666666</ele><time>2026-04-11T10:10:45.968Z</time></trkpt><trkpt lat="42.8622547" lon="2.3297131"><ele>828.0</ele><time>2026-04-11T10:10:47.969Z</time></trkpt><trkpt lat="42.8622598" lon="2.3295396"><ele>828.0</ele><time>2026-04-11T10:10:49.968Z</time></trkpt><trkpt lat="42.8622651" lon="2.3294367"><ele>828.0</ele><time>2026-04-11T10:10:50.969Z</time></trkpt><trkpt lat="42.8622758" lon="2.329328"><ele>828.0</ele><time>2026-04-11T10:10:51.968Z</time></trkpt><trkpt lat="42.8622904" lon="2.3292094"><ele>828.0</ele><time>2026-04-11T10:10:52.968Z</time></trkpt><trkpt lat="42.8623045" lon="2.3290876"><ele>828.0</ele><time>2026-04-11T10:10:53.969Z</time></trkpt><trkpt lat="42.8623182" lon="2.3289653"><ele>828.0</ele><time>2026-04-11T10:10:54.97Z</time></trkpt><trkpt lat="42.8623348" lon="2.3288433"><ele>827.5</ele><time>2026-04-11T10:10:55.969Z</time></trkpt><trkpt lat="42.8623545" lon="2.3287289"><ele>827.0</ele><time>2026-04-11T10:10:56.97Z</time></trkpt><trkpt lat="42.8623788" lon="2.3286232"><ele>826.5</ele><time>2026-04-11T10:10:57.97Z</time></trkpt><trkpt lat="42.8624003" lon="2.3285264"><ele>826.0</ele><time>2026-04-11T10:10:58.969Z</time></trkpt><trkpt lat="42.8624233" lon="2.3284256"><ele>825.5</ele><time>2026-04-11T10:10:59.969Z</time></trkpt><trkpt lat="42.8624479" lon="2.328322"><ele>825.0</ele><time>2026-04-11T10:11:00.972Z</time></trkpt><trkpt lat="42.8624725" lon="2.3282182"><ele>825.0</ele><time>2026-04-11T10:11:01.968Z</time></trkpt><trkpt lat="42.8624964" lon="2.3281216"><ele>825.0</ele><time>2026-04-11T10:11:02.97Z</time></trkpt><trkpt lat="42.8625187" lon="2.328041"><ele>825.0</ele><time>2026-04-11T10:11:03.969Z</time></trkpt><trkpt lat="42.8625727" lon="2.3279475"><ele>825.0</ele><time>2026-04-11T10:11:05.968Z</time></trkpt><trkpt lat="42.8626389" lon="2.3278516"><ele>825.0</ele><time>2026-04-11T10:11:07.97Z</time></trkpt><trkpt lat="42.8627151" lon="2.3277305"><ele>825.0</ele><time>2026-04-11T10:11:09.968Z</time></trkpt><trkpt lat="42.8627581" lon="2.3276543"><ele>824.3333333333334</ele><time>2026-04-11T10:11:10.968Z</time></trkpt><trkpt lat="42.8628018" lon="2.3275721"><ele>823.6666666666667</ele><time>2026-04-11T10:11:11.968Z</time></trkpt><trkpt lat="42.8628455" lon="2.327475"><ele>823.0</ele><time>2026-04-11T10:11:12.969Z</time></trkpt><trkpt lat="42.862889" lon="2.3273719"><ele>822.3333333333334</ele><time>2026-04-11T10:11:13.968Z</time></trkpt><trkpt lat="42.8629323" lon="2.3272671"><ele>821.6666666666667</ele><time>2026-04-11T10:11:14.968Z</time></trkpt><trkpt lat="42.8629756" lon="2.3271599"><ele>821.0</ele><time>2026-04-11T10:11:15.969Z</time></trkpt><trkpt lat="42.8630139" lon="2.3270576"><ele>821.0000000000001</ele><time>2026-04-11T10:11:16.969Z</time></trkpt><trkpt lat="42.8630571" lon="2.3269643"><ele>821.0</ele><time>2026-04-11T10:11:17.968Z</time></trkpt><trkpt lat="42.8630944" lon="2.3268732"><ele>821.0</ele><time>2026-04-11T10:11:18.969Z</time></trkpt><trkpt lat="42.8631336" lon="2.3267761"><ele>821.0</ele><time>2026-04-11T10:11:19.969Z</time></trkpt><trkpt lat="42.8631733" lon="2.3266763"><ele>821.0000000000001</ele><time>2026-04-11T10:11:20.969Z</time></trkpt><trkpt lat="42.8632109" lon="2.3265734"><ele>821.0</ele><time>2026-04-11T10:11:21.971Z</time></trkpt><trkpt lat="42.8632486" lon="2.3264613"><ele>822.3333333333334</ele><time>2026-04-11T10:11:22.968Z</time></trkpt><trkpt lat="42.8632828" lon="2.3263465"><ele>823.6666666666667</ele><time>2026-04-11T10:11:23.969Z</time></trkpt><trkpt lat="42.8633211" lon="2.3262313"><ele>825.0</ele><time>2026-04-11T10:11:24.969Z</time></trkpt><trkpt lat="42.8633559" lon="2.3261188"><ele>826.3333333333333</ele><time>2026-04-11T10:11:25.968Z</time></trkpt><trkpt lat="42.8633855" lon="2.3260042"><ele>827.6666666666666</ele><time>2026-04-11T10:11:26.97Z</time></trkpt><trkpt lat="42.8634074" lon="2.3258919"><ele>829.0</ele><time>2026-04-11T10:11:27.969Z</time></trkpt><trkpt lat="42.8634332" lon="2.3257841"><ele>821.9999999999999</ele><time>2026-04-11T10:11:28.969Z</time></trkpt><trkpt lat="42.8634577" lon="2.3256735"><ele>815.0</ele><time>2026-04-11T10:11:29.968Z</time></trkpt><trkpt lat="42.8634646" lon="2.325564"><ele>808.0</ele><time>2026-04-11T10:11:30.969Z</time></trkpt><trkpt lat="42.86348" lon="2.3254475"><ele>801.0</ele><time>2026-04-11T10:11:31.968Z</time></trkpt><trkpt lat="42.863497" lon="2.325329"><ele>793.9999999999999</ele><time>2026-04-11T10:11:32.971Z</time></trkpt><trkpt lat="42.8635133" lon="2.325209"><ele>787.0</ele><time>2026-04-11T10:11:33.969Z</time></trkpt><trkpt lat="42.8635286" lon="2.3250914"><ele>786.6</ele><time>2026-04-11T10:11:34.968Z</time></trkpt><trkpt lat="42.8635537" lon="2.3249776"><ele>786.2</ele><time>2026-04-11T10:11:35.969Z</time></trkpt><trkpt lat="42.8635805" lon="2.3248693"><ele>785.8</ele><time>2026-04-11T10:11:36.969Z</time></trkpt><trkpt lat="42.8636107" lon="2.3247523"><ele>785.4</ele><time>2026-04-11T10:11:37.968Z</time></trkpt><trkpt lat="42.8636492" lon="2.3246341"><ele>785.0</ele><time>2026-04-11T10:11:38.969Z</time></trkpt><trkpt lat="42.8636845" lon="2.3245154"><ele>785.0</ele><time>2026-04-11T10:11:39.968Z</time></trkpt><trkpt lat="42.863713" lon="2.3243913"><ele>785.0</ele><time>2026-04-11T10:11:40.968Z</time></trkpt><trkpt lat="42.8637449" lon="2.3242662"><ele>785.0</ele><time>2026-04-11T10:11:41.968Z</time></trkpt><trkpt lat="42.8637714" lon="2.3241433"><ele>785.0</ele><time>2026-04-11T10:11:42.968Z</time></trkpt><trkpt lat="42.8637967" lon="2.3240225"><ele>785.0</ele><time>2026-04-11T10:11:43.969Z</time></trkpt><trkpt lat="42.863829" lon="2.3239077"><ele>785.6666666666667</ele><time>2026-04-11T10:11:44.97Z</time></trkpt><trkpt lat="42.8638572" lon="2.3237918"><ele>786.3333333333334</ele><time>2026-04-11T10:11:45.969Z</time></trkpt><trkpt lat="42.8638803" lon="2.323678"><ele>787.0</ele><time>2026-04-11T10:11:46.968Z</time></trkpt><trkpt lat="42.8639142" lon="2.3235661"><ele>787.6666666666667</ele><time>2026-04-11T10:11:47.969Z</time></trkpt><trkpt lat="42.8639415" lon="2.3234599"><ele>788.3333333333334</ele><time>2026-04-11T10:11:48.969Z</time></trkpt><trkpt lat="42.8639615" lon="2.323355"><ele>789.0</ele><time>2026-04-11T10:11:49.968Z</time></trkpt><trkpt lat="42.8639759" lon="2.3232479"><ele>789.0</ele><time>2026-04-11T10:11:50.97Z</time></trkpt><trkpt lat="42.8639797" lon="2.3231375"><ele>789.0</ele><time>2026-04-11T10:11:51.969Z</time></trkpt><trkpt lat="42.8639796" lon="2.3230218"><ele>789.0</ele><time>2026-04-11T10:11:52.971Z</time></trkpt><trkpt lat="42.8639778" lon="2.3229001"><ele>789.0</ele><time>2026-04-11T10:11:53.969Z</time></trkpt><trkpt lat="42.8639733" lon="2.3227769"><ele>789.0</ele><time>2026-04-11T10:11:54.969Z</time></trkpt><trkpt lat="42.8639681" lon="2.3226575"><ele>789.0</ele><time>2026-04-11T10:11:55.969Z</time></trkpt><trkpt lat="42.8639637" lon="2.3225387"><ele>789.0</ele><time>2026-04-11T10:11:56.969Z</time></trkpt><trkpt lat="42.8639627" lon="2.3224185"><ele>789.0</ele><time>2026-04-11T10:11:57.969Z</time></trkpt><trkpt lat="42.863961" lon="2.3222942"><ele>789.0</ele><time>2026-04-11T10:11:58.969Z</time></trkpt><trkpt lat="42.8639655" lon="2.3221754"><ele>789.0</ele><time>2026-04-11T10:11:59.968Z</time></trkpt><trkpt lat="42.8639758" lon="2.3220591"><ele>789.0</ele><time>2026-04-11T10:12:00.969Z</time></trkpt><trkpt lat="42.8639825" lon="2.3219456"><ele>789.0</ele><time>2026-04-11T10:12:01.969Z</time></trkpt><trkpt lat="42.8639804" lon="2.3218324"><ele>789.0</ele><time>2026-04-11T10:12:02.969Z</time></trkpt><trkpt lat="42.8639741" lon="2.3217184"><ele>789.0</ele><time>2026-04-11T10:12:03.969Z</time></trkpt><trkpt lat="42.8639676" lon="2.3216042"><ele>789.0</ele><time>2026-04-11T10:12:04.968Z</time></trkpt><trkpt lat="42.8639683" lon="2.3214916"><ele>789.0</ele><time>2026-04-11T10:12:05.968Z</time></trkpt><trkpt lat="42.8639786" lon="2.3213742"><ele>789.0</ele><time>2026-04-11T10:12:06.969Z</time></trkpt><trkpt lat="42.86399" lon="2.3212555"><ele>789.0</ele><time>2026-04-11T10:12:07.968Z</time></trkpt><trkpt lat="42.8640089" lon="2.3211315"><ele>789.5</ele><time>2026-04-11T10:12:08.969Z</time></trkpt><trkpt lat="42.8640238" lon="2.3210056"><ele>790.0</ele><time>2026-04-11T10:12:09.97Z</time></trkpt><trkpt lat="42.8640364" lon="2.3208823"><ele>790.5</ele><time>2026-04-11T10:12:10.968Z</time></trkpt><trkpt lat="42.8640441" lon="2.3207617"><ele>791.0</ele><time>2026-04-11T10:12:11.968Z</time></trkpt><trkpt lat="42.864047" lon="2.3206428"><ele>791.5</ele><time>2026-04-11T10:12:12.968Z</time></trkpt><trkpt lat="42.8640445" lon="2.3205229"><ele>792.0</ele><time>2026-04-11T10:12:13.969Z</time></trkpt><trkpt lat="42.8640427" lon="2.3203995"><ele>792.0</ele><time>2026-04-11T10:12:14.968Z</time></trkpt><trkpt lat="42.8640396" lon="2.3202731"><ele>792.0</ele><time>2026-04-11T10:12:15.969Z</time></trkpt><trkpt lat="42.8640377" lon="2.3201514"><ele>792.0</ele><time>2026-04-11T10:12:16.968Z</time></trkpt><trkpt lat="42.8640236" lon="2.320028"><ele>792.0</ele><time>2026-04-11T10:12:17.969Z</time></trkpt><trkpt lat="42.8640175" lon="2.3199059"><ele>792.0</ele><time>2026-04-11T10:12:18.969Z</time></trkpt><trkpt lat="42.8640009" lon="2.3197855"><ele>791.1666666666666</ele><time>2026-04-11T10:12:19.969Z</time></trkpt><trkpt lat="42.8639852" lon="2.319668"><ele>790.3333333333333</ele><time>2026-04-11T10:12:20.97Z</time></trkpt><trkpt lat="42.863973" lon="2.3195504"><ele>789.5</ele><time>2026-04-11T10:12:21.97Z</time></trkpt><trkpt lat="42.8639653" lon="2.3194369"><ele>788.6666666666666</ele><time>2026-04-11T10:12:22.968Z</time></trkpt><trkpt lat="42.863963" lon="2.3193228"><ele>787.8333333333333</ele><time>2026-04-11T10:12:23.969Z</time></trkpt><trkpt lat="42.863956" lon="2.3192065"><ele>787.0</ele><time>2026-04-11T10:12:24.968Z</time></trkpt><trkpt lat="42.8639449" lon="2.3190912"><ele>787.0</ele><time>2026-04-11T10:12:25.969Z</time></trkpt><trkpt lat="42.8639373" lon="2.3189705"><ele>787.0</ele><time>2026-04-11T10:12:26.97Z</time></trkpt><trkpt lat="42.8639216" lon="2.3188474"><ele>787.0</ele><time>2026-04-11T10:12:27.968Z</time></trkpt><trkpt lat="42.8639138" lon="2.318722"><ele>787.0</ele><time>2026-04-11T10:12:28.969Z</time></trkpt><trkpt lat="42.8639228" lon="2.3185939"><ele>787.0</ele><time>2026-04-11T10:12:29.969Z</time></trkpt><trkpt lat="42.8639436" lon="2.3184637"><ele>786.6666666666666</ele><time>2026-04-11T10:12:30.969Z</time></trkpt><trkpt lat="42.8639698" lon="2.3183414"><ele>786.3333333333333</ele><time>2026-04-11T10:12:31.968Z</time></trkpt><trkpt lat="42.8639969" lon="2.3182231"><ele>786.0</ele><time>2026-04-11T10:12:32.969Z</time></trkpt><trkpt lat="42.8640245" lon="2.318109"><ele>785.6666666666667</ele><time>2026-04-11T10:12:33.971Z</time></trkpt><trkpt lat="42.8640479" lon="2.3179958"><ele>785.3333333333334</ele><time>2026-04-11T10:12:34.968Z</time></trkpt><trkpt lat="42.8640585" lon="2.3178827"><ele>785.0</ele><time>2026-04-11T10:12:35.969Z</time></trkpt><trkpt lat="42.8640599" lon="2.3177694"><ele>785.0</ele><time>2026-04-11T10:12:36.969Z</time></trkpt><trkpt lat="42.8640613" lon="2.3176561"><ele>785.0</ele><time>2026-04-11T10:12:37.969Z</time></trkpt><trkpt lat="42.8640583" lon="2.3175339"><ele>785.0</ele><time>2026-04-11T10:12:38.97Z</time></trkpt><trkpt lat="42.86405" lon="2.3174059"><ele>785.0</ele><time>2026-04-11T10:12:39.968Z</time></trkpt><trkpt lat="42.86404" lon="2.317275"><ele>785.0</ele><time>2026-04-11T10:12:40.969Z</time></trkpt><trkpt lat="42.8640267" lon="2.3171407"><ele>786.2</ele><time>2026-04-11T10:12:41.969Z</time></trkpt><trkpt lat="42.8640159" lon="2.3170113"><ele>787.4</ele><time>2026-04-11T10:12:42.969Z</time></trkpt><trkpt lat="42.8640117" lon="2.3168883"><ele>788.5999999999999</ele><time>2026-04-11T10:12:43.969Z</time></trkpt><trkpt lat="42.8640143" lon="2.316768"><ele>789.8</ele><time>2026-04-11T10:12:44.969Z</time></trkpt><trkpt lat="42.864025" lon="2.3166476"><ele>791.0</ele><time>2026-04-11T10:12:45.969Z</time></trkpt><trkpt lat="42.8640504" lon="2.3165291"><ele>791.0000000000001</ele><time>2026-04-11T10:12:46.969Z</time></trkpt><trkpt lat="42.8640855" lon="2.3164096"><ele>791.0</ele><time>2026-04-11T10:12:47.968Z</time></trkpt><trkpt lat="42.8641241" lon="2.3163003"><ele>791.0</ele><time>2026-04-11T10:12:48.969Z</time></trkpt><trkpt lat="42.8641613" lon="2.3161969"><ele>791.0</ele><time>2026-04-11T10:12:49.972Z</time></trkpt><trkpt lat="42.8641909" lon="2.3161043"><ele>791.0000000000001</ele><time>2026-04-11T10:12:50.97Z</time></trkpt><trkpt lat="42.8642123" lon="2.3160045"><ele>791.0</ele><time>2026-04-11T10:12:51.97Z</time></trkpt><trkpt lat="42.8642379" lon="2.3159072"><ele>794.8</ele><time>2026-04-11T10:12:52.969Z</time></trkpt><trkpt lat="42.8642712" lon="2.3158137"><ele>798.5999999999999</ele><time>2026-04-11T10:12:53.969Z</time></trkpt><trkpt lat="42.8643255" lon="2.3157191"><ele>802.4</ele><time>2026-04-11T10:12:54.969Z</time></trkpt><trkpt lat="42.8643924" lon="2.3156273"><ele>806.2</ele><time>2026-04-11T10:12:55.968Z</time></trkpt><trkpt lat="42.8644592" lon="2.3155324"><ele>810.0</ele><time>2026-04-11T10:12:56.971Z</time></trkpt><trkpt lat="42.8645306" lon="2.3154248"><ele>802.2</ele><time>2026-04-11T10:12:57.968Z</time></trkpt><trkpt lat="42.8645957" lon="2.3153085"><ele>794.4</ele><time>2026-04-11T10:12:58.967Z</time></trkpt><trkpt lat="42.8646655" lon="2.3151844"><ele>786.5999999999999</ele><time>2026-04-11T10:12:59.968Z</time></trkpt><trkpt lat="42.8647333" lon="2.3150626"><ele>778.8</ele><time>2026-04-11T10:13:00.968Z</time></trkpt><trkpt lat="42.8647982" lon="2.3149442"><ele>771.0</ele><time>2026-04-11T10:13:01.968Z</time></trkpt><trkpt lat="42.8648645" lon="2.3148267"><ele>765.8</ele><time>2026-04-11T10:13:02.968Z</time></trkpt><trkpt lat="42.8649286" lon="2.314717"><ele>760.5999999999999</ele><time>2026-04-11T10:13:03.968Z</time></trkpt><trkpt lat="42.8649933" lon="2.3146037"><ele>755.4</ele><time>2026-04-11T10:13:04.967Z</time></trkpt><trkpt lat="42.8650617" lon="2.3144849"><ele>750.2</ele><time>2026-04-11T10:13:05.968Z</time></trkpt><trkpt lat="42.86513" lon="2.3143651"><ele>745.0</ele><time>2026-04-11T10:13:06.968Z</time></trkpt><trkpt lat="42.8651972" lon="2.3142509"><ele>745.0</ele><time>2026-04-11T10:13:07.968Z</time></trkpt><trkpt lat="42.8652654" lon="2.3141331"><ele>745.0</ele><time>2026-04-11T10:13:08.968Z</time></trkpt><trkpt lat="42.865333" lon="2.3140168"><ele>745.0</ele><time>2026-04-11T10:13:09.968Z</time></trkpt><trkpt lat="42.8653954" lon="2.3139028"><ele>745.0</ele><time>2026-04-11T10:13:10.968Z</time></trkpt><trkpt lat="42.865453" lon="2.3137963"><ele>745.0</ele><time>2026-04-11T10:13:11.968Z</time></trkpt><trkpt lat="42.8655095" lon="2.3136903"><ele>749.0</ele><time>2026-04-11T10:13:12.968Z</time></trkpt><trkpt lat="42.8655597" lon="2.3135765"><ele>753.0</ele><time>2026-04-11T10:13:13.968Z</time></trkpt><trkpt lat="42.8656079" lon="2.3134595"><ele>757.0</ele><time>2026-04-11T10:13:14.968Z</time></trkpt><trkpt lat="42.8656555" lon="2.3133274"><ele>761.0</ele><time>2026-04-11T10:13:15.967Z</time></trkpt><trkpt lat="42.8657009" lon="2.313189"><ele>765.0</ele><time>2026-04-11T10:13:16.967Z</time></trkpt><trkpt lat="42.8657408" lon="2.3130468"><ele>768.5</ele><time>2026-04-11T10:13:17.968Z</time></trkpt><trkpt lat="42.865778" lon="2.3129017"><ele>772.0</ele><time>2026-04-11T10:13:18.969Z</time></trkpt><trkpt lat="42.865819" lon="2.3127594"><ele>775.5</ele><time>2026-04-11T10:13:19.968Z</time></trkpt><trkpt lat="42.8658615" lon="2.3126172"><ele>779.0</ele><time>2026-04-11T10:13:20.968Z</time></trkpt><trkpt lat="42.8658985" lon="2.3124687"><ele>779.0</ele><time>2026-04-11T10:13:21.97Z</time></trkpt><trkpt lat="42.8659296" lon="2.3123248"><ele>779.0</ele><time>2026-04-11T10:13:22.967Z</time></trkpt><trkpt lat="42.8659589" lon="2.3121885"><ele>779.0</ele><time>2026-04-11T10:13:23.968Z</time></trkpt><trkpt lat="42.8659881" lon="2.3120595"><ele>779.0</ele><time>2026-04-11T10:13:24.968Z</time></trkpt><trkpt lat="42.8660218" lon="2.311928"><ele>779.0</ele><time>2026-04-11T10:13:25.968Z</time></trkpt><trkpt lat="42.8660529" lon="2.3117962"><ele>773.4000000000001</ele><time>2026-04-11T10:13:26.968Z</time></trkpt><trkpt lat="42.8660783" lon="2.3116656"><ele>767.8</ele><time>2026-04-11T10:13:27.968Z</time></trkpt><trkpt lat="42.8661062" lon="2.31154"><ele>762.2</ele><time>2026-04-11T10:13:28.967Z</time></trkpt><trkpt lat="42.866141" lon="2.3114198"><ele>756.5999999999999</ele><time>2026-04-11T10:13:29.968Z</time></trkpt><trkpt lat="42.8661889" lon="2.3112982"><ele>751.0</ele><time>2026-04-11T10:13:30.969Z</time></trkpt><trkpt lat="42.8662459" lon="2.3111758"><ele>751.0</ele><time>2026-04-11T10:13:31.968Z</time></trkpt><trkpt lat="42.8663054" lon="2.3110552"><ele>751.0</ele><time>2026-04-11T10:13:32.968Z</time></trkpt><trkpt lat="42.8663646" lon="2.3109312"><ele>751.0</ele><time>2026-04-11T10:13:33.968Z</time></trkpt><trkpt lat="42.8664224" lon="2.3108061"><ele>751.0</ele><time>2026-04-11T10:13:34.968Z</time></trkpt><trkpt lat="42.8664822" lon="2.3106862"><ele>751.0</ele><time>2026-04-11T10:13:35.968Z</time></trkpt><trkpt lat="42.8665348" lon="2.310569"><ele>753.3333333333334</ele><time>2026-04-11T10:13:36.968Z</time></trkpt><trkpt lat="42.8665788" lon="2.3104568"><ele>755.6666666666667</ele><time>2026-04-11T10:13:37.968Z</time></trkpt><trkpt lat="42.8666104" lon="2.3103515"><ele>758.0</ele><time>2026-04-11T10:13:38.969Z</time></trkpt><trkpt lat="42.8666339" lon="2.3102463"><ele>760.3333333333334</ele><time>2026-04-11T10:13:39.968Z</time></trkpt><trkpt lat="42.8666519" lon="2.310135"><ele>762.6666666666666</ele><time>2026-04-11T10:13:40.968Z</time></trkpt><trkpt lat="42.8666664" lon="2.3100176"><ele>765.0</ele><time>2026-04-11T10:13:41.97Z</time></trkpt><trkpt lat="42.8666857" lon="2.3098951"><ele>765.0</ele><time>2026-04-11T10:13:42.971Z</time></trkpt><trkpt lat="42.8667188" lon="2.3097779"><ele>765.0</ele><time>2026-04-11T10:13:43.969Z</time></trkpt><trkpt lat="42.866759" lon="2.3096682"><ele>765.0</ele><time>2026-04-11T10:13:44.969Z</time></trkpt><trkpt lat="42.866808" lon="2.309572"><ele>765.0</ele><time>2026-04-11T10:13:45.969Z</time></trkpt><trkpt lat="42.8668561" lon="2.3094865"><ele>765.0</ele><time>2026-04-11T10:13:46.969Z</time></trkpt><trkpt lat="42.8668988" lon="2.309406"><ele>765.0</ele><time>2026-04-11T10:13:47.97Z</time></trkpt><trkpt lat="42.866948" lon="2.3093242"><ele>762.3333333333334</ele><time>2026-04-11T10:13:48.969Z</time></trkpt><trkpt lat="42.8669798" lon="2.3092434"><ele>759.6666666666666</ele><time>2026-04-11T10:13:49.969Z</time></trkpt><trkpt lat="42.8670058" lon="2.3091479"><ele>757.0</ele><time>2026-04-11T10:13:50.97Z</time></trkpt><trkpt lat="42.8670255" lon="2.3090358"><ele>754.3333333333333</ele><time>2026-04-11T10:13:51.97Z</time></trkpt><trkpt lat="42.8670469" lon="2.3089166"><ele>751.6666666666666</ele><time>2026-04-11T10:13:52.969Z</time></trkpt><trkpt lat="42.8670764" lon="2.3087993"><ele>749.0</ele><time>2026-04-11T10:13:53.968Z</time></trkpt><trkpt lat="42.8671154" lon="2.3086926"><ele>749.0</ele><time>2026-04-11T10:13:54.968Z</time></trkpt><trkpt lat="42.8671639" lon="2.3086016"><ele>749.0</ele><time>2026-04-11T10:13:55.969Z</time></trkpt><trkpt lat="42.8672231" lon="2.3085256"><ele>749.0</ele><time>2026-04-11T10:13:56.969Z</time></trkpt><trkpt lat="42.8672879" lon="2.3084593"><ele>749.0</ele><time>2026-04-11T10:13:57.968Z</time></trkpt><trkpt lat="42.8673533" lon="2.3084022"><ele>749.0</ele><time>2026-04-11T10:13:58.967Z</time></trkpt><trkpt lat="42.867418" lon="2.3083447"><ele>749.0</ele><time>2026-04-11T10:13:59.968Z</time></trkpt><trkpt lat="42.8674795" lon="2.3082815"><ele>749.0</ele><time>2026-04-11T10:14:00.968Z</time></trkpt><trkpt lat="42.8675357" lon="2.3082055"><ele>749.0</ele><time>2026-04-11T10:14:01.968Z</time></trkpt><trkpt lat="42.8675773" lon="2.3081176"><ele>749.0</ele><time>2026-04-11T10:14:02.969Z</time></trkpt><trkpt lat="42.8676107" lon="2.3080187"><ele>749.0</ele><time>2026-04-11T10:14:03.968Z</time></trkpt><trkpt lat="42.8676411" lon="2.3079147"><ele>749.0</ele><time>2026-04-11T10:14:04.968Z</time></trkpt><trkpt lat="42.8676703" lon="2.3078034"><ele>749.0</ele><time>2026-04-11T10:14:05.969Z</time></trkpt><trkpt lat="42.8676991" lon="2.307688"><ele>743.8333333333333</ele><time>2026-04-11T10:14:06.969Z</time></trkpt><trkpt lat="42.8677221" lon="2.3075684"><ele>738.6666666666666</ele><time>2026-04-11T10:14:07.968Z</time></trkpt><trkpt lat="42.8677422" lon="2.3074487"><ele>733.5</ele><time>2026-04-11T10:14:08.968Z</time></trkpt><trkpt lat="42.8677665" lon="2.3073325"><ele>728.3333333333334</ele><time>2026-04-11T10:14:09.968Z</time></trkpt><trkpt lat="42.8677902" lon="2.3072224"><ele>723.1666666666667</ele><time>2026-04-11T10:14:10.967Z</time></trkpt><trkpt lat="42.8678132" lon="2.3071128"><ele>718.0</ele><time>2026-04-11T10:14:11.968Z</time></trkpt><trkpt lat="42.8678289" lon="2.307002"><ele>718.0</ele><time>2026-04-11T10:14:12.968Z</time></trkpt><trkpt lat="42.8678608" lon="2.3068832"><ele>718.0</ele><time>2026-04-11T10:14:13.968Z</time></trkpt><trkpt lat="42.8678846" lon="2.306761"><ele>718.0</ele><time>2026-04-11T10:14:14.968Z</time></trkpt><trkpt lat="42.8679019" lon="2.3066356"><ele>718.0</ele><time>2026-04-11T10:14:15.971Z</time></trkpt><trkpt lat="42.8679195" lon="2.3065171"><ele>718.0</ele><time>2026-04-11T10:14:16.968Z</time></trkpt><trkpt lat="42.8679387" lon="2.3064029"><ele>719.5</ele><time>2026-04-11T10:14:17.969Z</time></trkpt><trkpt lat="42.8679482" lon="2.3062858"><ele>721.0</ele><time>2026-04-11T10:14:18.968Z</time></trkpt><trkpt lat="42.8679594" lon="2.3061715"><ele>722.5</ele><time>2026-04-11T10:14:19.968Z</time></trkpt><trkpt lat="42.8679692" lon="2.3060602"><ele>724.0</ele><time>2026-04-11T10:14:20.969Z</time></trkpt><trkpt lat="42.8679836" lon="2.3059506"><ele>725.5</ele><time>2026-04-11T10:14:21.969Z</time></trkpt><trkpt lat="42.868019" lon="2.3058359"><ele>727.0</ele><time>2026-04-11T10:14:22.969Z</time></trkpt><trkpt lat="42.8680648" lon="2.3057131"><ele>727.0</ele><time>2026-04-11T10:14:23.97Z</time></trkpt><trkpt lat="42.8681249" lon="2.3055902"><ele>727.0</ele><time>2026-04-11T10:14:24.968Z</time></trkpt><trkpt lat="42.868194" lon="2.3054817"><ele>727.0</ele><time>2026-04-11T10:14:25.968Z</time></trkpt><trkpt lat="42.8682514" lon="2.3053952"><ele>727.0</ele><time>2026-04-11T10:14:26.969Z</time></trkpt><trkpt lat="42.868307" lon="2.3053253"><ele>727.0</ele><time>2026-04-11T10:14:27.968Z</time></trkpt><trkpt lat="42.868362" lon="2.3052701"><ele>727.0</ele><time>2026-04-11T10:14:28.969Z</time></trkpt><trkpt lat="42.8684634" lon="2.3052629"><ele>729.0</ele><time>2026-04-11T10:14:30.968Z</time></trkpt><trkpt lat="42.8685472" lon="2.3052273"><ele>731.0</ele><time>2026-04-11T10:14:31.968Z</time></trkpt><trkpt lat="42.8686285" lon="2.3051954"><ele>733.0</ele><time>2026-04-11T10:14:32.968Z</time></trkpt><trkpt lat="42.8687132" lon="2.3051654"><ele>735.0</ele><time>2026-04-11T10:14:33.968Z</time></trkpt><trkpt lat="42.8688046" lon="2.3051425"><ele>737.0</ele><time>2026-04-11T10:14:34.968Z</time></trkpt><trkpt lat="42.8688903" lon="2.3051212"><ele>739.0</ele><time>2026-04-11T10:14:35.968Z</time></trkpt><trkpt lat="42.8689743" lon="2.3051155"><ele>739.0</ele><time>2026-04-11T10:14:36.968Z</time></trkpt><trkpt lat="42.8690565" lon="2.3051187"><ele>739.0</ele><time>2026-04-11T10:14:37.968Z</time></trkpt><trkpt lat="42.8691302" lon="2.3051438"><ele>739.0</ele><time>2026-04-11T10:14:38.968Z</time></trkpt><trkpt lat="42.8692051" lon="2.305169"><ele>739.0</ele><time>2026-04-11T10:14:39.968Z</time></trkpt><trkpt lat="42.8692904" lon="2.3051953"><ele>739.0</ele><time>2026-04-11T10:14:40.968Z</time></trkpt><trkpt lat="42.869369" lon="2.3051932"><ele>739.0</ele><time>2026-04-11T10:14:41.968Z</time></trkpt><trkpt lat="42.8694316" lon="2.3051539"><ele>737.5</ele><time>2026-04-11T10:14:42.968Z</time></trkpt><trkpt lat="42.8694838" lon="2.3051024"><ele>736.0</ele><time>2026-04-11T10:14:43.968Z</time></trkpt><trkpt lat="42.8695334" lon="2.3050258"><ele>734.5</ele><time>2026-04-11T10:14:44.968Z</time></trkpt><trkpt lat="42.8695804" lon="2.3049297"><ele>733.0</ele><time>2026-04-11T10:14:45.968Z</time></trkpt><trkpt lat="42.8696221" lon="2.3048215"><ele>731.5</ele><time>2026-04-11T10:14:46.968Z</time></trkpt><trkpt lat="42.8696564" lon="2.304711"><ele>730.0</ele><time>2026-04-11T10:14:47.968Z</time></trkpt><trkpt lat="42.869692" lon="2.3046089"><ele>730.0</ele><time>2026-04-11T10:14:48.968Z</time></trkpt><trkpt lat="42.8697327" lon="2.3045158"><ele>730.0</ele><time>2026-04-11T10:14:49.968Z</time></trkpt><trkpt lat="42.8697725" lon="2.3044307"><ele>730.0</ele><time>2026-04-11T10:14:50.968Z</time></trkpt><trkpt lat="42.869803" lon="2.3043524"><ele>730.0</ele><time>2026-04-11T10:14:51.968Z</time></trkpt><trkpt lat="42.8698507" lon="2.3041921"><ele>730.0</ele><time>2026-04-11T10:14:53.968Z</time></trkpt><trkpt lat="42.8698785" lon="2.3040509"><ele>730.0</ele><time>2026-04-11T10:14:55.968Z</time></trkpt><trkpt lat="42.8699208" lon="2.3039634"><ele>730.0</ele><time>2026-04-11T10:14:57.968Z</time></trkpt><trkpt lat="42.8699864" lon="2.3039173"><ele>730.0</ele><time>2026-04-11T10:14:59.968Z</time></trkpt><trkpt lat="42.8700432" lon="2.3038475"><ele>730.0</ele><time>2026-04-11T10:15:01.969Z</time></trkpt><trkpt lat="42.8701248" lon="2.3037338"><ele>730.0</ele><time>2026-04-11T10:15:03.969Z</time></trkpt><trkpt lat="42.8701796" lon="2.3036611"><ele>730.0</ele><time>2026-04-11T10:15:04.968Z</time></trkpt><trkpt lat="42.870237" lon="2.3035789"><ele>729.1428571428572</ele><time>2026-04-11T10:15:05.968Z</time></trkpt><trkpt lat="42.8702894" lon="2.3035035"><ele>728.2857142857143</ele><time>2026-04-11T10:15:06.968Z</time></trkpt><trkpt lat="42.870336" lon="2.3034323"><ele>727.4285714285714</ele><time>2026-04-11T10:15:07.968Z</time></trkpt><trkpt lat="42.8703692" lon="2.3033555"><ele>726.5714285714287</ele><time>2026-04-11T10:15:08.968Z</time></trkpt><trkpt lat="42.8703947" lon="2.3032718"><ele>725.7142857142857</ele><time>2026-04-11T10:15:09.969Z</time></trkpt><trkpt lat="42.8704292" lon="2.3031861"><ele>724.8571428571429</ele><time>2026-04-11T10:15:10.968Z</time></trkpt><trkpt lat="42.8704624" lon="2.303098"><ele>724.0</ele><time>2026-04-11T10:15:11.968Z</time></trkpt><trkpt lat="42.8704886" lon="2.3030119"><ele>724.0</ele><time>2026-04-11T10:15:12.969Z</time></trkpt><trkpt lat="42.8705114" lon="2.302924"><ele>724.0</ele><time>2026-04-11T10:15:13.968Z</time></trkpt><trkpt lat="42.8705296" lon="2.3028293"><ele>724.0</ele><time>2026-04-11T10:15:14.969Z</time></trkpt><trkpt lat="42.8705557" lon="2.3026681"><ele>724.0</ele><time>2026-04-11T10:15:16.968Z</time></trkpt><trkpt lat="42.8706129" lon="2.3025262"><ele>724.0</ele><time>2026-04-11T10:15:18.968Z</time></trkpt><trkpt lat="42.8706775" lon="2.3023671"><ele>724.0</ele><time>2026-04-11T10:15:20.968Z</time></trkpt><trkpt lat="42.8707092" lon="2.3022729"><ele>724.0</ele><time>2026-04-11T10:15:21.968Z</time></trkpt><trkpt lat="42.8707421" lon="2.3021853"><ele>724.0</ele><time>2026-04-11T10:15:22.968Z</time></trkpt><trkpt lat="42.8707841" lon="2.302097"><ele>724.0</ele><time>2026-04-11T10:15:23.968Z</time></trkpt><trkpt lat="42.8708358" lon="2.3020176"><ele>724.0</ele><time>2026-04-11T10:15:24.968Z</time></trkpt><trkpt lat="42.8709013" lon="2.3019241"><ele>724.0</ele><time>2026-04-11T10:15:25.968Z</time></trkpt><trkpt lat="42.871006" lon="2.3018375"><ele>723.4000000000001</ele><time>2026-04-11T10:15:26.968Z</time></trkpt><trkpt lat="42.8711006" lon="2.3017337"><ele>722.8</ele><time>2026-04-11T10:15:27.969Z</time></trkpt><trkpt lat="42.871185" lon="2.30163"><ele>722.2</ele><time>2026-04-11T10:15:28.968Z</time></trkpt><trkpt lat="42.871259" lon="2.3015371"><ele>721.5999999999999</ele><time>2026-04-11T10:15:29.968Z</time></trkpt><trkpt lat="42.8713329" lon="2.3014468"><ele>721.0</ele><time>2026-04-11T10:15:30.968Z</time></trkpt><trkpt lat="42.8714073" lon="2.3013494"><ele>721.0</ele><time>2026-04-11T10:15:31.969Z</time></trkpt><trkpt lat="42.8714806" lon="2.3012493"><ele>721.0</ele><time>2026-04-11T10:15:32.969Z</time></trkpt><trkpt lat="42.8715479" lon="2.3011356"><ele>721.0</ele><time>2026-04-11T10:15:33.969Z</time></trkpt><trkpt lat="42.8716052" lon="2.3010186"><ele>721.0</ele><time>2026-04-11T10:15:34.968Z</time></trkpt><trkpt lat="42.8716485" lon="2.3008966"><ele>721.0</ele><time>2026-04-11T10:15:35.969Z</time></trkpt><trkpt lat="42.8716947" lon="2.3007774"><ele>721.0</ele><time>2026-04-11T10:15:36.97Z</time></trkpt><trkpt lat="42.8717508" lon="2.3006599"><ele>721.0</ele><time>2026-04-11T10:15:37.968Z</time></trkpt><trkpt lat="42.8718152" lon="2.300539"><ele>721.0</ele><time>2026-04-11T10:15:38.969Z</time></trkpt><trkpt lat="42.8718875" lon="2.3004186"><ele>721.0</ele><time>2026-04-11T10:15:39.969Z</time></trkpt><trkpt lat="42.8719469" lon="2.3003014"><ele>721.0</ele><time>2026-04-11T10:15:40.968Z</time></trkpt><trkpt lat="42.8720033" lon="2.3001941"><ele>721.4</ele><time>2026-04-11T10:15:41.968Z</time></trkpt><trkpt lat="42.8720665" lon="2.3000981"><ele>721.8</ele><time>2026-04-11T10:15:42.971Z</time></trkpt><trkpt lat="42.8721407" lon="2.300008"><ele>722.1999999999999</ele><time>2026-04-11T10:15:43.969Z</time></trkpt><trkpt lat="42.8722222" lon="2.2999211"><ele>722.5999999999999</ele><time>2026-04-11T10:15:44.969Z</time></trkpt><trkpt lat="42.8723094" lon="2.2998322"><ele>723.0</ele><time>2026-04-11T10:15:45.969Z</time></trkpt><trkpt lat="42.8723859" lon="2.2997382"><ele>723.0</ele><time>2026-04-11T10:15:46.968Z</time></trkpt><trkpt lat="42.8724555" lon="2.2996461"><ele>723.0</ele><time>2026-04-11T10:15:47.968Z</time></trkpt><trkpt lat="42.8725206" lon="2.2995682"><ele>723.0</ele><time>2026-04-11T10:15:48.968Z</time></trkpt><trkpt lat="42.8725969" lon="2.2995125"><ele>723.0</ele><time>2026-04-11T10:15:49.968Z</time></trkpt><trkpt lat="42.8726831" lon="2.2994847"><ele>723.0</ele><time>2026-04-11T10:15:50.969Z</time></trkpt><trkpt lat="42.8727741" lon="2.299444"><ele>718.8333333333334</ele><time>2026-04-11T10:15:51.969Z</time></trkpt><trkpt lat="42.8728642" lon="2.2994115"><ele>714.6666666666666</ele><time>2026-04-11T10:15:52.969Z</time></trkpt><trkpt lat="42.872944" lon="2.2993578"><ele>710.5</ele><time>2026-04-11T10:15:53.969Z</time></trkpt><trkpt lat="42.8730099" lon="2.2992924"><ele>706.3333333333333</ele><time>2026-04-11T10:15:54.969Z</time></trkpt><trkpt lat="42.873067" lon="2.2992221"><ele>702.1666666666666</ele><time>2026-04-11T10:15:55.969Z</time></trkpt><trkpt lat="42.8731195" lon="2.2991417"><ele>698.0</ele><time>2026-04-11T10:15:56.969Z</time></trkpt><trkpt lat="42.873166" lon="2.299053"><ele>698.0</ele><time>2026-04-11T10:15:57.97Z</time></trkpt><trkpt lat="42.8732026" lon="2.2989558"><ele>698.0</ele><time>2026-04-11T10:15:58.97Z</time></trkpt><trkpt lat="42.8732325" lon="2.2988512"><ele>698.0</ele><time>2026-04-11T10:15:59.969Z</time></trkpt><trkpt lat="42.873255" lon="2.2987389"><ele>698.0</ele><time>2026-04-11T10:16:00.969Z</time></trkpt><trkpt lat="42.8732713" lon="2.2986281"><ele>698.0</ele><time>2026-04-11T10:16:01.97Z</time></trkpt><trkpt lat="42.8732861" lon="2.298515"><ele>698.0</ele><time>2026-04-11T10:16:02.969Z</time></trkpt><trkpt lat="42.873303" lon="2.2984"><ele>698.0</ele><time>2026-04-11T10:16:03.97Z</time></trkpt><trkpt lat="42.8733243" lon="2.2982893"><ele>698.0</ele><time>2026-04-11T10:16:04.97Z</time></trkpt><trkpt lat="42.8733424" lon="2.2981853"><ele>698.0</ele><time>2026-04-11T10:16:05.97Z</time></trkpt><trkpt lat="42.8733549" lon="2.2980838"><ele>698.0</ele><time>2026-04-11T10:16:06.97Z</time></trkpt><trkpt lat="42.8733722" lon="2.297988"><ele>698.0</ele><time>2026-04-11T10:16:07.969Z</time></trkpt><trkpt lat="42.8734062" lon="2.2979033"><ele>698.0</ele><time>2026-04-11T10:16:08.97Z</time></trkpt><trkpt lat="42.8734596" lon="2.2978232"><ele>698.0</ele><time>2026-04-11T10:16:09.969Z</time></trkpt><trkpt lat="42.873538" lon="2.2977672"><ele>698.0</ele><time>2026-04-11T10:16:10.969Z</time></trkpt><trkpt lat="42.8736275" lon="2.2977218"><ele>698.0</ele><time>2026-04-11T10:16:11.969Z</time></trkpt><trkpt lat="42.8737184" lon="2.2976879"><ele>698.0</ele><time>2026-04-11T10:16:12.969Z</time></trkpt><trkpt lat="42.8738029" lon="2.2976616"><ele>698.0</ele><time>2026-04-11T10:16:13.969Z</time></trkpt><trkpt lat="42.8738811" lon="2.2976252"><ele>698.0</ele><time>2026-04-11T10:16:14.97Z</time></trkpt><trkpt lat="42.873951" lon="2.2975753"><ele>698.0</ele><time>2026-04-11T10:16:15.97Z</time></trkpt><trkpt lat="42.8740131" lon="2.2975071"><ele>698.0</ele><time>2026-04-11T10:16:16.969Z</time></trkpt><trkpt lat="42.8740709" lon="2.2974139"><ele>698.0</ele><time>2026-04-11T10:16:17.969Z</time></trkpt><trkpt lat="42.8741233" lon="2.2973034"><ele>698.0</ele><time>2026-04-11T10:16:18.971Z</time></trkpt><trkpt lat="42.87417" lon="2.2971831"><ele>698.0</ele><time>2026-04-11T10:16:19.969Z</time></trkpt><trkpt lat="42.8742101" lon="2.2970581"><ele>699.6666666666666</ele><time>2026-04-11T10:16:20.97Z</time></trkpt><trkpt lat="42.8742392" lon="2.296932"><ele>701.3333333333333</ele><time>2026-04-11T10:16:21.969Z</time></trkpt><trkpt lat="42.8742667" lon="2.2968175"><ele>703.0</ele><time>2026-04-11T10:16:22.97Z</time></trkpt><trkpt lat="42.8743059" lon="2.2967173"><ele>704.6666666666666</ele><time>2026-04-11T10:16:23.97Z</time></trkpt><trkpt lat="42.8743647" lon="2.2966354"><ele>706.3333333333334</ele><time>2026-04-11T10:16:24.968Z</time></trkpt><trkpt lat="42.874432" lon="2.2965654"><ele>708.0</ele><time>2026-04-11T10:16:25.968Z</time></trkpt><trkpt lat="42.874508" lon="2.2964906"><ele>705.4</ele><time>2026-04-11T10:16:26.968Z</time></trkpt><trkpt lat="42.8745901" lon="2.2964"><ele>702.8</ele><time>2026-04-11T10:16:27.968Z</time></trkpt><trkpt lat="42.8746684" lon="2.2963041"><ele>700.2</ele><time>2026-04-11T10:16:28.968Z</time></trkpt><trkpt lat="42.8747394" lon="2.2962103"><ele>697.6</ele><time>2026-04-11T10:16:29.968Z</time></trkpt><trkpt lat="42.8748091" lon="2.2961221"><ele>695.0</ele><time>2026-04-11T10:16:30.969Z</time></trkpt><trkpt lat="42.8748691" lon="2.2960355"><ele>695.0</ele><time>2026-04-11T10:16:31.968Z</time></trkpt><trkpt lat="42.8749222" lon="2.2959464"><ele>695.0</ele><time>2026-04-11T10:16:32.969Z</time></trkpt><trkpt lat="42.87497" lon="2.2958613"><ele>695.0</ele><time>2026-04-11T10:16:33.968Z</time></trkpt><trkpt lat="42.8750216" lon="2.2957903"><ele>695.0</ele><time>2026-04-11T10:16:34.969Z</time></trkpt><trkpt lat="42.8750858" lon="2.2957336"><ele>695.0</ele><time>2026-04-11T10:16:35.968Z</time></trkpt><trkpt lat="42.8751617" lon="2.2956988"><ele>695.0</ele><time>2026-04-11T10:16:36.969Z</time></trkpt><trkpt lat="42.8752511" lon="2.2956705"><ele>693.8</ele><time>2026-04-11T10:16:37.97Z</time></trkpt><trkpt lat="42.8753375" lon="2.2956477"><ele>692.6</ele><time>2026-04-11T10:16:38.969Z</time></trkpt><trkpt lat="42.8754223" lon="2.295614"><ele>691.4000000000001</ele><time>2026-04-11T10:16:39.968Z</time></trkpt><trkpt lat="42.875508" lon="2.2955674"><ele>690.2</ele><time>2026-04-11T10:16:40.968Z</time></trkpt><trkpt lat="42.8756027" lon="2.2955243"><ele>689.0</ele><time>2026-04-11T10:16:41.969Z</time></trkpt><trkpt lat="42.8756989" lon="2.2954949"><ele>689.0</ele><time>2026-04-11T10:16:42.968Z</time></trkpt><trkpt lat="42.8757939" lon="2.2954749"><ele>689.0</ele><time>2026-04-11T10:16:43.969Z</time></trkpt><trkpt lat="42.8758852" lon="2.2954533"><ele>689.0</ele><time>2026-04-11T10:16:44.969Z</time></trkpt><trkpt lat="42.8759701" lon="2.2954218"><ele>689.0</ele><time>2026-04-11T10:16:45.968Z</time></trkpt><trkpt lat="42.876052" lon="2.2953704"><ele>689.0</ele><time>2026-04-11T10:16:46.968Z</time></trkpt><trkpt lat="42.8761343" lon="2.2953051"><ele>685.4000000000001</ele><time>2026-04-11T10:16:47.968Z</time></trkpt><trkpt lat="42.8762174" lon="2.2952214"><ele>681.8</ele><time>2026-04-11T10:16:48.97Z</time></trkpt><trkpt lat="42.8762996" lon="2.2951322"><ele>678.2</ele><time>2026-04-11T10:16:49.968Z</time></trkpt><trkpt lat="42.8763813" lon="2.2950426"><ele>674.5999999999999</ele><time>2026-04-11T10:16:50.969Z</time></trkpt><trkpt lat="42.8764589" lon="2.2949522"><ele>671.0</ele><time>2026-04-11T10:16:51.968Z</time></trkpt><trkpt lat="42.8765351" lon="2.2948621"><ele>671.0</ele><time>2026-04-11T10:16:52.969Z</time></trkpt><trkpt lat="42.8766119" lon="2.2947729"><ele>671.0</ele><time>2026-04-11T10:16:53.968Z</time></trkpt><trkpt lat="42.8766893" lon="2.2946856"><ele>671.0</ele><time>2026-04-11T10:16:54.969Z</time></trkpt><trkpt lat="42.8767607" lon="2.2945995"><ele>671.0</ele><time>2026-04-11T10:16:55.969Z</time></trkpt><trkpt lat="42.8768258" lon="2.2945051"><ele>671.0</ele><time>2026-04-11T10:16:56.968Z</time></trkpt><trkpt lat="42.8768806" lon="2.2943886"><ele>670.8333333333333</ele><time>2026-04-11T10:16:57.968Z</time></trkpt><trkpt lat="42.8769273" lon="2.2942821"><ele>670.6666666666666</ele><time>2026-04-11T10:16:58.968Z</time></trkpt><trkpt lat="42.8769753" lon="2.2941919"><ele>670.5</ele><time>2026-04-11T10:16:59.969Z</time></trkpt><trkpt lat="42.8770417" lon="2.294135"><ele>670.3333333333334</ele><time>2026-04-11T10:17:00.969Z</time></trkpt><trkpt lat="42.877115" lon="2.294085"><ele>670.1666666666667</ele><time>2026-04-11T10:17:01.969Z</time></trkpt><trkpt lat="42.8771917" lon="2.2940683"><ele>670.0</ele><time>2026-04-11T10:17:02.969Z</time></trkpt><trkpt lat="42.8772683" lon="2.29408"><ele>670.0</ele><time>2026-04-11T10:17:03.968Z</time></trkpt><trkpt lat="42.87734" lon="2.2940933"><ele>670.0</ele><time>2026-04-11T10:17:04.968Z</time></trkpt><trkpt lat="42.87746" lon="2.2940683"><ele>670.0</ele><time>2026-04-11T10:17:06.968Z</time></trkpt><trkpt lat="42.87752" lon="2.2940267"><ele>670.0</ele><time>2026-04-11T10:17:07.969Z</time></trkpt><trkpt lat="42.8775817" lon="2.2939583"><ele>670.0</ele><time>2026-04-11T10:17:08.968Z</time></trkpt><trkpt lat="42.8776517" lon="2.2938717"><ele>670.0</ele><time>2026-04-11T10:17:09.968Z</time></trkpt><trkpt lat="42.8777267" lon="2.2937867"><ele>670.5</ele><time>2026-04-11T10:17:10.968Z</time></trkpt><trkpt lat="42.8778" lon="2.2937083"><ele>671.0</ele><time>2026-04-11T10:17:11.968Z</time></trkpt><trkpt lat="42.877875" lon="2.2936433"><ele>671.5</ele><time>2026-04-11T10:17:12.968Z</time></trkpt><trkpt lat="42.8779467" lon="2.2935917"><ele>672.0</ele><time>2026-04-11T10:17:13.968Z</time></trkpt><trkpt lat="42.8780167" lon="2.293555"><ele>672.5</ele><time>2026-04-11T10:17:14.968Z</time></trkpt><trkpt lat="42.8780833" lon="2.293525"><ele>673.0</ele><time>2026-04-11T10:17:15.968Z</time></trkpt><trkpt lat="42.8781467" lon="2.2935033"><ele>673.0</ele><time>2026-04-11T10:17:16.968Z</time></trkpt><trkpt lat="42.87821" lon="2.2934983"><ele>673.0</ele><time>2026-04-11T10:17:17.968Z</time></trkpt><trkpt lat="42.87834" lon="2.2935033"><ele>673.0</ele><time>2026-04-11T10:17:19.968Z</time></trkpt><trkpt lat="42.8784083" lon="2.2935033"><ele>673.0</ele><time>2026-04-11T10:17:20.968Z</time></trkpt><trkpt lat="42.8784783" lon="2.2934983"><ele>673.0</ele><time>2026-04-11T10:17:21.97Z</time></trkpt><trkpt lat="42.87855" lon="2.2934917"><ele>673.0</ele><time>2026-04-11T10:17:22.968Z</time></trkpt><trkpt lat="42.878625" lon="2.2934833"><ele>671.2</ele><time>2026-04-11T10:17:23.968Z</time></trkpt><trkpt lat="42.8787067" lon="2.29347"><ele>669.4</ele><time>2026-04-11T10:17:24.968Z</time></trkpt><trkpt lat="42.8787883" lon="2.2934567"><ele>667.6</ele><time>2026-04-11T10:17:25.968Z</time></trkpt><trkpt lat="42.87891" lon="2.2933783"><ele>665.8000000000001</ele><time>2026-04-11T10:17:27.968Z</time></trkpt><trkpt lat="42.878975" lon="2.2933233"><ele>664.0</ele><time>2026-04-11T10:17:28.968Z</time></trkpt><trkpt lat="42.8790467" lon="2.2932483"><ele>664.0</ele><time>2026-04-11T10:17:29.969Z</time></trkpt><trkpt lat="42.8791117" lon="2.2931867"><ele>664.0</ele><time>2026-04-11T10:17:30.969Z</time></trkpt><trkpt lat="42.8791933" lon="2.2931317"><ele>664.0</ele><time>2026-04-11T10:17:31.968Z</time></trkpt><trkpt lat="42.8792867" lon="2.2930683"><ele>664.0</ele><time>2026-04-11T10:17:32.969Z</time></trkpt><trkpt lat="42.879365" lon="2.2929833"><ele>664.0</ele><time>2026-04-11T10:17:33.969Z</time></trkpt><trkpt lat="42.8794083" lon="2.2929117"><ele>664.0</ele><time>2026-04-11T10:17:34.969Z</time></trkpt><trkpt lat="42.8794733" lon="2.292865"><ele>664.4285714285714</ele><time>2026-04-11T10:17:35.968Z</time></trkpt><trkpt lat="42.87953" lon="2.292815"><ele>664.8571428571429</ele><time>2026-04-11T10:17:36.969Z</time></trkpt><trkpt lat="42.8796" lon="2.29279"><ele>665.2857142857143</ele><time>2026-04-11T10:17:37.968Z</time></trkpt><trkpt lat="42.8796667" lon="2.2927617"><ele>665.7142857142858</ele><time>2026-04-11T10:17:38.968Z</time></trkpt><trkpt lat="42.8797283" lon="2.2927083"><ele>666.1428571428571</ele><time>2026-04-11T10:17:39.968Z</time></trkpt><trkpt lat="42.8797933" lon="2.2926533"><ele>666.5714285714287</ele><time>2026-04-11T10:17:40.97Z</time></trkpt><trkpt lat="42.87987" lon="2.2925967"><ele>667.0</ele><time>2026-04-11T10:17:41.968Z</time></trkpt><trkpt lat="42.879945" lon="2.29254"><ele>667.0</ele><time>2026-04-11T10:17:42.968Z</time></trkpt><trkpt lat="42.8800333" lon="2.2924833"><ele>667.0</ele><time>2026-04-11T10:17:43.969Z</time></trkpt><trkpt lat="42.8801233" lon="2.2924183"><ele>667.0</ele><time>2026-04-11T10:17:44.968Z</time></trkpt><trkpt lat="42.88021" lon="2.2923583"><ele>667.0</ele><time>2026-04-11T10:17:45.969Z</time></trkpt><trkpt lat="42.8803017" lon="2.2922933"><ele>667.0</ele><time>2026-04-11T10:17:46.968Z</time></trkpt><trkpt lat="42.8803933" lon="2.292235"><ele>667.0</ele><time>2026-04-11T10:17:47.969Z</time></trkpt><trkpt lat="42.880485" lon="2.2921783"><ele>667.0</ele><time>2026-04-11T10:17:48.968Z</time></trkpt><trkpt lat="42.88058" lon="2.292105"><ele>667.0</ele><time>2026-04-11T10:17:49.968Z</time></trkpt><trkpt lat="42.8806697" lon="2.2920394"><ele>667.0</ele><time>2026-04-11T10:17:50.968Z</time></trkpt><trkpt lat="42.8807635" lon="2.291977"><ele>667.0</ele><time>2026-04-11T10:17:51.968Z</time></trkpt><trkpt lat="42.8808623" lon="2.2919094"><ele>667.2</ele><time>2026-04-11T10:17:52.968Z</time></trkpt><trkpt lat="42.8809574" lon="2.2918463"><ele>667.4000000000001</ele><time>2026-04-11T10:17:53.971Z</time></trkpt><trkpt lat="42.8810535" lon="2.2917817"><ele>667.5999999999999</ele><time>2026-04-11T10:17:54.969Z</time></trkpt><trkpt lat="42.8811538" lon="2.291726"><ele>667.8</ele><time>2026-04-11T10:17:55.969Z</time></trkpt><trkpt lat="42.8812536" lon="2.2916703"><ele>668.0</ele><time>2026-04-11T10:17:56.968Z</time></trkpt><trkpt lat="42.8813494" lon="2.2916187"><ele>668.0</ele><time>2026-04-11T10:17:57.968Z</time></trkpt><trkpt lat="42.8814378" lon="2.2915727"><ele>668.0</ele><time>2026-04-11T10:17:58.968Z</time></trkpt><trkpt lat="42.8815181" lon="2.291533"><ele>668.0</ele><time>2026-04-11T10:17:59.969Z</time></trkpt><trkpt lat="42.8815959" lon="2.2914993"><ele>668.0</ele><time>2026-04-11T10:18:00.968Z</time></trkpt><trkpt lat="42.8816689" lon="2.2914711"><ele>668.0</ele><time>2026-04-11T10:18:01.968Z</time></trkpt><trkpt lat="42.881737" lon="2.2914489"><ele>668.0</ele><time>2026-04-11T10:18:02.969Z</time></trkpt><trkpt lat="42.8818064" lon="2.2914237"><ele>666.0</ele><time>2026-04-11T10:18:03.968Z</time></trkpt><trkpt lat="42.8818816" lon="2.2914043"><ele>664.0</ele><time>2026-04-11T10:18:04.968Z</time></trkpt><trkpt lat="42.8819592" lon="2.2913968"><ele>662.0</ele><time>2026-04-11T10:18:05.968Z</time></trkpt><trkpt lat="42.8820361" lon="2.2913955"><ele>660.0</ele><time>2026-04-11T10:18:06.968Z</time></trkpt><trkpt lat="42.8821125" lon="2.291392"><ele>658.0</ele><time>2026-04-11T10:18:07.968Z</time></trkpt><trkpt lat="42.8821872" lon="2.2913841"><ele>656.0</ele><time>2026-04-11T10:18:08.969Z</time></trkpt><trkpt lat="42.8822576" lon="2.2913704"><ele>656.0</ele><time>2026-04-11T10:18:09.971Z</time></trkpt><trkpt lat="42.8823255" lon="2.2913454"><ele>656.0</ele><time>2026-04-11T10:18:10.968Z</time></trkpt><trkpt lat="42.8823931" lon="2.2913124"><ele>656.0</ele><time>2026-04-11T10:18:11.968Z</time></trkpt><trkpt lat="42.8824558" lon="2.2912736"><ele>656.0</ele><time>2026-04-11T10:18:12.968Z</time></trkpt><trkpt lat="42.8825139" lon="2.2912319"><ele>656.0</ele><time>2026-04-11T10:18:13.968Z</time></trkpt><trkpt lat="42.8826204" lon="2.2911388"><ele>656.0</ele><time>2026-04-11T10:18:15.968Z</time></trkpt><trkpt lat="42.8826803" lon="2.2910882"><ele>657.3333333333333</ele><time>2026-04-11T10:18:16.969Z</time></trkpt><trkpt lat="42.8827494" lon="2.2910403"><ele>658.6666666666666</ele><time>2026-04-11T10:18:17.968Z</time></trkpt><trkpt lat="42.882825" lon="2.2910047"><ele>660.0</ele><time>2026-04-11T10:18:18.968Z</time></trkpt><trkpt lat="42.8829063" lon="2.2909689"><ele>661.3333333333334</ele><time>2026-04-11T10:18:19.968Z</time></trkpt><trkpt lat="42.882981" lon="2.2909146"><ele>662.6666666666667</ele><time>2026-04-11T10:18:20.968Z</time></trkpt><trkpt lat="42.8830441" lon="2.2908425"><ele>664.0</ele><time>2026-04-11T10:18:21.968Z</time></trkpt><trkpt lat="42.8830824" lon="2.2907465"><ele>664.0</ele><time>2026-04-11T10:18:22.968Z</time></trkpt><trkpt lat="42.8831137" lon="2.2906254"><ele>664.0</ele><time>2026-04-11T10:18:23.968Z</time></trkpt><trkpt lat="42.8831545" lon="2.2905017"><ele>664.0</ele><time>2026-04-11T10:18:24.97Z</time></trkpt><trkpt lat="42.8832145" lon="2.290389"><ele>664.0</ele><time>2026-04-11T10:18:25.968Z</time></trkpt><trkpt lat="42.8832902" lon="2.2902886"><ele>664.0</ele><time>2026-04-11T10:18:26.969Z</time></trkpt><trkpt lat="42.8833689" lon="2.2901965"><ele>664.3333333333334</ele><time>2026-04-11T10:18:27.968Z</time></trkpt><trkpt lat="42.8834385" lon="2.2901138"><ele>664.6666666666667</ele><time>2026-04-11T10:18:28.968Z</time></trkpt><trkpt lat="42.8835022" lon="2.29004"><ele>665.0</ele><time>2026-04-11T10:18:29.968Z</time></trkpt><trkpt lat="42.8835608" lon="2.2899839"><ele>665.3333333333334</ele><time>2026-04-11T10:18:30.968Z</time></trkpt><trkpt lat="42.8836187" lon="2.2899302"><ele>665.6666666666666</ele><time>2026-04-11T10:18:31.968Z</time></trkpt><trkpt lat="42.8836817" lon="2.2898693"><ele>666.0</ele><time>2026-04-11T10:18:32.969Z</time></trkpt><trkpt lat="42.8837454" lon="2.2898023"><ele>662.4</ele><time>2026-04-11T10:18:33.971Z</time></trkpt><trkpt lat="42.8838105" lon="2.2897373"><ele>658.8</ele><time>2026-04-11T10:18:34.968Z</time></trkpt><trkpt lat="42.8838819" lon="2.2896642"><ele>655.1999999999999</ele><time>2026-04-11T10:18:35.969Z</time></trkpt><trkpt lat="42.8839541" lon="2.289582"><ele>651.5999999999999</ele><time>2026-04-11T10:18:36.969Z</time></trkpt><trkpt lat="42.8840262" lon="2.2894923"><ele>648.0</ele><time>2026-04-11T10:18:37.969Z</time></trkpt><trkpt lat="42.8840969" lon="2.2893948"><ele>648.0</ele><time>2026-04-11T10:18:38.968Z</time></trkpt><trkpt lat="42.8841735" lon="2.2892963"><ele>648.0</ele><time>2026-04-11T10:18:39.968Z</time></trkpt><trkpt lat="42.884256" lon="2.2892005"><ele>648.0</ele><time>2026-04-11T10:18:40.968Z</time></trkpt><trkpt lat="42.8843396" lon="2.2891089"><ele>648.0</ele><time>2026-04-11T10:18:41.969Z</time></trkpt><trkpt lat="42.884419" lon="2.2890134"><ele>648.0</ele><time>2026-04-11T10:18:42.968Z</time></trkpt><trkpt lat="42.8844908" lon="2.2889168"><ele>649.0</ele><time>2026-04-11T10:18:43.968Z</time></trkpt><trkpt lat="42.8845594" lon="2.2888225"><ele>650.0</ele><time>2026-04-11T10:18:44.969Z</time></trkpt><trkpt lat="42.8846274" lon="2.2887302"><ele>651.0</ele><time>2026-04-11T10:18:45.968Z</time></trkpt><trkpt lat="42.8846954" lon="2.2886332"><ele>652.0</ele><time>2026-04-11T10:18:46.968Z</time></trkpt><trkpt lat="42.8847675" lon="2.2885268"><ele>653.0</ele><time>2026-04-11T10:18:47.968Z</time></trkpt><trkpt lat="42.8848436" lon="2.2884152"><ele>653.0</ele><time>2026-04-11T10:18:48.969Z</time></trkpt><trkpt lat="42.8849219" lon="2.2882983"><ele>653.0</ele><time>2026-04-11T10:18:49.968Z</time></trkpt><trkpt lat="42.8850007" lon="2.2881768"><ele>653.0</ele><time>2026-04-11T10:18:50.968Z</time></trkpt><trkpt lat="42.885082" lon="2.288052"><ele>653.0</ele><time>2026-04-11T10:18:51.969Z</time></trkpt><trkpt lat="42.8851639" lon="2.2879185"><ele>656.75</ele><time>2026-04-11T10:18:52.968Z</time></trkpt><trkpt lat="42.8852427" lon="2.287776"><ele>660.5</ele><time>2026-04-11T10:18:53.969Z</time></trkpt><trkpt lat="42.8853099" lon="2.28763"><ele>664.25</ele><time>2026-04-11T10:18:54.968Z</time></trkpt><trkpt lat="42.8853587" lon="2.2874775"><ele>668.0</ele><time>2026-04-11T10:18:55.968Z</time></trkpt><trkpt lat="42.885394" lon="2.287326"><ele>666.2</ele><time>2026-04-11T10:18:56.969Z</time></trkpt><trkpt lat="42.8854258" lon="2.2871834"><ele>664.4</ele><time>2026-04-11T10:18:57.968Z</time></trkpt><trkpt lat="42.8854634" lon="2.2870544"><ele>662.6</ele><time>2026-04-11T10:18:58.969Z</time></trkpt><trkpt lat="42.8855086" lon="2.2869362"><ele>660.8000000000001</ele><time>2026-04-11T10:18:59.969Z</time></trkpt><trkpt lat="42.8855609" lon="2.2868161"><ele>659.0</ele><time>2026-04-11T10:19:00.969Z</time></trkpt><trkpt lat="42.8856148" lon="2.2866869"><ele>659.0</ele><time>2026-04-11T10:19:01.969Z</time></trkpt><trkpt lat="42.8856689" lon="2.286552"><ele>659.0</ele><time>2026-04-11T10:19:02.97Z</time></trkpt><trkpt lat="42.8857185" lon="2.2864068"><ele>659.0</ele><time>2026-04-11T10:19:03.968Z</time></trkpt><trkpt lat="42.8857589" lon="2.286253"><ele>659.0</ele><time>2026-04-11T10:19:04.968Z</time></trkpt><trkpt lat="42.8857926" lon="2.2860948"><ele>658.5</ele><time>2026-04-11T10:19:05.968Z</time></trkpt><trkpt lat="42.8858092" lon="2.285931"><ele>658.0</ele><time>2026-04-11T10:19:06.968Z</time></trkpt><trkpt lat="42.8858129" lon="2.2857709"><ele>657.5</ele><time>2026-04-11T10:19:07.968Z</time></trkpt><trkpt lat="42.8858121" lon="2.2856181"><ele>657.0</ele><time>2026-04-11T10:19:08.969Z</time></trkpt><trkpt lat="42.8858184" lon="2.2854676"><ele>657.8</ele><time>2026-04-11T10:19:09.968Z</time></trkpt><trkpt lat="42.8858328" lon="2.2853246"><ele>658.6</ele><time>2026-04-11T10:19:10.969Z</time></trkpt><trkpt lat="42.8858537" lon="2.2851985"><ele>659.4</ele><time>2026-04-11T10:19:11.968Z</time></trkpt><trkpt lat="42.8858841" lon="2.2850888"><ele>660.1999999999999</ele><time>2026-04-11T10:19:12.969Z</time></trkpt><trkpt lat="42.8859198" lon="2.284985"><ele>661.0</ele><time>2026-04-11T10:19:13.968Z</time></trkpt><trkpt lat="42.8859698" lon="2.2848877"><ele>661.0</ele><time>2026-04-11T10:19:14.97Z</time></trkpt><trkpt lat="42.8860309" lon="2.2848008"><ele>661.0</ele><time>2026-04-11T10:19:15.969Z</time></trkpt><trkpt lat="42.8861019" lon="2.2847326"><ele>661.0</ele><time>2026-04-11T10:19:16.968Z</time></trkpt><trkpt lat="42.8861828" lon="2.2846862"><ele>661.0</ele><time>2026-04-11T10:19:17.969Z</time></trkpt><trkpt lat="42.8862715" lon="2.2846564"><ele>661.0</ele><time>2026-04-11T10:19:18.969Z</time></trkpt><trkpt lat="42.8863641" lon="2.2846301"><ele>661.0</ele><time>2026-04-11T10:19:19.968Z</time></trkpt><trkpt lat="42.8864558" lon="2.2845979"><ele>659.5</ele><time>2026-04-11T10:19:20.969Z</time></trkpt><trkpt lat="42.8865441" lon="2.2845491"><ele>658.0</ele><time>2026-04-11T10:19:21.968Z</time></trkpt><trkpt lat="42.8866245" lon="2.2844911"><ele>656.5</ele><time>2026-04-11T10:19:22.968Z</time></trkpt><trkpt lat="42.8866908" lon="2.2844197"><ele>655.0</ele><time>2026-04-11T10:19:23.968Z</time></trkpt><trkpt lat="42.886745" lon="2.2843425"><ele>653.5</ele><time>2026-04-11T10:19:24.969Z</time></trkpt><trkpt lat="42.8867925" lon="2.2842636"><ele>652.0</ele><time>2026-04-11T10:19:25.968Z</time></trkpt><trkpt lat="42.8868583" lon="2.284165"><ele>650.2</ele><time>2026-04-11T10:19:27.968Z</time></trkpt><trkpt lat="42.8869283" lon="2.284095"><ele>648.4000000000001</ele><time>2026-04-11T10:19:30.969Z</time></trkpt><trkpt lat="42.8870133" lon="2.2840333"><ele>646.5999999999999</ele><time>2026-04-11T10:19:32.968Z</time></trkpt><trkpt lat="42.887135" lon="2.2839817"><ele>644.8</ele><time>2026-04-11T10:19:34.969Z</time></trkpt><trkpt lat="42.8872567" lon="2.2839367"><ele>643.0</ele><time>2026-04-11T10:19:36.968Z</time></trkpt><trkpt lat="42.8873233" lon="2.2839217"><ele>642.0</ele><time>2026-04-11T10:19:37.968Z</time></trkpt><trkpt lat="42.8873883" lon="2.28391"><ele>641.0</ele><time>2026-04-11T10:19:38.97Z</time></trkpt><trkpt lat="42.887455" lon="2.2838867"><ele>640.0</ele><time>2026-04-11T10:19:39.969Z</time></trkpt><trkpt lat="42.8875167" lon="2.283855"><ele>639.0</ele><time>2026-04-11T10:19:40.969Z</time></trkpt><trkpt lat="42.8875817" lon="2.2838183"><ele>638.0</ele><time>2026-04-11T10:19:41.969Z</time></trkpt><trkpt lat="42.88769" lon="2.28376"><ele>637.0</ele><time>2026-04-11T10:19:43.969Z</time></trkpt><trkpt lat="42.88776" lon="2.283825"><ele>634.0</ele><time>2026-04-11T10:20:05.968Z</time></trkpt><trkpt lat="42.887775" lon="2.2839633"><ele>631.0</ele><time>2026-04-11T10:20:08.969Z</time></trkpt><trkpt lat="42.887785" lon="2.2841033"><ele>628.0</ele><time>2026-04-11T10:20:10.969Z</time></trkpt><trkpt lat="42.8878283" lon="2.2842783"><ele>625.0</ele><time>2026-04-11T10:20:12.97Z</time></trkpt><trkpt lat="42.8878733" lon="2.2843767"><ele>622.0</ele><time>2026-04-11T10:20:13.969Z</time></trkpt><trkpt lat="42.8879183" lon="2.2844733"><ele>622.0</ele><time>2026-04-11T10:20:14.969Z</time></trkpt><trkpt lat="42.887955" lon="2.2845633"><ele>622.0</ele><time>2026-04-11T10:20:15.969Z</time></trkpt><trkpt lat="42.8879917" lon="2.2846517"><ele>622.0</ele><time>2026-04-11T10:20:16.969Z</time></trkpt><trkpt lat="42.8880283" lon="2.2847467"><ele>622.0</ele><time>2026-04-11T10:20:17.97Z</time></trkpt><trkpt lat="42.888065" lon="2.2848367"><ele>622.0</ele><time>2026-04-11T10:20:18.969Z</time></trkpt><trkpt lat="42.8880983" lon="2.2849217"><ele>622.0</ele><time>2026-04-11T10:20:19.97Z</time></trkpt><trkpt lat="42.88813" lon="2.2849967"><ele>622.0</ele><time>2026-04-11T10:20:20.969Z</time></trkpt><trkpt lat="42.8881817" lon="2.2851267"><ele>621.8333333333334</ele><time>2026-04-11T10:20:22.969Z</time></trkpt><trkpt lat="42.8882417" lon="2.2851983"><ele>621.6666666666667</ele><time>2026-04-11T10:20:24.969Z</time></trkpt><trkpt lat="42.8883083" lon="2.28518"><ele>621.5</ele><time>2026-04-11T10:20:26.969Z</time></trkpt><trkpt lat="42.88837" lon="2.2850667"><ele>621.3333333333334</ele><time>2026-04-11T10:20:28.969Z</time></trkpt><trkpt lat="42.8883833" lon="2.28498"><ele>621.1666666666666</ele><time>2026-04-11T10:20:29.97Z</time></trkpt><trkpt lat="42.888395" lon="2.28488"><ele>621.0</ele><time>2026-04-11T10:20:30.969Z</time></trkpt><trkpt lat="42.88841" lon="2.28477"><ele>616.0</ele><time>2026-04-11T10:20:31.968Z</time></trkpt><trkpt lat="42.8884317" lon="2.2846517"><ele>611.0</ele><time>2026-04-11T10:20:32.969Z</time></trkpt><trkpt lat="42.8884533" lon="2.2845333"><ele>606.0</ele><time>2026-04-11T10:20:33.969Z</time></trkpt><trkpt lat="42.888475" lon="2.2844117"><ele>601.0</ele><time>2026-04-11T10:20:34.969Z</time></trkpt><trkpt lat="42.8884967" lon="2.2842933"><ele>596.0</ele><time>2026-04-11T10:20:35.967Z</time></trkpt><trkpt lat="42.8885133" lon="2.2841717"><ele>596.0</ele><time>2026-04-11T10:20:36.968Z</time></trkpt><trkpt lat="42.8885367" lon="2.2840533"><ele>596.0</ele><time>2026-04-11T10:20:37.968Z</time></trkpt><trkpt lat="42.8885633" lon="2.2839483"><ele>596.0</ele><time>2026-04-11T10:20:38.968Z</time></trkpt><trkpt lat="42.88859" lon="2.283855"><ele>596.0</ele><time>2026-04-11T10:20:39.969Z</time></trkpt><trkpt lat="42.8886283" lon="2.28376"><ele>596.0</ele><time>2026-04-11T10:20:40.968Z</time></trkpt><trkpt lat="42.888675" lon="2.28366"><ele>596.0</ele><time>2026-04-11T10:20:41.968Z</time></trkpt><trkpt lat="42.8887267" lon="2.2835533"><ele>596.8</ele><time>2026-04-11T10:20:42.968Z</time></trkpt><trkpt lat="42.8887867" lon="2.283445"><ele>597.6</ele><time>2026-04-11T10:20:43.968Z</time></trkpt><trkpt lat="42.8888533" lon="2.28335"><ele>598.4</ele><time>2026-04-11T10:20:44.968Z</time></trkpt><trkpt lat="42.8889267" lon="2.28327"><ele>599.2</ele><time>2026-04-11T10:20:45.968Z</time></trkpt><trkpt lat="42.88901" lon="2.2831983"><ele>600.0</ele><time>2026-04-11T10:20:46.968Z</time></trkpt><trkpt lat="42.8890983" lon="2.2831483"><ele>600.0</ele><time>2026-04-11T10:20:47.968Z</time></trkpt><trkpt lat="42.88918" lon="2.2831083"><ele>600.0</ele><time>2026-04-11T10:20:48.97Z</time></trkpt><trkpt lat="42.8892567" lon="2.28306"><ele>600.0</ele><time>2026-04-11T10:20:49.969Z</time></trkpt><trkpt lat="42.889335" lon="2.2830267"><ele>600.0</ele><time>2026-04-11T10:20:50.969Z</time></trkpt><trkpt lat="42.8894217" lon="2.2829967"><ele>600.0</ele><time>2026-04-11T10:20:51.968Z</time></trkpt><trkpt lat="42.8895117" lon="2.282965"><ele>600.0</ele><time>2026-04-11T10:20:52.968Z</time></trkpt><trkpt lat="42.8896067" lon="2.2828867"><ele>599.0</ele><time>2026-04-11T10:20:53.968Z</time></trkpt><trkpt lat="42.8897067" lon="2.2827883"><ele>598.0</ele><time>2026-04-11T10:20:54.968Z</time></trkpt><trkpt lat="42.88979" lon="2.28269"><ele>597.0</ele><time>2026-04-11T10:20:55.968Z</time></trkpt><trkpt lat="42.8898533" lon="2.2826033"><ele>596.0</ele><time>2026-04-11T10:20:56.969Z</time></trkpt><trkpt lat="42.8899083" lon="2.28253"><ele>595.0</ele><time>2026-04-11T10:20:57.969Z</time></trkpt><trkpt lat="42.88997" lon="2.2824467"><ele>595.0</ele><time>2026-04-11T10:20:58.968Z</time></trkpt><trkpt lat="42.8900317" lon="2.28236"><ele>595.0</ele><time>2026-04-11T10:20:59.968Z</time></trkpt><trkpt lat="42.8900933" lon="2.282275"><ele>595.0</ele><time>2026-04-11T10:21:00.968Z</time></trkpt><trkpt lat="42.8901633" lon="2.282205"><ele>595.0</ele><time>2026-04-11T10:21:01.968Z</time></trkpt><trkpt lat="42.8902483" lon="2.2821417"><ele>595.0</ele><time>2026-04-11T10:21:02.968Z</time></trkpt><trkpt lat="42.8903383" lon="2.2820883"><ele>592.4</ele><time>2026-04-11T10:21:03.968Z</time></trkpt><trkpt lat="42.89043" lon="2.28204"><ele>589.8</ele><time>2026-04-11T10:21:04.967Z</time></trkpt><trkpt lat="42.8905183" lon="2.28199"><ele>587.2</ele><time>2026-04-11T10:21:05.968Z</time></trkpt><trkpt lat="42.8906017" lon="2.2819367"><ele>584.6</ele><time>2026-04-11T10:21:06.968Z</time></trkpt><trkpt lat="42.8906817" lon="2.281885"><ele>582.0</ele><time>2026-04-11T10:21:07.969Z</time></trkpt><trkpt lat="42.8907567" lon="2.2818317"><ele>582.0</ele><time>2026-04-11T10:21:08.968Z</time></trkpt><trkpt lat="42.890825" lon="2.2817667"><ele>582.0</ele><time>2026-04-11T10:21:09.968Z</time></trkpt><trkpt lat="42.8908917" lon="2.2817067"><ele>582.0</ele><time>2026-04-11T10:21:10.968Z</time></trkpt><trkpt lat="42.8909617" lon="2.2816483"><ele>582.0</ele><time>2026-04-11T10:21:11.968Z</time></trkpt><trkpt lat="42.8910317" lon="2.28161"><ele>582.0</ele><time>2026-04-11T10:21:12.968Z</time></trkpt><trkpt lat="42.8911017" lon="2.2815733"><ele>582.0</ele><time>2026-04-11T10:21:13.968Z</time></trkpt><trkpt lat="42.891165" lon="2.2815317"><ele>581.4</ele><time>2026-04-11T10:21:14.968Z</time></trkpt><trkpt lat="42.8912233" lon="2.2814967"><ele>580.8000000000001</ele><time>2026-04-11T10:21:15.968Z</time></trkpt><trkpt lat="42.8913167" lon="2.2814267"><ele>580.2</ele><time>2026-04-11T10:21:17.969Z</time></trkpt><trkpt lat="42.8914183" lon="2.28138"><ele>579.6</ele><time>2026-04-11T10:21:19.968Z</time></trkpt><trkpt lat="42.89154" lon="2.2813333"><ele>579.0</ele><time>2026-04-11T10:21:21.971Z</time></trkpt><trkpt lat="42.8916083" lon="2.2813083"><ele>579.0</ele><time>2026-04-11T10:21:22.968Z</time></trkpt><trkpt lat="42.8916733" lon="2.281285"><ele>579.0</ele><time>2026-04-11T10:21:23.968Z</time></trkpt><trkpt lat="42.8917383" lon="2.281255"><ele>579.0</ele><time>2026-04-11T10:21:24.968Z</time></trkpt><trkpt lat="42.8917983" lon="2.281215"><ele>579.0</ele><time>2026-04-11T10:21:25.968Z</time></trkpt><trkpt lat="42.8918717" lon="2.28115"><ele>579.0</ele><time>2026-04-11T10:21:26.968Z</time></trkpt><trkpt lat="42.89195" lon="2.2810867"><ele>579.0</ele><time>2026-04-11T10:21:27.968Z</time></trkpt><trkpt lat="42.89203" lon="2.2810233"><ele>575.8</ele><time>2026-04-11T10:21:28.967Z</time></trkpt><trkpt lat="42.892105" lon="2.280955"><ele>572.5999999999999</ele><time>2026-04-11T10:21:29.968Z</time></trkpt><trkpt lat="42.89218" lon="2.2808783"><ele>569.4</ele><time>2026-04-11T10:21:30.968Z</time></trkpt><trkpt lat="42.8922583" lon="2.2808133"><ele>566.1999999999999</ele><time>2026-04-11T10:21:31.968Z</time></trkpt><trkpt lat="42.8923417" lon="2.28077"><ele>563.0</ele><time>2026-04-11T10:21:32.968Z</time></trkpt><trkpt lat="42.89243" lon="2.28075"><ele>563.0</ele><time>2026-04-11T10:21:33.968Z</time></trkpt><trkpt lat="42.8925133" lon="2.280745"><ele>563.0</ele><time>2026-04-11T10:21:34.968Z</time></trkpt><trkpt lat="42.8925967" lon="2.2807417"><ele>563.0</ele><time>2026-04-11T10:21:35.968Z</time></trkpt><trkpt lat="42.8926717" lon="2.28073"><ele>563.0</ele><time>2026-04-11T10:21:36.968Z</time></trkpt><trkpt lat="42.892745" lon="2.2807067"><ele>563.0</ele><time>2026-04-11T10:21:37.968Z</time></trkpt><trkpt lat="42.892815" lon="2.2806733"><ele>563.0</ele><time>2026-04-11T10:21:38.968Z</time></trkpt><trkpt lat="42.892905" lon="2.280625"><ele>564.75</ele><time>2026-04-11T10:21:39.968Z</time></trkpt><trkpt lat="42.8930083" lon="2.2805567"><ele>566.5</ele><time>2026-04-11T10:21:40.969Z</time></trkpt><trkpt lat="42.893115" lon="2.2805017"><ele>568.25</ele><time>2026-04-11T10:21:41.968Z</time></trkpt><trkpt lat="42.89322" lon="2.28046"><ele>570.0</ele><time>2026-04-11T10:21:42.969Z</time></trkpt><trkpt lat="42.8933317" lon="2.2804117"><ele>565.2</ele><time>2026-04-11T10:21:43.968Z</time></trkpt><trkpt lat="42.89343" lon="2.2803733"><ele>560.4</ele><time>2026-04-11T10:21:44.97Z</time></trkpt><trkpt lat="42.8935033" lon="2.2803467"><ele>555.6</ele><time>2026-04-11T10:21:45.968Z</time></trkpt><trkpt lat="42.8936033" lon="2.2803317"><ele>550.8</ele><time>2026-04-11T10:21:47.968Z</time></trkpt><trkpt lat="42.8937117" lon="2.28033"><ele>546.0</ele><time>2026-04-11T10:21:49.968Z</time></trkpt><trkpt lat="42.893785" lon="2.2803233"><ele>546.0</ele><time>2026-04-11T10:21:50.97Z</time></trkpt><trkpt lat="42.8938767" lon="2.28032"><ele>546.0</ele><time>2026-04-11T10:21:51.968Z</time></trkpt><trkpt lat="42.8939767" lon="2.2803217"><ele>546.0</ele><time>2026-04-11T10:21:52.968Z</time></trkpt><trkpt lat="42.89407" lon="2.2803183"><ele>546.0</ele><time>2026-04-11T10:21:53.968Z</time></trkpt><trkpt lat="42.89415" lon="2.2803217"><ele>546.0</ele><time>2026-04-11T10:21:54.969Z</time></trkpt><trkpt lat="42.894225" lon="2.280335"><ele>546.0</ele><time>2026-04-11T10:21:55.968Z</time></trkpt><trkpt lat="42.8943117" lon="2.2803583"><ele>545.0</ele><time>2026-04-11T10:21:57.968Z</time></trkpt><trkpt lat="42.8943867" lon="2.2803517"><ele>544.0</ele><time>2026-04-11T10:21:59.968Z</time></trkpt><trkpt lat="42.8944933" lon="2.2802983"><ele>543.0</ele><time>2026-04-11T10:22:01.968Z</time></trkpt><trkpt lat="42.894545" lon="2.2802383"><ele>542.0</ele><time>2026-04-11T10:22:02.968Z</time></trkpt><trkpt lat="42.894595" lon="2.2801833"><ele>541.0</ele><time>2026-04-11T10:22:03.968Z</time></trkpt><trkpt lat="42.8946767" lon="2.280095"><ele>540.0</ele><time>2026-04-11T10:22:05.968Z</time></trkpt><trkpt lat="42.8946933" lon="2.2800117"><ele>540.0</ele><time>2026-04-11T10:22:26.968Z</time></trkpt><trkpt lat="42.8947183" lon="2.2798967"><ele>540.0</ele><time>2026-04-11T10:22:29.968Z</time></trkpt><trkpt lat="42.8947367" lon="2.279805"><ele>540.0</ele><time>2026-04-11T10:22:31.968Z</time></trkpt><trkpt lat="42.894765" lon="2.2796867"><ele>540.0</ele><time>2026-04-11T10:22:33.968Z</time></trkpt><trkpt lat="42.8947833" lon="2.2795333"><ele>540.0</ele><time>2026-04-11T10:22:35.968Z</time></trkpt><trkpt lat="42.8948" lon="2.27937"><ele>539.2857142857142</ele><time>2026-04-11T10:22:37.968Z</time></trkpt><trkpt lat="42.89481" lon="2.279285"><ele>538.5714285714286</ele><time>2026-04-11T10:22:38.968Z</time></trkpt><trkpt lat="42.894825" lon="2.279195"><ele>537.8571428571429</ele><time>2026-04-11T10:22:39.968Z</time></trkpt><trkpt lat="42.8948467" lon="2.279095"><ele>537.1428571428571</ele><time>2026-04-11T10:22:40.968Z</time></trkpt><trkpt lat="42.8948733" lon="2.2789917"><ele>536.4285714285714</ele><time>2026-04-11T10:22:41.968Z</time></trkpt><trkpt lat="42.8949" lon="2.2788933"><ele>535.7142857142857</ele><time>2026-04-11T10:22:42.968Z</time></trkpt><trkpt lat="42.8949267" lon="2.2788"><ele>535.0</ele><time>2026-04-11T10:22:43.968Z</time></trkpt><trkpt lat="42.8949567" lon="2.2787067"><ele>533.8</ele><time>2026-04-11T10:22:44.968Z</time></trkpt><trkpt lat="42.894985" lon="2.27861"><ele>532.6</ele><time>2026-04-11T10:22:45.968Z</time></trkpt><trkpt lat="42.8950167" lon="2.2785283"><ele>531.4</ele><time>2026-04-11T10:22:46.968Z</time></trkpt><trkpt lat="42.8950733" lon="2.2783883"><ele>530.2</ele><time>2026-04-11T10:22:48.969Z</time></trkpt><trkpt lat="42.8951217" lon="2.27824"><ele>529.0</ele><time>2026-04-11T10:22:50.968Z</time></trkpt><trkpt lat="42.8951533" lon="2.2781083"><ele>528.3333333333334</ele><time>2026-04-11T10:22:52.968Z</time></trkpt><trkpt lat="42.895175" lon="2.277945"><ele>527.6666666666667</ele><time>2026-04-11T10:22:54.968Z</time></trkpt><trkpt lat="42.8951883" lon="2.27786"><ele>527.0</ele><time>2026-04-11T10:22:55.968Z</time></trkpt><trkpt lat="42.8952083" lon="2.277775"><ele>526.3333333333334</ele><time>2026-04-11T10:22:56.968Z</time></trkpt><trkpt lat="42.89524" lon="2.27768"><ele>525.6666666666666</ele><time>2026-04-11T10:22:57.968Z</time></trkpt><trkpt lat="42.895275" lon="2.2775817"><ele>525.0</ele><time>2026-04-11T10:22:58.968Z</time></trkpt><trkpt lat="42.8953117" lon="2.2774883"><ele>525.0</ele><time>2026-04-11T10:22:59.968Z</time></trkpt><trkpt lat="42.89535" lon="2.2774083"><ele>525.0</ele><time>2026-04-11T10:23:00.969Z</time></trkpt><trkpt lat="42.8953817" lon="2.27733"><ele>525.0</ele><time>2026-04-11T10:23:01.968Z</time></trkpt><trkpt lat="42.895435" lon="2.27724"><ele>525.0</ele><time>2026-04-11T10:23:03.969Z</time></trkpt><trkpt lat="42.8954767" lon="2.277145"><ele>525.0</ele><time>2026-04-11T10:23:07.968Z</time></trkpt><trkpt lat="42.8955233" lon="2.2770783"><ele>525.0</ele><time>2026-04-11T10:23:10.969Z</time></trkpt><trkpt lat="42.8955733" lon="2.2770133"><ele>525.0</ele><time>2026-04-11T10:23:12.969Z</time></trkpt><trkpt lat="42.89562" lon="2.276955"><ele>524.0</ele><time>2026-04-11T10:23:14.969Z</time></trkpt><trkpt lat="42.8956733" lon="2.2769033"><ele>523.0</ele><time>2026-04-11T10:23:16.968Z</time></trkpt><trkpt lat="42.8957333" lon="2.2768583"><ele>522.0</ele><time>2026-04-11T10:23:18.968Z</time></trkpt><trkpt lat="42.895795" lon="2.27683"><ele>521.0</ele><time>2026-04-11T10:23:20.968Z</time></trkpt><trkpt lat="42.8958674" lon="2.276804"><ele>520.0</ele><time>2026-04-11T10:23:52.987Z</time></trkpt><trkpt lat="42.895948" lon="2.2767701"><ele>519.0</ele><time>2026-04-11T10:23:54.968Z</time></trkpt><trkpt lat="42.8960405" lon="2.2767671"><ele>517.2</ele><time>2026-04-11T10:23:57.045Z</time></trkpt><trkpt lat="42.8961381" lon="2.2767492"><ele>515.4</ele><time>2026-04-11T10:23:58.969Z</time></trkpt><trkpt lat="42.8962338" lon="2.2767332"><ele>513.6</ele><time>2026-04-11T10:24:00.97Z</time></trkpt><trkpt lat="42.8963313" lon="2.2767309"><ele>511.8</ele><time>2026-04-11T10:24:02.968Z</time></trkpt><trkpt lat="42.8964297" lon="2.2767459"><ele>510.0</ele><time>2026-04-11T10:24:04.968Z</time></trkpt><trkpt lat="42.8965218" lon="2.2767705"><ele>510.0</ele><time>2026-04-11T10:24:06.969Z</time></trkpt><trkpt lat="42.896608" lon="2.2767831"><ele>510.0</ele><time>2026-04-11T10:24:08.969Z</time></trkpt><trkpt lat="42.8966766" lon="2.2768145"><ele>510.0</ele><time>2026-04-11T10:24:10.968Z</time></trkpt><trkpt lat="42.8967458" lon="2.2768702"><ele>510.0</ele><time>2026-04-11T10:24:12.968Z</time></trkpt><trkpt lat="42.8968077" lon="2.2769567"><ele>510.0</ele><time>2026-04-11T10:24:14.97Z</time></trkpt><trkpt lat="42.8968738" lon="2.277062"><ele>510.0</ele><time>2026-04-11T10:24:16.968Z</time></trkpt><trkpt lat="42.896944" lon="2.2771626"><ele>508.8</ele><time>2026-04-11T10:24:18.968Z</time></trkpt><trkpt lat="42.8970102" lon="2.2772614"><ele>507.6</ele><time>2026-04-11T10:24:20.97Z</time></trkpt><trkpt lat="42.897076" lon="2.2773652"><ele>506.4</ele><time>2026-04-11T10:24:22.969Z</time></trkpt><trkpt lat="42.8971579" lon="2.2774704"><ele>505.2</ele><time>2026-04-11T10:24:24.968Z</time></trkpt><trkpt lat="42.8972515" lon="2.2775336"><ele>504.0</ele><time>2026-04-11T10:24:26.969Z</time></trkpt><trkpt lat="42.8973487" lon="2.2775752"><ele>504.0</ele><time>2026-04-11T10:24:28.968Z</time></trkpt><trkpt lat="42.897458" lon="2.2776041"><ele>504.0</ele><time>2026-04-11T10:24:30.968Z</time></trkpt><trkpt lat="42.8975748" lon="2.2776608"><ele>504.0</ele><time>2026-04-11T10:24:32.969Z</time></trkpt><trkpt lat="42.8976422" lon="2.2776928"><ele>504.0</ele><time>2026-04-11T10:24:33.968Z</time></trkpt><trkpt lat="42.8977133" lon="2.2777233"><ele>504.0</ele><time>2026-04-11T10:24:34.968Z</time></trkpt><trkpt lat="42.8977833" lon="2.2777517"><ele>503.0</ele><time>2026-04-11T10:24:35.969Z</time></trkpt><trkpt lat="42.897855" lon="2.2777817"><ele>502.0</ele><time>2026-04-11T10:24:36.968Z</time></trkpt><trkpt lat="42.8979283" lon="2.2778117"><ele>501.0</ele><time>2026-04-11T10:24:37.969Z</time></trkpt><trkpt lat="42.898" lon="2.2778367"><ele>500.0</ele><time>2026-04-11T10:24:38.969Z</time></trkpt><trkpt lat="42.8980717" lon="2.2778433"><ele>499.0</ele><time>2026-04-11T10:24:39.968Z</time></trkpt><trkpt lat="42.89814" lon="2.277845"><ele>498.0</ele><time>2026-04-11T10:24:40.969Z</time></trkpt><trkpt lat="42.8982517" lon="2.2778567"><ele>498.0</ele><time>2026-04-11T10:24:42.969Z</time></trkpt><trkpt lat="42.8983217" lon="2.2779133"><ele>498.0</ele><time>2026-04-11T10:24:45.969Z</time></trkpt><trkpt lat="42.8983733" lon="2.2779983"><ele>498.0</ele><time>2026-04-11T10:24:48.971Z</time></trkpt><trkpt lat="42.8983617" lon="2.27812"><ele>498.0</ele><time>2026-04-11T10:24:51.968Z</time></trkpt><trkpt lat="42.8983767" lon="2.27822"><ele>498.0</ele><time>2026-04-11T10:24:53.968Z</time></trkpt><trkpt lat="42.8984017" lon="2.2783283"><ele>498.0</ele><time>2026-04-11T10:24:55.969Z</time></trkpt><trkpt lat="42.898425" lon="2.278455"><ele>501.2</ele><time>2026-04-11T10:24:57.968Z</time></trkpt><trkpt lat="42.89845" lon="2.278585"><ele>504.4</ele><time>2026-04-11T10:24:59.968Z</time></trkpt><trkpt lat="42.898475" lon="2.27871"><ele>507.59999999999997</ele><time>2026-04-11T10:25:01.969Z</time></trkpt><trkpt lat="42.8985083" lon="2.27884"><ele>510.79999999999995</ele><time>2026-04-11T10:25:03.968Z</time></trkpt><trkpt lat="42.8985567" lon="2.2789783"><ele>514.0</ele><time>2026-04-11T10:25:05.968Z</time></trkpt><trkpt lat="42.8985983" lon="2.2791117"><ele>514.6</ele><time>2026-04-11T10:25:07.969Z</time></trkpt><trkpt lat="42.8986333" lon="2.27926"><ele>515.2</ele><time>2026-04-11T10:25:09.969Z</time></trkpt><trkpt lat="42.8986733" lon="2.2793883"><ele>515.8000000000001</ele><time>2026-04-11T10:25:11.968Z</time></trkpt><trkpt lat="42.8986967" lon="2.27951"><ele>516.4</ele><time>2026-04-11T10:25:13.969Z</time></trkpt><trkpt lat="42.898695" lon="2.2796467"><ele>517.0</ele><time>2026-04-11T10:25:15.968Z</time></trkpt><trkpt lat="42.8986917" lon="2.2797333"><ele>517.8571428571429</ele><time>2026-04-11T10:25:16.968Z</time></trkpt><trkpt lat="42.89869" lon="2.2798233"><ele>518.7142857142858</ele><time>2026-04-11T10:25:17.969Z</time></trkpt><trkpt lat="42.8986867" lon="2.27992"><ele>519.5714285714286</ele><time>2026-04-11T10:25:18.969Z</time></trkpt><trkpt lat="42.8986833" lon="2.2800167"><ele>520.4285714285714</ele><time>2026-04-11T10:25:19.969Z</time></trkpt><trkpt lat="42.8986817" lon="2.2801133"><ele>521.2857142857142</ele><time>2026-04-11T10:25:20.969Z</time></trkpt><trkpt lat="42.8986667" lon="2.2802133"><ele>522.1428571428571</ele><time>2026-04-11T10:25:21.969Z</time></trkpt><trkpt lat="42.89865" lon="2.28031"><ele>523.0</ele><time>2026-04-11T10:25:22.97Z</time></trkpt><trkpt lat="42.8986233" lon="2.2804033"><ele>522.9999999999999</ele><time>2026-04-11T10:25:23.97Z</time></trkpt><trkpt lat="42.8985967" lon="2.2804917"><ele>523.0</ele><time>2026-04-11T10:25:24.97Z</time></trkpt><trkpt lat="42.898575" lon="2.2805817"><ele>523.0</ele><time>2026-04-11T10:25:25.969Z</time></trkpt><trkpt lat="42.8985483" lon="2.2806733"><ele>523.0</ele><time>2026-04-11T10:25:26.969Z</time></trkpt><trkpt lat="42.8985233" lon="2.2807633"><ele>523.0</ele><time>2026-04-11T10:25:27.968Z</time></trkpt><trkpt lat="42.8984983" lon="2.28086"><ele>522.9999999999999</ele><time>2026-04-11T10:25:28.968Z</time></trkpt><trkpt lat="42.8984767" lon="2.280955"><ele>523.0</ele><time>2026-04-11T10:25:29.968Z</time></trkpt><trkpt lat="42.8984583" lon="2.28105"><ele>523.0</ele><time>2026-04-11T10:25:30.972Z</time></trkpt><trkpt lat="42.898445" lon="2.28115"><ele>523.0</ele><time>2026-04-11T10:25:31.968Z</time></trkpt><trkpt lat="42.8984367" lon="2.2812567"><ele>523.0</ele><time>2026-04-11T10:25:32.97Z</time></trkpt><trkpt lat="42.8984383" lon="2.2813683"><ele>523.0</ele><time>2026-04-11T10:25:33.969Z</time></trkpt><trkpt lat="42.8984367" lon="2.28148"><ele>523.0</ele><time>2026-04-11T10:25:34.969Z</time></trkpt><trkpt lat="42.898445" lon="2.2816067"><ele>523.0</ele><time>2026-04-11T10:25:35.968Z</time></trkpt><trkpt lat="42.898455" lon="2.28172"><ele>524.0</ele><time>2026-04-11T10:25:36.969Z</time></trkpt><trkpt lat="42.89847" lon="2.28184"><ele>525.0</ele><time>2026-04-11T10:25:37.968Z</time></trkpt><trkpt lat="42.8984817" lon="2.281965"><ele>526.0</ele><time>2026-04-11T10:25:38.968Z</time></trkpt><trkpt lat="42.89849" lon="2.2821033"><ele>527.0</ele><time>2026-04-11T10:25:39.968Z</time></trkpt><trkpt lat="42.8984817" lon="2.2822333"><ele>528.0</ele><time>2026-04-11T10:25:40.968Z</time></trkpt><trkpt lat="42.8984817" lon="2.2823583"><ele>528.6</ele><time>2026-04-11T10:25:41.969Z</time></trkpt><trkpt lat="42.8984767" lon="2.2824967"><ele>529.1999999999999</ele><time>2026-04-11T10:25:42.969Z</time></trkpt><trkpt lat="42.898485" lon="2.28262"><ele>529.8</ele><time>2026-04-11T10:25:43.968Z</time></trkpt><trkpt lat="42.8984883" lon="2.2827633"><ele>530.4</ele><time>2026-04-11T10:25:44.969Z</time></trkpt><trkpt lat="42.8984933" lon="2.282905"><ele>531.0</ele><time>2026-04-11T10:25:45.968Z</time></trkpt><trkpt lat="42.8984967" lon="2.28303"><ele>531.8333333333334</ele><time>2026-04-11T10:25:46.968Z</time></trkpt><trkpt lat="42.8984967" lon="2.2831483"><ele>532.6666666666666</ele><time>2026-04-11T10:25:47.968Z</time></trkpt><trkpt lat="42.8985017" lon="2.283265"><ele>533.5</ele><time>2026-04-11T10:25:48.969Z</time></trkpt><trkpt lat="42.8985067" lon="2.2833817"><ele>534.3333333333333</ele><time>2026-04-11T10:25:49.968Z</time></trkpt><trkpt lat="42.8985133" lon="2.2834883"><ele>535.1666666666666</ele><time>2026-04-11T10:25:50.969Z</time></trkpt><trkpt lat="42.8985217" lon="2.2835817"><ele>536.0</ele><time>2026-04-11T10:25:51.97Z</time></trkpt><trkpt lat="42.8985433" lon="2.2837183"><ele>536.0</ele><time>2026-04-11T10:25:53.969Z</time></trkpt><trkpt lat="42.8985867" lon="2.283875"><ele>536.0</ele><time>2026-04-11T10:25:55.969Z</time></trkpt><trkpt lat="42.8986033" lon="2.2839683"><ele>536.0</ele><time>2026-04-11T10:25:56.969Z</time></trkpt><trkpt lat="42.8986183" lon="2.2840667"><ele>536.0</ele><time>2026-04-11T10:25:57.969Z</time></trkpt><trkpt lat="42.8986283" lon="2.2841633"><ele>536.0</ele><time>2026-04-11T10:25:58.968Z</time></trkpt><trkpt lat="42.8986317" lon="2.284255"><ele>536.0</ele><time>2026-04-11T10:25:59.968Z</time></trkpt><trkpt lat="42.8986317" lon="2.2843433"><ele>536.0</ele><time>2026-04-11T10:26:00.969Z</time></trkpt><trkpt lat="42.8986317" lon="2.2845233"><ele>536.0</ele><time>2026-04-11T10:26:02.969Z</time></trkpt><trkpt lat="42.8986333" lon="2.28463"><ele>536.0</ele><time>2026-04-11T10:26:03.969Z</time></trkpt><trkpt lat="42.8986333" lon="2.2847383"><ele>536.0</ele><time>2026-04-11T10:26:04.969Z</time></trkpt><trkpt lat="42.8986267" lon="2.2848367"><ele>536.0</ele><time>2026-04-11T10:26:05.968Z</time></trkpt><trkpt lat="42.898625" lon="2.2849283"><ele>536.0</ele><time>2026-04-11T10:26:06.968Z</time></trkpt><trkpt lat="42.89862" lon="2.2850217"><ele>535.0</ele><time>2026-04-11T10:26:07.968Z</time></trkpt><trkpt lat="42.89863" lon="2.285125"><ele>534.0</ele><time>2026-04-11T10:26:08.969Z</time></trkpt><trkpt lat="42.8986367" lon="2.2852317"><ele>533.0</ele><time>2026-04-11T10:26:09.97Z</time></trkpt><trkpt lat="42.89864" lon="2.28534"><ele>532.0</ele><time>2026-04-11T10:26:10.969Z</time></trkpt><trkpt lat="42.898645" lon="2.2854467"><ele>531.0</ele><time>2026-04-11T10:26:11.969Z</time></trkpt><trkpt lat="42.8986467" lon="2.2855583"><ele>530.0</ele><time>2026-04-11T10:26:12.969Z</time></trkpt><trkpt lat="42.8986517" lon="2.2856617"><ele>528.7142857142857</ele><time>2026-04-11T10:26:13.969Z</time></trkpt><trkpt lat="42.8986583" lon="2.2857667"><ele>527.4285714285714</ele><time>2026-04-11T10:26:14.97Z</time></trkpt><trkpt lat="42.8986583" lon="2.2858717"><ele>526.1428571428571</ele><time>2026-04-11T10:26:15.969Z</time></trkpt><trkpt lat="42.8986567" lon="2.2859733"><ele>524.8571428571429</ele><time>2026-04-11T10:26:16.969Z</time></trkpt><trkpt lat="42.89865" lon="2.2860767"><ele>523.5714285714286</ele><time>2026-04-11T10:26:17.97Z</time></trkpt><trkpt lat="42.89864" lon="2.2861733"><ele>522.2857142857142</ele><time>2026-04-11T10:26:18.969Z</time></trkpt><trkpt lat="42.8986267" lon="2.286265"><ele>521.0</ele><time>2026-04-11T10:26:19.968Z</time></trkpt><trkpt lat="42.89862" lon="2.286355"><ele>519.3333333333333</ele><time>2026-04-11T10:26:20.969Z</time></trkpt><trkpt lat="42.8986167" lon="2.2864517"><ele>517.6666666666666</ele><time>2026-04-11T10:26:21.968Z</time></trkpt><trkpt lat="42.8986067" lon="2.2865567"><ele>516.0</ele><time>2026-04-11T10:26:22.968Z</time></trkpt><trkpt lat="42.8985933" lon="2.2866517"><ele>514.3333333333334</ele><time>2026-04-11T10:26:23.969Z</time></trkpt><trkpt lat="42.89858" lon="2.2867483"><ele>512.6666666666667</ele><time>2026-04-11T10:26:24.969Z</time></trkpt><trkpt lat="42.898575" lon="2.2868533"><ele>511.0</ele><time>2026-04-11T10:26:25.969Z</time></trkpt><trkpt lat="42.89858" lon="2.2869667"><ele>511.00000000000006</ele><time>2026-04-11T10:26:26.969Z</time></trkpt><trkpt lat="42.8985933" lon="2.2870717"><ele>511.0</ele><time>2026-04-11T10:26:27.97Z</time></trkpt><trkpt lat="42.898605" lon="2.2871767"><ele>511.0</ele><time>2026-04-11T10:26:28.969Z</time></trkpt><trkpt lat="42.8986083" lon="2.2872783"><ele>511.0</ele><time>2026-04-11T10:26:29.969Z</time></trkpt><trkpt lat="42.898615" lon="2.2873783"><ele>511.00000000000006</ele><time>2026-04-11T10:26:30.969Z</time></trkpt><trkpt lat="42.8986233" lon="2.2874767"><ele>511.0</ele><time>2026-04-11T10:26:31.969Z</time></trkpt><trkpt lat="42.8986367" lon="2.2875783"><ele>510.33333333333337</ele><time>2026-04-11T10:26:32.969Z</time></trkpt><trkpt lat="42.8986467" lon="2.2876983"><ele>509.6666666666667</ele><time>2026-04-11T10:26:33.969Z</time></trkpt><trkpt lat="42.8986667" lon="2.28781"><ele>509.0</ele><time>2026-04-11T10:26:34.969Z</time></trkpt><trkpt lat="42.89868" lon="2.2879233"><ele>508.33333333333337</ele><time>2026-04-11T10:26:35.969Z</time></trkpt><trkpt lat="42.8986917" lon="2.2880333"><ele>507.6666666666667</ele><time>2026-04-11T10:26:36.971Z</time></trkpt><trkpt lat="42.898705" lon="2.28813"><ele>507.0</ele><time>2026-04-11T10:26:37.968Z</time></trkpt><trkpt lat="42.8987217" lon="2.28829"><ele>506.0</ele><time>2026-04-11T10:26:39.969Z</time></trkpt><trkpt lat="42.8987533" lon="2.28846"><ele>505.0</ele><time>2026-04-11T10:26:41.969Z</time></trkpt><trkpt lat="42.898765" lon="2.2885617"><ele>504.0</ele><time>2026-04-11T10:26:42.969Z</time></trkpt><trkpt lat="42.89877" lon="2.28867"><ele>503.0</ele><time>2026-04-11T10:26:43.968Z</time></trkpt><trkpt lat="42.8987767" lon="2.2887767"><ele>502.0</ele><time>2026-04-11T10:26:44.969Z</time></trkpt><trkpt lat="42.8987883" lon="2.28888"><ele>501.0</ele><time>2026-04-11T10:26:45.968Z</time></trkpt><trkpt lat="42.898795" lon="2.2889817"><ele>500.1666666666667</ele><time>2026-04-11T10:26:46.968Z</time></trkpt><trkpt lat="42.8987983" lon="2.2890817"><ele>499.33333333333337</ele><time>2026-04-11T10:26:47.968Z</time></trkpt><trkpt lat="42.8988033" lon="2.2891833"><ele>498.5</ele><time>2026-04-11T10:26:48.969Z</time></trkpt><trkpt lat="42.8988033" lon="2.289285"><ele>497.6666666666667</ele><time>2026-04-11T10:26:49.971Z</time></trkpt><trkpt lat="42.8988033" lon="2.2893833"><ele>496.83333333333337</ele><time>2026-04-11T10:26:50.969Z</time></trkpt><trkpt lat="42.8988067" lon="2.28947"><ele>496.0</ele><time>2026-04-11T10:26:51.969Z</time></trkpt><trkpt lat="42.8988533" lon="2.289625"><ele>496.00000000000006</ele><time>2026-04-11T10:26:53.969Z</time></trkpt><trkpt lat="42.8988767" lon="2.2897267"><ele>496.0</ele><time>2026-04-11T10:26:54.97Z</time></trkpt><trkpt lat="42.8988967" lon="2.2898333"><ele>496.0</ele><time>2026-04-11T10:26:55.969Z</time></trkpt><trkpt lat="42.89892" lon="2.2899483"><ele>496.0</ele><time>2026-04-11T10:26:56.969Z</time></trkpt><trkpt lat="42.898935" lon="2.2900633"><ele>496.00000000000006</ele><time>2026-04-11T10:26:57.969Z</time></trkpt><trkpt lat="42.8989517" lon="2.2901783"><ele>496.0</ele><time>2026-04-11T10:26:58.969Z</time></trkpt><trkpt lat="42.898975" lon="2.2902983"><ele>495.50000000000006</ele><time>2026-04-11T10:26:59.97Z</time></trkpt><trkpt lat="42.89899" lon="2.2904217"><ele>495.0</ele><time>2026-04-11T10:27:00.969Z</time></trkpt><trkpt lat="42.8989983" lon="2.2905433"><ele>494.5</ele><time>2026-04-11T10:27:01.969Z</time></trkpt><trkpt lat="42.8990033" lon="2.2906683"><ele>494.0</ele><time>2026-04-11T10:27:02.969Z</time></trkpt><trkpt lat="42.89901" lon="2.2907867"><ele>493.50000000000006</ele><time>2026-04-11T10:27:03.969Z</time></trkpt><trkpt lat="42.8990167" lon="2.2909033"><ele>493.0</ele><time>2026-04-11T10:27:04.968Z</time></trkpt><trkpt lat="42.8990217" lon="2.29102"><ele>492.6666666666667</ele><time>2026-04-11T10:27:05.969Z</time></trkpt><trkpt lat="42.8990383" lon="2.2911383"><ele>492.33333333333337</ele><time>2026-04-11T10:27:06.969Z</time></trkpt><trkpt lat="42.899055" lon="2.2912517"><ele>492.0</ele><time>2026-04-11T10:27:07.969Z</time></trkpt><trkpt lat="42.899085" lon="2.2913617"><ele>491.66666666666663</ele><time>2026-04-11T10:27:08.969Z</time></trkpt><trkpt lat="42.8991167" lon="2.2914733"><ele>491.3333333333333</ele><time>2026-04-11T10:27:09.969Z</time></trkpt><trkpt lat="42.8991483" lon="2.2915867"><ele>491.0</ele><time>2026-04-11T10:27:10.97Z</time></trkpt><trkpt lat="42.899185" lon="2.2917033"><ele>490.99999999999994</ele><time>2026-04-11T10:27:11.969Z</time></trkpt><trkpt lat="42.89922" lon="2.29182"><ele>491.0</ele><time>2026-04-11T10:27:12.969Z</time></trkpt><trkpt lat="42.89925" lon="2.29194"><ele>491.0</ele><time>2026-04-11T10:27:13.97Z</time></trkpt><trkpt lat="42.8992733" lon="2.2920567"><ele>491.0</ele><time>2026-04-11T10:27:14.97Z</time></trkpt><trkpt lat="42.8993" lon="2.29217"><ele>490.99999999999994</ele><time>2026-04-11T10:27:15.969Z</time></trkpt><trkpt lat="42.89933" lon="2.2922783"><ele>491.0</ele><time>2026-04-11T10:27:16.969Z</time></trkpt><trkpt lat="42.8993683" lon="2.292385"><ele>488.16666666666663</ele><time>2026-04-11T10:27:17.969Z</time></trkpt><trkpt lat="42.899415" lon="2.29249"><ele>485.3333333333333</ele><time>2026-04-11T10:27:18.97Z</time></trkpt><trkpt lat="42.89946" lon="2.2925967"><ele>482.5</ele><time>2026-04-11T10:27:19.969Z</time></trkpt><trkpt lat="42.8995067" lon="2.2927033"><ele>479.66666666666663</ele><time>2026-04-11T10:27:20.97Z</time></trkpt><trkpt lat="42.899545" lon="2.2927983"><ele>476.8333333333333</ele><time>2026-04-11T10:27:21.969Z</time></trkpt><trkpt lat="42.8995733" lon="2.292885"><ele>474.0</ele><time>2026-04-11T10:27:22.969Z</time></trkpt><trkpt lat="42.8996383" lon="2.293045"><ele>473.2</ele><time>2026-04-11T10:27:24.969Z</time></trkpt><trkpt lat="42.89968" lon="2.293135"><ele>472.4</ele><time>2026-04-11T10:27:25.969Z</time></trkpt><trkpt lat="42.8997233" lon="2.2932333"><ele>471.6</ele><time>2026-04-11T10:27:26.969Z</time></trkpt><trkpt lat="42.8997583" lon="2.293345"><ele>470.8</ele><time>2026-04-11T10:27:27.969Z</time></trkpt><trkpt lat="42.8997967" lon="2.2934667"><ele>470.0</ele><time>2026-04-11T10:27:28.969Z</time></trkpt><trkpt lat="42.8998367" lon="2.293595"><ele>470.0</ele><time>2026-04-11T10:27:29.969Z</time></trkpt><trkpt lat="42.8998767" lon="2.2937183"><ele>470.0</ele><time>2026-04-11T10:27:30.969Z</time></trkpt><trkpt lat="42.8999067" lon="2.29384"><ele>470.0</ele><time>2026-04-11T10:27:31.971Z</time></trkpt><trkpt lat="42.8999367" lon="2.2939583"><ele>470.0</ele><time>2026-04-11T10:27:32.97Z</time></trkpt><trkpt lat="42.8999683" lon="2.2940467"><ele>470.0</ele><time>2026-04-11T10:27:33.969Z</time></trkpt><trkpt lat="42.89999" lon="2.2942233"><ele>470.8333333333333</ele><time>2026-04-11T10:27:35.968Z</time></trkpt><trkpt lat="42.90002" lon="2.2943183"><ele>471.66666666666663</ele><time>2026-04-11T10:27:36.969Z</time></trkpt><trkpt lat="42.9000417" lon="2.2944167"><ele>472.5</ele><time>2026-04-11T10:27:37.968Z</time></trkpt><trkpt lat="42.9000467" lon="2.2945217"><ele>473.33333333333337</ele><time>2026-04-11T10:27:38.968Z</time></trkpt><trkpt lat="42.9000617" lon="2.2946317"><ele>474.1666666666667</ele><time>2026-04-11T10:27:39.968Z</time></trkpt><trkpt lat="42.9000717" lon="2.2947433"><ele>475.0</ele><time>2026-04-11T10:27:40.967Z</time></trkpt><trkpt lat="42.9000867" lon="2.2948483"><ele>473.33333333333337</ele><time>2026-04-11T10:27:41.968Z</time></trkpt><trkpt lat="42.9001083" lon="2.294945"><ele>471.6666666666667</ele><time>2026-04-11T10:27:42.968Z</time></trkpt><trkpt lat="42.9001333" lon="2.2950267"><ele>470.0</ele><time>2026-04-11T10:27:43.968Z</time></trkpt><trkpt lat="42.90016" lon="2.2951583"><ele>468.33333333333337</ele><time>2026-04-11T10:27:45.968Z</time></trkpt><trkpt lat="42.9001767" lon="2.2952967"><ele>466.6666666666667</ele><time>2026-04-11T10:27:47.968Z</time></trkpt><trkpt lat="42.900195" lon="2.29539"><ele>465.0</ele><time>2026-04-11T10:27:48.969Z</time></trkpt><trkpt lat="42.900215" lon="2.2954883"><ele>465.0</ele><time>2026-04-11T10:27:49.968Z</time></trkpt><trkpt lat="42.9002367" lon="2.2955833"><ele>465.0</ele><time>2026-04-11T10:27:50.969Z</time></trkpt><trkpt lat="42.90026" lon="2.2956783"><ele>465.0</ele><time>2026-04-11T10:27:51.968Z</time></trkpt><trkpt lat="42.9002767" lon="2.2957683"><ele>465.0</ele><time>2026-04-11T10:27:52.97Z</time></trkpt><trkpt lat="42.9002917" lon="2.2959317"><ele>465.0</ele><time>2026-04-11T10:27:54.969Z</time></trkpt><trkpt lat="42.9003033" lon="2.2960183"><ele>465.0</ele><time>2026-04-11T10:27:55.968Z</time></trkpt><trkpt lat="42.900315" lon="2.2961117"><ele>463.85714285714283</ele><time>2026-04-11T10:27:56.968Z</time></trkpt><trkpt lat="42.9003183" lon="2.296205"><ele>462.7142857142858</ele><time>2026-04-11T10:27:57.968Z</time></trkpt><trkpt lat="42.900315" lon="2.2962983"><ele>461.5714285714286</ele><time>2026-04-11T10:27:58.968Z</time></trkpt><trkpt lat="42.90032" lon="2.29639"><ele>460.42857142857144</ele><time>2026-04-11T10:27:59.967Z</time></trkpt><trkpt lat="42.9003317" lon="2.2964867"><ele>459.28571428571433</ele><time>2026-04-11T10:28:00.968Z</time></trkpt><trkpt lat="42.90036" lon="2.2965783"><ele>458.1428571428572</ele><time>2026-04-11T10:28:01.969Z</time></trkpt><trkpt lat="42.9003983" lon="2.2966633"><ele>457.00000000000006</ele><time>2026-04-11T10:28:02.968Z</time></trkpt><trkpt lat="42.900435" lon="2.2967467"><ele>456.8571428571429</ele><time>2026-04-11T10:28:03.968Z</time></trkpt><trkpt lat="42.9004617" lon="2.2968317"><ele>456.7142857142857</ele><time>2026-04-11T10:28:04.968Z</time></trkpt><trkpt lat="42.9004767" lon="2.29692"><ele>456.57142857142856</ele><time>2026-04-11T10:28:05.968Z</time></trkpt><trkpt lat="42.9004883" lon="2.29701"><ele>456.42857142857144</ele><time>2026-04-11T10:28:06.968Z</time></trkpt><trkpt lat="42.900495" lon="2.2971033"><ele>456.2857142857142</ele><time>2026-04-11T10:28:07.968Z</time></trkpt><trkpt lat="42.90049" lon="2.29719"><ele>456.1428571428571</ele><time>2026-04-11T10:28:08.968Z</time></trkpt><trkpt lat="42.9004767" lon="2.2972767"><ele>456.0</ele><time>2026-04-11T10:28:09.968Z</time></trkpt><trkpt lat="42.900445" lon="2.29736"><ele>455.8333333333333</ele><time>2026-04-11T10:28:10.968Z</time></trkpt><trkpt lat="42.900405" lon="2.297435"><ele>455.66666666666663</ele><time>2026-04-11T10:28:11.969Z</time></trkpt><trkpt lat="42.9003483" lon="2.2974983"><ele>455.5</ele><time>2026-04-11T10:28:12.968Z</time></trkpt><trkpt lat="42.900285" lon="2.2975517"><ele>455.3333333333333</ele><time>2026-04-11T10:28:13.968Z</time></trkpt><trkpt lat="42.90022" lon="2.297605"><ele>455.16666666666663</ele><time>2026-04-11T10:28:14.968Z</time></trkpt><trkpt lat="42.9001633" lon="2.2976433"><ele>455.0</ele><time>2026-04-11T10:28:15.968Z</time></trkpt><trkpt lat="42.9000383" lon="2.29768"><ele>455.2857142857143</ele><time>2026-04-11T10:28:17.969Z</time></trkpt><trkpt lat="42.89997" lon="2.29769"><ele>455.57142857142856</ele><time>2026-04-11T10:28:18.968Z</time></trkpt><trkpt lat="42.8999017" lon="2.297705"><ele>455.8571428571429</ele><time>2026-04-11T10:28:19.967Z</time></trkpt><trkpt lat="42.8998367" lon="2.297725"><ele>456.14285714285717</ele><time>2026-04-11T10:28:20.968Z</time></trkpt><trkpt lat="42.8997667" lon="2.2977433"><ele>456.42857142857144</ele><time>2026-04-11T10:28:21.968Z</time></trkpt><trkpt lat="42.8996967" lon="2.2977633"><ele>456.7142857142858</ele><time>2026-04-11T10:28:22.967Z</time></trkpt><trkpt lat="42.8996217" lon="2.2977883"><ele>457.00000000000006</ele><time>2026-04-11T10:28:23.968Z</time></trkpt><trkpt lat="42.8995567" lon="2.2978133"><ele>457.00000000000006</ele><time>2026-04-11T10:28:24.968Z</time></trkpt><trkpt lat="42.8994933" lon="2.2978333"><ele>457.0</ele><time>2026-04-11T10:28:25.967Z</time></trkpt><trkpt lat="42.899385" lon="2.2978767"><ele>457.0</ele><time>2026-04-11T10:28:27.968Z</time></trkpt><trkpt lat="42.8992933" lon="2.297915"><ele>457.0</ele><time>2026-04-11T10:28:29.968Z</time></trkpt><trkpt lat="42.8992267" lon="2.2979717"><ele>457.00000000000006</ele><time>2026-04-11T10:28:31.968Z</time></trkpt><trkpt lat="42.8991667" lon="2.29804"><ele>457.0</ele><time>2026-04-11T10:28:34.968Z</time></trkpt><trkpt lat="42.8992167" lon="2.2980983"><ele>456.83333333333337</ele><time>2026-04-11T10:28:38.968Z</time></trkpt><trkpt lat="42.8992817" lon="2.2980983"><ele>456.6666666666667</ele><time>2026-04-11T10:28:40.968Z</time></trkpt><trkpt lat="42.8993617" lon="2.2981067"><ele>456.5</ele><time>2026-04-11T10:28:42.97Z</time></trkpt><trkpt lat="42.8994483" lon="2.29811"><ele>456.33333333333337</ele><time>2026-04-11T10:28:44.968Z</time></trkpt><trkpt lat="42.899545" lon="2.298115"><ele>456.1666666666667</ele><time>2026-04-11T10:28:46.968Z</time></trkpt><trkpt lat="42.8996517" lon="2.2981217"><ele>456.0</ele><time>2026-04-11T10:28:48.968Z</time></trkpt><trkpt lat="42.89976" lon="2.298135"><ele>456.0</ele><time>2026-04-11T10:28:50.968Z</time></trkpt><trkpt lat="42.8998717" lon="2.2981617"><ele>456.0</ele><time>2026-04-11T10:28:52.968Z</time></trkpt><trkpt lat="42.8999867" lon="2.2981833"><ele>456.0</ele><time>2026-04-11T10:28:54.968Z</time></trkpt><trkpt lat="42.9000567" lon="2.2982"><ele>456.0</ele><time>2026-04-11T10:28:55.969Z</time></trkpt><trkpt lat="42.9001267" lon="2.2982133"><ele>456.0</ele><time>2026-04-11T10:28:56.968Z</time></trkpt><trkpt lat="42.9001983" lon="2.298225"><ele>456.0</ele><time>2026-04-11T10:28:57.968Z</time></trkpt><trkpt lat="42.900265" lon="2.2982533"><ele>455.6666666666667</ele><time>2026-04-11T10:28:58.968Z</time></trkpt><trkpt lat="42.90033" lon="2.298285"><ele>455.33333333333337</ele><time>2026-04-11T10:28:59.968Z</time></trkpt><trkpt lat="42.90039" lon="2.2983167"><ele>455.0</ele><time>2026-04-11T10:29:00.968Z</time></trkpt><trkpt lat="42.9004483" lon="2.2983617"><ele>454.6666666666667</ele><time>2026-04-11T10:29:01.968Z</time></trkpt><trkpt lat="42.900545" lon="2.2984467"><ele>454.33333333333337</ele><time>2026-04-11T10:29:03.968Z</time></trkpt><trkpt lat="42.900635" lon="2.298565"><ele>454.0</ele><time>2026-04-11T10:29:05.969Z</time></trkpt><trkpt lat="42.900675" lon="2.2986333"><ele>454.0</ele><time>2026-04-11T10:29:06.969Z</time></trkpt><trkpt lat="42.9007217" lon="2.2987033"><ele>454.00000000000006</ele><time>2026-04-11T10:29:07.968Z</time></trkpt><trkpt lat="42.9007733" lon="2.2987767"><ele>454.0</ele><time>2026-04-11T10:29:08.968Z</time></trkpt><trkpt lat="42.900825" lon="2.29885"><ele>454.0</ele><time>2026-04-11T10:29:09.968Z</time></trkpt><trkpt lat="42.9008783" lon="2.2989217"><ele>454.00000000000006</ele><time>2026-04-11T10:29:10.968Z</time></trkpt><trkpt lat="42.9009317" lon="2.298995"><ele>454.0</ele><time>2026-04-11T10:29:11.968Z</time></trkpt><trkpt lat="42.90098" lon="2.2990667"><ele>454.0</ele><time>2026-04-11T10:29:12.968Z</time></trkpt><trkpt lat="42.9010317" lon="2.2991433"><ele>453.5714285714286</ele><time>2026-04-11T10:29:13.968Z</time></trkpt><trkpt lat="42.9010767" lon="2.29922"><ele>453.1428571428572</ele><time>2026-04-11T10:29:14.968Z</time></trkpt><trkpt lat="42.9011117" lon="2.299305"><ele>452.7142857142857</ele><time>2026-04-11T10:29:15.968Z</time></trkpt><trkpt lat="42.9011433" lon="2.29939"><ele>452.28571428571433</ele><time>2026-04-11T10:29:16.967Z</time></trkpt><trkpt lat="42.90119" lon="2.299475"><ele>451.8571428571429</ele><time>2026-04-11T10:29:17.968Z</time></trkpt><trkpt lat="42.90124" lon="2.2995517"><ele>451.42857142857144</ele><time>2026-04-11T10:29:18.968Z</time></trkpt><trkpt lat="42.9012967" lon="2.2996217"><ele>451.0</ele><time>2026-04-11T10:29:19.968Z</time></trkpt><trkpt lat="42.9013483" lon="2.29968"><ele>451.00000000000006</ele><time>2026-04-11T10:29:20.968Z</time></trkpt><trkpt lat="42.9014067" lon="2.29973"><ele>451.0</ele><time>2026-04-11T10:29:21.968Z</time></trkpt><trkpt lat="42.901465" lon="2.299785"><ele>451.0</ele><time>2026-04-11T10:29:22.968Z</time></trkpt><trkpt lat="42.90151" lon="2.2998633"><ele>451.0</ele><time>2026-04-11T10:29:23.968Z</time></trkpt><trkpt lat="42.9015617" lon="2.2999367"><ele>451.00000000000006</ele><time>2026-04-11T10:29:24.969Z</time></trkpt><trkpt lat="42.9015983" lon="2.30003"><ele>451.0</ele><time>2026-04-11T10:29:25.968Z</time></trkpt><trkpt lat="42.9016367" lon="2.300135"><ele>451.20000000000005</ele><time>2026-04-11T10:29:26.969Z</time></trkpt><trkpt lat="42.9016717" lon="2.3002417"><ele>451.40000000000003</ele><time>2026-04-11T10:29:27.968Z</time></trkpt><trkpt lat="42.9017033" lon="2.3003583"><ele>451.6</ele><time>2026-04-11T10:29:28.969Z</time></trkpt><trkpt lat="42.9017283" lon="2.30048"><ele>451.8</ele><time>2026-04-11T10:29:29.968Z</time></trkpt><trkpt lat="42.9017567" lon="2.3006033"><ele>452.0</ele><time>2026-04-11T10:29:30.968Z</time></trkpt><trkpt lat="42.90178" lon="2.3007367"><ele>451.0</ele><time>2026-04-11T10:29:31.968Z</time></trkpt><trkpt lat="42.9018067" lon="2.300865"><ele>450.00000000000006</ele><time>2026-04-11T10:29:32.969Z</time></trkpt><trkpt lat="42.90182" lon="2.3010017"><ele>449.00000000000006</ele><time>2026-04-11T10:29:33.969Z</time></trkpt><trkpt lat="42.9018433" lon="2.30113"><ele>448.0</ele><time>2026-04-11T10:29:34.968Z</time></trkpt><trkpt lat="42.901865" lon="2.3012567"><ele>447.0</ele><time>2026-04-11T10:29:35.968Z</time></trkpt><trkpt lat="42.9018617" lon="2.3013817"><ele>446.20000000000005</ele><time>2026-04-11T10:29:36.968Z</time></trkpt><trkpt lat="42.9018533" lon="2.3015083"><ele>445.40000000000003</ele><time>2026-04-11T10:29:37.968Z</time></trkpt><trkpt lat="42.9018467" lon="2.3016283"><ele>444.59999999999997</ele><time>2026-04-11T10:29:38.97Z</time></trkpt><trkpt lat="42.9018467" lon="2.3017467"><ele>443.79999999999995</ele><time>2026-04-11T10:29:39.968Z</time></trkpt><trkpt lat="42.9018533" lon="2.3018667"><ele>443.0</ele><time>2026-04-11T10:29:40.968Z</time></trkpt><trkpt lat="42.9018633" lon="2.301995"><ele>443.0</ele><time>2026-04-11T10:29:41.968Z</time></trkpt><trkpt lat="42.90188" lon="2.3021183"><ele>442.99999999999994</ele><time>2026-04-11T10:29:42.969Z</time></trkpt><trkpt lat="42.9019" lon="2.3022417"><ele>442.99999999999994</ele><time>2026-04-11T10:29:43.968Z</time></trkpt><trkpt lat="42.90191" lon="2.3023733"><ele>443.0</ele><time>2026-04-11T10:29:44.968Z</time></trkpt><trkpt lat="42.9019067" lon="2.3025067"><ele>443.0</ele><time>2026-04-11T10:29:45.968Z</time></trkpt><trkpt lat="42.901895" lon="2.30263"><ele>442.59999999999997</ele><time>2026-04-11T10:29:46.969Z</time></trkpt><trkpt lat="42.901885" lon="2.3027533"><ele>442.19999999999993</ele><time>2026-04-11T10:29:47.968Z</time></trkpt><trkpt lat="42.9018783" lon="2.3028883"><ele>441.8</ele><time>2026-04-11T10:29:48.969Z</time></trkpt><trkpt lat="42.9018867" lon="2.3030433"><ele>441.4</ele><time>2026-04-11T10:29:49.968Z</time></trkpt><trkpt lat="42.9019167" lon="2.3031967"><ele>441.0</ele><time>2026-04-11T10:29:50.969Z</time></trkpt><trkpt lat="42.9019417" lon="2.3033467"><ele>439.8</ele><time>2026-04-11T10:29:51.969Z</time></trkpt><trkpt lat="42.9019533" lon="2.3034917"><ele>438.6</ele><time>2026-04-11T10:29:52.968Z</time></trkpt><trkpt lat="42.9019367" lon="2.303635"><ele>437.4</ele><time>2026-04-11T10:29:53.968Z</time></trkpt><trkpt lat="42.9019171" lon="2.3037665"><ele>436.2</ele><time>2026-04-11T10:29:54.969Z</time></trkpt><trkpt lat="42.90189" lon="2.3038881"><ele>435.0</ele><time>2026-04-11T10:29:55.968Z</time></trkpt><trkpt lat="42.9018539" lon="2.3039979"><ele>435.0</ele><time>2026-04-11T10:29:56.968Z</time></trkpt><trkpt lat="42.9018136" lon="2.3041013"><ele>435.0</ele><time>2026-04-11T10:29:57.968Z</time></trkpt><trkpt lat="42.9017691" lon="2.3042092"><ele>435.0</ele><time>2026-04-11T10:29:58.968Z</time></trkpt><trkpt lat="42.9017342" lon="2.3043307"><ele>435.0</ele><time>2026-04-11T10:29:59.969Z</time></trkpt><trkpt lat="42.9017056" lon="2.3044562"><ele>435.0</ele><time>2026-04-11T10:30:00.968Z</time></trkpt><trkpt lat="42.9016873" lon="2.304577"><ele>438.0</ele><time>2026-04-11T10:30:01.969Z</time></trkpt><trkpt lat="42.9016801" lon="2.304697"><ele>441.0</ele><time>2026-04-11T10:30:02.969Z</time></trkpt><trkpt lat="42.9016768" lon="2.3048172"><ele>444.0</ele><time>2026-04-11T10:30:03.968Z</time></trkpt><trkpt lat="42.9016728" lon="2.3049437"><ele>447.0</ele><time>2026-04-11T10:30:04.968Z</time></trkpt><trkpt lat="42.9016589" lon="2.3050699"><ele>450.0</ele><time>2026-04-11T10:30:05.969Z</time></trkpt><trkpt lat="42.9016364" lon="2.305191"><ele>450.0</ele><time>2026-04-11T10:30:06.968Z</time></trkpt><trkpt lat="42.9016004" lon="2.3053011"><ele>450.0</ele><time>2026-04-11T10:30:07.968Z</time></trkpt><trkpt lat="42.9015549" lon="2.3054101"><ele>450.0</ele><time>2026-04-11T10:30:08.968Z</time></trkpt><trkpt lat="42.9015111" lon="2.3055248"><ele>450.0</ele><time>2026-04-11T10:30:09.969Z</time></trkpt><trkpt lat="42.9014702" lon="2.3056414"><ele>450.0</ele><time>2026-04-11T10:30:10.969Z</time></trkpt><trkpt lat="42.9014391" lon="2.3057545"><ele>448.8333333333333</ele><time>2026-04-11T10:30:11.968Z</time></trkpt><trkpt lat="42.9014163" lon="2.3058675"><ele>447.66666666666663</ele><time>2026-04-11T10:30:12.968Z</time></trkpt><trkpt lat="42.9013982" lon="2.3059744"><ele>446.5</ele><time>2026-04-11T10:30:13.968Z</time></trkpt><trkpt lat="42.9013847" lon="2.306079"><ele>445.3333333333333</ele><time>2026-04-11T10:30:14.97Z</time></trkpt><trkpt lat="42.9013771" lon="2.3061806"><ele>444.16666666666663</ele><time>2026-04-11T10:30:15.97Z</time></trkpt><trkpt lat="42.9013716" lon="2.3062905"><ele>443.0</ele><time>2026-04-11T10:30:16.968Z</time></trkpt><trkpt lat="42.9013691" lon="2.3064077"><ele>441.99999999999994</ele><time>2026-04-11T10:30:17.968Z</time></trkpt><trkpt lat="42.9013711" lon="2.3065318"><ele>441.0</ele><time>2026-04-11T10:30:18.968Z</time></trkpt><trkpt lat="42.9013748" lon="2.3066589"><ele>440.0</ele><time>2026-04-11T10:30:19.968Z</time></trkpt><trkpt lat="42.9013862" lon="2.3067826"><ele>439.0</ele><time>2026-04-11T10:30:20.969Z</time></trkpt><trkpt lat="42.9013953" lon="2.3069003"><ele>437.99999999999994</ele><time>2026-04-11T10:30:21.968Z</time></trkpt><trkpt lat="42.9014022" lon="2.3070104"><ele>437.0</ele><time>2026-04-11T10:30:22.968Z</time></trkpt><trkpt lat="42.9014055" lon="2.3071159"><ele>436.99999999999994</ele><time>2026-04-11T10:30:23.968Z</time></trkpt><trkpt lat="42.9014068" lon="2.3072175"><ele>437.0</ele><time>2026-04-11T10:30:24.969Z</time></trkpt><trkpt lat="42.9014043" lon="2.3073201"><ele>437.0</ele><time>2026-04-11T10:30:25.968Z</time></trkpt><trkpt lat="42.9014095" lon="2.3074264"><ele>437.0</ele><time>2026-04-11T10:30:26.969Z</time></trkpt><trkpt lat="42.9014166" lon="2.3075397"><ele>436.99999999999994</ele><time>2026-04-11T10:30:27.968Z</time></trkpt><trkpt lat="42.9014278" lon="2.3076492"><ele>437.0</ele><time>2026-04-11T10:30:28.968Z</time></trkpt><trkpt lat="42.901448" lon="2.307758"><ele>436.66666666666663</ele><time>2026-04-11T10:30:29.969Z</time></trkpt><trkpt lat="42.9014811" lon="2.3078651"><ele>436.3333333333333</ele><time>2026-04-11T10:30:30.969Z</time></trkpt><trkpt lat="42.9015191" lon="2.3079703"><ele>436.0</ele><time>2026-04-11T10:30:31.969Z</time></trkpt><trkpt lat="42.9015549" lon="2.3080774"><ele>435.66666666666663</ele><time>2026-04-11T10:30:32.968Z</time></trkpt><trkpt lat="42.9015877" lon="2.3081828"><ele>435.3333333333333</ele><time>2026-04-11T10:30:33.968Z</time></trkpt><trkpt lat="42.9016136" lon="2.308289"><ele>435.0</ele><time>2026-04-11T10:30:34.968Z</time></trkpt><trkpt lat="42.9016277" lon="2.3083983"><ele>435.0</ele><time>2026-04-11T10:30:35.969Z</time></trkpt><trkpt lat="42.9016153" lon="2.3085135"><ele>435.0</ele><time>2026-04-11T10:30:36.968Z</time></trkpt><trkpt lat="42.9015919" lon="2.30863"><ele>435.0</ele><time>2026-04-11T10:30:37.975Z</time></trkpt><trkpt lat="42.9015694" lon="2.3087471"><ele>435.0</ele><time>2026-04-11T10:30:38.968Z</time></trkpt><trkpt lat="42.9015388" lon="2.3088696"><ele>435.0</ele><time>2026-04-11T10:30:39.968Z</time></trkpt><trkpt lat="42.9015227" lon="2.3089657"><ele>435.0</ele><time>2026-04-11T10:30:40.968Z</time></trkpt><trkpt lat="42.9015062" lon="2.3090621"><ele>433.3333333333333</ele><time>2026-04-11T10:30:41.968Z</time></trkpt><trkpt lat="42.9015145" lon="2.3091971"><ele>431.66666666666663</ele><time>2026-04-11T10:30:43.968Z</time></trkpt><trkpt lat="42.9014632" lon="2.3093353"><ele>430.0</ele><time>2026-04-11T10:30:45.968Z</time></trkpt><trkpt lat="42.9014523" lon="2.3094383"><ele>428.3333333333333</ele><time>2026-04-11T10:30:47.97Z</time></trkpt><trkpt lat="42.9015067" lon="2.3094906"><ele>426.66666666666663</ele><time>2026-04-11T10:30:49.968Z</time></trkpt><trkpt lat="42.9015712" lon="2.3094909"><ele>425.0</ele><time>2026-04-11T10:30:51.968Z</time></trkpt><trkpt lat="42.9016355" lon="2.3094174"><ele>424.99999999999994</ele><time>2026-04-11T10:30:53.968Z</time></trkpt><trkpt lat="42.9016706" lon="2.3092821"><ele>425.0</ele><time>2026-04-11T10:30:55.968Z</time></trkpt><trkpt lat="42.9016946" lon="2.3091601"><ele>425.0</ele><time>2026-04-11T10:30:57.969Z</time></trkpt><trkpt lat="42.9017045" lon="2.3090653"><ele>425.0</ele><time>2026-04-11T10:30:59.968Z</time></trkpt><trkpt lat="42.9017419" lon="2.3089762"><ele>424.99999999999994</ele><time>2026-04-11T10:31:01.968Z</time></trkpt><trkpt lat="42.9017947" lon="2.3088732"><ele>425.0</ele><time>2026-04-11T10:31:03.969Z</time></trkpt><trkpt lat="42.9018618" lon="2.3087606"><ele>422.8</ele><time>2026-04-11T10:31:05.969Z</time></trkpt><trkpt lat="42.9019332" lon="2.3086467"><ele>420.6</ele><time>2026-04-11T10:31:07.968Z</time></trkpt><trkpt lat="42.901999" lon="2.3085357"><ele>418.4</ele><time>2026-04-11T10:31:09.969Z</time></trkpt><trkpt lat="42.9020681" lon="2.3084096"><ele>416.2</ele><time>2026-04-11T10:31:11.968Z</time></trkpt><trkpt lat="42.9021021" lon="2.3083342"><ele>414.0</ele><time>2026-04-11T10:31:12.968Z</time></trkpt><trkpt lat="42.9021368" lon="2.3082508"><ele>414.0</ele><time>2026-04-11T10:31:13.969Z</time></trkpt><trkpt lat="42.9021593" lon="2.3081605"><ele>414.0</ele><time>2026-04-11T10:31:14.969Z</time></trkpt><trkpt lat="42.9021926" lon="2.3080747"><ele>414.0</ele><time>2026-04-11T10:31:15.968Z</time></trkpt><trkpt lat="42.9022373" lon="2.3080072"><ele>414.0</ele><time>2026-04-11T10:31:16.968Z</time></trkpt><trkpt lat="42.9023414" lon="2.3079018"><ele>414.0</ele><time>2026-04-11T10:31:18.968Z</time></trkpt><trkpt lat="42.9024082" lon="2.3078635"><ele>414.0</ele><time>2026-04-11T10:31:19.968Z</time></trkpt><trkpt lat="42.9024739" lon="2.3078354"><ele>414.8333333333333</ele><time>2026-04-11T10:31:20.969Z</time></trkpt><trkpt lat="42.9025424" lon="2.3077986"><ele>415.66666666666663</ele><time>2026-04-11T10:31:21.968Z</time></trkpt><trkpt lat="42.9026098" lon="2.3077471"><ele>416.5</ele><time>2026-04-11T10:31:22.969Z</time></trkpt><trkpt lat="42.9026727" lon="2.3076797"><ele>417.3333333333333</ele><time>2026-04-11T10:31:23.968Z</time></trkpt><trkpt lat="42.9027291" lon="2.3075992"><ele>418.16666666666663</ele><time>2026-04-11T10:31:24.97Z</time></trkpt><trkpt lat="42.9027785" lon="2.3075079"><ele>419.0</ele><time>2026-04-11T10:31:25.969Z</time></trkpt><trkpt lat="42.9028224" lon="2.3074129"><ele>417.99999999999994</ele><time>2026-04-11T10:31:26.968Z</time></trkpt><trkpt lat="42.9028651" lon="2.3073193"><ele>417.0</ele><time>2026-04-11T10:31:27.969Z</time></trkpt><trkpt lat="42.9029116" lon="2.307233"><ele>416.0</ele><time>2026-04-11T10:31:28.968Z</time></trkpt><trkpt lat="42.9029591" lon="2.3071476"><ele>415.0</ele><time>2026-04-11T10:31:29.968Z</time></trkpt><trkpt lat="42.9029986" lon="2.307067"><ele>414.0</ele><time>2026-04-11T10:31:30.969Z</time></trkpt><trkpt lat="42.9030272" lon="2.3069794"><ele>412.99999999999994</ele><time>2026-04-11T10:31:31.968Z</time></trkpt><trkpt lat="42.9030495" lon="2.3068977"><ele>412.0</ele><time>2026-04-11T10:31:32.969Z</time></trkpt><trkpt lat="42.9031021" lon="2.3067559"><ele>412.00000000000006</ele><time>2026-04-11T10:31:34.968Z</time></trkpt><trkpt lat="42.9031852" lon="2.3066798"><ele>412.0</ele><time>2026-04-11T10:31:36.969Z</time></trkpt><trkpt lat="42.9032731" lon="2.3066899"><ele>412.0</ele><time>2026-04-11T10:31:38.969Z</time></trkpt><trkpt lat="42.9033528" lon="2.3067812"><ele>412.0</ele><time>2026-04-11T10:31:40.968Z</time></trkpt><trkpt lat="42.9033925" lon="2.3068557"><ele>412.00000000000006</ele><time>2026-04-11T10:31:41.968Z</time></trkpt><trkpt lat="42.9034261" lon="2.306956"><ele>412.0</ele><time>2026-04-11T10:31:42.968Z</time></trkpt><trkpt lat="42.9034657" lon="2.3070532"><ele>414.33333333333337</ele><time>2026-04-11T10:31:43.968Z</time></trkpt><trkpt lat="42.9035107" lon="2.307149"><ele>416.6666666666667</ele><time>2026-04-11T10:31:44.968Z</time></trkpt><trkpt lat="42.9035534" lon="2.3072458"><ele>419.0</ele><time>2026-04-11T10:31:45.969Z</time></trkpt><trkpt lat="42.9035991" lon="2.3073502"><ele>421.33333333333337</ele><time>2026-04-11T10:31:46.969Z</time></trkpt><trkpt lat="42.9036444" lon="2.3074503"><ele>423.6666666666667</ele><time>2026-04-11T10:31:47.969Z</time></trkpt><trkpt lat="42.9036814" lon="2.3075554"><ele>426.0</ele><time>2026-04-11T10:31:48.969Z</time></trkpt><trkpt lat="42.9037108" lon="2.3076654"><ele>426.0</ele><time>2026-04-11T10:31:49.969Z</time></trkpt><trkpt lat="42.9037295" lon="2.3077765"><ele>426.0</ele><time>2026-04-11T10:31:50.969Z</time></trkpt><trkpt lat="42.9037402" lon="2.3078965"><ele>426.0</ele><time>2026-04-11T10:31:51.969Z</time></trkpt><trkpt lat="42.9037492" lon="2.308016"><ele>426.0</ele><time>2026-04-11T10:31:52.968Z</time></trkpt><trkpt lat="42.9037609" lon="2.3081329"><ele>426.0</ele><time>2026-04-11T10:31:53.969Z</time></trkpt><trkpt lat="42.9037673" lon="2.3082409"><ele>426.0</ele><time>2026-04-11T10:31:54.969Z</time></trkpt><trkpt lat="42.9037809" lon="2.3083514"><ele>424.8333333333333</ele><time>2026-04-11T10:31:55.969Z</time></trkpt><trkpt lat="42.9037882" lon="2.3084641"><ele>423.66666666666663</ele><time>2026-04-11T10:31:56.969Z</time></trkpt><trkpt lat="42.9037837" lon="2.3085788"><ele>422.5</ele><time>2026-04-11T10:31:57.969Z</time></trkpt><trkpt lat="42.9037772" lon="2.308692"><ele>421.3333333333333</ele><time>2026-04-11T10:31:58.969Z</time></trkpt><trkpt lat="42.9037673" lon="2.3088034"><ele>420.16666666666663</ele><time>2026-04-11T10:31:59.968Z</time></trkpt><trkpt lat="42.9037622" lon="2.3089228"><ele>419.0</ele><time>2026-04-11T10:32:00.969Z</time></trkpt><trkpt lat="42.9037628" lon="2.3090496"><ele>417.8333333333333</ele><time>2026-04-11T10:32:01.968Z</time></trkpt><trkpt lat="42.9037714" lon="2.3091819"><ele>416.66666666666663</ele><time>2026-04-11T10:32:02.97Z</time></trkpt><trkpt lat="42.9037872" lon="2.3093099"><ele>415.5</ele><time>2026-04-11T10:32:03.969Z</time></trkpt><trkpt lat="42.90381" lon="2.3094219"><ele>414.33333333333337</ele><time>2026-04-11T10:32:04.968Z</time></trkpt><trkpt lat="42.9038372" lon="2.3095179"><ele>413.1666666666667</ele><time>2026-04-11T10:32:05.97Z</time></trkpt><trkpt lat="42.9038776" lon="2.3095938"><ele>412.0</ele><time>2026-04-11T10:32:06.969Z</time></trkpt><trkpt lat="42.9039914" lon="2.3096505"><ele>412.00000000000006</ele><time>2026-04-11T10:32:08.969Z</time></trkpt><trkpt lat="42.904068" lon="2.309645"><ele>412.0</ele><time>2026-04-11T10:32:09.969Z</time></trkpt><trkpt lat="42.9041463" lon="2.3096061"><ele>412.0</ele><time>2026-04-11T10:32:10.968Z</time></trkpt><trkpt lat="42.9042219" lon="2.3095436"><ele>412.0</ele><time>2026-04-11T10:32:11.968Z</time></trkpt><trkpt lat="42.9042969" lon="2.3094606"><ele>412.00000000000006</ele><time>2026-04-11T10:32:12.969Z</time></trkpt><trkpt lat="42.9043691" lon="2.3093629"><ele>412.0</ele><time>2026-04-11T10:32:13.968Z</time></trkpt><trkpt lat="42.9044441" lon="2.3092659"><ele>411.83333333333337</ele><time>2026-04-11T10:32:14.969Z</time></trkpt><trkpt lat="42.9045182" lon="2.3091695"><ele>411.6666666666667</ele><time>2026-04-11T10:32:15.969Z</time></trkpt><trkpt lat="42.9045851" lon="2.3090739"><ele>411.5</ele><time>2026-04-11T10:32:16.969Z</time></trkpt><trkpt lat="42.9046436" lon="2.3089828"><ele>411.33333333333337</ele><time>2026-04-11T10:32:17.969Z</time></trkpt><trkpt lat="42.9047014" lon="2.308903"><ele>411.1666666666667</ele><time>2026-04-11T10:32:18.968Z</time></trkpt><trkpt lat="42.9047594" lon="2.3088445"><ele>411.0</ele><time>2026-04-11T10:32:19.968Z</time></trkpt><trkpt lat="42.9048252" lon="2.3088044"><ele>411.0</ele><time>2026-04-11T10:32:20.969Z</time></trkpt><trkpt lat="42.9049199" lon="2.3088534"><ele>411.0</ele><time>2026-04-11T10:32:22.97Z</time></trkpt><trkpt lat="42.9049648" lon="2.3089169"><ele>411.0</ele><time>2026-04-11T10:32:23.969Z</time></trkpt><trkpt lat="42.9050054" lon="2.3090184"><ele>411.0</ele><time>2026-04-11T10:32:24.969Z</time></trkpt><trkpt lat="42.9050501" lon="2.3091269"><ele>411.0</ele><time>2026-04-11T10:32:25.97Z</time></trkpt><trkpt lat="42.9051042" lon="2.3092513"><ele>411.0</ele><time>2026-04-11T10:32:26.97Z</time></trkpt><trkpt lat="42.9051698" lon="2.3093844"><ele>412.4</ele><time>2026-04-11T10:32:27.969Z</time></trkpt><trkpt lat="42.9052347" lon="2.3095167"><ele>413.8</ele><time>2026-04-11T10:32:28.969Z</time></trkpt><trkpt lat="42.9052987" lon="2.3096459"><ele>415.2</ele><time>2026-04-11T10:32:29.969Z</time></trkpt><trkpt lat="42.9053558" lon="2.3097644"><ele>416.59999999999997</ele><time>2026-04-11T10:32:30.97Z</time></trkpt><trkpt lat="42.9054119" lon="2.3098808"><ele>418.0</ele><time>2026-04-11T10:32:31.971Z</time></trkpt><trkpt lat="42.9054538" lon="2.3099927"><ele>418.0</ele><time>2026-04-11T10:32:32.969Z</time></trkpt><trkpt lat="42.9054918" lon="2.3101135"><ele>418.0</ele><time>2026-04-11T10:32:33.97Z</time></trkpt><trkpt lat="42.9055196" lon="2.3102381"><ele>418.0</ele><time>2026-04-11T10:32:34.968Z</time></trkpt><trkpt lat="42.9055303" lon="2.3103674"><ele>418.0</ele><time>2026-04-11T10:32:35.969Z</time></trkpt><trkpt lat="42.9055325" lon="2.3104955"><ele>418.0</ele><time>2026-04-11T10:32:36.969Z</time></trkpt><trkpt lat="42.9055298" lon="2.3106041"><ele>417.4</ele><time>2026-04-11T10:32:37.968Z</time></trkpt><trkpt lat="42.9055294" lon="2.3106983"><ele>416.79999999999995</ele><time>2026-04-11T10:32:38.97Z</time></trkpt><trkpt lat="42.9055356" lon="2.3107843"><ele>416.2</ele><time>2026-04-11T10:32:39.969Z</time></trkpt><trkpt lat="42.9055806" lon="2.310908"><ele>415.6</ele><time>2026-04-11T10:32:41.969Z</time></trkpt><trkpt lat="42.9056973" lon="2.3109399"><ele>415.0</ele><time>2026-04-11T10:32:43.97Z</time></trkpt><trkpt lat="42.9058049" lon="2.3109043"><ele>415.0</ele><time>2026-04-11T10:32:45.968Z</time></trkpt><trkpt lat="42.9058909" lon="2.3108021"><ele>415.0</ele><time>2026-04-11T10:32:47.969Z</time></trkpt><trkpt lat="42.9059271" lon="2.3107294"><ele>415.0</ele><time>2026-04-11T10:32:48.971Z</time></trkpt><trkpt lat="42.9059684" lon="2.310635"><ele>415.0</ele><time>2026-04-11T10:32:49.968Z</time></trkpt><trkpt lat="42.9060128" lon="2.3105214"><ele>415.0</ele><time>2026-04-11T10:32:50.968Z</time></trkpt><trkpt lat="42.9060681" lon="2.3103953"><ele>415.0</ele><time>2026-04-11T10:32:51.968Z</time></trkpt><trkpt lat="42.9061264" lon="2.3102577"><ele>415.0</ele><time>2026-04-11T10:32:52.967Z</time></trkpt><trkpt lat="42.9061881" lon="2.3101452"><ele>415.0</ele><time>2026-04-11T10:32:53.968Z</time></trkpt><trkpt lat="42.9062462" lon="2.3100414"><ele>415.0</ele><time>2026-04-11T10:32:54.968Z</time></trkpt><trkpt lat="42.9063032" lon="2.3099336"><ele>415.0</ele><time>2026-04-11T10:32:55.969Z</time></trkpt><trkpt lat="42.9063611" lon="2.309816"><ele>417.2</ele><time>2026-04-11T10:32:56.968Z</time></trkpt><trkpt lat="42.906425" lon="2.3096985"><ele>419.4</ele><time>2026-04-11T10:32:57.968Z</time></trkpt><trkpt lat="42.9064845" lon="2.3095707"><ele>421.6</ele><time>2026-04-11T10:32:58.968Z</time></trkpt><trkpt lat="42.906559" lon="2.3094589"><ele>423.8</ele><time>2026-04-11T10:32:59.968Z</time></trkpt><trkpt lat="42.9066366" lon="2.3093502"><ele>426.0</ele><time>2026-04-11T10:33:00.969Z</time></trkpt><trkpt lat="42.9067205" lon="2.3092518"><ele>426.4</ele><time>2026-04-11T10:33:01.967Z</time></trkpt><trkpt lat="42.9067981" lon="2.3091477"><ele>426.8</ele><time>2026-04-11T10:33:02.968Z</time></trkpt><trkpt lat="42.9068729" lon="2.3090556"><ele>427.19999999999993</ele><time>2026-04-11T10:33:03.968Z</time></trkpt><trkpt lat="42.906951" lon="2.3089705"><ele>427.59999999999997</ele><time>2026-04-11T10:33:04.967Z</time></trkpt><trkpt lat="42.9070283" lon="2.3088944"><ele>428.0</ele><time>2026-04-11T10:33:05.968Z</time></trkpt><trkpt lat="42.9071076" lon="2.3088341"><ele>427.99999999999994</ele><time>2026-04-11T10:33:06.968Z</time></trkpt><trkpt lat="42.9071873" lon="2.3087875"><ele>428.0</ele><time>2026-04-11T10:33:07.967Z</time></trkpt><trkpt lat="42.9072656" lon="2.3087504"><ele>428.0</ele><time>2026-04-11T10:33:08.967Z</time></trkpt><trkpt lat="42.9073346" lon="2.3087207"><ele>428.0</ele><time>2026-04-11T10:33:09.967Z</time></trkpt><trkpt lat="42.9074326" lon="2.3087413"><ele>427.99999999999994</ele><time>2026-04-11T10:33:11.967Z</time></trkpt><trkpt lat="42.9074716" lon="2.3088616"><ele>428.0</ele><time>2026-04-11T10:33:13.968Z</time></trkpt><trkpt lat="42.907488" lon="2.3090077"><ele>428.0</ele><time>2026-04-11T10:33:15.968Z</time></trkpt><trkpt lat="42.9075722" lon="2.309079"><ele>427.99999999999994</ele><time>2026-04-11T10:33:17.968Z</time></trkpt><trkpt lat="42.9076832" lon="2.3090419"><ele>427.99999999999994</ele><time>2026-04-11T10:33:19.967Z</time></trkpt><trkpt lat="42.9077738" lon="2.3089877"><ele>428.0</ele><time>2026-04-11T10:33:21.968Z</time></trkpt><trkpt lat="42.907859" lon="2.3089509"><ele>428.0</ele><time>2026-04-11T10:33:23.968Z</time></trkpt><trkpt lat="42.9079448" lon="2.3089076"><ele>429.16666666666663</ele><time>2026-04-11T10:33:26.968Z</time></trkpt><trkpt lat="42.9080289" lon="2.3089201"><ele>430.3333333333333</ele><time>2026-04-11T10:33:28.968Z</time></trkpt><trkpt lat="42.9080681" lon="2.3089908"><ele>431.5</ele><time>2026-04-11T10:33:30.969Z</time></trkpt><trkpt lat="42.9080615" lon="2.3090879"><ele>432.66666666666663</ele><time>2026-04-11T10:33:32.968Z</time></trkpt><trkpt lat="42.9080055" lon="2.3092152"><ele>433.8333333333333</ele><time>2026-04-11T10:33:34.97Z</time></trkpt><trkpt lat="42.9079533" lon="2.3093609"><ele>435.0</ele><time>2026-04-11T10:33:36.968Z</time></trkpt><trkpt lat="42.9079356" lon="2.3094494"><ele>435.0</ele><time>2026-04-11T10:33:37.968Z</time></trkpt><trkpt lat="42.9079199" lon="2.309546"><ele>435.0</ele><time>2026-04-11T10:33:38.968Z</time></trkpt><trkpt lat="42.9079138" lon="2.3096509"><ele>435.0</ele><time>2026-04-11T10:33:39.968Z</time></trkpt><trkpt lat="42.9079162" lon="2.3097618"><ele>435.0</ele><time>2026-04-11T10:33:40.968Z</time></trkpt><trkpt lat="42.9079308" lon="2.3098744"><ele>435.0</ele><time>2026-04-11T10:33:41.968Z</time></trkpt><trkpt lat="42.9079516" lon="2.3099799"><ele>435.0</ele><time>2026-04-11T10:33:42.968Z</time></trkpt><trkpt lat="42.9079796" lon="2.3100755"><ele>435.1666666666667</ele><time>2026-04-11T10:33:43.968Z</time></trkpt><trkpt lat="42.9080147" lon="2.3101665"><ele>435.33333333333337</ele><time>2026-04-11T10:33:44.969Z</time></trkpt><trkpt lat="42.9080631" lon="2.3102493"><ele>435.5</ele><time>2026-04-11T10:33:45.967Z</time></trkpt><trkpt lat="42.9081146" lon="2.3103327"><ele>435.6666666666667</ele><time>2026-04-11T10:33:46.967Z</time></trkpt><trkpt lat="42.9081705" lon="2.3104089"><ele>435.83333333333337</ele><time>2026-04-11T10:33:47.968Z</time></trkpt><trkpt lat="42.90824" lon="2.3104689"><ele>436.0</ele><time>2026-04-11T10:33:48.968Z</time></trkpt><trkpt lat="42.9083153" lon="2.3105167"><ele>436.0</ele><time>2026-04-11T10:33:49.968Z</time></trkpt><trkpt lat="42.9083978" lon="2.3105564"><ele>436.0</ele><time>2026-04-11T10:33:50.968Z</time></trkpt><trkpt lat="42.9084864" lon="2.3105907"><ele>436.0</ele><time>2026-04-11T10:33:51.968Z</time></trkpt><trkpt lat="42.908579" lon="2.3106217"><ele>436.0</ele><time>2026-04-11T10:33:52.968Z</time></trkpt><trkpt lat="42.908672" lon="2.310666"><ele>436.0</ele><time>2026-04-11T10:33:53.968Z</time></trkpt><trkpt lat="42.9087617" lon="2.3107118"><ele>437.50000000000006</ele><time>2026-04-11T10:33:54.969Z</time></trkpt><trkpt lat="42.9088409" lon="2.3107525"><ele>439.0</ele><time>2026-04-11T10:33:55.968Z</time></trkpt><trkpt lat="42.9089066" lon="2.3107879"><ele>440.5</ele><time>2026-04-11T10:33:56.969Z</time></trkpt><trkpt lat="42.9089918" lon="2.3108724"><ele>442.0</ele><time>2026-04-11T10:33:58.967Z</time></trkpt><trkpt lat="42.9090157" lon="2.3109842"><ele>443.50000000000006</ele><time>2026-04-11T10:34:00.968Z</time></trkpt><trkpt lat="42.9090152" lon="2.3111064"><ele>445.0</ele><time>2026-04-11T10:34:02.968Z</time></trkpt><trkpt lat="42.9090209" lon="2.3112199"><ele>445.0</ele><time>2026-04-11T10:34:04.968Z</time></trkpt><trkpt lat="42.9090438" lon="2.3113292"><ele>445.0</ele><time>2026-04-11T10:34:06.968Z</time></trkpt><trkpt lat="42.9090798" lon="2.3114319"><ele>445.0</ele><time>2026-04-11T10:34:08.968Z</time></trkpt><trkpt lat="42.9090956" lon="2.3115442"><ele>445.0</ele><time>2026-04-11T10:34:10.969Z</time></trkpt><trkpt lat="42.9091082" lon="2.3116909"><ele>445.0</ele><time>2026-04-11T10:34:12.968Z</time></trkpt><trkpt lat="42.9091048" lon="2.3118658"><ele>444.0</ele><time>2026-04-11T10:34:14.968Z</time></trkpt><trkpt lat="42.9091072" lon="2.3119582"><ele>443.0</ele><time>2026-04-11T10:34:15.968Z</time></trkpt><trkpt lat="42.9091091" lon="2.312051"><ele>442.0</ele><time>2026-04-11T10:34:16.968Z</time></trkpt><trkpt lat="42.9091174" lon="2.3121448"><ele>441.0</ele><time>2026-04-11T10:34:17.968Z</time></trkpt><trkpt lat="42.9091273" lon="2.3122411"><ele>440.0</ele><time>2026-04-11T10:34:18.968Z</time></trkpt><trkpt lat="42.9091322" lon="2.3123371"><ele>439.0</ele><time>2026-04-11T10:34:19.968Z</time></trkpt><trkpt lat="42.909128" lon="2.3124311"><ele>438.0</ele><time>2026-04-11T10:34:20.968Z</time></trkpt><trkpt lat="42.9091155" lon="2.3125241"><ele>437.0</ele><time>2026-04-11T10:34:21.968Z</time></trkpt><trkpt lat="42.9090942" lon="2.3126171"><ele>436.0</ele><time>2026-04-11T10:34:22.968Z</time></trkpt><trkpt lat="42.9090644" lon="2.3127101"><ele>435.0</ele><time>2026-04-11T10:34:23.969Z</time></trkpt><trkpt lat="42.9090353" lon="2.3128053"><ele>434.0</ele><time>2026-04-11T10:34:24.968Z</time></trkpt><trkpt lat="42.9090106" lon="2.3128983"><ele>433.0</ele><time>2026-04-11T10:34:25.968Z</time></trkpt><trkpt lat="42.9089764" lon="2.3130524"><ele>432.0</ele><time>2026-04-11T10:34:27.968Z</time></trkpt><trkpt lat="42.9089712" lon="2.3131505"><ele>430.1666666666667</ele><time>2026-04-11T10:34:29.968Z</time></trkpt><trkpt lat="42.9089752" lon="2.3132503"><ele>428.33333333333337</ele><time>2026-04-11T10:34:32.968Z</time></trkpt><trkpt lat="42.9089385" lon="2.3133378"><ele>426.5</ele><time>2026-04-11T10:34:34.967Z</time></trkpt><trkpt lat="42.9088656" lon="2.3134082"><ele>424.6666666666667</ele><time>2026-04-11T10:34:36.968Z</time></trkpt><trkpt lat="42.9087732" lon="2.313443"><ele>422.83333333333337</ele><time>2026-04-11T10:34:38.968Z</time></trkpt><trkpt lat="42.9086614" lon="2.3134635"><ele>421.0</ele><time>2026-04-11T10:34:40.968Z</time></trkpt><trkpt lat="42.9085946" lon="2.3134729"><ele>421.00000000000006</ele><time>2026-04-11T10:34:41.968Z</time></trkpt><trkpt lat="42.9085251" lon="2.3134811"><ele>421.0</ele><time>2026-04-11T10:34:42.968Z</time></trkpt><trkpt lat="42.9084526" lon="2.313487"><ele>421.0</ele><time>2026-04-11T10:34:43.968Z</time></trkpt><trkpt lat="42.9083748" lon="2.3134907"><ele>421.0</ele><time>2026-04-11T10:34:44.97Z</time></trkpt><trkpt lat="42.9083007" lon="2.3134889"><ele>421.0</ele><time>2026-04-11T10:34:45.969Z</time></trkpt><trkpt lat="42.9082214" lon="2.3134848"><ele>421.00000000000006</ele><time>2026-04-11T10:34:46.968Z</time></trkpt><trkpt lat="42.9081467" lon="2.3134817"><ele>421.0</ele><time>2026-04-11T10:34:47.968Z</time></trkpt><trkpt lat="42.9080783" lon="2.3134817"><ele>420.83333333333337</ele><time>2026-04-11T10:34:48.968Z</time></trkpt><trkpt lat="42.907985" lon="2.313525"><ele>420.6666666666667</ele><time>2026-04-11T10:34:49.968Z</time></trkpt><trkpt lat="42.90792" lon="2.31359"><ele>420.5</ele><time>2026-04-11T10:34:50.968Z</time></trkpt><trkpt lat="42.9078633" lon="2.31367"><ele>420.33333333333337</ele><time>2026-04-11T10:34:51.968Z</time></trkpt><trkpt lat="42.9078167" lon="2.3137617"><ele>420.1666666666667</ele><time>2026-04-11T10:34:52.968Z</time></trkpt><trkpt lat="42.9077717" lon="2.313835"><ele>420.0</ele><time>2026-04-11T10:34:53.969Z</time></trkpt><trkpt lat="42.90772" lon="2.3138983"><ele>418.5</ele><time>2026-04-11T10:34:54.969Z</time></trkpt><trkpt lat="42.9076617" lon="2.3139317"><ele>417.0</ele><time>2026-04-11T10:34:55.969Z</time></trkpt><trkpt lat="42.9075483" lon="2.31392"><ele>415.5</ele><time>2026-04-11T10:34:57.968Z</time></trkpt><trkpt lat="42.90749" lon="2.3138667"><ele>414.0</ele><time>2026-04-11T10:34:58.967Z</time></trkpt><trkpt lat="42.9074333" lon="2.3137833"><ele>412.5</ele><time>2026-04-11T10:34:59.968Z</time></trkpt><trkpt lat="42.9073867" lon="2.3136983"><ele>411.0</ele><time>2026-04-11T10:35:00.968Z</time></trkpt><trkpt lat="42.907345" lon="2.3136083"><ele>410.20000000000005</ele><time>2026-04-11T10:35:01.968Z</time></trkpt><trkpt lat="42.9072683" lon="2.31351"><ele>409.40000000000003</ele><time>2026-04-11T10:35:03.968Z</time></trkpt><trkpt lat="42.907175" lon="2.31353"><ele>408.6</ele><time>2026-04-11T10:35:05.968Z</time></trkpt><trkpt lat="42.90713" lon="2.3136933"><ele>407.8</ele><time>2026-04-11T10:35:07.968Z</time></trkpt><trkpt lat="42.90712" lon="2.313805"><ele>407.0</ele><time>2026-04-11T10:35:08.969Z</time></trkpt><trkpt lat="42.9071133" lon="2.313925"><ele>406.66666666666663</ele><time>2026-04-11T10:35:09.969Z</time></trkpt><trkpt lat="42.9070967" lon="2.31404"><ele>406.3333333333333</ele><time>2026-04-11T10:35:10.97Z</time></trkpt><trkpt lat="42.9070833" lon="2.3141533"><ele>406.0</ele><time>2026-04-11T10:35:11.968Z</time></trkpt><trkpt lat="42.9070667" lon="2.3142617"><ele>405.66666666666663</ele><time>2026-04-11T10:35:12.968Z</time></trkpt><trkpt lat="42.9070483" lon="2.3143583"><ele>405.3333333333333</ele><time>2026-04-11T10:35:13.968Z</time></trkpt><trkpt lat="42.907025" lon="2.3144417"><ele>405.0</ele><time>2026-04-11T10:35:14.968Z</time></trkpt><trkpt lat="42.9069633" lon="2.3145867"><ele>405.0</ele><time>2026-04-11T10:35:16.968Z</time></trkpt><trkpt lat="42.9069067" lon="2.3146317"><ele>405.0</ele><time>2026-04-11T10:35:17.968Z</time></trkpt><trkpt lat="42.9068267" lon="2.3146533"><ele>405.0</ele><time>2026-04-11T10:35:18.969Z</time></trkpt><trkpt lat="42.9067417" lon="2.3146767"><ele>405.0</ele><time>2026-04-11T10:35:19.968Z</time></trkpt><trkpt lat="42.90665" lon="2.3146983"><ele>405.0</ele><time>2026-04-11T10:35:20.969Z</time></trkpt><trkpt lat="42.9065617" lon="2.31472"><ele>405.0</ele><time>2026-04-11T10:35:21.968Z</time></trkpt><trkpt lat="42.9064667" lon="2.3147383"><ele>402.1666666666667</ele><time>2026-04-11T10:35:22.968Z</time></trkpt><trkpt lat="42.9063717" lon="2.314755"><ele>399.33333333333337</ele><time>2026-04-11T10:35:23.968Z</time></trkpt><trkpt lat="42.9062883" lon="2.3147583"><ele>396.5</ele><time>2026-04-11T10:35:24.969Z</time></trkpt><trkpt lat="42.9061983" lon="2.3147583"><ele>393.6666666666667</ele><time>2026-04-11T10:35:25.968Z</time></trkpt><trkpt lat="42.9061233" lon="2.3147317"><ele>390.83333333333337</ele><time>2026-04-11T10:35:26.968Z</time></trkpt><trkpt lat="42.9060533" lon="2.3146917"><ele>388.0</ele><time>2026-04-11T10:35:27.968Z</time></trkpt><trkpt lat="42.9060033" lon="2.3146067"><ele>388.0</ele><time>2026-04-11T10:35:28.968Z</time></trkpt><trkpt lat="42.905965" lon="2.31452"><ele>388.0</ele><time>2026-04-11T10:35:29.969Z</time></trkpt><trkpt lat="42.9059717" lon="2.3143983"><ele>388.0</ele><time>2026-04-11T10:35:30.968Z</time></trkpt><trkpt lat="42.9060067" lon="2.314255"><ele>388.0</ele><time>2026-04-11T10:35:31.968Z</time></trkpt><trkpt lat="42.9060433" lon="2.31412"><ele>388.0</ele><time>2026-04-11T10:35:32.969Z</time></trkpt><trkpt lat="42.9060717" lon="2.31398"><ele>388.33333333333337</ele><time>2026-04-11T10:35:33.968Z</time></trkpt><trkpt lat="42.9060767" lon="2.313855"><ele>388.6666666666667</ele><time>2026-04-11T10:35:34.968Z</time></trkpt><trkpt lat="42.9060617" lon="2.3137483"><ele>389.0</ele><time>2026-04-11T10:35:35.968Z</time></trkpt><trkpt lat="42.9060267" lon="2.3136767"><ele>389.33333333333337</ele><time>2026-04-11T10:35:36.968Z</time></trkpt><trkpt lat="42.90591" lon="2.31368"><ele>389.6666666666667</ele><time>2026-04-11T10:35:38.968Z</time></trkpt><trkpt lat="42.9058517" lon="2.3137217"><ele>390.0</ele><time>2026-04-11T10:35:39.968Z</time></trkpt><trkpt lat="42.9058017" lon="2.3137967"><ele>385.8</ele><time>2026-04-11T10:35:40.968Z</time></trkpt><trkpt lat="42.9057517" lon="2.3139067"><ele>381.6</ele><time>2026-04-11T10:35:41.968Z</time></trkpt><trkpt lat="42.9056967" lon="2.314015"><ele>377.4</ele><time>2026-04-11T10:35:42.968Z</time></trkpt><trkpt lat="42.9056267" lon="2.3141217"><ele>373.2</ele><time>2026-04-11T10:35:43.968Z</time></trkpt><trkpt lat="42.9055467" lon="2.3142267"><ele>369.0</ele><time>2026-04-11T10:35:44.968Z</time></trkpt><trkpt lat="42.9054567" lon="2.314315"><ele>369.0</ele><time>2026-04-11T10:35:45.968Z</time></trkpt><trkpt lat="42.90536" lon="2.3143833"><ele>369.0</ele><time>2026-04-11T10:35:46.968Z</time></trkpt><trkpt lat="42.90526" lon="2.3144167"><ele>369.0</ele><time>2026-04-11T10:35:47.968Z</time></trkpt><trkpt lat="42.905155" lon="2.3144217"><ele>369.0</ele><time>2026-04-11T10:35:48.97Z</time></trkpt><trkpt lat="42.90505" lon="2.3144233"><ele>369.0</ele><time>2026-04-11T10:35:49.968Z</time></trkpt><trkpt lat="42.9049467" lon="2.31443"><ele>367.6666666666667</ele><time>2026-04-11T10:35:50.968Z</time></trkpt><trkpt lat="42.9048467" lon="2.314455"><ele>366.3333333333333</ele><time>2026-04-11T10:35:51.968Z</time></trkpt><trkpt lat="42.90476" lon="2.3144767"><ele>365.0</ele><time>2026-04-11T10:35:52.968Z</time></trkpt><trkpt lat="42.9046817" lon="2.3144933"><ele>363.66666666666663</ele><time>2026-04-11T10:35:53.968Z</time></trkpt><trkpt lat="42.9046133" lon="2.3145083"><ele>362.3333333333333</ele><time>2026-04-11T10:35:54.969Z</time></trkpt><trkpt lat="42.9045383" lon="2.3145517"><ele>361.0</ele><time>2026-04-11T10:35:56.968Z</time></trkpt><trkpt lat="42.90452" lon="2.3146433"><ele>359.5</ele><time>2026-04-11T10:35:59.968Z</time></trkpt><trkpt lat="42.90458" lon="2.314745"><ele>358.0</ele><time>2026-04-11T10:36:01.968Z</time></trkpt><trkpt lat="42.904625" lon="2.3148117"><ele>356.5</ele><time>2026-04-11T10:36:02.968Z</time></trkpt><trkpt lat="42.9046567" lon="2.3148933"><ele>355.0</ele><time>2026-04-11T10:36:03.968Z</time></trkpt><trkpt lat="42.9046767" lon="2.315005"><ele>353.5</ele><time>2026-04-11T10:36:04.972Z</time></trkpt><trkpt lat="42.904685" lon="2.3151267"><ele>352.0</ele><time>2026-04-11T10:36:05.97Z</time></trkpt><trkpt lat="42.90469" lon="2.3152533"><ele>352.0</ele><time>2026-04-11T10:36:06.969Z</time></trkpt><trkpt lat="42.9047" lon="2.31538"><ele>352.0</ele><time>2026-04-11T10:36:07.969Z</time></trkpt><trkpt lat="42.90473" lon="2.3155083"><ele>352.0</ele><time>2026-04-11T10:36:08.968Z</time></trkpt><trkpt lat="42.9047733" lon="2.315635"><ele>352.0</ele><time>2026-04-11T10:36:09.968Z</time></trkpt><trkpt lat="42.9048317" lon="2.31576"><ele>352.0</ele><time>2026-04-11T10:36:10.969Z</time></trkpt><trkpt lat="42.9049017" lon="2.3158733"><ele>351.6</ele><time>2026-04-11T10:36:11.97Z</time></trkpt><trkpt lat="42.9049817" lon="2.3159783"><ele>351.20000000000005</ele><time>2026-04-11T10:36:12.969Z</time></trkpt><trkpt lat="42.90507" lon="2.31606"><ele>350.8</ele><time>2026-04-11T10:36:13.969Z</time></trkpt><trkpt lat="42.9051717" lon="2.3161083"><ele>350.4</ele><time>2026-04-11T10:36:14.969Z</time></trkpt><trkpt lat="42.9052917" lon="2.3161233"><ele>350.0</ele><time>2026-04-11T10:36:15.968Z</time></trkpt><trkpt lat="42.9054133" lon="2.3161033"><ele>350.0</ele><time>2026-04-11T10:36:16.968Z</time></trkpt><trkpt lat="42.9055367" lon="2.3160633"><ele>350.0</ele><time>2026-04-11T10:36:17.968Z</time></trkpt><trkpt lat="42.9056667" lon="2.3160133"><ele>350.0</ele><time>2026-04-11T10:36:18.97Z</time></trkpt><trkpt lat="42.905795" lon="2.31596"><ele>350.0</ele><time>2026-04-11T10:36:19.968Z</time></trkpt><trkpt lat="42.90593" lon="2.3159017"><ele>350.5</ele><time>2026-04-11T10:36:20.97Z</time></trkpt><trkpt lat="42.9060567" lon="2.3158517"><ele>351.0</ele><time>2026-04-11T10:36:21.968Z</time></trkpt><trkpt lat="42.906185" lon="2.3158067"><ele>351.5</ele><time>2026-04-11T10:36:22.968Z</time></trkpt><trkpt lat="42.9063217" lon="2.31578"><ele>352.0</ele><time>2026-04-11T10:36:23.969Z</time></trkpt><trkpt lat="42.9064567" lon="2.3157867"><ele>352.0</ele><time>2026-04-11T10:36:24.97Z</time></trkpt><trkpt lat="42.9065883" lon="2.3158233"><ele>352.0</ele><time>2026-04-11T10:36:25.968Z</time></trkpt><trkpt lat="42.9067167" lon="2.31588"><ele>352.0</ele><time>2026-04-11T10:36:26.969Z</time></trkpt><trkpt lat="42.906835" lon="2.31596"><ele>352.0</ele><time>2026-04-11T10:36:27.968Z</time></trkpt><trkpt lat="42.9069383" lon="2.3160567"><ele>352.75</ele><time>2026-04-11T10:36:28.968Z</time></trkpt><trkpt lat="42.907015" lon="2.3161767"><ele>353.5</ele><time>2026-04-11T10:36:29.968Z</time></trkpt><trkpt lat="42.907055" lon="2.3163233"><ele>354.25</ele><time>2026-04-11T10:36:30.969Z</time></trkpt><trkpt lat="42.9070683" lon="2.31648"><ele>355.0</ele><time>2026-04-11T10:36:31.968Z</time></trkpt><trkpt lat="42.9070483" lon="2.3166533"><ele>355.0</ele><time>2026-04-11T10:36:32.968Z</time></trkpt><trkpt lat="42.9070083" lon="2.3168333"><ele>355.0</ele><time>2026-04-11T10:36:33.968Z</time></trkpt><trkpt lat="42.9069517" lon="2.3170033"><ele>355.0</ele><time>2026-04-11T10:36:34.968Z</time></trkpt><trkpt lat="42.9068967" lon="2.3171633"><ele>355.0</ele><time>2026-04-11T10:36:35.968Z</time></trkpt><trkpt lat="42.9068533" lon="2.3173217"><ele>356.25</ele><time>2026-04-11T10:36:36.97Z</time></trkpt><trkpt lat="42.9068367" lon="2.3174867"><ele>357.5</ele><time>2026-04-11T10:36:37.968Z</time></trkpt><trkpt lat="42.9068467" lon="2.31766"><ele>358.75</ele><time>2026-04-11T10:36:38.968Z</time></trkpt><trkpt lat="42.9068833" lon="2.3178483"><ele>360.0</ele><time>2026-04-11T10:36:39.969Z</time></trkpt><trkpt lat="42.90693" lon="2.3180367"><ele>360.25</ele><time>2026-04-11T10:36:40.968Z</time></trkpt><trkpt lat="42.9069783" lon="2.318225"><ele>360.5</ele><time>2026-04-11T10:36:41.968Z</time></trkpt><trkpt lat="42.907025" lon="2.3184067"><ele>360.75</ele><time>2026-04-11T10:36:42.969Z</time></trkpt><trkpt lat="42.9070717" lon="2.318575"><ele>361.0</ele><time>2026-04-11T10:36:43.968Z</time></trkpt><trkpt lat="42.9071183" lon="2.3187367"><ele>361.0</ele><time>2026-04-11T10:36:44.968Z</time></trkpt><trkpt lat="42.90719" lon="2.3188833"><ele>361.0</ele><time>2026-04-11T10:36:45.968Z</time></trkpt><trkpt lat="42.9072833" lon="2.3190017"><ele>361.0</ele><time>2026-04-11T10:36:46.968Z</time></trkpt><trkpt lat="42.9073917" lon="2.3190917"><ele>361.0</ele><time>2026-04-11T10:36:47.968Z</time></trkpt><trkpt lat="42.9075117" lon="2.3191467"><ele>360.5</ele><time>2026-04-11T10:36:48.968Z</time></trkpt><trkpt lat="42.9076333" lon="2.3191833"><ele>360.0</ele><time>2026-04-11T10:36:49.968Z</time></trkpt><trkpt lat="42.9077617" lon="2.3192117"><ele>359.5</ele><time>2026-04-11T10:36:50.969Z</time></trkpt><trkpt lat="42.9078967" lon="2.3192417"><ele>359.0</ele><time>2026-04-11T10:36:51.968Z</time></trkpt><trkpt lat="42.9080433" lon="2.319265"><ele>359.0</ele><time>2026-04-11T10:36:52.968Z</time></trkpt><trkpt lat="42.9081817" lon="2.319305"><ele>359.0</ele><time>2026-04-11T10:36:53.968Z</time></trkpt><trkpt lat="42.90832" lon="2.31934"><ele>359.0</ele><time>2026-04-11T10:36:54.968Z</time></trkpt><trkpt lat="42.9084467" lon="2.3193867"><ele>359.0</ele><time>2026-04-11T10:36:55.969Z</time></trkpt><trkpt lat="42.90857" lon="2.3194333"><ele>357.75</ele><time>2026-04-11T10:36:56.968Z</time></trkpt><trkpt lat="42.9086883" lon="2.3194783"><ele>356.5</ele><time>2026-04-11T10:36:57.968Z</time></trkpt><trkpt lat="42.9088033" lon="2.319515"><ele>355.25</ele><time>2026-04-11T10:36:58.969Z</time></trkpt><trkpt lat="42.9089117" lon="2.3195467"><ele>354.0</ele><time>2026-04-11T10:36:59.968Z</time></trkpt><trkpt lat="42.9090167" lon="2.3195633"><ele>354.0</ele><time>2026-04-11T10:37:00.969Z</time></trkpt><trkpt lat="42.9091233" lon="2.3195617"><ele>354.0</ele><time>2026-04-11T10:37:01.969Z</time></trkpt><trkpt lat="42.9092317" lon="2.319535"><ele>354.0</ele><time>2026-04-11T10:37:02.969Z</time></trkpt><trkpt lat="42.909345" lon="2.319475"><ele>354.0</ele><time>2026-04-11T10:37:03.969Z</time></trkpt><trkpt lat="42.9094583" lon="2.319405"><ele>350.0</ele><time>2026-04-11T10:37:04.968Z</time></trkpt><trkpt lat="42.9095758" lon="2.3193286"><ele>346.0</ele><time>2026-04-11T10:37:05.968Z</time></trkpt><trkpt lat="42.9097014" lon="2.3192471"><ele>342.0</ele><time>2026-04-11T10:37:06.969Z</time></trkpt><trkpt lat="42.9098314" lon="2.3191634"><ele>338.0</ele><time>2026-04-11T10:37:07.968Z</time></trkpt><trkpt lat="42.9099622" lon="2.319074"><ele>335.33333333333337</ele><time>2026-04-11T10:37:08.969Z</time></trkpt><trkpt lat="42.9100966" lon="2.3189778"><ele>332.6666666666667</ele><time>2026-04-11T10:37:09.968Z</time></trkpt><trkpt lat="42.9102283" lon="2.3188736"><ele>330.0</ele><time>2026-04-11T10:37:10.968Z</time></trkpt><trkpt lat="42.9103596" lon="2.318753"><ele>330.0</ele><time>2026-04-11T10:37:11.969Z</time></trkpt><trkpt lat="42.9104858" lon="2.3186048"><ele>330.0</ele><time>2026-04-11T10:37:12.968Z</time></trkpt><trkpt lat="42.9106016" lon="2.3184498"><ele>330.0</ele><time>2026-04-11T10:37:13.97Z</time></trkpt><trkpt lat="42.9107102" lon="2.3182839"><ele>330.0</ele><time>2026-04-11T10:37:14.968Z</time></trkpt><trkpt lat="42.9108174" lon="2.3181194"><ele>330.0</ele><time>2026-04-11T10:37:15.968Z</time></trkpt><trkpt lat="42.9109264" lon="2.3179675"><ele>330.0</ele><time>2026-04-11T10:37:16.968Z</time></trkpt><trkpt lat="42.9110443" lon="2.317828"><ele>331.3333333333333</ele><time>2026-04-11T10:37:17.969Z</time></trkpt><trkpt lat="42.9111717" lon="2.3176999"><ele>332.66666666666663</ele><time>2026-04-11T10:37:18.968Z</time></trkpt><trkpt lat="42.9113068" lon="2.3175845"><ele>334.0</ele><time>2026-04-11T10:37:19.968Z</time></trkpt><trkpt lat="42.9114538" lon="2.3174771"><ele>334.0</ele><time>2026-04-11T10:37:20.968Z</time></trkpt><trkpt lat="42.911604" lon="2.317376"><ele>334.0</ele><time>2026-04-11T10:37:21.969Z</time></trkpt><trkpt lat="42.9117553" lon="2.3172846"><ele>334.0</ele><time>2026-04-11T10:37:22.969Z</time></trkpt><trkpt lat="42.9119045" lon="2.3172088"><ele>342.75</ele><time>2026-04-11T10:37:23.969Z</time></trkpt><trkpt lat="42.9120495" lon="2.3171563"><ele>351.5</ele><time>2026-04-11T10:37:24.969Z</time></trkpt><trkpt lat="42.9121841" lon="2.3171204"><ele>360.25</ele><time>2026-04-11T10:37:25.968Z</time></trkpt><trkpt lat="42.9123028" lon="2.3171169"><ele>369.0</ele><time>2026-04-11T10:37:26.97Z</time></trkpt><trkpt lat="42.9124024" lon="2.317155"><ele>369.0</ele><time>2026-04-11T10:37:27.969Z</time></trkpt><trkpt lat="42.9124992" lon="2.3172185"><ele>369.0</ele><time>2026-04-11T10:37:28.969Z</time></trkpt><trkpt lat="42.912601" lon="2.3172907"><ele>369.0</ele><time>2026-04-11T10:37:29.968Z</time></trkpt><trkpt lat="42.9127053" lon="2.3173574"><ele>369.0</ele><time>2026-04-11T10:37:30.969Z</time></trkpt><trkpt lat="42.9128125" lon="2.317417"><ele>361.4</ele><time>2026-04-11T10:37:31.968Z</time></trkpt><trkpt lat="42.9129168" lon="2.3174747"><ele>353.79999999999995</ele><time>2026-04-11T10:37:32.969Z</time></trkpt><trkpt lat="42.9130164" lon="2.3175319"><ele>346.20000000000005</ele><time>2026-04-11T10:37:33.968Z</time></trkpt><trkpt lat="42.9131132" lon="2.3175924"><ele>338.6</ele><time>2026-04-11T10:37:34.968Z</time></trkpt><trkpt lat="42.9132042" lon="2.3176475"><ele>331.0</ele><time>2026-04-11T10:37:35.969Z</time></trkpt><trkpt lat="42.9132922" lon="2.3176986"><ele>331.0</ele><time>2026-04-11T10:37:36.969Z</time></trkpt><trkpt lat="42.9133772" lon="2.3177651"><ele>331.0</ele><time>2026-04-11T10:37:37.968Z</time></trkpt><trkpt lat="42.9134616" lon="2.317853"><ele>331.0</ele><time>2026-04-11T10:37:38.969Z</time></trkpt><trkpt lat="42.9135419" lon="2.3179497"><ele>331.0</ele><time>2026-04-11T10:37:39.968Z</time></trkpt><trkpt lat="42.9136213" lon="2.3180521"><ele>331.0</ele><time>2026-04-11T10:37:40.968Z</time></trkpt><trkpt lat="42.9136998" lon="2.3181593"><ele>328.8</ele><time>2026-04-11T10:37:41.968Z</time></trkpt><trkpt lat="42.9137857" lon="2.3182541"><ele>326.6</ele><time>2026-04-11T10:37:42.968Z</time></trkpt><trkpt lat="42.9138728" lon="2.3183339"><ele>324.4</ele><time>2026-04-11T10:37:43.969Z</time></trkpt><trkpt lat="42.9139607" lon="2.3183975"><ele>322.2</ele><time>2026-04-11T10:37:44.968Z</time></trkpt><trkpt lat="42.9140372" lon="2.3184382"><ele>320.0</ele><time>2026-04-11T10:37:45.968Z</time></trkpt><trkpt lat="42.9141147" lon="2.3184625"><ele>320.0</ele><time>2026-04-11T10:37:46.969Z</time></trkpt><trkpt lat="42.9141896" lon="2.3184645"><ele>320.0</ele><time>2026-04-11T10:37:47.968Z</time></trkpt><trkpt lat="42.9142641" lon="2.3184501"><ele>320.0</ele><time>2026-04-11T10:37:48.969Z</time></trkpt><trkpt lat="42.9143348" lon="2.3184266"><ele>320.0</ele><time>2026-04-11T10:37:49.968Z</time></trkpt><trkpt lat="42.9143995" lon="2.3183921"><ele>320.0</ele><time>2026-04-11T10:37:50.969Z</time></trkpt><trkpt lat="42.9144622" lon="2.3183502"><ele>320.0</ele><time>2026-04-11T10:37:51.969Z</time></trkpt><trkpt lat="42.9145206" lon="2.3183032"><ele>320.0</ele><time>2026-04-11T10:37:52.968Z</time></trkpt><trkpt lat="42.914585" lon="2.3182417"><ele>319.0</ele><time>2026-04-11T10:37:53.968Z</time></trkpt><trkpt lat="42.91465" lon="2.3181933"><ele>318.0</ele><time>2026-04-11T10:37:54.968Z</time></trkpt><trkpt lat="42.9147183" lon="2.3181433"><ele>317.0</ele><time>2026-04-11T10:37:55.969Z</time></trkpt><trkpt lat="42.9147917" lon="2.31809"><ele>316.0</ele><time>2026-04-11T10:37:56.968Z</time></trkpt><trkpt lat="42.914865" lon="2.318035"><ele>315.0</ele><time>2026-04-11T10:37:57.969Z</time></trkpt><trkpt lat="42.91494" lon="2.3179883"><ele>314.0</ele><time>2026-04-11T10:37:58.968Z</time></trkpt><trkpt lat="42.9150217" lon="2.3179433"><ele>315.6</ele><time>2026-04-11T10:37:59.971Z</time></trkpt><trkpt lat="42.9151083" lon="2.3179067"><ele>317.2</ele><time>2026-04-11T10:38:00.968Z</time></trkpt><trkpt lat="42.9152017" lon="2.3178683"><ele>318.8</ele><time>2026-04-11T10:38:01.968Z</time></trkpt><trkpt lat="42.9152983" lon="2.3178333"><ele>320.40000000000003</ele><time>2026-04-11T10:38:02.97Z</time></trkpt><trkpt lat="42.91539" lon="2.317805"><ele>322.0</ele><time>2026-04-11T10:38:03.968Z</time></trkpt><trkpt lat="42.9154783" lon="2.3177783"><ele>322.0</ele><time>2026-04-11T10:38:04.969Z</time></trkpt><trkpt lat="42.9155683" lon="2.3177483"><ele>322.0</ele><time>2026-04-11T10:38:05.968Z</time></trkpt><trkpt lat="42.9156617" lon="2.3177183"><ele>322.0</ele><time>2026-04-11T10:38:06.968Z</time></trkpt><trkpt lat="42.9157517" lon="2.317695"><ele>322.0</ele><time>2026-04-11T10:38:07.969Z</time></trkpt><trkpt lat="42.9158483" lon="2.3176683"><ele>322.0</ele><time>2026-04-11T10:38:08.969Z</time></trkpt><trkpt lat="42.9159433" lon="2.317635"><ele>323.66666666666663</ele><time>2026-04-11T10:38:09.969Z</time></trkpt><trkpt lat="42.916035" lon="2.3176083"><ele>325.3333333333333</ele><time>2026-04-11T10:38:10.968Z</time></trkpt><trkpt lat="42.9161217" lon="2.3175917"><ele>327.0</ele><time>2026-04-11T10:38:11.968Z</time></trkpt><trkpt lat="42.9162117" lon="2.3175767"><ele>328.6666666666667</ele><time>2026-04-11T10:38:12.969Z</time></trkpt><trkpt lat="42.9163033" lon="2.3175683"><ele>330.33333333333337</ele><time>2026-04-11T10:38:13.969Z</time></trkpt><trkpt lat="42.916385" lon="2.3175917"><ele>332.0</ele><time>2026-04-11T10:38:14.969Z</time></trkpt><trkpt lat="42.91645" lon="2.3176417"><ele>332.0</ele><time>2026-04-11T10:38:15.969Z</time></trkpt><trkpt lat="42.9165133" lon="2.3177067"><ele>332.0</ele><time>2026-04-11T10:38:16.969Z</time></trkpt><trkpt lat="42.9165633" lon="2.317795"><ele>332.0</ele><time>2026-04-11T10:38:17.968Z</time></trkpt><trkpt lat="42.9166083" lon="2.317885"><ele>332.0</ele><time>2026-04-11T10:38:18.969Z</time></trkpt><trkpt lat="42.9166517" lon="2.3179767"><ele>332.0</ele><time>2026-04-11T10:38:19.969Z</time></trkpt><trkpt lat="42.916695" lon="2.31806"><ele>332.0</ele><time>2026-04-11T10:38:20.97Z</time></trkpt><trkpt lat="42.9167533" lon="2.3181383"><ele>331.6666666666667</ele><time>2026-04-11T10:38:21.968Z</time></trkpt><trkpt lat="42.9168217" lon="2.3181983"><ele>331.33333333333337</ele><time>2026-04-11T10:38:22.968Z</time></trkpt><trkpt lat="42.9168933" lon="2.3182483"><ele>331.0</ele><time>2026-04-11T10:38:23.968Z</time></trkpt><trkpt lat="42.916975" lon="2.318295"><ele>330.6666666666667</ele><time>2026-04-11T10:38:24.968Z</time></trkpt><trkpt lat="42.9170617" lon="2.3183333"><ele>330.3333333333333</ele><time>2026-04-11T10:38:25.968Z</time></trkpt><trkpt lat="42.9171417" lon="2.3183783"><ele>330.0</ele><time>2026-04-11T10:38:26.969Z</time></trkpt><trkpt lat="42.917225" lon="2.3184233"><ele>330.0</ele><time>2026-04-11T10:38:27.969Z</time></trkpt><trkpt lat="42.9173017" lon="2.3184683"><ele>330.0</ele><time>2026-04-11T10:38:28.968Z</time></trkpt><trkpt lat="42.9173717" lon="2.31852"><ele>330.0</ele><time>2026-04-11T10:38:29.968Z</time></trkpt><trkpt lat="42.9174367" lon="2.31858"><ele>330.0</ele><time>2026-04-11T10:38:30.969Z</time></trkpt><trkpt lat="42.9175" lon="2.3186483"><ele>330.0</ele><time>2026-04-11T10:38:31.969Z</time></trkpt><trkpt lat="42.9175667" lon="2.3187183"><ele>330.0</ele><time>2026-04-11T10:38:32.969Z</time></trkpt><trkpt lat="42.9176383" lon="2.3187767"><ele>330.8333333333333</ele><time>2026-04-11T10:38:33.969Z</time></trkpt><trkpt lat="42.9177133" lon="2.3188267"><ele>331.6666666666667</ele><time>2026-04-11T10:38:34.968Z</time></trkpt><trkpt lat="42.91779" lon="2.3188667"><ele>332.5</ele><time>2026-04-11T10:38:35.971Z</time></trkpt><trkpt lat="42.91787" lon="2.3189083"><ele>333.33333333333337</ele><time>2026-04-11T10:38:36.969Z</time></trkpt><trkpt lat="42.9179567" lon="2.3189583"><ele>334.1666666666667</ele><time>2026-04-11T10:38:37.968Z</time></trkpt><trkpt lat="42.9180367" lon="2.3189983"><ele>335.0</ele><time>2026-04-11T10:38:38.97Z</time></trkpt><trkpt lat="42.9181233" lon="2.31904"><ele>332.2</ele><time>2026-04-11T10:38:39.97Z</time></trkpt><trkpt lat="42.918215" lon="2.3190783"><ele>329.4</ele><time>2026-04-11T10:38:40.969Z</time></trkpt><trkpt lat="42.91831" lon="2.3191117"><ele>326.6</ele><time>2026-04-11T10:38:41.969Z</time></trkpt><trkpt lat="42.9183983" lon="2.3191433"><ele>323.8</ele><time>2026-04-11T10:38:42.969Z</time></trkpt><trkpt lat="42.9184816" lon="2.3191779"><ele>321.0</ele><time>2026-04-11T10:38:43.968Z</time></trkpt><trkpt lat="42.918562" lon="2.3192106"><ele>321.0</ele><time>2026-04-11T10:38:44.969Z</time></trkpt><trkpt lat="42.9186429" lon="2.3192405"><ele>321.0</ele><time>2026-04-11T10:38:45.969Z</time></trkpt><trkpt lat="42.9187156" lon="2.319277"><ele>321.0</ele><time>2026-04-11T10:38:46.968Z</time></trkpt><trkpt lat="42.918788" lon="2.3193166"><ele>321.0</ele><time>2026-04-11T10:38:47.968Z</time></trkpt><trkpt lat="42.9188605" lon="2.319358"><ele>321.0</ele><time>2026-04-11T10:38:48.969Z</time></trkpt><trkpt lat="42.9189293" lon="2.3193977"><ele>321.0</ele><time>2026-04-11T10:38:49.968Z</time></trkpt><trkpt lat="42.919001" lon="2.3194382"><ele>321.0</ele><time>2026-04-11T10:38:50.969Z</time></trkpt><trkpt lat="42.9190715" lon="2.3194772"><ele>321.0</ele><time>2026-04-11T10:38:51.969Z</time></trkpt><trkpt lat="42.9191406" lon="2.3195174"><ele>321.0</ele><time>2026-04-11T10:38:52.968Z</time></trkpt><trkpt lat="42.9192143" lon="2.3195631"><ele>321.0</ele><time>2026-04-11T10:38:53.969Z</time></trkpt><trkpt lat="42.9192868" lon="2.3196102"><ele>321.0</ele><time>2026-04-11T10:38:54.97Z</time></trkpt><trkpt lat="42.9193612" lon="2.3196506"><ele>321.0</ele><time>2026-04-11T10:38:55.969Z</time></trkpt><trkpt lat="42.9194397" lon="2.3196764"><ele>320.1666666666667</ele><time>2026-04-11T10:38:56.968Z</time></trkpt><trkpt lat="42.9195194" lon="2.3197"><ele>319.3333333333333</ele><time>2026-04-11T10:38:57.972Z</time></trkpt><trkpt lat="42.919594" lon="2.3197212"><ele>318.5</ele><time>2026-04-11T10:38:58.968Z</time></trkpt><trkpt lat="42.9196697" lon="2.3197523"><ele>317.66666666666663</ele><time>2026-04-11T10:38:59.968Z</time></trkpt><trkpt lat="42.9197414" lon="2.3197836"><ele>316.8333333333333</ele><time>2026-04-11T10:39:00.968Z</time></trkpt><trkpt lat="42.9198156" lon="2.3198196"><ele>316.0</ele><time>2026-04-11T10:39:01.968Z</time></trkpt><trkpt lat="42.9198959" lon="2.3198655"><ele>316.0</ele><time>2026-04-11T10:39:02.969Z</time></trkpt><trkpt lat="42.9199913" lon="2.31992"><ele>316.0</ele><time>2026-04-11T10:39:03.969Z</time></trkpt><trkpt lat="42.9200782" lon="2.3199723"><ele>316.0</ele><time>2026-04-11T10:39:04.968Z</time></trkpt><trkpt lat="42.9201653" lon="2.3200276"><ele>316.0</ele><time>2026-04-11T10:39:05.969Z</time></trkpt><trkpt lat="42.9202467" lon="2.3200866"><ele>316.0</ele><time>2026-04-11T10:39:06.968Z</time></trkpt><trkpt lat="42.9203212" lon="2.32015"><ele>315.8333333333333</ele><time>2026-04-11T10:39:07.968Z</time></trkpt><trkpt lat="42.920389" lon="2.3202059"><ele>315.66666666666663</ele><time>2026-04-11T10:39:08.969Z</time></trkpt><trkpt lat="42.9204418" lon="2.3202555"><ele>315.5</ele><time>2026-04-11T10:39:09.968Z</time></trkpt><trkpt lat="42.9204924" lon="2.3203357"><ele>315.3333333333333</ele><time>2026-04-11T10:39:11.968Z</time></trkpt><trkpt lat="42.9204774" lon="2.3204535"><ele>315.1666666666667</ele><time>2026-04-11T10:39:14.97Z</time></trkpt><trkpt lat="42.9204367" lon="2.3205373"><ele>315.0</ele><time>2026-04-11T10:39:16.968Z</time></trkpt><trkpt lat="42.920403" lon="2.3206224"><ele>315.0</ele><time>2026-04-11T10:39:20.969Z</time></trkpt><trkpt lat="42.9204128" lon="2.3207188"><ele>315.0</ele><time>2026-04-11T10:40:18.968Z</time></trkpt><trkpt lat="42.9204051" lon="2.3208105"><ele>315.0</ele><time>2026-04-11T10:40:21.967Z</time></trkpt><trkpt lat="42.9204661" lon="2.3208581"><ele>315.0</ele><time>2026-04-11T10:40:25.968Z</time></trkpt><trkpt lat="42.92054" lon="2.320925"><ele>315.0</ele><time>2026-04-11T10:40:29.967Z</time></trkpt><trkpt lat="42.9205933" lon="2.321"><ele>315.0</ele><time>2026-04-11T10:40:31.967Z</time></trkpt><trkpt lat="42.920665" lon="2.32109"><ele>315.0</ele><time>2026-04-11T10:40:33.968Z</time></trkpt><trkpt lat="42.9207283" lon="2.3211917"><ele>315.0</ele><time>2026-04-11T10:40:35.967Z</time></trkpt><trkpt lat="42.92076" lon="2.321315"><ele>315.0</ele><time>2026-04-11T10:40:37.968Z</time></trkpt><trkpt lat="42.9208533" lon="2.3214083"><ele>315.0</ele><time>2026-04-11T10:40:39.967Z</time></trkpt><trkpt lat="42.920935" lon="2.3215017"><ele>315.0</ele><time>2026-04-11T10:40:41.968Z</time></trkpt><trkpt lat="42.921025" lon="2.3215817"><ele>314.5</ele><time>2026-04-11T10:40:43.968Z</time></trkpt><trkpt lat="42.9211167" lon="2.3216617"><ele>314.0</ele><time>2026-04-11T10:40:45.968Z</time></trkpt><trkpt lat="42.9211933" lon="2.321755"><ele>313.5</ele><time>2026-04-11T10:40:47.968Z</time></trkpt><trkpt lat="42.921205" lon="2.3218467"><ele>313.0</ele><time>2026-04-11T10:40:48.968Z</time></trkpt><trkpt lat="42.9212217" lon="2.32193"><ele>312.5</ele><time>2026-04-11T10:40:49.972Z</time></trkpt><trkpt lat="42.9212333" lon="2.3220283"><ele>312.0</ele><time>2026-04-11T10:40:50.968Z</time></trkpt><trkpt lat="42.92124" lon="2.3221317"><ele>314.0</ele><time>2026-04-11T10:40:51.968Z</time></trkpt><trkpt lat="42.9212433" lon="2.32224"><ele>316.0</ele><time>2026-04-11T10:40:52.969Z</time></trkpt><trkpt lat="42.9212483" lon="2.322345"><ele>318.0</ele><time>2026-04-11T10:40:53.968Z</time></trkpt><trkpt lat="42.9212517" lon="2.32245"><ele>320.0</ele><time>2026-04-11T10:40:54.968Z</time></trkpt><trkpt lat="42.92125" lon="2.3225617"><ele>322.0</ele><time>2026-04-11T10:40:55.968Z</time></trkpt><trkpt lat="42.921245" lon="2.3226683"><ele>324.0</ele><time>2026-04-11T10:40:56.968Z</time></trkpt><trkpt lat="42.921235" lon="2.3227733"><ele>324.0</ele><time>2026-04-11T10:40:57.968Z</time></trkpt><trkpt lat="42.921215" lon="2.3228767"><ele>324.0</ele><time>2026-04-11T10:40:58.968Z</time></trkpt><trkpt lat="42.9212" lon="2.3229817"><ele>324.0</ele><time>2026-04-11T10:40:59.968Z</time></trkpt><trkpt lat="42.9211933" lon="2.3230933"><ele>324.0</ele><time>2026-04-11T10:41:00.968Z</time></trkpt><trkpt lat="42.92119" lon="2.3232133"><ele>324.0</ele><time>2026-04-11T10:41:01.968Z</time></trkpt><trkpt lat="42.92119" lon="2.3233383"><ele>324.0</ele><time>2026-04-11T10:41:02.969Z</time></trkpt><trkpt lat="42.921185" lon="2.3234633"><ele>326.2</ele><time>2026-04-11T10:41:03.968Z</time></trkpt><trkpt lat="42.921175" lon="2.3235867"><ele>328.4</ele><time>2026-04-11T10:41:04.968Z</time></trkpt><trkpt lat="42.92116" lon="2.3237083"><ele>330.6</ele><time>2026-04-11T10:41:05.968Z</time></trkpt><trkpt lat="42.9211667" lon="2.3238267"><ele>332.8</ele><time>2026-04-11T10:41:06.968Z</time></trkpt><trkpt lat="42.92119" lon="2.3239467"><ele>335.0</ele><time>2026-04-11T10:41:07.968Z</time></trkpt><trkpt lat="42.92121" lon="2.3240817"><ele>335.33333333333337</ele><time>2026-04-11T10:41:08.968Z</time></trkpt><trkpt lat="42.9212267" lon="2.3242217"><ele>335.6666666666667</ele><time>2026-04-11T10:41:09.968Z</time></trkpt><trkpt lat="42.9212283" lon="2.3243567"><ele>336.0</ele><time>2026-04-11T10:41:10.969Z</time></trkpt><trkpt lat="42.9212267" lon="2.32448"><ele>336.3333333333333</ele><time>2026-04-11T10:41:11.968Z</time></trkpt><trkpt lat="42.9212283" lon="2.32458"><ele>336.66666666666663</ele><time>2026-04-11T10:41:12.97Z</time></trkpt><trkpt lat="42.92124" lon="2.3246783"><ele>337.0</ele><time>2026-04-11T10:41:13.968Z</time></trkpt><trkpt lat="42.9212567" lon="2.3247733"><ele>338.0</ele><time>2026-04-11T10:41:14.968Z</time></trkpt><trkpt lat="42.9212767" lon="2.3248733"><ele>339.0</ele><time>2026-04-11T10:41:15.969Z</time></trkpt><trkpt lat="42.9213" lon="2.3249733"><ele>340.0</ele><time>2026-04-11T10:41:16.969Z</time></trkpt><trkpt lat="42.9213217" lon="2.3250867"><ele>341.0</ele><time>2026-04-11T10:41:17.968Z</time></trkpt><trkpt lat="42.92135" lon="2.325205"><ele>342.0</ele><time>2026-04-11T10:41:18.968Z</time></trkpt><trkpt lat="42.9213783" lon="2.3253233"><ele>343.0</ele><time>2026-04-11T10:41:19.969Z</time></trkpt><trkpt lat="42.9214067" lon="2.3254383"><ele>343.0</ele><time>2026-04-11T10:41:20.968Z</time></trkpt><trkpt lat="42.92144" lon="2.3255517"><ele>343.0</ele><time>2026-04-11T10:41:21.968Z</time></trkpt><trkpt lat="42.9214833" lon="2.3256583"><ele>343.0</ele><time>2026-04-11T10:41:22.968Z</time></trkpt><trkpt lat="42.9215333" lon="2.3257667"><ele>343.0</ele><time>2026-04-11T10:41:23.969Z</time></trkpt><trkpt lat="42.9216" lon="2.32586"><ele>343.0</ele><time>2026-04-11T10:41:24.968Z</time></trkpt><trkpt lat="42.9216783" lon="2.325935"><ele>347.0</ele><time>2026-04-11T10:41:25.968Z</time></trkpt><trkpt lat="42.9217583" lon="2.325995"><ele>351.0</ele><time>2026-04-11T10:41:26.968Z</time></trkpt><trkpt lat="42.92184" lon="2.3260533"><ele>355.0</ele><time>2026-04-11T10:41:27.968Z</time></trkpt><trkpt lat="42.9219267" lon="2.3261167"><ele>359.0</ele><time>2026-04-11T10:41:28.968Z</time></trkpt><trkpt lat="42.9220067" lon="2.3261883"><ele>363.0</ele><time>2026-04-11T10:41:29.968Z</time></trkpt><trkpt lat="42.922085" lon="2.3262633"><ele>363.0</ele><time>2026-04-11T10:41:30.968Z</time></trkpt><trkpt lat="42.922155" lon="2.3263533"><ele>363.0</ele><time>2026-04-11T10:41:31.968Z</time></trkpt><trkpt lat="42.9222183" lon="2.32645"><ele>363.0</ele><time>2026-04-11T10:41:32.969Z</time></trkpt><trkpt lat="42.9222741" lon="2.3265519"><ele>363.0</ele><time>2026-04-11T10:41:33.969Z</time></trkpt><trkpt lat="42.922325" lon="2.3266586"><ele>363.0</ele><time>2026-04-11T10:41:34.968Z</time></trkpt><trkpt lat="42.9223757" lon="2.3267666"><ele>363.4</ele><time>2026-04-11T10:41:35.968Z</time></trkpt><trkpt lat="42.9224261" lon="2.3268806"><ele>363.79999999999995</ele><time>2026-04-11T10:41:36.968Z</time></trkpt><trkpt lat="42.9224775" lon="2.3269963"><ele>364.2</ele><time>2026-04-11T10:41:37.968Z</time></trkpt><trkpt lat="42.922526" lon="2.3271089"><ele>364.6</ele><time>2026-04-11T10:41:38.968Z</time></trkpt><trkpt lat="42.922574" lon="2.3272102"><ele>365.0</ele><time>2026-04-11T10:41:39.968Z</time></trkpt><trkpt lat="42.9226222" lon="2.3272862"><ele>367.5</ele><time>2026-04-11T10:41:40.968Z</time></trkpt><trkpt lat="42.9226749" lon="2.3273402"><ele>370.0</ele><time>2026-04-11T10:41:41.968Z</time></trkpt><trkpt lat="42.9227359" lon="2.3273686"><ele>372.5</ele><time>2026-04-11T10:41:42.968Z</time></trkpt><trkpt lat="42.9228052" lon="2.3273281"><ele>375.0</ele><time>2026-04-11T10:41:43.968Z</time></trkpt><trkpt lat="42.9228748" lon="2.3272534"><ele>377.5</ele><time>2026-04-11T10:41:44.968Z</time></trkpt><trkpt lat="42.9229422" lon="2.327164"><ele>380.0</ele><time>2026-04-11T10:41:45.968Z</time></trkpt><trkpt lat="42.9230102" lon="2.3270742"><ele>380.0</ele><time>2026-04-11T10:41:46.968Z</time></trkpt><trkpt lat="42.92308" lon="2.3269978"><ele>380.0</ele><time>2026-04-11T10:41:47.968Z</time></trkpt><trkpt lat="42.9231437" lon="2.3269472"><ele>380.0</ele><time>2026-04-11T10:41:48.968Z</time></trkpt><trkpt lat="42.9232414" lon="2.3268791"><ele>380.0</ele><time>2026-04-11T10:41:50.971Z</time></trkpt><trkpt lat="42.9232983" lon="2.3268052"><ele>380.0</ele><time>2026-04-11T10:41:52.968Z</time></trkpt><trkpt lat="42.9233661" lon="2.3267125"><ele>380.0</ele><time>2026-04-11T10:41:54.97Z</time></trkpt><trkpt lat="42.9234703" lon="2.3266069"><ele>381.1666666666667</ele><time>2026-04-11T10:41:56.968Z</time></trkpt><trkpt lat="42.9235338" lon="2.3265471"><ele>382.33333333333337</ele><time>2026-04-11T10:41:57.968Z</time></trkpt><trkpt lat="42.9236019" lon="2.3264802"><ele>383.5</ele><time>2026-04-11T10:41:58.968Z</time></trkpt><trkpt lat="42.9236698" lon="2.3264149"><ele>384.6666666666667</ele><time>2026-04-11T10:41:59.968Z</time></trkpt><trkpt lat="42.9237422" lon="2.3263421"><ele>385.8333333333333</ele><time>2026-04-11T10:42:00.968Z</time></trkpt><trkpt lat="42.9238107" lon="2.3262649"><ele>387.0</ele><time>2026-04-11T10:42:01.968Z</time></trkpt><trkpt lat="42.9238708" lon="2.3261821"><ele>387.0</ele><time>2026-04-11T10:42:02.968Z</time></trkpt><trkpt lat="42.9239179" lon="2.3261"><ele>387.0</ele><time>2026-04-11T10:42:03.968Z</time></trkpt><trkpt lat="42.9239588" lon="2.3260094"><ele>387.0</ele><time>2026-04-11T10:42:04.975Z</time></trkpt><trkpt lat="42.9239894" lon="2.3259022"><ele>387.0</ele><time>2026-04-11T10:42:05.968Z</time></trkpt><trkpt lat="42.9240118" lon="2.3257874"><ele>387.0</ele><time>2026-04-11T10:42:06.968Z</time></trkpt><trkpt lat="42.9240194" lon="2.3256737"><ele>387.0</ele><time>2026-04-11T10:42:07.969Z</time></trkpt><trkpt lat="42.9240093" lon="2.3255652"><ele>385.0</ele><time>2026-04-11T10:42:08.968Z</time></trkpt><trkpt lat="42.9240004" lon="2.3254651"><ele>383.0</ele><time>2026-04-11T10:42:09.968Z</time></trkpt><trkpt lat="42.9239991" lon="2.3253774"><ele>381.0</ele><time>2026-04-11T10:42:10.968Z</time></trkpt><trkpt lat="42.9240301" lon="2.3252307"><ele>379.0</ele><time>2026-04-11T10:42:12.968Z</time></trkpt><trkpt lat="42.9241382" lon="2.3251362"><ele>377.0</ele><time>2026-04-11T10:42:14.968Z</time></trkpt><trkpt lat="42.9242115" lon="2.3251015"><ele>377.5</ele><time>2026-04-11T10:42:15.968Z</time></trkpt><trkpt lat="42.9242849" lon="2.3250734"><ele>378.0</ele><time>2026-04-11T10:42:16.968Z</time></trkpt><trkpt lat="42.9243544" lon="2.3250369"><ele>378.5</ele><time>2026-04-11T10:42:17.968Z</time></trkpt><trkpt lat="42.9244203" lon="2.3249914"><ele>379.0</ele><time>2026-04-11T10:42:18.969Z</time></trkpt><trkpt lat="42.924489" lon="2.3249446"><ele>379.5</ele><time>2026-04-11T10:42:19.968Z</time></trkpt><trkpt lat="42.9245605" lon="2.3248897"><ele>380.0</ele><time>2026-04-11T10:42:20.969Z</time></trkpt><trkpt lat="42.9246351" lon="2.3248322"><ele>380.0</ele><time>2026-04-11T10:42:21.968Z</time></trkpt><trkpt lat="42.9247063" lon="2.3247723"><ele>380.0</ele><time>2026-04-11T10:42:22.968Z</time></trkpt><trkpt lat="42.9247633" lon="2.3247056"><ele>380.0</ele><time>2026-04-11T10:42:23.968Z</time></trkpt><trkpt lat="42.9248063" lon="2.3246321"><ele>380.0</ele><time>2026-04-11T10:42:24.968Z</time></trkpt><trkpt lat="42.9248296" lon="2.3244941"><ele>380.0</ele><time>2026-04-11T10:42:26.968Z</time></trkpt><trkpt lat="42.9247531" lon="2.3243687"><ele>383.0</ele><time>2026-04-11T10:42:28.969Z</time></trkpt><trkpt lat="42.9246986" lon="2.3243176"><ele>386.0</ele><time>2026-04-11T10:42:29.968Z</time></trkpt><trkpt lat="42.9246396" lon="2.3242774"><ele>389.0</ele><time>2026-04-11T10:42:30.969Z</time></trkpt><trkpt lat="42.9245452" lon="2.3242113"><ele>392.0</ele><time>2026-04-11T10:42:32.968Z</time></trkpt><trkpt lat="42.9244542" lon="2.3241542"><ele>395.0</ele><time>2026-04-11T10:42:34.968Z</time></trkpt><trkpt lat="42.92435" lon="2.3240937"><ele>395.0</ele><time>2026-04-11T10:42:36.968Z</time></trkpt><trkpt lat="42.9242406" lon="2.3240309"><ele>395.0</ele><time>2026-04-11T10:42:38.968Z</time></trkpt><trkpt lat="42.9241413" lon="2.3239514"><ele>395.0</ele><time>2026-04-11T10:42:40.969Z</time></trkpt><trkpt lat="42.9240596" lon="2.3238297"><ele>395.0</ele><time>2026-04-11T10:42:42.97Z</time></trkpt><trkpt lat="42.9240271" lon="2.3236556"><ele>394.8333333333333</ele><time>2026-04-11T10:42:44.968Z</time></trkpt><trkpt lat="42.9240203" lon="2.3235579"><ele>394.66666666666663</ele><time>2026-04-11T10:42:45.968Z</time></trkpt><trkpt lat="42.9240151" lon="2.3234582"><ele>394.5</ele><time>2026-04-11T10:42:46.969Z</time></trkpt><trkpt lat="42.9240083" lon="2.323354"><ele>394.33333333333337</ele><time>2026-04-11T10:42:47.969Z</time></trkpt><trkpt lat="42.9239939" lon="2.3232481"><ele>394.1666666666667</ele><time>2026-04-11T10:42:48.969Z</time></trkpt><trkpt lat="42.9239732" lon="2.3231461"><ele>394.0</ele><time>2026-04-11T10:42:49.968Z</time></trkpt><trkpt lat="42.923947" lon="2.3230481"><ele>394.00000000000006</ele><time>2026-04-11T10:42:50.968Z</time></trkpt><trkpt lat="42.9239172" lon="2.3229511"><ele>394.0</ele><time>2026-04-11T10:42:51.968Z</time></trkpt><trkpt lat="42.9238828" lon="2.322849"><ele>394.0</ele><time>2026-04-11T10:42:52.968Z</time></trkpt><trkpt lat="42.9238478" lon="2.3227458"><ele>394.0</ele><time>2026-04-11T10:42:53.968Z</time></trkpt><trkpt lat="42.9238108" lon="2.3226422"><ele>394.00000000000006</ele><time>2026-04-11T10:42:54.968Z</time></trkpt><trkpt lat="42.9237679" lon="2.3225418"><ele>394.0</ele><time>2026-04-11T10:42:55.968Z</time></trkpt><trkpt lat="42.9237238" lon="2.322441"><ele>394.0</ele><time>2026-04-11T10:42:56.969Z</time></trkpt><trkpt lat="42.9236756" lon="2.3223478"><ele>394.0</ele><time>2026-04-11T10:42:57.968Z</time></trkpt><trkpt lat="42.9236352" lon="2.3222612"><ele>394.0</ele><time>2026-04-11T10:42:58.969Z</time></trkpt><trkpt lat="42.9235932" lon="2.3221767"><ele>394.0</ele><time>2026-04-11T10:42:59.968Z</time></trkpt><trkpt lat="42.9235684" lon="2.3220959"><ele>394.0</ele><time>2026-04-11T10:43:00.968Z</time></trkpt><trkpt lat="42.9235561" lon="2.3220045"><ele>394.0</ele><time>2026-04-11T10:43:01.968Z</time></trkpt><trkpt lat="42.9235525" lon="2.3219049"><ele>394.0</ele><time>2026-04-11T10:43:02.969Z</time></trkpt><trkpt lat="42.9235579" lon="2.3217995"><ele>393.8571428571429</ele><time>2026-04-11T10:43:03.968Z</time></trkpt><trkpt lat="42.9235605" lon="2.3217009"><ele>393.7142857142857</ele><time>2026-04-11T10:43:04.969Z</time></trkpt><trkpt lat="42.923556" lon="2.3216063"><ele>393.57142857142856</ele><time>2026-04-11T10:43:05.968Z</time></trkpt><trkpt lat="42.9235542" lon="2.3215081"><ele>393.42857142857144</ele><time>2026-04-11T10:43:06.968Z</time></trkpt><trkpt lat="42.9235593" lon="2.3214102"><ele>393.2857142857143</ele><time>2026-04-11T10:43:07.968Z</time></trkpt><trkpt lat="42.9235762" lon="2.3213148"><ele>393.14285714285717</ele><time>2026-04-11T10:43:08.968Z</time></trkpt><trkpt lat="42.9236022" lon="2.3212187"><ele>393.0</ele><time>2026-04-11T10:43:09.969Z</time></trkpt><trkpt lat="42.9236359" lon="2.3211237"><ele>393.00000000000006</ele><time>2026-04-11T10:43:10.968Z</time></trkpt><trkpt lat="42.9236719" lon="2.3210303"><ele>393.0</ele><time>2026-04-11T10:43:11.968Z</time></trkpt><trkpt lat="42.9237147" lon="2.3209473"><ele>393.0</ele><time>2026-04-11T10:43:12.968Z</time></trkpt><trkpt lat="42.9237644" lon="2.3208857"><ele>393.0</ele><time>2026-04-11T10:43:13.968Z</time></trkpt><trkpt lat="42.9238178" lon="2.3208358"><ele>393.0</ele><time>2026-04-11T10:43:14.968Z</time></trkpt><trkpt lat="42.9238743" lon="2.3207896"><ele>393.00000000000006</ele><time>2026-04-11T10:43:15.968Z</time></trkpt><trkpt lat="42.9239276" lon="2.3207423"><ele>393.0</ele><time>2026-04-11T10:43:16.969Z</time></trkpt><trkpt lat="42.92398" lon="2.3206884"><ele>393.0</ele><time>2026-04-11T10:43:17.968Z</time></trkpt><trkpt lat="42.9240304" lon="2.3206327"><ele>393.0</ele><time>2026-04-11T10:43:18.968Z</time></trkpt><trkpt lat="42.9240769" lon="2.3205733"><ele>393.0</ele><time>2026-04-11T10:43:19.968Z</time></trkpt><trkpt lat="42.9241545" lon="2.3204517"><ele>393.0</ele><time>2026-04-11T10:43:21.968Z</time></trkpt><trkpt lat="42.9242126" lon="2.3203082"><ele>393.0</ele><time>2026-04-11T10:43:23.968Z</time></trkpt><trkpt lat="42.9242252" lon="2.3202237"><ele>393.0</ele><time>2026-04-11T10:43:24.97Z</time></trkpt><trkpt lat="42.924232" lon="2.3201349"><ele>393.8571428571429</ele><time>2026-04-11T10:43:25.969Z</time></trkpt><trkpt lat="42.9242382" lon="2.3200428"><ele>394.7142857142857</ele><time>2026-04-11T10:43:26.968Z</time></trkpt><trkpt lat="42.9242461" lon="2.3199477"><ele>395.57142857142856</ele><time>2026-04-11T10:43:27.969Z</time></trkpt><trkpt lat="42.9242558" lon="2.3198519"><ele>396.42857142857144</ele><time>2026-04-11T10:43:28.969Z</time></trkpt><trkpt lat="42.9242717" lon="2.3197574"><ele>397.2857142857143</ele><time>2026-04-11T10:43:29.968Z</time></trkpt><trkpt lat="42.9242944" lon="2.3196701"><ele>398.14285714285717</ele><time>2026-04-11T10:43:30.969Z</time></trkpt><trkpt lat="42.9243272" lon="2.3195932"><ele>399.0</ele><time>2026-04-11T10:43:31.968Z</time></trkpt><trkpt lat="42.9243774" lon="2.3195286"><ele>394.8333333333333</ele><time>2026-04-11T10:43:32.968Z</time></trkpt><trkpt lat="42.9244376" lon="2.3194738"><ele>390.6666666666667</ele><time>2026-04-11T10:43:33.968Z</time></trkpt><trkpt lat="42.9244948" lon="2.319431"><ele>386.5</ele><time>2026-04-11T10:43:34.969Z</time></trkpt><trkpt lat="42.9245498" lon="2.3193888"><ele>382.33333333333337</ele><time>2026-04-11T10:43:35.968Z</time></trkpt><trkpt lat="42.9246608" lon="2.3193149"><ele>378.1666666666667</ele><time>2026-04-11T10:43:37.969Z</time></trkpt><trkpt lat="42.9247191" lon="2.3192824"><ele>374.0</ele><time>2026-04-11T10:43:38.968Z</time></trkpt><trkpt lat="42.9248313" lon="2.3192032"><ele>374.0</ele><time>2026-04-11T10:43:40.968Z</time></trkpt><trkpt lat="42.9249221" lon="2.3190883"><ele>374.0</ele><time>2026-04-11T10:43:42.969Z</time></trkpt><trkpt lat="42.9249653" lon="2.3190256"><ele>374.0</ele><time>2026-04-11T10:43:43.968Z</time></trkpt><trkpt lat="42.925011" lon="2.3189611"><ele>374.0</ele><time>2026-04-11T10:43:44.969Z</time></trkpt><trkpt lat="42.9250587" lon="2.3188964"><ele>374.0</ele><time>2026-04-11T10:43:45.968Z</time></trkpt><trkpt lat="42.9251478" lon="2.3187747"><ele>374.0</ele><time>2026-04-11T10:43:47.968Z</time></trkpt><trkpt lat="42.9251941" lon="2.3187142"><ele>373.0</ele><time>2026-04-11T10:43:48.968Z</time></trkpt><trkpt lat="42.9252462" lon="2.3186516"><ele>372.0</ele><time>2026-04-11T10:43:49.968Z</time></trkpt><trkpt lat="42.925304" lon="2.3185858"><ele>371.0</ele><time>2026-04-11T10:43:50.969Z</time></trkpt><trkpt lat="42.9253669" lon="2.3185271"><ele>370.0</ele><time>2026-04-11T10:43:51.968Z</time></trkpt><trkpt lat="42.9254308" lon="2.3184692"><ele>369.0</ele><time>2026-04-11T10:43:52.968Z</time></trkpt><trkpt lat="42.9254934" lon="2.3184084"><ele>368.0</ele><time>2026-04-11T10:43:53.968Z</time></trkpt><trkpt lat="42.9255527" lon="2.3183429"><ele>368.0</ele><time>2026-04-11T10:43:54.97Z</time></trkpt><trkpt lat="42.9256072" lon="2.3182773"><ele>368.0</ele><time>2026-04-11T10:43:55.968Z</time></trkpt><trkpt lat="42.925663" lon="2.318212"><ele>368.0</ele><time>2026-04-11T10:43:56.968Z</time></trkpt><trkpt lat="42.9257198" lon="2.3181466"><ele>368.0</ele><time>2026-04-11T10:43:57.968Z</time></trkpt><trkpt lat="42.9257768" lon="2.318084"><ele>368.0</ele><time>2026-04-11T10:43:58.968Z</time></trkpt><trkpt lat="42.9258376" lon="2.3180222"><ele>368.0</ele><time>2026-04-11T10:43:59.969Z</time></trkpt><trkpt lat="42.9259006" lon="2.3179604"><ele>368.0</ele><time>2026-04-11T10:44:00.969Z</time></trkpt><trkpt lat="42.9259628" lon="2.3178976"><ele>365.5714285714286</ele><time>2026-04-11T10:44:01.969Z</time></trkpt><trkpt lat="42.9260218" lon="2.3178386"><ele>363.1428571428571</ele><time>2026-04-11T10:44:02.968Z</time></trkpt><trkpt lat="42.9260774" lon="2.3177753"><ele>360.7142857142857</ele><time>2026-04-11T10:44:03.969Z</time></trkpt><trkpt lat="42.9261337" lon="2.3177143"><ele>358.28571428571433</ele><time>2026-04-11T10:44:04.969Z</time></trkpt><trkpt lat="42.9261917" lon="2.3176568"><ele>355.8571428571429</ele><time>2026-04-11T10:44:05.969Z</time></trkpt><trkpt lat="42.9262515" lon="2.3176058"><ele>353.42857142857144</ele><time>2026-04-11T10:44:06.971Z</time></trkpt><trkpt lat="42.926317" lon="2.3175571"><ele>351.0</ele><time>2026-04-11T10:44:07.968Z</time></trkpt><trkpt lat="42.9263856" lon="2.3175228"><ele>351.0</ele><time>2026-04-11T10:44:08.969Z</time></trkpt><trkpt lat="42.9264584" lon="2.3175015"><ele>351.0</ele><time>2026-04-11T10:44:09.97Z</time></trkpt><trkpt lat="42.926528" lon="2.3174953"><ele>351.0</ele><time>2026-04-11T10:44:10.968Z</time></trkpt><trkpt lat="42.9265925" lon="2.3175033"><ele>351.0</ele><time>2026-04-11T10:44:11.968Z</time></trkpt><trkpt lat="42.9267096" lon="2.3175575"><ele>351.0</ele><time>2026-04-11T10:44:13.969Z</time></trkpt><trkpt lat="42.9267742" lon="2.3175896"><ele>351.0</ele><time>2026-04-11T10:44:14.969Z</time></trkpt><trkpt lat="42.9268459" lon="2.3176209"><ele>348.1666666666667</ele><time>2026-04-11T10:44:15.969Z</time></trkpt><trkpt lat="42.9269208" lon="2.317646"><ele>345.3333333333333</ele><time>2026-04-11T10:44:16.968Z</time></trkpt><trkpt lat="42.9270019" lon="2.3176626"><ele>342.5</ele><time>2026-04-11T10:44:17.968Z</time></trkpt><trkpt lat="42.9270818" lon="2.3176839"><ele>339.66666666666663</ele><time>2026-04-11T10:44:18.969Z</time></trkpt><trkpt lat="42.927161" lon="2.3177149"><ele>336.8333333333333</ele><time>2026-04-11T10:44:19.97Z</time></trkpt><trkpt lat="42.9272373" lon="2.3177459"><ele>334.0</ele><time>2026-04-11T10:44:20.969Z</time></trkpt><trkpt lat="42.9273164" lon="2.317774"><ele>334.0</ele><time>2026-04-11T10:44:21.968Z</time></trkpt><trkpt lat="42.9273964" lon="2.3178008"><ele>334.0</ele><time>2026-04-11T10:44:22.968Z</time></trkpt><trkpt lat="42.9274804" lon="2.3178205"><ele>334.0</ele><time>2026-04-11T10:44:23.969Z</time></trkpt><trkpt lat="42.9275628" lon="2.3178361"><ele>334.0</ele><time>2026-04-11T10:44:24.968Z</time></trkpt><trkpt lat="42.9276403" lon="2.3178496"><ele>334.0</ele><time>2026-04-11T10:44:25.968Z</time></trkpt><trkpt lat="42.927714" lon="2.3178613"><ele>334.0</ele><time>2026-04-11T10:44:26.969Z</time></trkpt><trkpt lat="42.9277806" lon="2.3178751"><ele>332.8333333333333</ele><time>2026-04-11T10:44:27.969Z</time></trkpt><trkpt lat="42.9278479" lon="2.3178883"><ele>331.66666666666663</ele><time>2026-04-11T10:44:28.968Z</time></trkpt><trkpt lat="42.9279208" lon="2.3178963"><ele>330.5</ele><time>2026-04-11T10:44:29.97Z</time></trkpt><trkpt lat="42.9279978" lon="2.3179028"><ele>329.3333333333333</ele><time>2026-04-11T10:44:30.969Z</time></trkpt><trkpt lat="42.928075" lon="2.3179105"><ele>328.1666666666667</ele><time>2026-04-11T10:44:31.969Z</time></trkpt><trkpt lat="42.928156" lon="2.3179118"><ele>327.0</ele><time>2026-04-11T10:44:32.969Z</time></trkpt><trkpt lat="42.9282355" lon="2.3179085"><ele>327.0</ele><time>2026-04-11T10:44:33.969Z</time></trkpt><trkpt lat="42.9283167" lon="2.3179029"><ele>327.0</ele><time>2026-04-11T10:44:34.969Z</time></trkpt><trkpt lat="42.9283935" lon="2.3178934"><ele>327.0</ele><time>2026-04-11T10:44:35.97Z</time></trkpt><trkpt lat="42.9284755" lon="2.3178883"><ele>327.0</ele><time>2026-04-11T10:44:36.968Z</time></trkpt><trkpt lat="42.9285603" lon="2.3178869"><ele>327.0</ele><time>2026-04-11T10:44:37.969Z</time></trkpt><trkpt lat="42.9286497" lon="2.3178853"><ele>327.0</ele><time>2026-04-11T10:44:38.969Z</time></trkpt><trkpt lat="42.928744" lon="2.3178956"><ele>325.6666666666667</ele><time>2026-04-11T10:44:39.968Z</time></trkpt><trkpt lat="42.9288328" lon="2.3179048"><ele>324.3333333333333</ele><time>2026-04-11T10:44:40.969Z</time></trkpt><trkpt lat="42.9289159" lon="2.317911"><ele>323.0</ele><time>2026-04-11T10:44:41.969Z</time></trkpt><trkpt lat="42.9289975" lon="2.3179126"><ele>321.66666666666663</ele><time>2026-04-11T10:44:42.969Z</time></trkpt><trkpt lat="42.9290762" lon="2.3179208"><ele>320.3333333333333</ele><time>2026-04-11T10:44:43.968Z</time></trkpt><trkpt lat="42.9291595" lon="2.3179328"><ele>319.0</ele><time>2026-04-11T10:44:44.968Z</time></trkpt><trkpt lat="42.9292468" lon="2.3179518"><ele>318.16666666666663</ele><time>2026-04-11T10:44:45.968Z</time></trkpt><trkpt lat="42.9293313" lon="2.3179737"><ele>317.3333333333333</ele><time>2026-04-11T10:44:46.968Z</time></trkpt><trkpt lat="42.9294149" lon="2.3179907"><ele>316.5</ele><time>2026-04-11T10:44:47.968Z</time></trkpt><trkpt lat="42.9294954" lon="2.3179977"><ele>315.6666666666667</ele><time>2026-04-11T10:44:48.97Z</time></trkpt><trkpt lat="42.92957" lon="2.3179955"><ele>314.83333333333337</ele><time>2026-04-11T10:44:49.969Z</time></trkpt><trkpt lat="42.9296405" lon="2.3179888"><ele>314.0</ele><time>2026-04-11T10:44:50.968Z</time></trkpt><trkpt lat="42.9297061" lon="2.3179783"><ele>313.99999999999994</ele><time>2026-04-11T10:44:51.968Z</time></trkpt><trkpt lat="42.9297707" lon="2.3179659"><ele>314.0</ele><time>2026-04-11T10:44:52.969Z</time></trkpt><trkpt lat="42.9298364" lon="2.3179496"><ele>314.0</ele><time>2026-04-11T10:44:53.968Z</time></trkpt><trkpt lat="42.9298989" lon="2.3179351"><ele>314.0</ele><time>2026-04-11T10:44:54.969Z</time></trkpt><trkpt lat="42.9299642" lon="2.3179158"><ele>314.0</ele><time>2026-04-11T10:44:55.969Z</time></trkpt><trkpt lat="42.9300317" lon="2.3178982"><ele>313.99999999999994</ele><time>2026-04-11T10:44:56.968Z</time></trkpt><trkpt lat="42.9300974" lon="2.3178826"><ele>314.0</ele><time>2026-04-11T10:44:57.968Z</time></trkpt><trkpt lat="42.9301637" lon="2.3178676"><ele>313.4</ele><time>2026-04-11T10:44:58.969Z</time></trkpt><trkpt lat="42.9302289" lon="2.3178583"><ele>312.79999999999995</ele><time>2026-04-11T10:44:59.969Z</time></trkpt><trkpt lat="42.9302928" lon="2.3178559"><ele>312.20000000000005</ele><time>2026-04-11T10:45:00.969Z</time></trkpt><trkpt lat="42.930411" lon="2.3178699"><ele>311.6</ele><time>2026-04-11T10:45:02.97Z</time></trkpt><trkpt lat="42.9305109" lon="2.317914"><ele>311.0</ele><time>2026-04-11T10:45:04.968Z</time></trkpt><trkpt lat="42.9306071" lon="2.3179807"><ele>311.0</ele><time>2026-04-11T10:45:06.969Z</time></trkpt><trkpt lat="42.930714" lon="2.3180658"><ele>311.0</ele><time>2026-04-11T10:45:08.969Z</time></trkpt><trkpt lat="42.9307743" lon="2.3181119"><ele>311.0</ele><time>2026-04-11T10:45:09.968Z</time></trkpt><trkpt lat="42.930836" lon="2.3181509"><ele>311.0</ele><time>2026-04-11T10:45:10.969Z</time></trkpt><trkpt lat="42.930898" lon="2.3181826"><ele>311.0</ele><time>2026-04-11T10:45:11.968Z</time></trkpt><trkpt lat="42.9309612" lon="2.31821"><ele>311.0</ele><time>2026-04-11T10:45:12.969Z</time></trkpt><trkpt lat="42.9310625" lon="2.3182484"><ele>311.40000000000003</ele><time>2026-04-11T10:45:14.969Z</time></trkpt><trkpt lat="42.9311423" lon="2.3182831"><ele>311.8</ele><time>2026-04-11T10:45:16.968Z</time></trkpt><trkpt lat="42.9312267" lon="2.3183401"><ele>312.20000000000005</ele><time>2026-04-11T10:45:18.968Z</time></trkpt><trkpt lat="42.931316" lon="2.3184044"><ele>312.6</ele><time>2026-04-11T10:45:20.969Z</time></trkpt><trkpt lat="42.9314134" lon="2.3184945"><ele>313.0</ele><time>2026-04-11T10:45:22.968Z</time></trkpt><trkpt lat="42.9314662" lon="2.3185495"><ele>313.0</ele><time>2026-04-11T10:45:23.968Z</time></trkpt><trkpt lat="42.9315225" lon="2.3186026"><ele>313.0</ele><time>2026-04-11T10:45:24.969Z</time></trkpt><trkpt lat="42.9315746" lon="2.3186561"><ele>313.0</ele><time>2026-04-11T10:45:25.968Z</time></trkpt><trkpt lat="42.9316266" lon="2.318714"><ele>313.0</ele><time>2026-04-11T10:45:26.97Z</time></trkpt><trkpt lat="42.931677" lon="2.3187753"><ele>313.0</ele><time>2026-04-11T10:45:27.969Z</time></trkpt><trkpt lat="42.9317282" lon="2.3188306"><ele>313.0</ele><time>2026-04-11T10:45:28.968Z</time></trkpt><trkpt lat="42.93183" lon="2.3189124"><ele>317.8</ele><time>2026-04-11T10:45:30.969Z</time></trkpt><trkpt lat="42.9319356" lon="2.3189692"><ele>322.6</ele><time>2026-04-11T10:45:32.969Z</time></trkpt><trkpt lat="42.9320443" lon="2.319021"><ele>327.40000000000003</ele><time>2026-04-11T10:45:34.969Z</time></trkpt><trkpt lat="42.9321408" lon="2.3190582"><ele>332.20000000000005</ele><time>2026-04-11T10:45:36.968Z</time></trkpt><trkpt lat="42.9322263" lon="2.3190608"><ele>337.0</ele><time>2026-04-11T10:45:38.969Z</time></trkpt><trkpt lat="42.932316" lon="2.3189876"><ele>332.40000000000003</ele><time>2026-04-11T10:45:40.968Z</time></trkpt><trkpt lat="42.9323957" lon="2.3188626"><ele>327.8</ele><time>2026-04-11T10:45:42.969Z</time></trkpt><trkpt lat="42.9324548" lon="2.3187362"><ele>323.2</ele><time>2026-04-11T10:45:44.968Z</time></trkpt><trkpt lat="42.9325001" lon="2.3186262"><ele>318.6</ele><time>2026-04-11T10:45:46.968Z</time></trkpt><trkpt lat="42.9325428" lon="2.3185099"><ele>314.0</ele><time>2026-04-11T10:45:48.97Z</time></trkpt><trkpt lat="42.9325917" lon="2.3183817"><ele>314.0</ele><time>2026-04-11T10:45:50.968Z</time></trkpt><trkpt lat="42.9326603" lon="2.3182582"><ele>314.0</ele><time>2026-04-11T10:45:52.967Z</time></trkpt><trkpt lat="42.9327512" lon="2.3181563"><ele>314.0</ele><time>2026-04-11T10:45:54.968Z</time></trkpt><trkpt lat="42.9328185" lon="2.3181336"><ele>314.0</ele><time>2026-04-11T10:45:55.967Z</time></trkpt><trkpt lat="42.9328802" lon="2.3181157"><ele>314.0</ele><time>2026-04-11T10:45:56.968Z</time></trkpt><trkpt lat="42.9329987" lon="2.3180967"><ele>314.0</ele><time>2026-04-11T10:45:58.968Z</time></trkpt><trkpt lat="42.9331191" lon="2.3181206"><ele>314.0</ele><time>2026-04-11T10:46:00.968Z</time></trkpt><trkpt lat="42.9331871" lon="2.3181518"><ele>314.0</ele><time>2026-04-11T10:46:01.967Z</time></trkpt><trkpt lat="42.9332613" lon="2.3181906"><ele>314.0</ele><time>2026-04-11T10:46:02.968Z</time></trkpt><trkpt lat="42.9333429" lon="2.3182264"><ele>314.0</ele><time>2026-04-11T10:46:03.967Z</time></trkpt><trkpt lat="42.9334204" lon="2.3182559"><ele>314.0</ele><time>2026-04-11T10:46:04.967Z</time></trkpt><trkpt lat="42.9334978" lon="2.3182859"><ele>312.33333333333337</ele><time>2026-04-11T10:46:05.968Z</time></trkpt><trkpt lat="42.9335752" lon="2.3183163"><ele>310.6666666666667</ele><time>2026-04-11T10:46:06.968Z</time></trkpt><trkpt lat="42.9336551" lon="2.3183505"><ele>309.0</ele><time>2026-04-11T10:46:07.968Z</time></trkpt><trkpt lat="42.9337353" lon="2.3183805"><ele>307.3333333333333</ele><time>2026-04-11T10:46:08.968Z</time></trkpt><trkpt lat="42.9338197" lon="2.3184045"><ele>305.66666666666663</ele><time>2026-04-11T10:46:09.968Z</time></trkpt><trkpt lat="42.9339059" lon="2.3184201"><ele>304.0</ele><time>2026-04-11T10:46:10.968Z</time></trkpt><trkpt lat="42.9339864" lon="2.3184272"><ele>304.0</ele><time>2026-04-11T10:46:11.967Z</time></trkpt><trkpt lat="42.9340624" lon="2.3184276"><ele>304.0</ele><time>2026-04-11T10:46:12.968Z</time></trkpt><trkpt lat="42.9341357" lon="2.3184213"><ele>304.0</ele><time>2026-04-11T10:46:13.968Z</time></trkpt><trkpt lat="42.9342059" lon="2.3184123"><ele>304.0</ele><time>2026-04-11T10:46:14.968Z</time></trkpt><trkpt lat="42.9342715" lon="2.3184017"><ele>304.0</ele><time>2026-04-11T10:46:15.968Z</time></trkpt><trkpt lat="42.9343345" lon="2.3183912"><ele>304.0</ele><time>2026-04-11T10:46:16.968Z</time></trkpt><trkpt lat="42.9343985" lon="2.3183846"><ele>304.0</ele><time>2026-04-11T10:46:17.969Z</time></trkpt><trkpt lat="42.9345126" lon="2.3183846"><ele>305.8</ele><time>2026-04-11T10:46:19.968Z</time></trkpt><trkpt lat="42.9346039" lon="2.3183778"><ele>307.59999999999997</ele><time>2026-04-11T10:46:21.968Z</time></trkpt><trkpt lat="42.9346921" lon="2.3183466"><ele>309.4</ele><time>2026-04-11T10:46:23.968Z</time></trkpt><trkpt lat="42.934792" lon="2.3183044"><ele>311.2</ele><time>2026-04-11T10:46:25.967Z</time></trkpt><trkpt lat="42.9349144" lon="2.3182645"><ele>313.0</ele><time>2026-04-11T10:46:27.967Z</time></trkpt><trkpt lat="42.9349836" lon="2.318246"><ele>312.1428571428571</ele><time>2026-04-11T10:46:28.967Z</time></trkpt><trkpt lat="42.9350602" lon="2.31822"><ele>311.2857142857143</ele><time>2026-04-11T10:46:29.967Z</time></trkpt><trkpt lat="42.9351314" lon="2.318197"><ele>310.42857142857144</ele><time>2026-04-11T10:46:30.968Z</time></trkpt><trkpt lat="42.9352069" lon="2.318176"><ele>309.57142857142856</ele><time>2026-04-11T10:46:31.968Z</time></trkpt><trkpt lat="42.9352805" lon="2.3181486"><ele>308.7142857142857</ele><time>2026-04-11T10:46:32.968Z</time></trkpt><trkpt lat="42.9353345" lon="2.3180912"><ele>307.85714285714283</ele><time>2026-04-11T10:46:33.968Z</time></trkpt><trkpt lat="42.9353847" lon="2.3180185"><ele>307.0</ele><time>2026-04-11T10:46:34.968Z</time></trkpt><trkpt lat="42.9354334" lon="2.3179387"><ele>307.0</ele><time>2026-04-11T10:46:35.968Z</time></trkpt><trkpt lat="42.9354868" lon="2.3178502"><ele>307.0</ele><time>2026-04-11T10:46:36.968Z</time></trkpt><trkpt lat="42.9355383" lon="2.3177537"><ele>307.0</ele><time>2026-04-11T10:46:37.968Z</time></trkpt><trkpt lat="42.9355816" lon="2.3176519"><ele>307.0</ele><time>2026-04-11T10:46:38.969Z</time></trkpt><trkpt lat="42.9356135" lon="2.3175412"><ele>307.0</ele><time>2026-04-11T10:46:39.968Z</time></trkpt><trkpt lat="42.9356297" lon="2.3174209"><ele>307.0</ele><time>2026-04-11T10:46:40.969Z</time></trkpt><trkpt lat="42.9356393" lon="2.3173036"><ele>305.0</ele><time>2026-04-11T10:46:41.968Z</time></trkpt><trkpt lat="42.9356492" lon="2.3171942"><ele>303.0</ele><time>2026-04-11T10:46:42.968Z</time></trkpt><trkpt lat="42.9356651" lon="2.3171014"><ele>301.0</ele><time>2026-04-11T10:46:43.968Z</time></trkpt><trkpt lat="42.9357307" lon="2.3169769"><ele>299.0</ele><time>2026-04-11T10:46:45.968Z</time></trkpt><trkpt lat="42.9358512" lon="2.3169127"><ele>297.0</ele><time>2026-04-11T10:46:47.968Z</time></trkpt><trkpt lat="42.9359344" lon="2.316896"><ele>297.0</ele><time>2026-04-11T10:46:48.968Z</time></trkpt><trkpt lat="42.9360238" lon="2.3168709"><ele>297.0</ele><time>2026-04-11T10:46:49.967Z</time></trkpt><trkpt lat="42.9361178" lon="2.3168439"><ele>297.0</ele><time>2026-04-11T10:46:50.968Z</time></trkpt><trkpt lat="42.936222" lon="2.3168227"><ele>297.0</ele><time>2026-04-11T10:46:51.968Z</time></trkpt><trkpt lat="42.9363295" lon="2.3168097"><ele>297.0</ele><time>2026-04-11T10:46:52.968Z</time></trkpt><trkpt lat="42.9364324" lon="2.3167962"><ele>297.0</ele><time>2026-04-11T10:46:53.968Z</time></trkpt><trkpt lat="42.9365328" lon="2.3167866"><ele>297.0</ele><time>2026-04-11T10:46:54.969Z</time></trkpt><trkpt lat="42.9366291" lon="2.3167843"><ele>297.0</ele><time>2026-04-11T10:46:55.968Z</time></trkpt><trkpt lat="42.9367171" lon="2.3167896"><ele>297.0</ele><time>2026-04-11T10:46:56.968Z</time></trkpt><trkpt lat="42.9368053" lon="2.3168142"><ele>297.0</ele><time>2026-04-11T10:46:57.968Z</time></trkpt><trkpt lat="42.9368898" lon="2.3168514"><ele>295.0</ele><time>2026-04-11T10:46:58.97Z</time></trkpt><trkpt lat="42.9369768" lon="2.3168968"><ele>293.0</ele><time>2026-04-11T10:46:59.968Z</time></trkpt><trkpt lat="42.9370619" lon="2.3169447"><ele>291.0</ele><time>2026-04-11T10:47:00.967Z</time></trkpt><trkpt lat="42.9371456" lon="2.3169887"><ele>289.0</ele><time>2026-04-11T10:47:01.967Z</time></trkpt><trkpt lat="42.9372341" lon="2.3170224"><ele>287.0</ele><time>2026-04-11T10:47:02.968Z</time></trkpt><trkpt lat="42.9373215" lon="2.3170517"><ele>287.0</ele><time>2026-04-11T10:47:03.967Z</time></trkpt><trkpt lat="42.9374004" lon="2.3170769"><ele>287.0</ele><time>2026-04-11T10:47:04.967Z</time></trkpt><trkpt lat="42.9374753" lon="2.3170935"><ele>287.0</ele><time>2026-04-11T10:47:05.968Z</time></trkpt><trkpt lat="42.9375461" lon="2.3171129"><ele>287.0</ele><time>2026-04-11T10:47:06.968Z</time></trkpt><trkpt lat="42.9376144" lon="2.31713"><ele>287.0</ele><time>2026-04-11T10:47:07.968Z</time></trkpt><trkpt lat="42.9376805" lon="2.3171483"><ele>287.0</ele><time>2026-04-11T10:47:08.968Z</time></trkpt><trkpt lat="42.9377466" lon="2.3171683"><ele>287.0</ele><time>2026-04-11T10:47:09.968Z</time></trkpt><trkpt lat="42.937818" lon="2.3171864"><ele>285.83333333333337</ele><time>2026-04-11T10:47:10.967Z</time></trkpt><trkpt lat="42.9378936" lon="2.3171916"><ele>284.6666666666667</ele><time>2026-04-11T10:47:11.968Z</time></trkpt><trkpt lat="42.9379727" lon="2.3171807"><ele>283.5</ele><time>2026-04-11T10:47:12.97Z</time></trkpt><trkpt lat="42.9380512" lon="2.3171613"><ele>282.3333333333333</ele><time>2026-04-11T10:47:13.967Z</time></trkpt><trkpt lat="42.9381244" lon="2.317145"><ele>281.16666666666663</ele><time>2026-04-11T10:47:14.968Z</time></trkpt><trkpt lat="42.93819" lon="2.3171412"><ele>280.0</ele><time>2026-04-11T10:47:15.967Z</time></trkpt><trkpt lat="42.9382899" lon="2.3171459"><ele>280.0</ele><time>2026-04-11T10:47:17.968Z</time></trkpt><trkpt lat="42.9382971" lon="2.3170573"><ele>280.0</ele><time>2026-04-11T10:47:20.968Z</time></trkpt><trkpt lat="42.9382134" lon="2.3170017"><ele>280.0</ele><time>2026-04-11T10:47:22.968Z</time></trkpt><trkpt lat="42.9380937" lon="2.316943"><ele>280.0</ele><time>2026-04-11T10:47:24.968Z</time></trkpt><trkpt lat="42.9380217" lon="2.3168902"><ele>280.0</ele><time>2026-04-11T10:47:25.968Z</time></trkpt><trkpt lat="42.9379369" lon="2.3168329"><ele>280.0</ele><time>2026-04-11T10:47:26.968Z</time></trkpt><trkpt lat="42.9378494" lon="2.316771"><ele>280.0</ele><time>2026-04-11T10:47:27.968Z</time></trkpt><trkpt lat="42.9377648" lon="2.3167102"><ele>280.0</ele><time>2026-04-11T10:47:28.968Z</time></trkpt><trkpt lat="42.9376869" lon="2.3166527"><ele>280.0</ele><time>2026-04-11T10:47:29.968Z</time></trkpt><trkpt lat="42.9376086" lon="2.3165977"><ele>280.0</ele><time>2026-04-11T10:47:30.968Z</time></trkpt><trkpt lat="42.9375298" lon="2.3165483"><ele>281.4</ele><time>2026-04-11T10:47:31.967Z</time></trkpt><trkpt lat="42.9374455" lon="2.3165038"><ele>282.8</ele><time>2026-04-11T10:47:32.968Z</time></trkpt><trkpt lat="42.9373612" lon="2.3164597"><ele>284.2</ele><time>2026-04-11T10:47:33.968Z</time></trkpt><trkpt lat="42.9372761" lon="2.3164161"><ele>285.6</ele><time>2026-04-11T10:47:34.967Z</time></trkpt><trkpt lat="42.9371907" lon="2.3163677"><ele>287.0</ele><time>2026-04-11T10:47:35.967Z</time></trkpt><trkpt lat="42.937104" lon="2.3163259"><ele>285.0</ele><time>2026-04-11T10:47:36.968Z</time></trkpt><trkpt lat="42.9370106" lon="2.3162736"><ele>283.0</ele><time>2026-04-11T10:47:37.968Z</time></trkpt><trkpt lat="42.9369194" lon="2.3162126"><ele>281.0</ele><time>2026-04-11T10:47:38.968Z</time></trkpt><trkpt lat="42.9368293" lon="2.3161475"><ele>279.0</ele><time>2026-04-11T10:47:39.968Z</time></trkpt><trkpt lat="42.9367382" lon="2.3160848"><ele>277.0</ele><time>2026-04-11T10:47:40.967Z</time></trkpt><trkpt lat="42.9366449" lon="2.3160314"><ele>277.0</ele><time>2026-04-11T10:47:41.967Z</time></trkpt><trkpt lat="42.9365445" lon="2.3159898"><ele>277.0</ele><time>2026-04-11T10:47:42.968Z</time></trkpt><trkpt lat="42.9364451" lon="2.3159573"><ele>277.0</ele><time>2026-04-11T10:47:43.967Z</time></trkpt><trkpt lat="42.9363503" lon="2.3159321"><ele>277.0</ele><time>2026-04-11T10:47:44.968Z</time></trkpt><trkpt lat="42.9362596" lon="2.3159084"><ele>277.0</ele><time>2026-04-11T10:47:45.967Z</time></trkpt><trkpt lat="42.9361749" lon="2.3158882"><ele>277.0</ele><time>2026-04-11T10:47:46.967Z</time></trkpt><trkpt lat="42.9360973" lon="2.3158751"><ele>277.0</ele><time>2026-04-11T10:47:47.968Z</time></trkpt><trkpt lat="42.9360292" lon="2.3158766"><ele>277.0</ele><time>2026-04-11T10:47:48.968Z</time></trkpt><trkpt lat="42.9359202" lon="2.3159199"><ele>277.0</ele><time>2026-04-11T10:47:50.968Z</time></trkpt><trkpt lat="42.9358341" lon="2.3159511"><ele>277.0</ele><time>2026-04-11T10:47:52.967Z</time></trkpt><trkpt lat="42.9357776" lon="2.3159086"><ele>277.0</ele><time>2026-04-11T10:47:55.968Z</time></trkpt><trkpt lat="42.9358052" lon="2.3158293"><ele>277.0</ele><time>2026-04-11T10:48:05.968Z</time></trkpt><trkpt lat="42.9359236" lon="2.3157535"><ele>277.0</ele><time>2026-04-11T10:48:07.969Z</time></trkpt><trkpt lat="42.9360009" lon="2.3157197"><ele>277.0</ele><time>2026-04-11T10:48:08.968Z</time></trkpt><trkpt lat="42.9360871" lon="2.3156934"><ele>277.0</ele><time>2026-04-11T10:48:09.968Z</time></trkpt><trkpt lat="42.9361839" lon="2.3156738"><ele>277.0</ele><time>2026-04-11T10:48:10.968Z</time></trkpt><trkpt lat="42.936288" lon="2.315664"><ele>277.0</ele><time>2026-04-11T10:48:11.968Z</time></trkpt><trkpt lat="42.9364008" lon="2.3156656"><ele>277.0</ele><time>2026-04-11T10:48:12.972Z</time></trkpt><trkpt lat="42.9365166" lon="2.3156901"><ele>277.0</ele><time>2026-04-11T10:48:13.968Z</time></trkpt><trkpt lat="42.936638" lon="2.3157355"><ele>277.0</ele><time>2026-04-11T10:48:14.968Z</time></trkpt><trkpt lat="42.9367616" lon="2.3157982"><ele>275.75</ele><time>2026-04-11T10:48:15.969Z</time></trkpt><trkpt lat="42.9368934" lon="2.3158703"><ele>274.5</ele><time>2026-04-11T10:48:16.968Z</time></trkpt><trkpt lat="42.9370343" lon="2.3159456"><ele>273.25</ele><time>2026-04-11T10:48:17.968Z</time></trkpt><trkpt lat="42.9371801" lon="2.3160219"><ele>272.0</ele><time>2026-04-11T10:48:18.968Z</time></trkpt><trkpt lat="42.9373254" lon="2.3160965"><ele>272.0</ele><time>2026-04-11T10:48:19.969Z</time></trkpt><trkpt lat="42.9374739" lon="2.3161703"><ele>272.0</ele><time>2026-04-11T10:48:20.968Z</time></trkpt><trkpt lat="42.9376254" lon="2.3162414"><ele>272.0</ele><time>2026-04-11T10:48:21.967Z</time></trkpt><trkpt lat="42.937779" lon="2.3163104"><ele>270.6666666666667</ele><time>2026-04-11T10:48:22.967Z</time></trkpt><trkpt lat="42.9379389" lon="2.3163706"><ele>269.3333333333333</ele><time>2026-04-11T10:48:23.968Z</time></trkpt><trkpt lat="42.9381009" lon="2.3164128"><ele>268.0</ele><time>2026-04-11T10:48:24.968Z</time></trkpt><trkpt lat="42.9382672" lon="2.3164306"><ele>268.66666666666663</ele><time>2026-04-11T10:48:25.967Z</time></trkpt><trkpt lat="42.9384342" lon="2.3164255"><ele>269.3333333333333</ele><time>2026-04-11T10:48:26.968Z</time></trkpt><trkpt lat="42.938605" lon="2.3164024"><ele>270.0</ele><time>2026-04-11T10:48:27.968Z</time></trkpt><trkpt lat="42.938779" lon="2.3163682"><ele>270.0</ele><time>2026-04-11T10:48:28.968Z</time></trkpt><trkpt lat="42.9389549" lon="2.3163261"><ele>270.0</ele><time>2026-04-11T10:48:29.968Z</time></trkpt><trkpt lat="42.9391283" lon="2.3162826"><ele>270.0</ele><time>2026-04-11T10:48:30.968Z</time></trkpt><trkpt lat="42.9392967" lon="2.3162393"><ele>270.0</ele><time>2026-04-11T10:48:31.968Z</time></trkpt><trkpt lat="42.9394623" lon="2.316199"><ele>270.0</ele><time>2026-04-11T10:48:32.968Z</time></trkpt><trkpt lat="42.9396273" lon="2.3161599"><ele>270.0</ele><time>2026-04-11T10:48:33.968Z</time></trkpt><trkpt lat="42.9397881" lon="2.3161233"><ele>270.0</ele><time>2026-04-11T10:48:34.967Z</time></trkpt><trkpt lat="42.9399423" lon="2.3160789"><ele>270.0</ele><time>2026-04-11T10:48:35.968Z</time></trkpt><trkpt lat="42.940088" lon="2.316017"><ele>270.0</ele><time>2026-04-11T10:48:36.968Z</time></trkpt><trkpt lat="42.9402265" lon="2.3159404"><ele>270.75</ele><time>2026-04-11T10:48:37.968Z</time></trkpt><trkpt lat="42.9403553" lon="2.315853"><ele>271.5</ele><time>2026-04-11T10:48:38.968Z</time></trkpt><trkpt lat="42.9404777" lon="2.315751"><ele>272.25</ele><time>2026-04-11T10:48:39.968Z</time></trkpt><trkpt lat="42.9405901" lon="2.3156407"><ele>273.0</ele><time>2026-04-11T10:48:40.969Z</time></trkpt><trkpt lat="42.9406865" lon="2.3155245"><ele>271.25</ele><time>2026-04-11T10:48:41.968Z</time></trkpt><trkpt lat="42.9407691" lon="2.315404"><ele>269.5</ele><time>2026-04-11T10:48:42.968Z</time></trkpt><trkpt lat="42.9408461" lon="2.3152811"><ele>267.75</ele><time>2026-04-11T10:48:43.968Z</time></trkpt><trkpt lat="42.9409257" lon="2.3151742"><ele>266.0</ele><time>2026-04-11T10:48:44.969Z</time></trkpt><trkpt lat="42.9410121" lon="2.3150902"><ele>265.83333333333337</ele><time>2026-04-11T10:48:45.968Z</time></trkpt><trkpt lat="42.9411043" lon="2.3150295"><ele>265.6666666666667</ele><time>2026-04-11T10:48:46.968Z</time></trkpt><trkpt lat="42.9411977" lon="2.3149898"><ele>265.5</ele><time>2026-04-11T10:48:47.968Z</time></trkpt><trkpt lat="42.9412883" lon="2.3149687"><ele>265.3333333333333</ele><time>2026-04-11T10:48:48.969Z</time></trkpt><trkpt lat="42.9413689" lon="2.3149579"><ele>265.16666666666663</ele><time>2026-04-11T10:48:49.968Z</time></trkpt><trkpt lat="42.9414406" lon="2.3149605"><ele>265.0</ele><time>2026-04-11T10:48:50.968Z</time></trkpt><trkpt lat="42.9415282" lon="2.3150459"><ele>265.0</ele><time>2026-04-11T10:48:52.97Z</time></trkpt><trkpt lat="42.9415484" lon="2.3151335"><ele>265.0</ele><time>2026-04-11T10:48:53.969Z</time></trkpt><trkpt lat="42.9415558" lon="2.3152589"><ele>265.0</ele><time>2026-04-11T10:48:54.968Z</time></trkpt><trkpt lat="42.9415626" lon="2.3153988"><ele>265.0</ele><time>2026-04-11T10:48:55.969Z</time></trkpt><trkpt lat="42.9415754" lon="2.315545"><ele>265.0</ele><time>2026-04-11T10:48:56.969Z</time></trkpt><trkpt lat="42.9415974" lon="2.3156934"><ele>265.25</ele><time>2026-04-11T10:48:57.968Z</time></trkpt><trkpt lat="42.9416259" lon="2.315846"><ele>265.5</ele><time>2026-04-11T10:48:58.968Z</time></trkpt><trkpt lat="42.94166" lon="2.3159986"><ele>265.75</ele><time>2026-04-11T10:48:59.968Z</time></trkpt><trkpt lat="42.9417045" lon="2.3161575"><ele>266.0</ele><time>2026-04-11T10:49:00.969Z</time></trkpt><trkpt lat="42.9417586" lon="2.3163233"><ele>267.5</ele><time>2026-04-11T10:49:01.968Z</time></trkpt><trkpt lat="42.9418174" lon="2.3164941"><ele>269.0</ele><time>2026-04-11T10:49:02.968Z</time></trkpt><trkpt lat="42.9418828" lon="2.3166614"><ele>270.5</ele><time>2026-04-11T10:49:03.969Z</time></trkpt><trkpt lat="42.9419521" lon="2.3168246"><ele>272.0</ele><time>2026-04-11T10:49:04.968Z</time></trkpt><trkpt lat="42.9420273" lon="2.3169827"><ele>272.0</ele><time>2026-04-11T10:49:05.968Z</time></trkpt><trkpt lat="42.942112" lon="2.3171336"><ele>272.0</ele><time>2026-04-11T10:49:06.968Z</time></trkpt><trkpt lat="42.9422051" lon="2.3172759"><ele>272.0</ele><time>2026-04-11T10:49:07.968Z</time></trkpt><trkpt lat="42.9423108" lon="2.3174027"><ele>272.0</ele><time>2026-04-11T10:49:08.969Z</time></trkpt><trkpt lat="42.9424319" lon="2.3175091"><ele>273.0</ele><time>2026-04-11T10:49:09.969Z</time></trkpt><trkpt lat="42.9425712" lon="2.3175778"><ele>274.0</ele><time>2026-04-11T10:49:10.968Z</time></trkpt><trkpt lat="42.9427302" lon="2.3176049"><ele>275.0</ele><time>2026-04-11T10:49:11.968Z</time></trkpt><trkpt lat="42.9428937" lon="2.3176025"><ele>275.0</ele><time>2026-04-11T10:49:12.968Z</time></trkpt><trkpt lat="42.9430553" lon="2.3176087"><ele>275.0</ele><time>2026-04-11T10:49:13.968Z</time></trkpt><trkpt lat="42.9432143" lon="2.317649"><ele>275.0</ele><time>2026-04-11T10:49:14.968Z</time></trkpt><trkpt lat="42.9433684" lon="2.317717"><ele>278.0</ele><time>2026-04-11T10:49:15.968Z</time></trkpt><trkpt lat="42.9435175" lon="2.3177915"><ele>281.0</ele><time>2026-04-11T10:49:16.969Z</time></trkpt><trkpt lat="42.9436643" lon="2.3178602"><ele>284.0</ele><time>2026-04-11T10:49:17.97Z</time></trkpt><trkpt lat="42.9438022" lon="2.317932"><ele>284.0</ele><time>2026-04-11T10:49:18.969Z</time></trkpt><trkpt lat="42.9439329" lon="2.3180183"><ele>284.0</ele><time>2026-04-11T10:49:19.968Z</time></trkpt><trkpt lat="42.9440509" lon="2.3181297"><ele>284.0</ele><time>2026-04-11T10:49:20.97Z</time></trkpt><trkpt lat="42.9441518" lon="2.3182756"><ele>284.0</ele><time>2026-04-11T10:49:21.968Z</time></trkpt><trkpt lat="42.944246" lon="2.318451"><ele>279.6666666666667</ele><time>2026-04-11T10:49:22.969Z</time></trkpt><trkpt lat="42.9443328" lon="2.318633"><ele>275.3333333333333</ele><time>2026-04-11T10:49:23.968Z</time></trkpt><trkpt lat="42.944414" lon="2.3188116"><ele>271.0</ele><time>2026-04-11T10:49:24.968Z</time></trkpt><trkpt lat="42.9444949" lon="2.3189855"><ele>270.5</ele><time>2026-04-11T10:49:25.968Z</time></trkpt><trkpt lat="42.9445745" lon="2.3191598"><ele>270.0</ele><time>2026-04-11T10:49:26.968Z</time></trkpt><trkpt lat="42.9446514" lon="2.3193313"><ele>269.5</ele><time>2026-04-11T10:49:27.969Z</time></trkpt><trkpt lat="42.9447305" lon="2.3195017"><ele>269.0</ele><time>2026-04-11T10:49:28.969Z</time></trkpt><trkpt lat="42.9448059" lon="2.3196698"><ele>268.75</ele><time>2026-04-11T10:49:29.968Z</time></trkpt><trkpt lat="42.9448831" lon="2.3198371"><ele>268.5</ele><time>2026-04-11T10:49:30.969Z</time></trkpt><trkpt lat="42.9449647" lon="2.3200002"><ele>268.25</ele><time>2026-04-11T10:49:31.968Z</time></trkpt><trkpt lat="42.9450452" lon="2.3201669"><ele>268.0</ele><time>2026-04-11T10:49:32.968Z</time></trkpt><trkpt lat="42.9451267" lon="2.3203368"><ele>268.5</ele><time>2026-04-11T10:49:33.968Z</time></trkpt><trkpt lat="42.9452059" lon="2.3205081"><ele>269.0</ele><time>2026-04-11T10:49:34.968Z</time></trkpt><trkpt lat="42.9452865" lon="2.3206803"><ele>269.5</ele><time>2026-04-11T10:49:35.968Z</time></trkpt><trkpt lat="42.9453707" lon="2.320852"><ele>270.0</ele><time>2026-04-11T10:49:36.968Z</time></trkpt><trkpt lat="42.9454548" lon="2.3210217"><ele>270.0</ele><time>2026-04-11T10:49:37.969Z</time></trkpt><trkpt lat="42.9455381" lon="2.3211943"><ele>270.0</ele><time>2026-04-11T10:49:38.969Z</time></trkpt><trkpt lat="42.9456291" lon="2.321366"><ele>270.0</ele><time>2026-04-11T10:49:39.968Z</time></trkpt><trkpt lat="42.94572" lon="2.3215376"><ele>270.0</ele><time>2026-04-11T10:49:40.968Z</time></trkpt><trkpt lat="42.9458049" lon="2.3217113"><ele>270.0</ele><time>2026-04-11T10:49:41.968Z</time></trkpt><trkpt lat="42.9458779" lon="2.321884"><ele>270.0</ele><time>2026-04-11T10:49:42.969Z</time></trkpt><trkpt lat="42.9459415" lon="2.3220489"><ele>270.0</ele><time>2026-04-11T10:49:43.968Z</time></trkpt><trkpt lat="42.9459967" lon="2.3222102"><ele>271.0</ele><time>2026-04-11T10:49:44.971Z</time></trkpt><trkpt lat="42.9460436" lon="2.3223658"><ele>272.0</ele><time>2026-04-11T10:49:45.969Z</time></trkpt><trkpt lat="42.9460876" lon="2.3225152"><ele>273.0</ele><time>2026-04-11T10:49:46.968Z</time></trkpt><trkpt lat="42.946125" lon="2.3226575"><ele>274.0</ele><time>2026-04-11T10:49:47.969Z</time></trkpt><trkpt lat="42.9461557" lon="2.3227948"><ele>274.0</ele><time>2026-04-11T10:49:48.969Z</time></trkpt><trkpt lat="42.946181" lon="2.3229203"><ele>274.0</ele><time>2026-04-11T10:49:49.969Z</time></trkpt><trkpt lat="42.9462043" lon="2.3230296"><ele>274.0</ele><time>2026-04-11T10:49:50.969Z</time></trkpt><trkpt lat="42.946224" lon="2.3231213"><ele>274.0</ele><time>2026-04-11T10:49:51.969Z</time></trkpt><trkpt lat="42.9462567" lon="2.3232675"><ele>274.0</ele><time>2026-04-11T10:49:53.968Z</time></trkpt><trkpt lat="42.9462743" lon="2.3234084"><ele>274.16666666666663</ele><time>2026-04-11T10:49:55.968Z</time></trkpt><trkpt lat="42.9462923" lon="2.3235877"><ele>274.3333333333333</ele><time>2026-04-11T10:49:57.968Z</time></trkpt><trkpt lat="42.9463089" lon="2.3236902"><ele>274.5</ele><time>2026-04-11T10:49:58.969Z</time></trkpt><trkpt lat="42.9463301" lon="2.323791"><ele>274.6666666666667</ele><time>2026-04-11T10:49:59.968Z</time></trkpt><trkpt lat="42.946347" lon="2.3238872"><ele>274.83333333333337</ele><time>2026-04-11T10:50:00.969Z</time></trkpt><trkpt lat="42.9463616" lon="2.3239743"><ele>275.0</ele><time>2026-04-11T10:50:01.968Z</time></trkpt><trkpt lat="42.9463813" lon="2.3241473"><ele>275.0</ele><time>2026-04-11T10:50:03.968Z</time></trkpt><trkpt lat="42.9463855" lon="2.3242428"><ele>275.0</ele><time>2026-04-11T10:50:04.968Z</time></trkpt><trkpt lat="42.9463867" lon="2.324349"><ele>275.0</ele><time>2026-04-11T10:50:05.968Z</time></trkpt><trkpt lat="42.9463881" lon="2.3244636"><ele>275.0</ele><time>2026-04-11T10:50:06.968Z</time></trkpt><trkpt lat="42.9463883" lon="2.3245847"><ele>275.0</ele><time>2026-04-11T10:50:07.968Z</time></trkpt><trkpt lat="42.9463857" lon="2.32471"><ele>275.0</ele><time>2026-04-11T10:50:08.968Z</time></trkpt><trkpt lat="42.9463845" lon="2.3248376"><ele>274.4</ele><time>2026-04-11T10:50:09.971Z</time></trkpt><trkpt lat="42.9463804" lon="2.3249615"><ele>273.8</ele><time>2026-04-11T10:50:10.968Z</time></trkpt><trkpt lat="42.9463782" lon="2.3250928"><ele>273.2</ele><time>2026-04-11T10:50:11.97Z</time></trkpt><trkpt lat="42.9463765" lon="2.3252331"><ele>272.6</ele><time>2026-04-11T10:50:12.968Z</time></trkpt><trkpt lat="42.9463748" lon="2.3253836"><ele>272.0</ele><time>2026-04-11T10:50:13.969Z</time></trkpt><trkpt lat="42.9463732" lon="2.3255455"><ele>272.0</ele><time>2026-04-11T10:50:14.969Z</time></trkpt><trkpt lat="42.9463691" lon="2.3257131"><ele>272.0</ele><time>2026-04-11T10:50:15.968Z</time></trkpt><trkpt lat="42.9463611" lon="2.3258843"><ele>272.0</ele><time>2026-04-11T10:50:16.968Z</time></trkpt><trkpt lat="42.9463522" lon="2.326063"><ele>272.0</ele><time>2026-04-11T10:50:17.968Z</time></trkpt><trkpt lat="42.9463484" lon="2.3262412"><ele>272.75</ele><time>2026-04-11T10:50:18.968Z</time></trkpt><trkpt lat="42.946345" lon="2.326418"><ele>273.5</ele><time>2026-04-11T10:50:19.968Z</time></trkpt><trkpt lat="42.9463406" lon="2.3266014"><ele>274.25</ele><time>2026-04-11T10:50:20.968Z</time></trkpt><trkpt lat="42.9463345" lon="2.3267856"><ele>275.0</ele><time>2026-04-11T10:50:21.969Z</time></trkpt><trkpt lat="42.9463281" lon="2.3269612"><ele>275.0</ele><time>2026-04-11T10:50:22.969Z</time></trkpt><trkpt lat="42.9463264" lon="2.3271332"><ele>275.0</ele><time>2026-04-11T10:50:23.969Z</time></trkpt><trkpt lat="42.9463249" lon="2.3273085"><ele>275.0</ele><time>2026-04-11T10:50:24.969Z</time></trkpt><trkpt lat="42.9463209" lon="2.3274873"><ele>275.0</ele><time>2026-04-11T10:50:25.969Z</time></trkpt><trkpt lat="42.9463186" lon="2.3276657"><ele>275.0</ele><time>2026-04-11T10:50:26.969Z</time></trkpt><trkpt lat="42.9463183" lon="2.3278429"><ele>275.0</ele><time>2026-04-11T10:50:27.969Z</time></trkpt><trkpt lat="42.9463144" lon="2.3280287"><ele>275.0</ele><time>2026-04-11T10:50:28.968Z</time></trkpt><trkpt lat="42.9463098" lon="2.3282193"><ele>275.0</ele><time>2026-04-11T10:50:29.968Z</time></trkpt><trkpt lat="42.946306" lon="2.3284072"><ele>275.0</ele><time>2026-04-11T10:50:30.968Z</time></trkpt><trkpt lat="42.9463037" lon="2.3285974"><ele>275.0</ele><time>2026-04-11T10:50:31.969Z</time></trkpt><trkpt lat="42.9463038" lon="2.3287935"><ele>275.0</ele><time>2026-04-11T10:50:32.969Z</time></trkpt><trkpt lat="42.9463125" lon="2.3289958"><ele>275.0</ele><time>2026-04-11T10:50:33.968Z</time></trkpt><trkpt lat="42.9463356" lon="2.3292012"><ele>275.6666666666667</ele><time>2026-04-11T10:50:34.971Z</time></trkpt><trkpt lat="42.9463717" lon="2.3294093"><ele>276.3333333333333</ele><time>2026-04-11T10:50:35.97Z</time></trkpt><trkpt lat="42.9464166" lon="2.3296218"><ele>277.0</ele><time>2026-04-11T10:50:36.968Z</time></trkpt><trkpt lat="42.9464665" lon="2.3298345"><ele>277.66666666666663</ele><time>2026-04-11T10:50:37.969Z</time></trkpt><trkpt lat="42.946515" lon="2.3300494"><ele>278.3333333333333</ele><time>2026-04-11T10:50:38.969Z</time></trkpt><trkpt lat="42.9465626" lon="2.3302621"><ele>279.0</ele><time>2026-04-11T10:50:39.969Z</time></trkpt><trkpt lat="42.9466085" lon="2.3304727"><ele>278.6666666666667</ele><time>2026-04-11T10:50:40.968Z</time></trkpt><trkpt lat="42.946654" lon="2.3306794"><ele>278.33333333333337</ele><time>2026-04-11T10:50:41.971Z</time></trkpt><trkpt lat="42.9467032" lon="2.3308783"><ele>278.0</ele><time>2026-04-11T10:50:42.968Z</time></trkpt><trkpt lat="42.9467534" lon="2.33107"><ele>279.5</ele><time>2026-04-11T10:50:43.968Z</time></trkpt><trkpt lat="42.9468077" lon="2.3312538"><ele>281.0</ele><time>2026-04-11T10:50:44.968Z</time></trkpt><trkpt lat="42.9468726" lon="2.3314358"><ele>282.5</ele><time>2026-04-11T10:50:45.968Z</time></trkpt><trkpt lat="42.9469495" lon="2.3316155"><ele>284.0</ele><time>2026-04-11T10:50:46.968Z</time></trkpt><trkpt lat="42.9470442" lon="2.3317962"><ele>284.0</ele><time>2026-04-11T10:50:47.969Z</time></trkpt><trkpt lat="42.9471482" lon="2.3319786"><ele>284.0</ele><time>2026-04-11T10:50:48.968Z</time></trkpt><trkpt lat="42.9472605" lon="2.3321615"><ele>284.0</ele><time>2026-04-11T10:50:49.969Z</time></trkpt><trkpt lat="42.9473779" lon="2.332342"><ele>282.33333333333337</ele><time>2026-04-11T10:50:50.969Z</time></trkpt><trkpt lat="42.9474985" lon="2.3325194"><ele>280.6666666666667</ele><time>2026-04-11T10:50:51.969Z</time></trkpt><trkpt lat="42.9476197" lon="2.3326965"><ele>279.0</ele><time>2026-04-11T10:50:52.968Z</time></trkpt><trkpt lat="42.9477396" lon="2.3328734"><ele>280.3333333333333</ele><time>2026-04-11T10:50:53.968Z</time></trkpt><trkpt lat="42.947865" lon="2.3330579"><ele>281.66666666666663</ele><time>2026-04-11T10:50:55.057Z</time></trkpt><trkpt lat="42.9479769" lon="2.333226"><ele>283.0</ele><time>2026-04-11T10:50:55.969Z</time></trkpt><trkpt lat="42.9480909" lon="2.3334031"><ele>283.0</ele><time>2026-04-11T10:50:56.968Z</time></trkpt><trkpt lat="42.9481966" lon="2.3335771"><ele>283.0</ele><time>2026-04-11T10:50:57.968Z</time></trkpt><trkpt lat="42.9483091" lon="2.3337511"><ele>283.0</ele><time>2026-04-11T10:50:58.968Z</time></trkpt><trkpt lat="42.9484201" lon="2.3339274"><ele>285.66666666666663</ele><time>2026-04-11T10:50:59.971Z</time></trkpt><trkpt lat="42.9485355" lon="2.3341078"><ele>288.3333333333333</ele><time>2026-04-11T10:51:00.968Z</time></trkpt><trkpt lat="42.9486518" lon="2.3342909"><ele>291.0</ele><time>2026-04-11T10:51:01.968Z</time></trkpt><trkpt lat="42.9487671" lon="2.3344703"><ele>291.0</ele><time>2026-04-11T10:51:02.969Z</time></trkpt><trkpt lat="42.9488838" lon="2.3346402"><ele>291.0</ele><time>2026-04-11T10:51:03.969Z</time></trkpt><trkpt lat="42.9490102" lon="2.3347927"><ele>291.0</ele><time>2026-04-11T10:51:04.969Z</time></trkpt><trkpt lat="42.9491547" lon="2.334909"><ele>293.3333333333333</ele><time>2026-04-11T10:51:05.968Z</time></trkpt><trkpt lat="42.9493133" lon="2.3349912"><ele>295.66666666666663</ele><time>2026-04-11T10:51:06.969Z</time></trkpt><trkpt lat="42.9494808" lon="2.3350635"><ele>298.0</ele><time>2026-04-11T10:51:07.968Z</time></trkpt><trkpt lat="42.9496514" lon="2.3351366"><ele>298.0</ele><time>2026-04-11T10:51:08.968Z</time></trkpt><trkpt lat="42.9498214" lon="2.3352154"><ele>298.0</ele><time>2026-04-11T10:51:09.968Z</time></trkpt><trkpt lat="42.9499806" lon="2.3353092"><ele>298.0</ele><time>2026-04-11T10:51:10.969Z</time></trkpt><trkpt lat="42.9501258" lon="2.3354292"><ele>293.3333333333333</ele><time>2026-04-11T10:51:11.969Z</time></trkpt><trkpt lat="42.9502584" lon="2.3355709"><ele>288.6666666666667</ele><time>2026-04-11T10:51:12.968Z</time></trkpt><trkpt lat="42.9503685" lon="2.3357356"><ele>284.0</ele><time>2026-04-11T10:51:13.969Z</time></trkpt><trkpt lat="42.9504641" lon="2.3359118"><ele>284.0</ele><time>2026-04-11T10:51:14.969Z</time></trkpt><trkpt lat="42.9505504" lon="2.3360987"><ele>284.0</ele><time>2026-04-11T10:51:15.969Z</time></trkpt><trkpt lat="42.950638" lon="2.3362879"><ele>284.0</ele><time>2026-04-11T10:51:16.969Z</time></trkpt><trkpt lat="42.9507263" lon="2.3364798"><ele>284.33333333333337</ele><time>2026-04-11T10:51:17.968Z</time></trkpt><trkpt lat="42.9508179" lon="2.3366729"><ele>284.6666666666667</ele><time>2026-04-11T10:51:18.969Z</time></trkpt><trkpt lat="42.9509116" lon="2.3368644"><ele>285.0</ele><time>2026-04-11T10:51:19.969Z</time></trkpt><trkpt lat="42.9510036" lon="2.337047"><ele>288.0</ele><time>2026-04-11T10:51:20.969Z</time></trkpt><trkpt lat="42.951089" lon="2.3372215"><ele>291.0</ele><time>2026-04-11T10:51:21.968Z</time></trkpt><trkpt lat="42.9511568" lon="2.3373881"><ele>294.0</ele><time>2026-04-11T10:51:22.968Z</time></trkpt><trkpt lat="42.9512012" lon="2.3375554"><ele>297.0</ele><time>2026-04-11T10:51:23.969Z</time></trkpt><trkpt lat="42.9512186" lon="2.337732"><ele>297.0</ele><time>2026-04-11T10:51:24.968Z</time></trkpt><trkpt lat="42.951213" lon="2.3379116"><ele>297.0</ele><time>2026-04-11T10:51:25.968Z</time></trkpt><trkpt lat="42.9511796" lon="2.3380923"><ele>297.0</ele><time>2026-04-11T10:51:26.969Z</time></trkpt><trkpt lat="42.9511399" lon="2.3382848"><ele>297.0</ele><time>2026-04-11T10:51:27.969Z</time></trkpt><trkpt lat="42.9511088" lon="2.3384813"><ele>297.5</ele><time>2026-04-11T10:51:28.969Z</time></trkpt><trkpt lat="42.9510868" lon="2.3386815"><ele>298.0</ele><time>2026-04-11T10:51:29.97Z</time></trkpt><trkpt lat="42.951064" lon="2.3388741"><ele>298.5</ele><time>2026-04-11T10:51:30.97Z</time></trkpt><trkpt lat="42.9510273" lon="2.3390594"><ele>299.0</ele><time>2026-04-11T10:51:31.969Z</time></trkpt><trkpt lat="42.9509711" lon="2.3392249"><ele>298.25</ele><time>2026-04-11T10:51:32.969Z</time></trkpt><trkpt lat="42.9509082" lon="2.3393815"><ele>297.5</ele><time>2026-04-11T10:51:33.969Z</time></trkpt><trkpt lat="42.9508469" lon="2.3395435"><ele>296.75</ele><time>2026-04-11T10:51:34.968Z</time></trkpt><trkpt lat="42.9507922" lon="2.3397154"><ele>296.0</ele><time>2026-04-11T10:51:35.968Z</time></trkpt><trkpt lat="42.9507461" lon="2.3398942"><ele>296.0</ele><time>2026-04-11T10:51:36.969Z</time></trkpt><trkpt lat="42.9507191" lon="2.3400856"><ele>296.0</ele><time>2026-04-11T10:51:37.969Z</time></trkpt><trkpt lat="42.9507098" lon="2.3402842"><ele>296.0</ele><time>2026-04-11T10:51:38.969Z</time></trkpt><trkpt lat="42.9507111" lon="2.3404813"><ele>296.0</ele><time>2026-04-11T10:51:39.97Z</time></trkpt><trkpt lat="42.950713" lon="2.3406621"><ele>296.2</ele><time>2026-04-11T10:51:40.968Z</time></trkpt><trkpt lat="42.9507112" lon="2.3408265"><ele>296.40000000000003</ele><time>2026-04-11T10:51:41.97Z</time></trkpt><trkpt lat="42.9506985" lon="2.3409771"><ele>296.6</ele><time>2026-04-11T10:51:42.969Z</time></trkpt><trkpt lat="42.9506637" lon="2.3411109"><ele>296.8</ele><time>2026-04-11T10:51:43.968Z</time></trkpt><trkpt lat="42.9506067" lon="2.3412148"><ele>297.0</ele><time>2026-04-11T10:51:44.969Z</time></trkpt><trkpt lat="42.950511" lon="2.3412683"><ele>297.0</ele><time>2026-04-11T10:51:45.969Z</time></trkpt><trkpt lat="42.9503905" lon="2.3413115"><ele>297.0</ele><time>2026-04-11T10:51:46.969Z</time></trkpt><trkpt lat="42.9502717" lon="2.3413746"><ele>297.0</ele><time>2026-04-11T10:51:47.968Z</time></trkpt><trkpt lat="42.9501732" lon="2.3414687"><ele>297.0</ele><time>2026-04-11T10:51:48.969Z</time></trkpt><trkpt lat="42.9501065" lon="2.3416042"><ele>297.5</ele><time>2026-04-11T10:51:49.97Z</time></trkpt><trkpt lat="42.950057" lon="2.3417665"><ele>298.0</ele><time>2026-04-11T10:51:50.969Z</time></trkpt><trkpt lat="42.950018" lon="2.3419512"><ele>298.5</ele><time>2026-04-11T10:51:51.97Z</time></trkpt><trkpt lat="42.9499821" lon="2.3421514"><ele>299.0</ele><time>2026-04-11T10:51:52.969Z</time></trkpt><trkpt lat="42.9499462" lon="2.3423593"><ele>299.6666666666667</ele><time>2026-04-11T10:51:53.97Z</time></trkpt><trkpt lat="42.9499077" lon="2.3425682"><ele>300.3333333333333</ele><time>2026-04-11T10:51:54.968Z</time></trkpt><trkpt lat="42.9498739" lon="2.3427797"><ele>301.0</ele><time>2026-04-11T10:51:55.968Z</time></trkpt><trkpt lat="42.9498541" lon="2.3429901"><ele>302.0</ele><time>2026-04-11T10:51:56.972Z</time></trkpt><trkpt lat="42.9498457" lon="2.3432017"><ele>303.0</ele><time>2026-04-11T10:51:57.97Z</time></trkpt><trkpt lat="42.9498454" lon="2.3434141"><ele>304.0</ele><time>2026-04-11T10:51:58.968Z</time></trkpt><trkpt lat="42.9498421" lon="2.3436277"><ele>304.0</ele><time>2026-04-11T10:51:59.967Z</time></trkpt><trkpt lat="42.9498241" lon="2.3438442"><ele>304.0</ele><time>2026-04-11T10:52:00.968Z</time></trkpt><trkpt lat="42.9497749" lon="2.3440544"><ele>304.0</ele><time>2026-04-11T10:52:01.967Z</time></trkpt><trkpt lat="42.9496955" lon="2.3442591"><ele>307.3333333333333</ele><time>2026-04-11T10:52:02.968Z</time></trkpt><trkpt lat="42.9496052" lon="2.3444638"><ele>310.6666666666667</ele><time>2026-04-11T10:52:03.967Z</time></trkpt><trkpt lat="42.9495192" lon="2.3446656"><ele>314.0</ele><time>2026-04-11T10:52:04.967Z</time></trkpt><trkpt lat="42.9494397" lon="2.3448471"><ele>313.0</ele><time>2026-04-11T10:52:05.968Z</time></trkpt><trkpt lat="42.9493596" lon="2.3449952"><ele>312.0</ele><time>2026-04-11T10:52:06.969Z</time></trkpt><trkpt lat="42.9492673" lon="2.3450995"><ele>311.0</ele><time>2026-04-11T10:52:07.968Z</time></trkpt><trkpt lat="42.9491613" lon="2.3451661"><ele>310.0</ele><time>2026-04-11T10:52:08.968Z</time></trkpt><trkpt lat="42.9490304" lon="2.345189"><ele>310.0</ele><time>2026-04-11T10:52:09.969Z</time></trkpt><trkpt lat="42.94889" lon="2.3451964"><ele>310.0</ele><time>2026-04-11T10:52:10.967Z</time></trkpt><trkpt lat="42.9487551" lon="2.3452143"><ele>310.0</ele><time>2026-04-11T10:52:11.969Z</time></trkpt><trkpt lat="42.9486269" lon="2.3452592"><ele>310.0</ele><time>2026-04-11T10:52:12.967Z</time></trkpt><trkpt lat="42.9485102" lon="2.3453517"><ele>310.0</ele><time>2026-04-11T10:52:13.968Z</time></trkpt><trkpt lat="42.9484083" lon="2.3454947"><ele>310.0</ele><time>2026-04-11T10:52:14.968Z</time></trkpt><trkpt lat="42.9483217" lon="2.3456721"><ele>310.0</ele><time>2026-04-11T10:52:15.967Z</time></trkpt><trkpt lat="42.9482392" lon="2.3458693"><ele>311.3333333333333</ele><time>2026-04-11T10:52:16.968Z</time></trkpt><trkpt lat="42.9481539" lon="2.3460677"><ele>312.6666666666667</ele><time>2026-04-11T10:52:17.967Z</time></trkpt><trkpt lat="42.9480641" lon="2.3462689"><ele>314.0</ele><time>2026-04-11T10:52:18.967Z</time></trkpt><trkpt lat="42.9479751" lon="2.3464645"><ele>316.25</ele><time>2026-04-11T10:52:19.968Z</time></trkpt><trkpt lat="42.9478899" lon="2.3466478"><ele>318.5</ele><time>2026-04-11T10:52:20.968Z</time></trkpt><trkpt lat="42.9478122" lon="2.3468251"><ele>320.75</ele><time>2026-04-11T10:52:21.968Z</time></trkpt><trkpt lat="42.9477402" lon="2.3469877"><ele>323.0</ele><time>2026-04-11T10:52:22.967Z</time></trkpt><trkpt lat="42.9476722" lon="2.3471356"><ele>322.2</ele><time>2026-04-11T10:52:23.968Z</time></trkpt><trkpt lat="42.9476089" lon="2.347271"><ele>321.4</ele><time>2026-04-11T10:52:24.968Z</time></trkpt><trkpt lat="42.9475491" lon="2.3473961"><ele>320.59999999999997</ele><time>2026-04-11T10:52:25.967Z</time></trkpt><trkpt lat="42.9474883" lon="2.3475095"><ele>319.79999999999995</ele><time>2026-04-11T10:52:26.968Z</time></trkpt><trkpt lat="42.9474211" lon="2.3476126"><ele>319.0</ele><time>2026-04-11T10:52:27.968Z</time></trkpt><trkpt lat="42.9473375" lon="2.3476937"><ele>319.0</ele><time>2026-04-11T10:52:28.968Z</time></trkpt><trkpt lat="42.9472436" lon="2.3477625"><ele>319.0</ele><time>2026-04-11T10:52:29.969Z</time></trkpt><trkpt lat="42.9471448" lon="2.3478153"><ele>319.0</ele><time>2026-04-11T10:52:30.968Z</time></trkpt><trkpt lat="42.947042" lon="2.3478576"><ele>319.0</ele><time>2026-04-11T10:52:31.967Z</time></trkpt><trkpt lat="42.9469403" lon="2.3478971"><ele>319.0</ele><time>2026-04-11T10:52:32.968Z</time></trkpt><trkpt lat="42.9468386" lon="2.347932"><ele>319.0</ele><time>2026-04-11T10:52:33.968Z</time></trkpt><trkpt lat="42.9467447" lon="2.3479743"><ele>319.0</ele><time>2026-04-11T10:52:34.967Z</time></trkpt><trkpt lat="42.9466623" lon="2.3480353"><ele>319.0</ele><time>2026-04-11T10:52:35.967Z</time></trkpt><trkpt lat="42.9465968" lon="2.3481275"><ele>319.0</ele><time>2026-04-11T10:52:36.968Z</time></trkpt><trkpt lat="42.9465611" lon="2.348245"><ele>319.0</ele><time>2026-04-11T10:52:37.968Z</time></trkpt><trkpt lat="42.9465583" lon="2.348383"><ele>319.2</ele><time>2026-04-11T10:52:38.969Z</time></trkpt><trkpt lat="42.9465796" lon="2.3485177"><ele>319.4</ele><time>2026-04-11T10:52:39.968Z</time></trkpt><trkpt lat="42.9466107" lon="2.3486465"><ele>319.6</ele><time>2026-04-11T10:52:40.968Z</time></trkpt><trkpt lat="42.9466443" lon="2.3487772"><ele>319.8</ele><time>2026-04-11T10:52:41.968Z</time></trkpt><trkpt lat="42.9466781" lon="2.3489095"><ele>320.0</ele><time>2026-04-11T10:52:42.968Z</time></trkpt><trkpt lat="42.9467089" lon="2.3490435"><ele>323.0</ele><time>2026-04-11T10:52:43.969Z</time></trkpt><trkpt lat="42.9467417" lon="2.34918"><ele>326.0</ele><time>2026-04-11T10:52:44.97Z</time></trkpt><trkpt lat="42.94677" lon="2.3493133"><ele>329.0</ele><time>2026-04-11T10:52:45.968Z</time></trkpt><trkpt lat="42.9468017" lon="2.3494517"><ele>332.0</ele><time>2026-04-11T10:52:46.968Z</time></trkpt><trkpt lat="42.9468367" lon="2.3495883"><ele>335.0</ele><time>2026-04-11T10:52:47.968Z</time></trkpt><trkpt lat="42.9468783" lon="2.3497267"><ele>335.0</ele><time>2026-04-11T10:52:48.968Z</time></trkpt><trkpt lat="42.9469317" lon="2.3498567"><ele>335.0</ele><time>2026-04-11T10:52:49.968Z</time></trkpt><trkpt lat="42.9469983" lon="2.34997"><ele>335.0</ele><time>2026-04-11T10:52:50.968Z</time></trkpt><trkpt lat="42.947075" lon="2.3500633"><ele>335.0</ele><time>2026-04-11T10:52:51.968Z</time></trkpt><trkpt lat="42.9471617" lon="2.35014"><ele>335.0</ele><time>2026-04-11T10:52:52.968Z</time></trkpt><trkpt lat="42.9472583" lon="2.3502"><ele>335.0</ele><time>2026-04-11T10:52:53.968Z</time></trkpt><trkpt lat="42.9473583" lon="2.3502467"><ele>335.0</ele><time>2026-04-11T10:52:54.968Z</time></trkpt><trkpt lat="42.94746" lon="2.3502833"><ele>335.0</ele><time>2026-04-11T10:52:55.968Z</time></trkpt><trkpt lat="42.9475583" lon="2.3503167"><ele>335.0</ele><time>2026-04-11T10:52:56.969Z</time></trkpt><trkpt lat="42.9476533" lon="2.350355"><ele>335.0</ele><time>2026-04-11T10:52:57.968Z</time></trkpt><trkpt lat="42.947745" lon="2.3504"><ele>336.0</ele><time>2026-04-11T10:52:58.968Z</time></trkpt><trkpt lat="42.94783" lon="2.350455"><ele>337.0</ele><time>2026-04-11T10:52:59.968Z</time></trkpt><trkpt lat="42.947905" lon="2.3505217"><ele>338.0</ele><time>2026-04-11T10:53:00.968Z</time></trkpt><trkpt lat="42.9479683" lon="2.3506083"><ele>339.0</ele><time>2026-04-11T10:53:01.968Z</time></trkpt><trkpt lat="42.94802" lon="2.3507067"><ele>340.0</ele><time>2026-04-11T10:53:02.968Z</time></trkpt><trkpt lat="42.9480633" lon="2.3508233"><ele>340.0</ele><time>2026-04-11T10:53:03.968Z</time></trkpt><trkpt lat="42.9481083" lon="2.3509417"><ele>340.0</ele><time>2026-04-11T10:53:04.969Z</time></trkpt><trkpt lat="42.9481433" lon="2.35106"><ele>340.0</ele><time>2026-04-11T10:53:05.969Z</time></trkpt><trkpt lat="42.9481733" lon="2.3511767"><ele>340.0</ele><time>2026-04-11T10:53:06.968Z</time></trkpt><trkpt lat="42.948195" lon="2.3513"><ele>340.0</ele><time>2026-04-11T10:53:07.971Z</time></trkpt><trkpt lat="42.94821" lon="2.3514217"><ele>339.2</ele><time>2026-04-11T10:53:08.968Z</time></trkpt><trkpt lat="42.9482117" lon="2.3515417"><ele>338.4</ele><time>2026-04-11T10:53:09.968Z</time></trkpt><trkpt lat="42.948195" lon="2.351655"><ele>337.6</ele><time>2026-04-11T10:53:10.968Z</time></trkpt><trkpt lat="42.9481517" lon="2.3517683"><ele>336.8</ele><time>2026-04-11T10:53:11.968Z</time></trkpt><trkpt lat="42.9481033" lon="2.3518833"><ele>336.0</ele><time>2026-04-11T10:53:12.968Z</time></trkpt><trkpt lat="42.948055" lon="2.3519983"><ele>336.0</ele><time>2026-04-11T10:53:13.968Z</time></trkpt><trkpt lat="42.9480067" lon="2.352115"><ele>336.0</ele><time>2026-04-11T10:53:14.968Z</time></trkpt><trkpt lat="42.947955" lon="2.3522317"><ele>336.0</ele><time>2026-04-11T10:53:15.967Z</time></trkpt><trkpt lat="42.9479033" lon="2.3523467"><ele>336.0</ele><time>2026-04-11T10:53:16.967Z</time></trkpt><trkpt lat="42.9478483" lon="2.352455"><ele>336.0</ele><time>2026-04-11T10:53:17.967Z</time></trkpt><trkpt lat="42.9477933" lon="2.352565"><ele>337.4</ele><time>2026-04-11T10:53:18.969Z</time></trkpt><trkpt lat="42.947735" lon="2.3526783"><ele>338.8</ele><time>2026-04-11T10:53:19.969Z</time></trkpt><trkpt lat="42.9476767" lon="2.3527933"><ele>340.2</ele><time>2026-04-11T10:53:20.968Z</time></trkpt><trkpt lat="42.9476267" lon="2.3529217"><ele>341.59999999999997</ele><time>2026-04-11T10:53:21.968Z</time></trkpt><trkpt lat="42.9475867" lon="2.35306"><ele>343.0</ele><time>2026-04-11T10:53:22.968Z</time></trkpt><trkpt lat="42.947555" lon="2.353205"><ele>342.0</ele><time>2026-04-11T10:53:23.968Z</time></trkpt><trkpt lat="42.9475367" lon="2.35335"><ele>341.0</ele><time>2026-04-11T10:53:24.968Z</time></trkpt><trkpt lat="42.947525" lon="2.3534983"><ele>340.0</ele><time>2026-04-11T10:53:25.968Z</time></trkpt><trkpt lat="42.94752" lon="2.3536483"><ele>339.0</ele><time>2026-04-11T10:53:26.968Z</time></trkpt><trkpt lat="42.9475117" lon="2.35381"><ele>338.0</ele><time>2026-04-11T10:53:27.968Z</time></trkpt><trkpt lat="42.9475" lon="2.353975"><ele>338.0</ele><time>2026-04-11T10:53:28.967Z</time></trkpt><trkpt lat="42.9474767" lon="2.3541533"><ele>338.0</ele><time>2026-04-11T10:53:29.969Z</time></trkpt><trkpt lat="42.94745" lon="2.35434"><ele>338.0</ele><time>2026-04-11T10:53:30.968Z</time></trkpt><trkpt lat="42.9474217" lon="2.35453"><ele>338.0</ele><time>2026-04-11T10:53:31.968Z</time></trkpt><trkpt lat="42.9473917" lon="2.354725"><ele>338.75</ele><time>2026-04-11T10:53:32.972Z</time></trkpt><trkpt lat="42.9473633" lon="2.3549183"><ele>339.5</ele><time>2026-04-11T10:53:33.968Z</time></trkpt><trkpt lat="42.9473353" lon="2.3551097"><ele>340.25</ele><time>2026-04-11T10:53:34.967Z</time></trkpt><trkpt lat="42.9473066" lon="2.3552944"><ele>341.0</ele><time>2026-04-11T10:53:35.968Z</time></trkpt><trkpt lat="42.9472823" lon="2.3554687"><ele>341.0</ele><time>2026-04-11T10:53:36.968Z</time></trkpt><trkpt lat="42.9472643" lon="2.3556332"><ele>341.0</ele><time>2026-04-11T10:53:37.968Z</time></trkpt><trkpt lat="42.9472605" lon="2.3557955"><ele>341.0</ele><time>2026-04-11T10:53:38.969Z</time></trkpt><trkpt lat="42.9472792" lon="2.3559572"><ele>341.0</ele><time>2026-04-11T10:53:39.968Z</time></trkpt><trkpt lat="42.9473185" lon="2.3561179"><ele>341.0</ele><time>2026-04-11T10:53:40.968Z</time></trkpt><trkpt lat="42.9473768" lon="2.3562756"><ele>341.0</ele><time>2026-04-11T10:53:41.968Z</time></trkpt><trkpt lat="42.9474498" lon="2.3564315"><ele>341.0</ele><time>2026-04-11T10:53:42.968Z</time></trkpt><trkpt lat="42.9475354" lon="2.3565714"><ele>341.0</ele><time>2026-04-11T10:53:43.969Z</time></trkpt><trkpt lat="42.9476284" lon="2.3566943"><ele>343.0</ele><time>2026-04-11T10:53:44.968Z</time></trkpt><trkpt lat="42.9477218" lon="2.3568046"><ele>345.0</ele><time>2026-04-11T10:53:45.967Z</time></trkpt><trkpt lat="42.9478101" lon="2.3569114"><ele>347.0</ele><time>2026-04-11T10:53:46.968Z</time></trkpt><trkpt lat="42.9478954" lon="2.3570183"><ele>349.0</ele><time>2026-04-11T10:53:47.967Z</time></trkpt><trkpt lat="42.9479801" lon="2.3571275"><ele>347.75</ele><time>2026-04-11T10:53:48.968Z</time></trkpt><trkpt lat="42.9480682" lon="2.3572417"><ele>346.5</ele><time>2026-04-11T10:53:49.968Z</time></trkpt><trkpt lat="42.9481562" lon="2.3573667"><ele>345.25</ele><time>2026-04-11T10:53:50.968Z</time></trkpt><trkpt lat="42.9482421" lon="2.3575016"><ele>344.0</ele><time>2026-04-11T10:53:51.969Z</time></trkpt><trkpt lat="42.9483218" lon="2.3576421"><ele>346.5</ele><time>2026-04-11T10:53:52.968Z</time></trkpt><trkpt lat="42.9483953" lon="2.357785"><ele>349.0</ele><time>2026-04-11T10:53:53.968Z</time></trkpt><trkpt lat="42.9484655" lon="2.357934"><ele>351.5</ele><time>2026-04-11T10:53:54.969Z</time></trkpt><trkpt lat="42.9485365" lon="2.3580856"><ele>354.0</ele><time>2026-04-11T10:53:55.968Z</time></trkpt><trkpt lat="42.9486072" lon="2.3582379"><ele>354.0</ele><time>2026-04-11T10:53:56.968Z</time></trkpt><trkpt lat="42.9486787" lon="2.3583939"><ele>354.0</ele><time>2026-04-11T10:53:57.969Z</time></trkpt><trkpt lat="42.9487501" lon="2.3585568"><ele>354.0</ele><time>2026-04-11T10:53:58.968Z</time></trkpt><trkpt lat="42.9488262" lon="2.3587276"><ele>354.0</ele><time>2026-04-11T10:53:59.968Z</time></trkpt><trkpt lat="42.948904" lon="2.3589038"><ele>352.3333333333333</ele><time>2026-04-11T10:54:00.968Z</time></trkpt><trkpt lat="42.9489867" lon="2.3590827"><ele>350.66666666666663</ele><time>2026-04-11T10:54:01.968Z</time></trkpt><trkpt lat="42.949072" lon="2.3592585"><ele>349.0</ele><time>2026-04-11T10:54:02.968Z</time></trkpt><trkpt lat="42.9491564" lon="2.3594319"><ele>350.25</ele><time>2026-04-11T10:54:03.968Z</time></trkpt><trkpt lat="42.9492363" lon="2.3596039"><ele>351.5</ele><time>2026-04-11T10:54:04.969Z</time></trkpt><trkpt lat="42.9493126" lon="2.3597728"><ele>352.75</ele><time>2026-04-11T10:54:05.968Z</time></trkpt><trkpt lat="42.9493882" lon="2.3599389"><ele>354.0</ele><time>2026-04-11T10:54:06.968Z</time></trkpt><trkpt lat="42.9494688" lon="2.3601031"><ele>354.0</ele><time>2026-04-11T10:54:07.968Z</time></trkpt><trkpt lat="42.9495533" lon="2.3602734"><ele>354.0</ele><time>2026-04-11T10:54:08.968Z</time></trkpt><trkpt lat="42.9496377" lon="2.3604494"><ele>354.0</ele><time>2026-04-11T10:54:09.968Z</time></trkpt><trkpt lat="42.9497219" lon="2.3606291"><ele>351.0</ele><time>2026-04-11T10:54:10.968Z</time></trkpt><trkpt lat="42.9498056" lon="2.3608118"><ele>348.0</ele><time>2026-04-11T10:54:11.968Z</time></trkpt><trkpt lat="42.9498929" lon="2.3609981"><ele>345.0</ele><time>2026-04-11T10:54:12.968Z</time></trkpt><trkpt lat="42.9499806" lon="2.3611886"><ele>347.6666666666667</ele><time>2026-04-11T10:54:13.969Z</time></trkpt><trkpt lat="42.950073" lon="2.361385"><ele>350.33333333333337</ele><time>2026-04-11T10:54:14.968Z</time></trkpt><trkpt lat="42.950169" lon="2.3615864"><ele>353.0</ele><time>2026-04-11T10:54:15.968Z</time></trkpt><trkpt lat="42.9502634" lon="2.3617928"><ele>353.0</ele><time>2026-04-11T10:54:16.968Z</time></trkpt><trkpt lat="42.9503572" lon="2.3620002"><ele>353.0</ele><time>2026-04-11T10:54:17.969Z</time></trkpt><trkpt lat="42.9504496" lon="2.3622007"><ele>353.0</ele><time>2026-04-11T10:54:18.968Z</time></trkpt><trkpt lat="42.9505425" lon="2.3623973"><ele>351.6666666666667</ele><time>2026-04-11T10:54:19.968Z</time></trkpt><trkpt lat="42.9506332" lon="2.3625907"><ele>350.3333333333333</ele><time>2026-04-11T10:54:20.968Z</time></trkpt><trkpt lat="42.9507216" lon="2.3627815"><ele>349.0</ele><time>2026-04-11T10:54:21.968Z</time></trkpt><trkpt lat="42.9508084" lon="2.3629669"><ele>351.66666666666663</ele><time>2026-04-11T10:54:22.968Z</time></trkpt><trkpt lat="42.9508923" lon="2.3631496"><ele>354.3333333333333</ele><time>2026-04-11T10:54:23.968Z</time></trkpt><trkpt lat="42.9509748" lon="2.3633262"><ele>357.0</ele><time>2026-04-11T10:54:24.968Z</time></trkpt><trkpt lat="42.9510555" lon="2.3635036"><ele>357.0</ele><time>2026-04-11T10:54:25.968Z</time></trkpt><trkpt lat="42.9511324" lon="2.3636705"><ele>357.0</ele><time>2026-04-11T10:54:26.968Z</time></trkpt><trkpt lat="42.9512104" lon="2.3638295"><ele>357.0</ele><time>2026-04-11T10:54:27.968Z</time></trkpt><trkpt lat="42.9512764" lon="2.3639857"><ele>357.0</ele><time>2026-04-11T10:54:28.968Z</time></trkpt><trkpt lat="42.9513324" lon="2.3641459"><ele>355.25</ele><time>2026-04-11T10:54:29.968Z</time></trkpt><trkpt lat="42.9513781" lon="2.3643141"><ele>353.5</ele><time>2026-04-11T10:54:30.97Z</time></trkpt><trkpt lat="42.9514176" lon="2.3644844"><ele>351.75</ele><time>2026-04-11T10:54:31.968Z</time></trkpt><trkpt lat="42.9514465" lon="2.3646513"><ele>350.0</ele><time>2026-04-11T10:54:32.968Z</time></trkpt><trkpt lat="42.9514692" lon="2.3648196"><ele>349.5</ele><time>2026-04-11T10:54:33.968Z</time></trkpt><trkpt lat="42.9514854" lon="2.3649883"><ele>349.0</ele><time>2026-04-11T10:54:34.968Z</time></trkpt><trkpt lat="42.9514985" lon="2.3651554"><ele>348.5</ele><time>2026-04-11T10:54:35.968Z</time></trkpt><trkpt lat="42.9515139" lon="2.3653238"><ele>348.0</ele><time>2026-04-11T10:54:36.968Z</time></trkpt><trkpt lat="42.9515286" lon="2.3654919"><ele>348.0</ele><time>2026-04-11T10:54:37.968Z</time></trkpt><trkpt lat="42.9515435" lon="2.3656614"><ele>348.0</ele><time>2026-04-11T10:54:38.969Z</time></trkpt><trkpt lat="42.9515616" lon="2.3658341"><ele>348.0</ele><time>2026-04-11T10:54:39.968Z</time></trkpt><trkpt lat="42.951582" lon="2.3660092"><ele>348.0</ele><time>2026-04-11T10:54:40.968Z</time></trkpt><trkpt lat="42.9516018" lon="2.3661857"><ele>348.0</ele><time>2026-04-11T10:54:41.968Z</time></trkpt><trkpt lat="42.9516188" lon="2.3663581"><ele>348.0</ele><time>2026-04-11T10:54:42.97Z</time></trkpt><trkpt lat="42.9516328" lon="2.3665268"><ele>348.0</ele><time>2026-04-11T10:54:43.968Z</time></trkpt><trkpt lat="42.951648" lon="2.3666859"><ele>348.0</ele><time>2026-04-11T10:54:44.968Z</time></trkpt><trkpt lat="42.9516743" lon="2.3668351"><ele>349.0</ele><time>2026-04-11T10:54:45.968Z</time></trkpt><trkpt lat="42.9517132" lon="2.3669735"><ele>350.0</ele><time>2026-04-11T10:54:46.968Z</time></trkpt><trkpt lat="42.9517693" lon="2.3671012"><ele>351.0</ele><time>2026-04-11T10:54:47.968Z</time></trkpt><trkpt lat="42.9518427" lon="2.3672078"><ele>352.0</ele><time>2026-04-11T10:54:48.968Z</time></trkpt><trkpt lat="42.9519306" lon="2.3672892"><ele>353.0</ele><time>2026-04-11T10:54:49.968Z</time></trkpt><trkpt lat="42.9520282" lon="2.3673442"><ele>353.0</ele><time>2026-04-11T10:54:50.968Z</time></trkpt><trkpt lat="42.9521287" lon="2.3673841"><ele>353.0</ele><time>2026-04-11T10:54:51.968Z</time></trkpt><trkpt lat="42.9522252" lon="2.3674136"><ele>353.0</ele><time>2026-04-11T10:54:52.968Z</time></trkpt><trkpt lat="42.9523191" lon="2.3674441"><ele>353.0</ele><time>2026-04-11T10:54:53.968Z</time></trkpt><trkpt lat="42.9524133" lon="2.3674645"><ele>353.0</ele><time>2026-04-11T10:54:54.968Z</time></trkpt><trkpt lat="42.9525017" lon="2.3674838"><ele>353.33333333333337</ele><time>2026-04-11T10:54:55.968Z</time></trkpt><trkpt lat="42.9525818" lon="2.3675062"><ele>353.6666666666667</ele><time>2026-04-11T10:54:56.968Z</time></trkpt><trkpt lat="42.9526559" lon="2.3675344"><ele>354.0</ele><time>2026-04-11T10:54:57.968Z</time></trkpt><trkpt lat="42.952726" lon="2.367575"><ele>354.3333333333333</ele><time>2026-04-11T10:54:58.968Z</time></trkpt><trkpt lat="42.9527964" lon="2.3676293"><ele>354.66666666666663</ele><time>2026-04-11T10:54:59.969Z</time></trkpt><trkpt lat="42.9528647" lon="2.3676945"><ele>355.0</ele><time>2026-04-11T10:55:00.968Z</time></trkpt><trkpt lat="42.9529237" lon="2.3677784"><ele>355.0</ele><time>2026-04-11T10:55:01.968Z</time></trkpt><trkpt lat="42.9529686" lon="2.3678901"><ele>355.0</ele><time>2026-04-11T10:55:02.969Z</time></trkpt><trkpt lat="42.9530088" lon="2.3680167"><ele>355.0</ele><time>2026-04-11T10:55:03.968Z</time></trkpt><trkpt lat="42.9530335" lon="2.368163"><ele>355.0</ele><time>2026-04-11T10:55:04.968Z</time></trkpt><trkpt lat="42.9530553" lon="2.3683216"><ele>355.0</ele><time>2026-04-11T10:55:05.968Z</time></trkpt><trkpt lat="42.9530724" lon="2.3684829"><ele>354.25</ele><time>2026-04-11T10:55:06.968Z</time></trkpt><trkpt lat="42.95309" lon="2.3686461"><ele>353.5</ele><time>2026-04-11T10:55:07.968Z</time></trkpt><trkpt lat="42.9531131" lon="2.3688054"><ele>352.75</ele><time>2026-04-11T10:55:08.968Z</time></trkpt><trkpt lat="42.9531392" lon="2.3689602"><ele>352.0</ele><time>2026-04-11T10:55:09.968Z</time></trkpt><trkpt lat="42.9531672" lon="2.3691148"><ele>351.75</ele><time>2026-04-11T10:55:10.968Z</time></trkpt><trkpt lat="42.9531932" lon="2.3692694"><ele>351.5</ele><time>2026-04-11T10:55:11.968Z</time></trkpt><trkpt lat="42.9532209" lon="2.3694281"><ele>351.25</ele><time>2026-04-11T10:55:12.968Z</time></trkpt><trkpt lat="42.9532481" lon="2.3695876"><ele>351.0</ele><time>2026-04-11T10:55:13.968Z</time></trkpt><trkpt lat="42.9532787" lon="2.3697494"><ele>351.0</ele><time>2026-04-11T10:55:14.969Z</time></trkpt><trkpt lat="42.9533104" lon="2.3699105"><ele>351.0</ele><time>2026-04-11T10:55:15.969Z</time></trkpt><trkpt lat="42.9533396" lon="2.3700687"><ele>351.0</ele><time>2026-04-11T10:55:16.968Z</time></trkpt><trkpt lat="42.9533697" lon="2.3702282"><ele>351.0</ele><time>2026-04-11T10:55:17.968Z</time></trkpt><trkpt lat="42.953401" lon="2.3703949"><ele>351.25</ele><time>2026-04-11T10:55:18.968Z</time></trkpt><trkpt lat="42.9534325" lon="2.3705712"><ele>351.5</ele><time>2026-04-11T10:55:19.969Z</time></trkpt><trkpt lat="42.9534655" lon="2.3707483"><ele>351.75</ele><time>2026-04-11T10:55:20.969Z</time></trkpt><trkpt lat="42.9534978" lon="2.370916"><ele>352.0</ele><time>2026-04-11T10:55:21.97Z</time></trkpt><trkpt lat="42.9535284" lon="2.3710728"><ele>352.0</ele><time>2026-04-11T10:55:22.969Z</time></trkpt><trkpt lat="42.9535569" lon="2.3712243"><ele>352.0</ele><time>2026-04-11T10:55:23.968Z</time></trkpt><trkpt lat="42.9535832" lon="2.3713768"><ele>352.0</ele><time>2026-04-11T10:55:24.969Z</time></trkpt><trkpt lat="42.9536089" lon="2.3715332"><ele>352.0</ele><time>2026-04-11T10:55:25.968Z</time></trkpt><trkpt lat="42.9536325" lon="2.3716879"><ele>352.6</ele><time>2026-04-11T10:55:26.968Z</time></trkpt><trkpt lat="42.9536552" lon="2.3718361"><ele>353.20000000000005</ele><time>2026-04-11T10:55:27.969Z</time></trkpt><trkpt lat="42.9536745" lon="2.3719753"><ele>353.8</ele><time>2026-04-11T10:55:28.968Z</time></trkpt><trkpt lat="42.9536944" lon="2.3721032"><ele>354.4</ele><time>2026-04-11T10:55:29.969Z</time></trkpt><trkpt lat="42.9537141" lon="2.3722246"><ele>355.0</ele><time>2026-04-11T10:55:30.968Z</time></trkpt><trkpt lat="42.953734" lon="2.372336"><ele>355.0</ele><time>2026-04-11T10:55:31.968Z</time></trkpt><trkpt lat="42.9537543" lon="2.3724463"><ele>355.0</ele><time>2026-04-11T10:55:32.968Z</time></trkpt><trkpt lat="42.953766" lon="2.3725494"><ele>355.0</ele><time>2026-04-11T10:55:33.968Z</time></trkpt><trkpt lat="42.9537648" lon="2.3726519"><ele>355.0</ele><time>2026-04-11T10:55:34.968Z</time></trkpt><trkpt lat="42.953752" lon="2.3727491"><ele>355.0</ele><time>2026-04-11T10:55:35.968Z</time></trkpt><trkpt lat="42.9536935" lon="2.3728884"><ele>355.0</ele><time>2026-04-11T10:55:37.968Z</time></trkpt><trkpt lat="42.9536152" lon="2.3730057"><ele>355.2</ele><time>2026-04-11T10:55:39.968Z</time></trkpt><trkpt lat="42.9535253" lon="2.3731043"><ele>355.4</ele><time>2026-04-11T10:55:41.968Z</time></trkpt><trkpt lat="42.9534442" lon="2.3731806"><ele>355.6</ele><time>2026-04-11T10:55:43.97Z</time></trkpt><trkpt lat="42.9533554" lon="2.3732464"><ele>355.8</ele><time>2026-04-11T10:55:45.969Z</time></trkpt><trkpt lat="42.9532673" lon="2.3733251"><ele>356.0</ele><time>2026-04-11T10:55:47.972Z</time></trkpt><trkpt lat="42.9531833" lon="2.3734044"><ele>356.0</ele><time>2026-04-11T10:55:49.968Z</time></trkpt><trkpt lat="42.9530887" lon="2.373491"><ele>356.0</ele><time>2026-04-11T10:55:51.969Z</time></trkpt><trkpt lat="42.9529865" lon="2.3735729"><ele>356.0</ele><time>2026-04-11T10:55:53.968Z</time></trkpt><trkpt lat="42.9528913" lon="2.3736576"><ele>356.0</ele><time>2026-04-11T10:55:55.969Z</time></trkpt><trkpt lat="42.9528066" lon="2.3737512"><ele>356.0</ele><time>2026-04-11T10:55:57.968Z</time></trkpt><trkpt lat="42.9527228" lon="2.3738395"><ele>356.0</ele><time>2026-04-11T10:55:59.968Z</time></trkpt><trkpt lat="42.9526594" lon="2.3739465"><ele>356.0</ele><time>2026-04-11T10:56:01.968Z</time></trkpt><trkpt lat="42.9526122" lon="2.3740723"><ele>356.0</ele><time>2026-04-11T10:56:03.968Z</time></trkpt><trkpt lat="42.9525703" lon="2.3741968"><ele>356.0</ele><time>2026-04-11T10:56:05.968Z</time></trkpt><trkpt lat="42.9525265" lon="2.3743179"><ele>356.1666666666667</ele><time>2026-04-11T10:56:07.968Z</time></trkpt><trkpt lat="42.9525015" lon="2.3744216"><ele>356.33333333333337</ele><time>2026-04-11T10:56:09.968Z</time></trkpt><trkpt lat="42.9524829" lon="2.3745234"><ele>356.5</ele><time>2026-04-11T10:56:11.968Z</time></trkpt><trkpt lat="42.9524607" lon="2.37461"><ele>356.6666666666667</ele><time>2026-04-11T10:56:13.968Z</time></trkpt><trkpt lat="42.9524382" lon="2.3747118"><ele>356.8333333333333</ele><time>2026-04-11T10:56:15.968Z</time></trkpt><trkpt lat="42.9524023" lon="2.3748382"><ele>357.0</ele><time>2026-04-11T10:56:17.97Z</time></trkpt><trkpt lat="42.9523659" lon="2.374986"><ele>357.5</ele><time>2026-04-11T10:56:19.968Z</time></trkpt><trkpt lat="42.9523468" lon="2.3750698"><ele>358.0</ele><time>2026-04-11T10:56:20.968Z</time></trkpt><trkpt lat="42.952302" lon="2.3752217"><ele>358.5</ele><time>2026-04-11T10:56:22.968Z</time></trkpt><trkpt lat="42.9522427" lon="2.3753583"><ele>359.0</ele><time>2026-04-11T10:56:24.968Z</time></trkpt><trkpt lat="42.9522115" lon="2.3754349"><ele>359.5</ele><time>2026-04-11T10:56:25.968Z</time></trkpt><trkpt lat="42.9521733" lon="2.3755079"><ele>360.0</ele><time>2026-04-11T10:56:26.968Z</time></trkpt><trkpt lat="42.9521032" lon="2.3756439"><ele>360.4285714285714</ele><time>2026-04-11T10:56:28.968Z</time></trkpt><trkpt lat="42.9520639" lon="2.3757136"><ele>360.8571428571429</ele><time>2026-04-11T10:56:29.969Z</time></trkpt><trkpt lat="42.9520225" lon="2.3757835"><ele>361.2857142857143</ele><time>2026-04-11T10:56:30.969Z</time></trkpt><trkpt lat="42.9519821" lon="2.3758536"><ele>361.71428571428567</ele><time>2026-04-11T10:56:31.968Z</time></trkpt><trkpt lat="42.9519441" lon="2.3759273"><ele>362.1428571428571</ele><time>2026-04-11T10:56:32.968Z</time></trkpt><trkpt lat="42.9519044" lon="2.3760034"><ele>362.57142857142856</ele><time>2026-04-11T10:56:33.968Z</time></trkpt><trkpt lat="42.951863" lon="2.3760816"><ele>363.0</ele><time>2026-04-11T10:56:34.969Z</time></trkpt><trkpt lat="42.9518223" lon="2.3761689"><ele>363.0</ele><time>2026-04-11T10:56:35.968Z</time></trkpt><trkpt lat="42.9517768" lon="2.3762561"><ele>363.0</ele><time>2026-04-11T10:56:36.969Z</time></trkpt><trkpt lat="42.9517274" lon="2.3763393"><ele>363.0</ele><time>2026-04-11T10:56:37.968Z</time></trkpt><trkpt lat="42.9516783" lon="2.3764142"><ele>363.0</ele><time>2026-04-11T10:56:38.969Z</time></trkpt><trkpt lat="42.9516308" lon="2.3764792"><ele>363.0</ele><time>2026-04-11T10:56:39.969Z</time></trkpt><trkpt lat="42.9515826" lon="2.3765382"><ele>363.0</ele><time>2026-04-11T10:56:40.968Z</time></trkpt><trkpt lat="42.9514761" lon="2.3766299"><ele>362.71428571428567</ele><time>2026-04-11T10:56:42.969Z</time></trkpt><trkpt lat="42.9514201" lon="2.3766718"><ele>362.42857142857144</ele><time>2026-04-11T10:56:43.968Z</time></trkpt><trkpt lat="42.9513604" lon="2.3767128"><ele>362.1428571428571</ele><time>2026-04-11T10:56:44.969Z</time></trkpt><trkpt lat="42.9513035" lon="2.3767556"><ele>361.85714285714283</ele><time>2026-04-11T10:56:45.968Z</time></trkpt><trkpt lat="42.9512438" lon="2.3768005"><ele>361.57142857142856</ele><time>2026-04-11T10:56:46.968Z</time></trkpt><trkpt lat="42.9511809" lon="2.3768496"><ele>361.2857142857143</ele><time>2026-04-11T10:56:47.969Z</time></trkpt><trkpt lat="42.9511078" lon="2.3768988"><ele>361.0</ele><time>2026-04-11T10:56:48.968Z</time></trkpt><trkpt lat="42.9510271" lon="2.3769462"><ele>361.0</ele><time>2026-04-11T10:56:49.971Z</time></trkpt><trkpt lat="42.9509399" lon="2.3769824"><ele>361.0</ele><time>2026-04-11T10:56:50.969Z</time></trkpt><trkpt lat="42.9508506" lon="2.377015"><ele>361.0</ele><time>2026-04-11T10:56:51.969Z</time></trkpt><trkpt lat="42.9507623" lon="2.3770441"><ele>361.0</ele><time>2026-04-11T10:56:52.968Z</time></trkpt><trkpt lat="42.9506711" lon="2.3770771"><ele>361.0</ele><time>2026-04-11T10:56:53.968Z</time></trkpt><trkpt lat="42.9505794" lon="2.3771186"><ele>359.8</ele><time>2026-04-11T10:56:54.968Z</time></trkpt><trkpt lat="42.9504889" lon="2.3771756"><ele>358.6</ele><time>2026-04-11T10:56:55.968Z</time></trkpt><trkpt lat="42.9503985" lon="2.3772366"><ele>357.4</ele><time>2026-04-11T10:56:56.969Z</time></trkpt><trkpt lat="42.9503106" lon="2.3772955"><ele>356.2</ele><time>2026-04-11T10:56:57.969Z</time></trkpt><trkpt lat="42.9502237" lon="2.3773543"><ele>355.0</ele><time>2026-04-11T10:56:58.968Z</time></trkpt><trkpt lat="42.9501398" lon="2.3774119"><ele>355.0</ele><time>2026-04-11T10:56:59.968Z</time></trkpt><trkpt lat="42.9500623" lon="2.377481"><ele>355.0</ele><time>2026-04-11T10:57:00.969Z</time></trkpt><trkpt lat="42.9499996" lon="2.377568"><ele>355.0</ele><time>2026-04-11T10:57:01.968Z</time></trkpt><trkpt lat="42.9499555" lon="2.3776788"><ele>355.0</ele><time>2026-04-11T10:57:02.969Z</time></trkpt><trkpt lat="42.9499262" lon="2.3777992"><ele>355.0</ele><time>2026-04-11T10:57:03.968Z</time></trkpt><trkpt lat="42.9499288" lon="2.3779357"><ele>356.5</ele><time>2026-04-11T10:57:04.968Z</time></trkpt><trkpt lat="42.9499515" lon="2.3780678"><ele>358.0</ele><time>2026-04-11T10:57:05.974Z</time></trkpt><trkpt lat="42.949981" lon="2.3781887"><ele>359.5</ele><time>2026-04-11T10:57:06.969Z</time></trkpt><trkpt lat="42.9500007" lon="2.3783039"><ele>361.0</ele><time>2026-04-11T10:57:07.968Z</time></trkpt><trkpt lat="42.9500028" lon="2.3784058"><ele>362.5</ele><time>2026-04-11T10:57:08.969Z</time></trkpt><trkpt lat="42.9499875" lon="2.3784978"><ele>364.0</ele><time>2026-04-11T10:57:09.968Z</time></trkpt><trkpt lat="42.9498681" lon="2.3785435"><ele>364.0</ele><time>2026-04-11T10:57:11.968Z</time></trkpt><trkpt lat="42.9498039" lon="2.378494"><ele>364.0</ele><time>2026-04-11T10:57:12.969Z</time></trkpt><trkpt lat="42.9497399" lon="2.3784116"><ele>364.0</ele><time>2026-04-11T10:57:13.972Z</time></trkpt><trkpt lat="42.9496804" lon="2.3782987"><ele>364.0</ele><time>2026-04-11T10:57:14.969Z</time></trkpt><trkpt lat="42.9496299" lon="2.3781579"><ele>364.0</ele><time>2026-04-11T10:57:15.968Z</time></trkpt><trkpt lat="42.9495865" lon="2.3780018"><ele>363.79999999999995</ele><time>2026-04-11T10:57:16.968Z</time></trkpt><trkpt lat="42.9495671" lon="2.3778338"><ele>363.59999999999997</ele><time>2026-04-11T10:57:17.968Z</time></trkpt><trkpt lat="42.9495801" lon="2.3776778"><ele>363.4</ele><time>2026-04-11T10:57:18.969Z</time></trkpt><trkpt lat="42.949607" lon="2.3775357"><ele>363.2</ele><time>2026-04-11T10:57:19.968Z</time></trkpt><trkpt lat="42.9496173" lon="2.3774033"><ele>363.0</ele><time>2026-04-11T10:57:20.968Z</time></trkpt><trkpt lat="42.9496028" lon="2.3772739"><ele>363.0</ele><time>2026-04-11T10:57:21.969Z</time></trkpt><trkpt lat="42.9495705" lon="2.3771466"><ele>363.0</ele><time>2026-04-11T10:57:22.968Z</time></trkpt><trkpt lat="42.949513" lon="2.3770252"><ele>363.0</ele><time>2026-04-11T10:57:23.969Z</time></trkpt><trkpt lat="42.949434" lon="2.3769143"><ele>363.0</ele><time>2026-04-11T10:57:24.969Z</time></trkpt><trkpt lat="42.9493501" lon="2.376819"><ele>363.0</ele><time>2026-04-11T10:57:25.969Z</time></trkpt><trkpt lat="42.94927" lon="2.3767396"><ele>365.5</ele><time>2026-04-11T10:57:26.969Z</time></trkpt><trkpt lat="42.9491982" lon="2.3766768"><ele>368.0</ele><time>2026-04-11T10:57:27.969Z</time></trkpt><trkpt lat="42.9491331" lon="2.3766258"><ele>370.5</ele><time>2026-04-11T10:57:28.968Z</time></trkpt><trkpt lat="42.9490723" lon="2.3765774"><ele>373.0</ele><time>2026-04-11T10:57:29.968Z</time></trkpt><trkpt lat="42.949014" lon="2.3765305"><ele>375.5</ele><time>2026-04-11T10:57:30.969Z</time></trkpt><trkpt lat="42.9489627" lon="2.3764775"><ele>378.0</ele><time>2026-04-11T10:57:31.968Z</time></trkpt><trkpt lat="42.9488884" lon="2.3763605"><ele>379.14285714285717</ele><time>2026-04-11T10:57:33.969Z</time></trkpt><trkpt lat="42.9488442" lon="2.3762581"><ele>380.2857142857143</ele><time>2026-04-11T10:57:35.968Z</time></trkpt><trkpt lat="42.9488117" lon="2.3761747"><ele>381.42857142857144</ele><time>2026-04-11T10:57:37.97Z</time></trkpt><trkpt lat="42.9487773" lon="2.3760768"><ele>382.57142857142856</ele><time>2026-04-11T10:57:40.968Z</time></trkpt><trkpt lat="42.948744" lon="2.3759841"><ele>383.7142857142857</ele><time>2026-04-11T10:57:44.969Z</time></trkpt><trkpt lat="42.9487583" lon="2.3760733"><ele>384.8571428571429</ele><time>2026-04-11T10:57:52.969Z</time></trkpt><trkpt lat="42.948795" lon="2.3761433"><ele>386.0</ele><time>2026-04-11T10:57:55.97Z</time></trkpt><trkpt lat="42.9488483" lon="2.3762483"><ele>385.99999999999994</ele><time>2026-04-11T10:57:58.969Z</time></trkpt><trkpt lat="42.9488783" lon="2.3763267"><ele>386.0</ele><time>2026-04-11T10:58:00.969Z</time></trkpt><trkpt lat="42.9489217" lon="2.3764017"><ele>386.0</ele><time>2026-04-11T10:58:02.969Z</time></trkpt><trkpt lat="42.948985" lon="2.3765017"><ele>386.0</ele><time>2026-04-11T10:58:04.969Z</time></trkpt><trkpt lat="42.9490483" lon="2.3765967"><ele>385.99999999999994</ele><time>2026-04-11T10:58:06.968Z</time></trkpt><trkpt lat="42.94915" lon="2.3766817"><ele>386.0</ele><time>2026-04-11T10:58:08.97Z</time></trkpt><trkpt lat="42.94921" lon="2.3767283"><ele>382.16666666666663</ele><time>2026-04-11T10:58:09.97Z</time></trkpt><trkpt lat="42.9492683" lon="2.376785"><ele>378.3333333333333</ele><time>2026-04-11T10:58:10.967Z</time></trkpt><trkpt lat="42.9493267" lon="2.3768517"><ele>374.5</ele><time>2026-04-11T10:58:11.969Z</time></trkpt><trkpt lat="42.9493883" lon="2.3769283"><ele>370.66666666666663</ele><time>2026-04-11T10:58:12.969Z</time></trkpt><trkpt lat="42.9494517" lon="2.37701"><ele>366.8333333333333</ele><time>2026-04-11T10:58:13.969Z</time></trkpt><trkpt lat="42.9495117" lon="2.3770933"><ele>363.0</ele><time>2026-04-11T10:58:14.969Z</time></trkpt><trkpt lat="42.9495617" lon="2.3771833"><ele>363.0</ele><time>2026-04-11T10:58:15.969Z</time></trkpt><trkpt lat="42.9496017" lon="2.3772767"><ele>363.0</ele><time>2026-04-11T10:58:16.969Z</time></trkpt><trkpt lat="42.9496217" lon="2.37738"><ele>363.0</ele><time>2026-04-11T10:58:17.969Z</time></trkpt><trkpt lat="42.9496233" lon="2.3774867"><ele>363.0</ele><time>2026-04-11T10:58:18.97Z</time></trkpt><trkpt lat="42.9496183" lon="2.3775933"><ele>363.0</ele><time>2026-04-11T10:58:19.969Z</time></trkpt><trkpt lat="42.949595" lon="2.3777133"><ele>363.0</ele><time>2026-04-11T10:58:20.969Z</time></trkpt><trkpt lat="42.9495883" lon="2.3778317"><ele>363.0</ele><time>2026-04-11T10:58:21.968Z</time></trkpt><trkpt lat="42.949595" lon="2.3779533"><ele>363.0</ele><time>2026-04-11T10:58:22.969Z</time></trkpt><trkpt lat="42.9496167" lon="2.3780867"><ele>363.0</ele><time>2026-04-11T10:58:23.969Z</time></trkpt><trkpt lat="42.94965" lon="2.3782117"><ele>363.0</ele><time>2026-04-11T10:58:24.968Z</time></trkpt><trkpt lat="42.9496933" lon="2.3783217"><ele>363.0</ele><time>2026-04-11T10:58:25.97Z</time></trkpt><trkpt lat="42.9497333" lon="2.3784133"><ele>363.2</ele><time>2026-04-11T10:58:26.969Z</time></trkpt><trkpt lat="42.94977" lon="2.378495"><ele>363.4</ele><time>2026-04-11T10:58:27.969Z</time></trkpt><trkpt lat="42.9498533" lon="2.3786"><ele>363.59999999999997</ele><time>2026-04-11T10:58:29.968Z</time></trkpt><trkpt lat="42.949975" lon="2.378595"><ele>363.79999999999995</ele><time>2026-04-11T10:58:31.969Z</time></trkpt><trkpt lat="42.9500267" lon="2.3785333"><ele>364.0</ele><time>2026-04-11T10:58:32.969Z</time></trkpt><trkpt lat="42.9500533" lon="2.3784333"><ele>364.0</ele><time>2026-04-11T10:58:33.968Z</time></trkpt><trkpt lat="42.950045" lon="2.378305"><ele>364.0</ele><time>2026-04-11T10:58:34.968Z</time></trkpt><trkpt lat="42.950015" lon="2.3781733"><ele>364.0</ele><time>2026-04-11T10:58:35.968Z</time></trkpt><trkpt lat="42.9499917" lon="2.378045"><ele>364.0</ele><time>2026-04-11T10:58:36.969Z</time></trkpt><trkpt lat="42.9499733" lon="2.3779083"><ele>364.0</ele><time>2026-04-11T10:58:37.968Z</time></trkpt><trkpt lat="42.9499833" lon="2.37778"><ele>363.8333333333333</ele><time>2026-04-11T10:58:38.969Z</time></trkpt><trkpt lat="42.95001" lon="2.3776617"><ele>363.66666666666663</ele><time>2026-04-11T10:58:39.969Z</time></trkpt><trkpt lat="42.9500517" lon="2.3775617"><ele>363.5</ele><time>2026-04-11T10:58:40.968Z</time></trkpt><trkpt lat="42.9501067" lon="2.3774783"><ele>363.3333333333333</ele><time>2026-04-11T10:58:41.968Z</time></trkpt><trkpt lat="42.9501783" lon="2.3774167"><ele>363.1666666666667</ele><time>2026-04-11T10:58:42.969Z</time></trkpt><trkpt lat="42.950255" lon="2.3773567"><ele>363.0</ele><time>2026-04-11T10:58:43.968Z</time></trkpt><trkpt lat="42.9503333" lon="2.3773033"><ele>361.4</ele><time>2026-04-11T10:58:44.969Z</time></trkpt><trkpt lat="42.950415" lon="2.3772517"><ele>359.79999999999995</ele><time>2026-04-11T10:58:45.968Z</time></trkpt><trkpt lat="42.950495" lon="2.377195"><ele>358.2</ele><time>2026-04-11T10:58:46.968Z</time></trkpt><trkpt lat="42.9505817" lon="2.37715"><ele>356.6</ele><time>2026-04-11T10:58:47.969Z</time></trkpt><trkpt lat="42.9506767" lon="2.377105"><ele>355.0</ele><time>2026-04-11T10:58:48.968Z</time></trkpt><trkpt lat="42.95078" lon="2.3770617"><ele>356.2</ele><time>2026-04-11T10:58:49.969Z</time></trkpt><trkpt lat="42.9508817" lon="2.3770283"><ele>357.4</ele><time>2026-04-11T10:58:50.968Z</time></trkpt><trkpt lat="42.950985" lon="2.376985"><ele>358.6</ele><time>2026-04-11T10:58:51.969Z</time></trkpt><trkpt lat="42.9510833" lon="2.376935"><ele>359.8</ele><time>2026-04-11T10:58:52.968Z</time></trkpt><trkpt lat="42.9511833" lon="2.3768783"><ele>361.0</ele><time>2026-04-11T10:58:53.968Z</time></trkpt><trkpt lat="42.9512833" lon="2.376815"><ele>361.0</ele><time>2026-04-11T10:58:54.968Z</time></trkpt><trkpt lat="42.95137" lon="2.3767383"><ele>361.0</ele><time>2026-04-11T10:58:55.968Z</time></trkpt><trkpt lat="42.9514467" lon="2.376675"><ele>361.0</ele><time>2026-04-11T10:58:56.969Z</time></trkpt><trkpt lat="42.9515183" lon="2.3766233"><ele>361.0</ele><time>2026-04-11T10:58:57.968Z</time></trkpt><trkpt lat="42.95158" lon="2.3765767"><ele>361.0</ele><time>2026-04-11T10:58:58.967Z</time></trkpt><trkpt lat="42.9516367" lon="2.3765333"><ele>361.0</ele><time>2026-04-11T10:58:59.968Z</time></trkpt><trkpt lat="42.9516933" lon="2.3764817"><ele>361.3333333333333</ele><time>2026-04-11T10:59:00.968Z</time></trkpt><trkpt lat="42.9517433" lon="2.3764183"><ele>361.66666666666663</ele><time>2026-04-11T10:59:01.968Z</time></trkpt><trkpt lat="42.9517833" lon="2.3763333"><ele>362.0</ele><time>2026-04-11T10:59:02.969Z</time></trkpt><trkpt lat="42.95183" lon="2.3762383"><ele>362.3333333333333</ele><time>2026-04-11T10:59:03.968Z</time></trkpt><trkpt lat="42.95188" lon="2.3761383"><ele>362.6666666666667</ele><time>2026-04-11T10:59:04.968Z</time></trkpt><trkpt lat="42.951935" lon="2.3760333"><ele>363.0</ele><time>2026-04-11T10:59:05.968Z</time></trkpt><trkpt lat="42.9519917" lon="2.3759267"><ele>363.0</ele><time>2026-04-11T10:59:06.968Z</time></trkpt><trkpt lat="42.952045" lon="2.375825"><ele>363.0</ele><time>2026-04-11T10:59:07.969Z</time></trkpt><trkpt lat="42.9521" lon="2.3757283"><ele>363.0</ele><time>2026-04-11T10:59:08.968Z</time></trkpt><trkpt lat="42.95215" lon="2.3756283"><ele>363.0</ele><time>2026-04-11T10:59:09.968Z</time></trkpt><trkpt lat="42.9521983" lon="2.3755283"><ele>363.0</ele><time>2026-04-11T10:59:10.968Z</time></trkpt><trkpt lat="42.9522467" lon="2.3754267"><ele>363.0</ele><time>2026-04-11T10:59:11.968Z</time></trkpt><trkpt lat="42.9522967" lon="2.375325"><ele>362.5</ele><time>2026-04-11T10:59:12.968Z</time></trkpt><trkpt lat="42.952345" lon="2.3752283"><ele>362.0</ele><time>2026-04-11T10:59:13.968Z</time></trkpt><trkpt lat="42.9523917" lon="2.37513"><ele>361.5</ele><time>2026-04-11T10:59:14.968Z</time></trkpt><trkpt lat="42.95242" lon="2.3750283"><ele>361.0</ele><time>2026-04-11T10:59:15.968Z</time></trkpt><trkpt lat="42.9524467" lon="2.3749333"><ele>360.5</ele><time>2026-04-11T10:59:16.968Z</time></trkpt><trkpt lat="42.9524683" lon="2.37484"><ele>360.0</ele><time>2026-04-11T10:59:17.968Z</time></trkpt><trkpt lat="42.95248" lon="2.3747517"><ele>360.3333333333333</ele><time>2026-04-11T10:59:18.968Z</time></trkpt><trkpt lat="42.9524933" lon="2.3746633"><ele>360.6666666666667</ele><time>2026-04-11T10:59:19.968Z</time></trkpt><trkpt lat="42.9525233" lon="2.374515"><ele>361.0</ele><time>2026-04-11T10:59:21.967Z</time></trkpt><trkpt lat="42.9525483" lon="2.374435"><ele>361.33333333333337</ele><time>2026-04-11T10:59:22.968Z</time></trkpt><trkpt lat="42.9525633" lon="2.374345"><ele>361.6666666666667</ele><time>2026-04-11T10:59:23.967Z</time></trkpt><trkpt lat="42.9525783" lon="2.374245"><ele>362.0</ele><time>2026-04-11T10:59:24.968Z</time></trkpt><trkpt lat="42.9525967" lon="2.3741383"><ele>362.0</ele><time>2026-04-11T10:59:25.968Z</time></trkpt><trkpt lat="42.952625" lon="2.3740417"><ele>362.0</ele><time>2026-04-11T10:59:26.969Z</time></trkpt><trkpt lat="42.9526533" lon="2.3739483"><ele>362.0</ele><time>2026-04-11T10:59:27.967Z</time></trkpt><trkpt lat="42.95269" lon="2.3738717"><ele>362.0</ele><time>2026-04-11T10:59:28.969Z</time></trkpt><trkpt lat="42.95274" lon="2.3738017"><ele>362.0</ele><time>2026-04-11T10:59:29.968Z</time></trkpt><trkpt lat="42.9527933" lon="2.37373"><ele>362.0</ele><time>2026-04-11T10:59:30.968Z</time></trkpt><trkpt lat="42.9528517" lon="2.3736583"><ele>362.0</ele><time>2026-04-11T10:59:31.968Z</time></trkpt><trkpt lat="42.952915" lon="2.3735917"><ele>361.0</ele><time>2026-04-11T10:59:32.968Z</time></trkpt><trkpt lat="42.9529833" lon="2.373525"><ele>360.0</ele><time>2026-04-11T10:59:33.968Z</time></trkpt><trkpt lat="42.95306" lon="2.373455"><ele>359.0</ele><time>2026-04-11T10:59:34.968Z</time></trkpt><trkpt lat="42.9531417" lon="2.3733917"><ele>358.0</ele><time>2026-04-11T10:59:35.968Z</time></trkpt><trkpt lat="42.9532167" lon="2.3733333"><ele>357.0</ele><time>2026-04-11T10:59:36.969Z</time></trkpt><trkpt lat="42.95329" lon="2.373285"><ele>356.0</ele><time>2026-04-11T10:59:37.968Z</time></trkpt><trkpt lat="42.953355" lon="2.3732333"><ele>355.85714285714283</ele><time>2026-04-11T10:59:38.968Z</time></trkpt><trkpt lat="42.9534133" lon="2.3731883"><ele>355.7142857142857</ele><time>2026-04-11T10:59:39.968Z</time></trkpt><trkpt lat="42.95347" lon="2.3731433"><ele>355.57142857142856</ele><time>2026-04-11T10:59:40.968Z</time></trkpt><trkpt lat="42.953525" lon="2.3730967"><ele>355.42857142857144</ele><time>2026-04-11T10:59:41.968Z</time></trkpt><trkpt lat="42.9535817" lon="2.3730383"><ele>355.2857142857143</ele><time>2026-04-11T10:59:42.968Z</time></trkpt><trkpt lat="42.9536367" lon="2.372965"><ele>355.1428571428571</ele><time>2026-04-11T10:59:43.968Z</time></trkpt><trkpt lat="42.953685" lon="2.3728767"><ele>355.0</ele><time>2026-04-11T10:59:44.968Z</time></trkpt><trkpt lat="42.95373" lon="2.3727833"><ele>355.0</ele><time>2026-04-11T10:59:45.969Z</time></trkpt><trkpt lat="42.95377" lon="2.37267"><ele>355.0</ele><time>2026-04-11T10:59:46.968Z</time></trkpt><trkpt lat="42.953805" lon="2.3725683"><ele>355.0</ele><time>2026-04-11T10:59:47.968Z</time></trkpt><trkpt lat="42.953845" lon="2.372465"><ele>355.0</ele><time>2026-04-11T10:59:48.968Z</time></trkpt><trkpt lat="42.9538967" lon="2.3723717"><ele>355.0</ele><time>2026-04-11T10:59:49.968Z</time></trkpt><trkpt lat="42.9539517" lon="2.372275"><ele>355.0</ele><time>2026-04-11T10:59:50.968Z</time></trkpt><trkpt lat="42.95402" lon="2.3721717"><ele>355.0</ele><time>2026-04-11T10:59:51.968Z</time></trkpt><trkpt lat="42.9540833" lon="2.3720683"><ele>355.0</ele><time>2026-04-11T10:59:52.968Z</time></trkpt><trkpt lat="42.9541383" lon="2.371975"><ele>355.0</ele><time>2026-04-11T10:59:53.968Z</time></trkpt><trkpt lat="42.95419" lon="2.3718883"><ele>355.0</ele><time>2026-04-11T10:59:54.968Z</time></trkpt><trkpt lat="42.9542383" lon="2.3718133"><ele>355.0</ele><time>2026-04-11T10:59:55.968Z</time></trkpt><trkpt lat="42.954285" lon="2.3717433"><ele>355.0</ele><time>2026-04-11T10:59:56.969Z</time></trkpt><trkpt lat="42.9543267" lon="2.371675"><ele>355.5</ele><time>2026-04-11T10:59:57.969Z</time></trkpt><trkpt lat="42.9543967" lon="2.3715417"><ele>356.0</ele><time>2026-04-11T10:59:59.969Z</time></trkpt><trkpt lat="42.954435" lon="2.3714683"><ele>356.5</ele><time>2026-04-11T11:00:00.968Z</time></trkpt><trkpt lat="42.954475" lon="2.3713933"><ele>357.0</ele><time>2026-04-11T11:00:01.969Z</time></trkpt><trkpt lat="42.954515" lon="2.3713183"><ele>357.5</ele><time>2026-04-11T11:00:02.969Z</time></trkpt><trkpt lat="42.9545483" lon="2.3712367"><ele>358.0</ele><time>2026-04-11T11:00:03.969Z</time></trkpt><trkpt lat="42.9545767" lon="2.3711433"><ele>358.3333333333333</ele><time>2026-04-11T11:00:04.969Z</time></trkpt><trkpt lat="42.9546017" lon="2.3710467"><ele>358.66666666666663</ele><time>2026-04-11T11:00:05.968Z</time></trkpt><trkpt lat="42.9546283" lon="2.3709483"><ele>359.0</ele><time>2026-04-11T11:00:06.968Z</time></trkpt><trkpt lat="42.9546567" lon="2.3708433"><ele>359.3333333333333</ele><time>2026-04-11T11:00:07.968Z</time></trkpt><trkpt lat="42.9546817" lon="2.3707383"><ele>359.6666666666667</ele><time>2026-04-11T11:00:08.969Z</time></trkpt><trkpt lat="42.9547083" lon="2.3706317"><ele>360.0</ele><time>2026-04-11T11:00:09.968Z</time></trkpt><trkpt lat="42.9547333" lon="2.3705183"><ele>360.3333333333333</ele><time>2026-04-11T11:00:10.968Z</time></trkpt><trkpt lat="42.954755" lon="2.370405"><ele>360.6666666666667</ele><time>2026-04-11T11:00:11.969Z</time></trkpt><trkpt lat="42.9547733" lon="2.3702933"><ele>361.0</ele><time>2026-04-11T11:00:12.97Z</time></trkpt><trkpt lat="42.9547833" lon="2.3701817"><ele>361.33333333333337</ele><time>2026-04-11T11:00:13.969Z</time></trkpt><trkpt lat="42.95479" lon="2.37007"><ele>361.6666666666667</ele><time>2026-04-11T11:00:14.968Z</time></trkpt><trkpt lat="42.9547867" lon="2.369955"><ele>362.0</ele><time>2026-04-11T11:00:15.968Z</time></trkpt><trkpt lat="42.9547783" lon="2.3698383"><ele>362.0</ele><time>2026-04-11T11:00:16.969Z</time></trkpt><trkpt lat="42.954755" lon="2.3697217"><ele>362.0</ele><time>2026-04-11T11:00:17.968Z</time></trkpt><trkpt lat="42.9547033" lon="2.3696"><ele>362.0</ele><time>2026-04-11T11:00:18.968Z</time></trkpt><trkpt lat="42.9546567" lon="2.3694883"><ele>362.0</ele><time>2026-04-11T11:00:19.969Z</time></trkpt><trkpt lat="42.95461" lon="2.3693767"><ele>362.0</ele><time>2026-04-11T11:00:20.969Z</time></trkpt><trkpt lat="42.9545667" lon="2.3692617"><ele>362.6</ele><time>2026-04-11T11:00:21.968Z</time></trkpt><trkpt lat="42.9545267" lon="2.3691467"><ele>363.20000000000005</ele><time>2026-04-11T11:00:22.968Z</time></trkpt><trkpt lat="42.954485" lon="2.3690267"><ele>363.8</ele><time>2026-04-11T11:00:23.968Z</time></trkpt><trkpt lat="42.9544433" lon="2.3688983"><ele>364.4</ele><time>2026-04-11T11:00:24.969Z</time></trkpt><trkpt lat="42.9544083" lon="2.36878"><ele>365.0</ele><time>2026-04-11T11:00:25.968Z</time></trkpt><trkpt lat="42.9543883" lon="2.3686683"><ele>365.0</ele><time>2026-04-11T11:00:26.969Z</time></trkpt><trkpt lat="42.9543817" lon="2.3685617"><ele>365.0</ele><time>2026-04-11T11:00:27.968Z</time></trkpt><trkpt lat="42.9543867" lon="2.3684583"><ele>365.0</ele><time>2026-04-11T11:00:28.968Z</time></trkpt><trkpt lat="42.9544" lon="2.3683583"><ele>365.0</ele><time>2026-04-11T11:00:29.968Z</time></trkpt><trkpt lat="42.9544067" lon="2.3682683"><ele>365.0</ele><time>2026-04-11T11:00:30.968Z</time></trkpt><trkpt lat="42.9544117" lon="2.3681067"><ele>365.0</ele><time>2026-04-11T11:00:32.969Z</time></trkpt><trkpt lat="42.9544083" lon="2.367965"><ele>366.6</ele><time>2026-04-11T11:00:34.968Z</time></trkpt><trkpt lat="42.9544233" lon="2.367875"><ele>368.2</ele><time>2026-04-11T11:00:37.968Z</time></trkpt><trkpt lat="42.95442" lon="2.36775"><ele>369.79999999999995</ele><time>2026-04-11T11:09:47.968Z</time></trkpt><trkpt lat="42.9543783" lon="2.36762"><ele>371.4</ele><time>2026-04-11T11:09:49.968Z</time></trkpt><trkpt lat="42.9543433" lon="2.3675083"><ele>373.0</ele><time>2026-04-11T11:09:51.97Z</time></trkpt><trkpt lat="42.954325" lon="2.3673733"><ele>373.0</ele><time>2026-04-11T11:09:53.968Z</time></trkpt><trkpt lat="42.9543067" lon="2.3672333"><ele>373.0</ele><time>2026-04-11T11:09:55.968Z</time></trkpt><trkpt lat="42.9543067" lon="2.3671417"><ele>373.0</ele><time>2026-04-11T11:09:56.968Z</time></trkpt><trkpt lat="42.9543083" lon="2.367055"><ele>373.0</ele><time>2026-04-11T11:09:57.968Z</time></trkpt><trkpt lat="42.9543133" lon="2.366965"><ele>373.0</ele><time>2026-04-11T11:09:58.968Z</time></trkpt><trkpt lat="42.9543233" lon="2.366875"><ele>373.0</ele><time>2026-04-11T11:10:00.067Z</time></trkpt><trkpt lat="42.95434" lon="2.3667683"><ele>373.0</ele><time>2026-04-11T11:10:00.968Z</time></trkpt><trkpt lat="42.9543633" lon="2.366655"><ele>374.4</ele><time>2026-04-11T11:10:01.968Z</time></trkpt><trkpt lat="42.954385" lon="2.36654"><ele>375.79999999999995</ele><time>2026-04-11T11:10:02.969Z</time></trkpt><trkpt lat="42.9544028" lon="2.3664211"><ele>377.2</ele><time>2026-04-11T11:10:03.968Z</time></trkpt><trkpt lat="42.9544107" lon="2.3662984"><ele>378.6</ele><time>2026-04-11T11:10:04.968Z</time></trkpt><trkpt lat="42.9544172" lon="2.3661713"><ele>380.0</ele><time>2026-04-11T11:10:05.968Z</time></trkpt><trkpt lat="42.9544259" lon="2.3660466"><ele>380.1666666666667</ele><time>2026-04-11T11:10:06.971Z</time></trkpt><trkpt lat="42.9544317" lon="2.365923"><ele>380.33333333333337</ele><time>2026-04-11T11:10:07.968Z</time></trkpt><trkpt lat="42.9544274" lon="2.3658071"><ele>380.5</ele><time>2026-04-11T11:10:08.969Z</time></trkpt><trkpt lat="42.9544179" lon="2.3656944"><ele>380.6666666666667</ele><time>2026-04-11T11:10:09.968Z</time></trkpt><trkpt lat="42.9544022" lon="2.3655885"><ele>380.8333333333333</ele><time>2026-04-11T11:10:10.968Z</time></trkpt><trkpt lat="42.9543747" lon="2.3654812"><ele>381.0</ele><time>2026-04-11T11:10:11.968Z</time></trkpt><trkpt lat="42.954342" lon="2.3653767"><ele>381.6</ele><time>2026-04-11T11:10:12.968Z</time></trkpt><trkpt lat="42.9542995" lon="2.3652712"><ele>382.20000000000005</ele><time>2026-04-11T11:10:13.968Z</time></trkpt><trkpt lat="42.9542421" lon="2.3651649"><ele>382.79999999999995</ele><time>2026-04-11T11:10:14.968Z</time></trkpt><trkpt lat="42.9541701" lon="2.3650597"><ele>383.4</ele><time>2026-04-11T11:10:15.968Z</time></trkpt><trkpt lat="42.9540943" lon="2.3649551"><ele>384.0</ele><time>2026-04-11T11:10:16.968Z</time></trkpt><trkpt lat="42.9540227" lon="2.3648542"><ele>384.2</ele><time>2026-04-11T11:10:17.968Z</time></trkpt><trkpt lat="42.9539571" lon="2.3647549"><ele>384.4</ele><time>2026-04-11T11:10:18.968Z</time></trkpt><trkpt lat="42.953891" lon="2.364643"><ele>384.6</ele><time>2026-04-11T11:10:19.97Z</time></trkpt><trkpt lat="42.9538402" lon="2.364517"><ele>384.8</ele><time>2026-04-11T11:10:20.968Z</time></trkpt><trkpt lat="42.9538023" lon="2.3643853"><ele>385.0</ele><time>2026-04-11T11:10:21.969Z</time></trkpt><trkpt lat="42.953768" lon="2.3642667"><ele>385.00000000000006</ele><time>2026-04-11T11:10:22.969Z</time></trkpt><trkpt lat="42.9537259" lon="2.3641548"><ele>385.0</ele><time>2026-04-11T11:10:23.968Z</time></trkpt><trkpt lat="42.9536764" lon="2.3640506"><ele>385.0</ele><time>2026-04-11T11:10:24.968Z</time></trkpt><trkpt lat="42.9536134" lon="2.3639675"><ele>385.0</ele><time>2026-04-11T11:10:25.968Z</time></trkpt><trkpt lat="42.9535374" lon="2.3639062"><ele>385.00000000000006</ele><time>2026-04-11T11:10:26.969Z</time></trkpt><trkpt lat="42.9534505" lon="2.3638762"><ele>385.0</ele><time>2026-04-11T11:10:27.968Z</time></trkpt><trkpt lat="42.9533598" lon="2.3638718"><ele>386.00000000000006</ele><time>2026-04-11T11:10:28.968Z</time></trkpt><trkpt lat="42.9532823" lon="2.3638655"><ele>387.0</ele><time>2026-04-11T11:10:29.969Z</time></trkpt><trkpt lat="42.9532121" lon="2.3638525"><ele>388.0</ele><time>2026-04-11T11:10:30.968Z</time></trkpt><trkpt lat="42.9531045" lon="2.3638435"><ele>389.0</ele><time>2026-04-11T11:10:32.969Z</time></trkpt><trkpt lat="42.9530296" lon="2.3638294"><ele>390.00000000000006</ele><time>2026-04-11T11:10:46.968Z</time></trkpt><trkpt lat="42.9529645" lon="2.3637951"><ele>391.0</ele><time>2026-04-11T11:10:48.969Z</time></trkpt><trkpt lat="42.9528954" lon="2.3637542"><ele>391.00000000000006</ele><time>2026-04-11T11:10:50.968Z</time></trkpt><trkpt lat="42.9528245" lon="2.3637235"><ele>391.0</ele><time>2026-04-11T11:10:52.968Z</time></trkpt><trkpt lat="42.9527606" lon="2.3636911"><ele>391.0</ele><time>2026-04-11T11:10:54.968Z</time></trkpt><trkpt lat="42.9526733" lon="2.3636567"><ele>391.0</ele><time>2026-04-11T11:10:57.968Z</time></trkpt><trkpt lat="42.95261" lon="2.3636333"><ele>391.00000000000006</ele><time>2026-04-11T11:10:59.969Z</time></trkpt><trkpt lat="42.9525433" lon="2.3636117"><ele>391.0</ele><time>2026-04-11T11:11:01.969Z</time></trkpt><trkpt lat="42.9524567" lon="2.3635583"><ele>388.85714285714283</ele><time>2026-04-11T11:11:04.968Z</time></trkpt><trkpt lat="42.9523967" lon="2.3635267"><ele>386.7142857142857</ele><time>2026-04-11T11:11:06.969Z</time></trkpt><trkpt lat="42.9523383" lon="2.36347"><ele>384.57142857142856</ele><time>2026-04-11T11:11:08.97Z</time></trkpt><trkpt lat="42.9522867" lon="2.3634083"><ele>382.42857142857144</ele><time>2026-04-11T11:11:10.968Z</time></trkpt><trkpt lat="42.9522317" lon="2.3633417"><ele>380.2857142857143</ele><time>2026-04-11T11:11:12.97Z</time></trkpt><trkpt lat="42.9521883" lon="2.3632733"><ele>378.1428571428571</ele><time>2026-04-11T11:11:14.968Z</time></trkpt><trkpt lat="42.9521533" lon="2.3632"><ele>376.0</ele><time>2026-04-11T11:11:16.968Z</time></trkpt><trkpt lat="42.9521133" lon="2.363125"><ele>376.0</ele><time>2026-04-11T11:11:18.97Z</time></trkpt><trkpt lat="42.9520683" lon="2.363055"><ele>376.0</ele><time>2026-04-11T11:11:20.969Z</time></trkpt><trkpt lat="42.9520217" lon="2.362975"><ele>376.0</ele><time>2026-04-11T11:11:22.968Z</time></trkpt><trkpt lat="42.95198" lon="2.3628967"><ele>376.0</ele><time>2026-04-11T11:11:24.97Z</time></trkpt><trkpt lat="42.9519383" lon="2.36281"><ele>376.0</ele><time>2026-04-11T11:11:26.969Z</time></trkpt><trkpt lat="42.951895" lon="2.36272"><ele>376.0</ele><time>2026-04-11T11:11:28.971Z</time></trkpt><trkpt lat="42.9518183" lon="2.362685"><ele>377.3333333333333</ele><time>2026-04-11T11:11:31.968Z</time></trkpt><trkpt lat="42.9517517" lon="2.3627683"><ele>378.66666666666663</ele><time>2026-04-11T11:11:34.968Z</time></trkpt><trkpt lat="42.951705" lon="2.3628333"><ele>380.0</ele><time>2026-04-11T11:11:36.97Z</time></trkpt><trkpt lat="42.95166" lon="2.3629"><ele>381.3333333333333</ele><time>2026-04-11T11:11:38.971Z</time></trkpt><trkpt lat="42.9516133" lon="2.3629667"><ele>382.6666666666667</ele><time>2026-04-11T11:11:40.968Z</time></trkpt><trkpt lat="42.9515533" lon="2.3630583"><ele>384.0</ele><time>2026-04-11T11:11:43.968Z</time></trkpt><trkpt lat="42.95148" lon="2.363085"><ele>380.85714285714283</ele><time>2026-04-11T11:11:46.969Z</time></trkpt><trkpt lat="42.9514167" lon="2.3630633"><ele>377.7142857142857</ele><time>2026-04-11T11:11:48.969Z</time></trkpt><trkpt lat="42.951355" lon="2.363035"><ele>374.57142857142856</ele><time>2026-04-11T11:11:50.969Z</time></trkpt><trkpt lat="42.9512917" lon="2.3630167"><ele>371.42857142857144</ele><time>2026-04-11T11:11:53.97Z</time></trkpt><trkpt lat="42.9512117" lon="2.36303"><ele>368.2857142857143</ele><time>2026-04-11T11:11:56.972Z</time></trkpt><trkpt lat="42.9511317" lon="2.3630267"><ele>365.1428571428571</ele><time>2026-04-11T11:11:59.969Z</time></trkpt><trkpt lat="42.9510467" lon="2.3630167"><ele>362.0</ele><time>2026-04-11T11:12:02.969Z</time></trkpt><trkpt lat="42.9509567" lon="2.3630333"><ele>361.1666666666667</ele><time>2026-04-11T11:12:05.97Z</time></trkpt><trkpt lat="42.950885" lon="2.36304"><ele>360.33333333333337</ele><time>2026-04-11T11:12:08.969Z</time></trkpt><trkpt lat="42.950835" lon="2.3629767"><ele>359.5</ele><time>2026-04-11T11:12:10.969Z</time></trkpt><trkpt lat="42.9507983" lon="2.362865"><ele>358.6666666666667</ele><time>2026-04-11T11:12:13.969Z</time></trkpt><trkpt lat="42.9507717" lon="2.3627817"><ele>357.8333333333333</ele><time>2026-04-11T11:12:15.968Z</time></trkpt><trkpt lat="42.95074" lon="2.3627067"><ele>357.0</ele><time>2026-04-11T11:12:17.968Z</time></trkpt><trkpt lat="42.9506917" lon="2.3626"><ele>356.3333333333333</ele><time>2026-04-11T11:12:20.969Z</time></trkpt><trkpt lat="42.9506533" lon="2.36252"><ele>355.6666666666667</ele><time>2026-04-11T11:12:22.968Z</time></trkpt><trkpt lat="42.9506083" lon="2.3624417"><ele>355.0</ele><time>2026-04-11T11:12:24.969Z</time></trkpt><trkpt lat="42.9505633" lon="2.3623583"><ele>354.33333333333337</ele><time>2026-04-11T11:12:26.969Z</time></trkpt><trkpt lat="42.9505217" lon="2.3622817"><ele>353.6666666666667</ele><time>2026-04-11T11:12:28.968Z</time></trkpt><trkpt lat="42.950445" lon="2.3621467"><ele>353.0</ele><time>2026-04-11T11:12:45.969Z</time></trkpt><trkpt lat="42.9503833" lon="2.36202"><ele>353.0</ele><time>2026-04-11T11:12:47.972Z</time></trkpt><trkpt lat="42.9503483" lon="2.3619367"><ele>353.0</ele><time>2026-04-11T11:12:48.969Z</time></trkpt><trkpt lat="42.950305" lon="2.3618417"><ele>353.0</ele><time>2026-04-11T11:12:49.969Z</time></trkpt><trkpt lat="42.950255" lon="2.3617417"><ele>353.0</ele><time>2026-04-11T11:12:50.969Z</time></trkpt><trkpt lat="42.9502017" lon="2.36163"><ele>353.0</ele><time>2026-04-11T11:12:51.969Z</time></trkpt><trkpt lat="42.9501467" lon="2.3615117"><ele>353.0</ele><time>2026-04-11T11:12:52.968Z</time></trkpt><trkpt lat="42.9500883" lon="2.3613917"><ele>351.0</ele><time>2026-04-11T11:12:53.969Z</time></trkpt><trkpt lat="42.9500267" lon="2.3612617"><ele>349.0</ele><time>2026-04-11T11:12:54.971Z</time></trkpt><trkpt lat="42.94996" lon="2.3611183"><ele>347.0</ele><time>2026-04-11T11:12:55.969Z</time></trkpt><trkpt lat="42.9498933" lon="2.36096"><ele>345.0</ele><time>2026-04-11T11:12:56.97Z</time></trkpt><trkpt lat="42.94982" lon="2.3607967"><ele>345.0</ele><time>2026-04-11T11:12:57.969Z</time></trkpt><trkpt lat="42.9497383" lon="2.36063"><ele>345.0</ele><time>2026-04-11T11:12:58.969Z</time></trkpt><trkpt lat="42.9496583" lon="2.360455"><ele>345.0</ele><time>2026-04-11T11:12:59.97Z</time></trkpt><trkpt lat="42.9495767" lon="2.3602767"><ele>348.0</ele><time>2026-04-11T11:13:00.969Z</time></trkpt><trkpt lat="42.9494917" lon="2.3600917"><ele>351.0</ele><time>2026-04-11T11:13:01.968Z</time></trkpt><trkpt lat="42.9494133" lon="2.3598967"><ele>354.0</ele><time>2026-04-11T11:13:02.97Z</time></trkpt><trkpt lat="42.9493283" lon="2.3596967"><ele>352.3333333333333</ele><time>2026-04-11T11:13:03.97Z</time></trkpt><trkpt lat="42.94923" lon="2.3594967"><ele>350.66666666666663</ele><time>2026-04-11T11:13:04.969Z</time></trkpt><trkpt lat="42.94913" lon="2.3592967"><ele>349.0</ele><time>2026-04-11T11:13:05.969Z</time></trkpt><trkpt lat="42.949035" lon="2.3590917"><ele>349.0</ele><time>2026-04-11T11:13:06.969Z</time></trkpt><trkpt lat="42.9489433" lon="2.3588867"><ele>349.0</ele><time>2026-04-11T11:13:07.969Z</time></trkpt><trkpt lat="42.94885" lon="2.3586833"><ele>349.0</ele><time>2026-04-11T11:13:08.969Z</time></trkpt><trkpt lat="42.94876" lon="2.3584817"><ele>350.66666666666663</ele><time>2026-04-11T11:13:09.969Z</time></trkpt><trkpt lat="42.9486717" lon="2.3582817"><ele>352.3333333333333</ele><time>2026-04-11T11:13:10.97Z</time></trkpt><trkpt lat="42.948585" lon="2.358085"><ele>354.0</ele><time>2026-04-11T11:13:11.969Z</time></trkpt><trkpt lat="42.948495" lon="2.3578867"><ele>355.0</ele><time>2026-04-11T11:13:12.969Z</time></trkpt><trkpt lat="42.9484067" lon="2.35769"><ele>356.0</ele><time>2026-04-11T11:13:13.969Z</time></trkpt><trkpt lat="42.9482983" lon="2.3574983"><ele>357.0</ele><time>2026-04-11T11:13:14.97Z</time></trkpt><trkpt lat="42.948185" lon="2.35731"><ele>354.3333333333333</ele><time>2026-04-11T11:13:15.971Z</time></trkpt><trkpt lat="42.94806" lon="2.3571333"><ele>351.66666666666663</ele><time>2026-04-11T11:13:16.969Z</time></trkpt><trkpt lat="42.947935" lon="2.3569633"><ele>349.0</ele><time>2026-04-11T11:13:17.969Z</time></trkpt><trkpt lat="42.947805" lon="2.3567967"><ele>349.0</ele><time>2026-04-11T11:13:18.969Z</time></trkpt><trkpt lat="42.94768" lon="2.3566317"><ele>349.0</ele><time>2026-04-11T11:13:19.97Z</time></trkpt><trkpt lat="42.9475583" lon="2.3564683"><ele>349.0</ele><time>2026-04-11T11:13:20.969Z</time></trkpt><trkpt lat="42.9474433" lon="2.3563033"><ele>346.3333333333333</ele><time>2026-04-11T11:13:21.969Z</time></trkpt><trkpt lat="42.9473617" lon="2.3561183"><ele>343.6666666666667</ele><time>2026-04-11T11:13:22.969Z</time></trkpt><trkpt lat="42.94731" lon="2.35593"><ele>341.0</ele><time>2026-04-11T11:13:23.969Z</time></trkpt><trkpt lat="42.9472783" lon="2.3557333"><ele>341.0</ele><time>2026-04-11T11:13:24.971Z</time></trkpt><trkpt lat="42.9472817" lon="2.3555167"><ele>341.0</ele><time>2026-04-11T11:13:25.969Z</time></trkpt><trkpt lat="42.9473133" lon="2.3552883"><ele>341.0</ele><time>2026-04-11T11:13:26.971Z</time></trkpt><trkpt lat="42.9473533" lon="2.3550467"><ele>341.0</ele><time>2026-04-11T11:13:27.969Z</time></trkpt><trkpt lat="42.94739" lon="2.3547983"><ele>341.0</ele><time>2026-04-11T11:13:28.968Z</time></trkpt><trkpt lat="42.94743" lon="2.3545467"><ele>341.0</ele><time>2026-04-11T11:13:29.969Z</time></trkpt><trkpt lat="42.9474683" lon="2.3542967"><ele>340.0</ele><time>2026-04-11T11:13:30.969Z</time></trkpt><trkpt lat="42.9475" lon="2.35405"><ele>339.0</ele><time>2026-04-11T11:13:31.969Z</time></trkpt><trkpt lat="42.9475267" lon="2.35381"><ele>338.0</ele><time>2026-04-11T11:13:32.97Z</time></trkpt><trkpt lat="42.947545" lon="2.3535767"><ele>339.6666666666667</ele><time>2026-04-11T11:13:33.969Z</time></trkpt><trkpt lat="42.9475583" lon="2.353355"><ele>341.3333333333333</ele><time>2026-04-11T11:13:34.969Z</time></trkpt><trkpt lat="42.9475833" lon="2.353145"><ele>343.0</ele><time>2026-04-11T11:13:35.969Z</time></trkpt><trkpt lat="42.9476333" lon="2.3529367"><ele>343.0</ele><time>2026-04-11T11:13:36.97Z</time></trkpt><trkpt lat="42.9477133" lon="2.3527417"><ele>343.0</ele><time>2026-04-11T11:13:37.969Z</time></trkpt><trkpt lat="42.9478083" lon="2.3525517"><ele>343.0</ele><time>2026-04-11T11:13:38.969Z</time></trkpt><trkpt lat="42.94791" lon="2.3523617"><ele>340.66666666666663</ele><time>2026-04-11T11:13:39.969Z</time></trkpt><trkpt lat="42.9480033" lon="2.3521717"><ele>338.3333333333333</ele><time>2026-04-11T11:13:40.969Z</time></trkpt><trkpt lat="42.948085" lon="2.35199"><ele>336.0</ele><time>2026-04-11T11:13:41.969Z</time></trkpt><trkpt lat="42.94816" lon="2.3518133"><ele>336.0</ele><time>2026-04-11T11:13:42.969Z</time></trkpt><trkpt lat="42.9482217" lon="2.3516433"><ele>336.0</ele><time>2026-04-11T11:13:43.97Z</time></trkpt><trkpt lat="42.9482533" lon="2.3514667"><ele>336.0</ele><time>2026-04-11T11:13:44.969Z</time></trkpt><trkpt lat="42.94824" lon="2.3512783"><ele>336.0</ele><time>2026-04-11T11:13:45.969Z</time></trkpt><trkpt lat="42.9482" lon="2.3510783"><ele>337.3333333333333</ele><time>2026-04-11T11:13:46.969Z</time></trkpt><trkpt lat="42.9481383" lon="2.3508767"><ele>338.66666666666663</ele><time>2026-04-11T11:13:47.969Z</time></trkpt><trkpt lat="42.9480683" lon="2.3506867"><ele>340.0</ele><time>2026-04-11T11:13:48.969Z</time></trkpt><trkpt lat="42.9479867" lon="2.3505217"><ele>342.3333333333333</ele><time>2026-04-11T11:13:49.969Z</time></trkpt><trkpt lat="42.9478617" lon="2.3503917"><ele>344.6666666666667</ele><time>2026-04-11T11:13:50.969Z</time></trkpt><trkpt lat="42.947715" lon="2.3502967"><ele>347.0</ele><time>2026-04-11T11:13:51.97Z</time></trkpt><trkpt lat="42.94755" lon="2.35023"><ele>343.0</ele><time>2026-04-11T11:13:52.969Z</time></trkpt><trkpt lat="42.9473917" lon="2.3501667"><ele>339.0</ele><time>2026-04-11T11:13:53.969Z</time></trkpt><trkpt lat="42.9472433" lon="2.35009"><ele>335.0</ele><time>2026-04-11T11:13:54.97Z</time></trkpt><trkpt lat="42.9471133" lon="2.34998"><ele>335.0</ele><time>2026-04-11T11:13:55.969Z</time></trkpt><trkpt lat="42.9469967" lon="2.3498383"><ele>335.0</ele><time>2026-04-11T11:13:56.97Z</time></trkpt><trkpt lat="42.94691" lon="2.3496617"><ele>335.0</ele><time>2026-04-11T11:13:57.969Z</time></trkpt><trkpt lat="42.9468433" lon="2.3494583"><ele>337.0</ele><time>2026-04-11T11:13:58.969Z</time></trkpt><trkpt lat="42.9467817" lon="2.34924"><ele>339.0</ele><time>2026-04-11T11:13:59.969Z</time></trkpt><trkpt lat="42.94672" lon="2.3490183"><ele>341.0</ele><time>2026-04-11T11:14:00.969Z</time></trkpt><trkpt lat="42.9466617" lon="2.3487983"><ele>335.75</ele><time>2026-04-11T11:14:01.969Z</time></trkpt><trkpt lat="42.9466167" lon="2.348605"><ele>330.5</ele><time>2026-04-11T11:14:02.97Z</time></trkpt><trkpt lat="42.94659" lon="2.3484333"><ele>325.25</ele><time>2026-04-11T11:14:03.969Z</time></trkpt><trkpt lat="42.9465917" lon="2.348285"><ele>320.0</ele><time>2026-04-11T11:14:04.968Z</time></trkpt><trkpt lat="42.9466283" lon="2.34815"><ele>319.75</ele><time>2026-04-11T11:14:05.969Z</time></trkpt><trkpt lat="42.9467083" lon="2.3480267"><ele>319.5</ele><time>2026-04-11T11:14:06.97Z</time></trkpt><trkpt lat="42.9468283" lon="2.3479383"><ele>319.25</ele><time>2026-04-11T11:14:07.969Z</time></trkpt><trkpt lat="42.946985" lon="2.3478733"><ele>319.0</ele><time>2026-04-11T11:14:08.969Z</time></trkpt><trkpt lat="42.9471483" lon="2.3478"><ele>319.0</ele><time>2026-04-11T11:14:09.971Z</time></trkpt><trkpt lat="42.9473117" lon="2.347715"><ele>319.0</ele><time>2026-04-11T11:14:10.968Z</time></trkpt><trkpt lat="42.9474533" lon="2.3475933"><ele>319.0</ele><time>2026-04-11T11:14:11.971Z</time></trkpt><trkpt lat="42.94757" lon="2.3474233"><ele>320.3333333333333</ele><time>2026-04-11T11:14:12.97Z</time></trkpt><trkpt lat="42.9476717" lon="2.3472183"><ele>321.6666666666667</ele><time>2026-04-11T11:14:13.97Z</time></trkpt><trkpt lat="42.94777" lon="2.3470033"><ele>323.0</ele><time>2026-04-11T11:14:14.968Z</time></trkpt><trkpt lat="42.947875" lon="2.34678"><ele>323.0</ele><time>2026-04-11T11:14:15.968Z</time></trkpt><trkpt lat="42.9479817" lon="2.3465483"><ele>323.0</ele><time>2026-04-11T11:14:16.968Z</time></trkpt><trkpt lat="42.9480883" lon="2.34632"><ele>323.0</ele><time>2026-04-11T11:14:17.968Z</time></trkpt><trkpt lat="42.9481883" lon="2.346095"><ele>320.0</ele><time>2026-04-11T11:14:18.968Z</time></trkpt><trkpt lat="42.9482833" lon="2.34587"><ele>317.0</ele><time>2026-04-11T11:14:19.968Z</time></trkpt><trkpt lat="42.9483667" lon="2.34567"><ele>314.0</ele><time>2026-04-11T11:14:20.969Z</time></trkpt><trkpt lat="42.9484467" lon="2.3454967"><ele>313.0</ele><time>2026-04-11T11:14:21.967Z</time></trkpt><trkpt lat="42.948545" lon="2.3453583"><ele>312.0</ele><time>2026-04-11T11:14:22.968Z</time></trkpt><trkpt lat="42.94866" lon="2.3452417"><ele>311.0</ele><time>2026-04-11T11:14:23.968Z</time></trkpt><trkpt lat="42.948805" lon="2.345175"><ele>310.0</ele><time>2026-04-11T11:14:24.968Z</time></trkpt><trkpt lat="42.94895" lon="2.3451433"><ele>310.0</ele><time>2026-04-11T11:14:25.968Z</time></trkpt><trkpt lat="42.9490983" lon="2.3451267"><ele>310.0</ele><time>2026-04-11T11:14:26.969Z</time></trkpt><trkpt lat="42.9492317" lon="2.3450867"><ele>310.0</ele><time>2026-04-11T11:14:27.968Z</time></trkpt><trkpt lat="42.9493483" lon="2.3450183"><ele>310.0</ele><time>2026-04-11T11:14:28.968Z</time></trkpt><trkpt lat="42.949445" lon="2.3449017"><ele>311.0</ele><time>2026-04-11T11:14:29.968Z</time></trkpt><trkpt lat="42.9495267" lon="2.3447483"><ele>312.0</ele><time>2026-04-11T11:14:30.971Z</time></trkpt><trkpt lat="42.949605" lon="2.3445867"><ele>313.0</ele><time>2026-04-11T11:14:31.969Z</time></trkpt><trkpt lat="42.9496833" lon="2.3444233"><ele>314.0</ele><time>2026-04-11T11:14:32.969Z</time></trkpt><trkpt lat="42.9497567" lon="2.34426"><ele>314.0</ele><time>2026-04-11T11:14:33.968Z</time></trkpt><trkpt lat="42.949825" lon="2.3440833"><ele>314.0</ele><time>2026-04-11T11:14:34.968Z</time></trkpt><trkpt lat="42.949875" lon="2.3439"><ele>314.0</ele><time>2026-04-11T11:14:35.969Z</time></trkpt><trkpt lat="42.949895" lon="2.3437033"><ele>314.0</ele><time>2026-04-11T11:14:36.968Z</time></trkpt><trkpt lat="42.94989" lon="2.3434867"><ele>310.6666666666667</ele><time>2026-04-11T11:14:37.968Z</time></trkpt><trkpt lat="42.9498883" lon="2.3432633"><ele>307.3333333333333</ele><time>2026-04-11T11:14:38.968Z</time></trkpt><trkpt lat="42.9498933" lon="2.3430267"><ele>304.0</ele><time>2026-04-11T11:14:39.968Z</time></trkpt><trkpt lat="42.9499183" lon="2.3427883"><ele>303.0</ele><time>2026-04-11T11:14:40.968Z</time></trkpt><trkpt lat="42.9499633" lon="2.3425483"><ele>302.0</ele><time>2026-04-11T11:14:41.969Z</time></trkpt><trkpt lat="42.9500133" lon="2.3423067"><ele>301.0</ele><time>2026-04-11T11:14:42.97Z</time></trkpt><trkpt lat="42.95006" lon="2.34207"><ele>303.66666666666663</ele><time>2026-04-11T11:14:43.97Z</time></trkpt><trkpt lat="42.9501033" lon="2.341835"><ele>306.3333333333333</ele><time>2026-04-11T11:14:44.97Z</time></trkpt><trkpt lat="42.95015" lon="2.3416283"><ele>309.0</ele><time>2026-04-11T11:14:45.97Z</time></trkpt><trkpt lat="42.950205" lon="2.34146"><ele>306.0</ele><time>2026-04-11T11:14:46.97Z</time></trkpt><trkpt lat="42.9502867" lon="2.3413383"><ele>303.0</ele><time>2026-04-11T11:14:47.97Z</time></trkpt><trkpt lat="42.9503983" lon="2.3412617"><ele>300.0</ele><time>2026-04-11T11:14:48.97Z</time></trkpt><trkpt lat="42.9505217" lon="2.34119"><ele>297.0</ele><time>2026-04-11T11:14:49.97Z</time></trkpt><trkpt lat="42.950635" lon="2.3411067"><ele>297.0</ele><time>2026-04-11T11:14:50.97Z</time></trkpt><trkpt lat="42.95072" lon="2.3409833"><ele>297.0</ele><time>2026-04-11T11:14:51.97Z</time></trkpt><trkpt lat="42.9507617" lon="2.3408117"><ele>297.0</ele><time>2026-04-11T11:14:52.97Z</time></trkpt><trkpt lat="42.9507683" lon="2.3406133"><ele>297.0</ele><time>2026-04-11T11:14:53.97Z</time></trkpt><trkpt lat="42.95077" lon="2.3404033"><ele>296.6666666666667</ele><time>2026-04-11T11:14:54.97Z</time></trkpt><trkpt lat="42.9507733" lon="2.3401833"><ele>296.33333333333337</ele><time>2026-04-11T11:14:55.97Z</time></trkpt><trkpt lat="42.950785" lon="2.3399517"><ele>296.0</ele><time>2026-04-11T11:14:56.97Z</time></trkpt><trkpt lat="42.9508267" lon="2.339725"><ele>298.33333333333337</ele><time>2026-04-11T11:14:57.97Z</time></trkpt><trkpt lat="42.9508967" lon="2.339495"><ele>300.6666666666667</ele><time>2026-04-11T11:14:58.969Z</time></trkpt><trkpt lat="42.9509833" lon="2.3392767"><ele>303.0</ele><time>2026-04-11T11:14:59.97Z</time></trkpt><trkpt lat="42.9510567" lon="2.33907"><ele>301.6666666666667</ele><time>2026-04-11T11:15:00.971Z</time></trkpt><trkpt lat="42.9511083" lon="2.3388567"><ele>300.33333333333337</ele><time>2026-04-11T11:15:01.97Z</time></trkpt><trkpt lat="42.9511333" lon="2.338635"><ele>299.0</ele><time>2026-04-11T11:15:02.97Z</time></trkpt><trkpt lat="42.9511567" lon="2.338405"><ele>299.0</ele><time>2026-04-11T11:15:03.97Z</time></trkpt><trkpt lat="42.9511917" lon="2.3381867"><ele>299.0</ele><time>2026-04-11T11:15:04.97Z</time></trkpt><trkpt lat="42.9512333" lon="2.3379833"><ele>299.0</ele><time>2026-04-11T11:15:05.971Z</time></trkpt><trkpt lat="42.9512567" lon="2.3377883"><ele>298.33333333333337</ele><time>2026-04-11T11:15:06.97Z</time></trkpt><trkpt lat="42.9512467" lon="2.3375833"><ele>297.6666666666667</ele><time>2026-04-11T11:15:07.97Z</time></trkpt><trkpt lat="42.9511983" lon="2.3373783"><ele>297.0</ele><time>2026-04-11T11:15:08.97Z</time></trkpt><trkpt lat="42.9511217" lon="2.3371767"><ele>295.6666666666667</ele><time>2026-04-11T11:15:09.97Z</time></trkpt><trkpt lat="42.9510283" lon="2.3369783"><ele>294.33333333333337</ele><time>2026-04-11T11:15:10.97Z</time></trkpt><trkpt lat="42.9509333" lon="2.33678"><ele>293.0</ele><time>2026-04-11T11:15:11.97Z</time></trkpt><trkpt lat="42.9508333" lon="2.3365867"><ele>290.33333333333337</ele><time>2026-04-11T11:15:12.97Z</time></trkpt><trkpt lat="42.9507383" lon="2.3363933"><ele>287.6666666666667</ele><time>2026-04-11T11:15:13.97Z</time></trkpt><trkpt lat="42.9506467" lon="2.3361983"><ele>285.0</ele><time>2026-04-11T11:15:14.971Z</time></trkpt><trkpt lat="42.950555" lon="2.3360083"><ele>284.6666666666667</ele><time>2026-04-11T11:15:15.97Z</time></trkpt><trkpt lat="42.9504633" lon="2.3358183"><ele>284.33333333333337</ele><time>2026-04-11T11:15:16.969Z</time></trkpt><trkpt lat="42.95036" lon="2.3356383"><ele>284.0</ele><time>2026-04-11T11:15:17.97Z</time></trkpt><trkpt lat="42.95024" lon="2.3354783"><ele>288.6666666666667</ele><time>2026-04-11T11:15:18.971Z</time></trkpt><trkpt lat="42.9501067" lon="2.3353383"><ele>293.3333333333333</ele><time>2026-04-11T11:15:19.97Z</time></trkpt><trkpt lat="42.9499533" lon="2.3352233"><ele>298.0</ele><time>2026-04-11T11:15:20.97Z</time></trkpt><trkpt lat="42.9497933" lon="2.3351267"><ele>298.0</ele><time>2026-04-11T11:15:21.97Z</time></trkpt><trkpt lat="42.94963" lon="2.3350467"><ele>298.0</ele><time>2026-04-11T11:15:22.97Z</time></trkpt><trkpt lat="42.9494683" lon="2.3349733"><ele>298.0</ele><time>2026-04-11T11:15:23.971Z</time></trkpt><trkpt lat="42.9493133" lon="2.3349033"><ele>295.66666666666663</ele><time>2026-04-11T11:15:24.97Z</time></trkpt><trkpt lat="42.9491633" lon="2.334835"><ele>293.3333333333333</ele><time>2026-04-11T11:15:25.97Z</time></trkpt><trkpt lat="42.9490267" lon="2.3347417"><ele>291.0</ele><time>2026-04-11T11:15:26.97Z</time></trkpt><trkpt lat="42.9489" lon="2.3346167"><ele>291.0</ele><time>2026-04-11T11:15:27.97Z</time></trkpt><trkpt lat="42.9487783" lon="2.334465"><ele>291.0</ele><time>2026-04-11T11:15:28.97Z</time></trkpt><trkpt lat="42.9486633" lon="2.3342867"><ele>291.0</ele><time>2026-04-11T11:15:29.97Z</time></trkpt><trkpt lat="42.948545" lon="2.3341017"><ele>291.0</ele><time>2026-04-11T11:15:30.97Z</time></trkpt><trkpt lat="42.9484217" lon="2.3339133"><ele>291.0</ele><time>2026-04-11T11:15:31.97Z</time></trkpt><trkpt lat="42.9482933" lon="2.3337183"><ele>291.0</ele><time>2026-04-11T11:15:32.97Z</time></trkpt><trkpt lat="42.9481633" lon="2.3335167"><ele>291.0</ele><time>2026-04-11T11:15:33.97Z</time></trkpt><trkpt lat="42.94803" lon="2.33331"><ele>291.0</ele><time>2026-04-11T11:15:34.97Z</time></trkpt><trkpt lat="42.9478917" lon="2.3331"><ele>291.0</ele><time>2026-04-11T11:15:35.97Z</time></trkpt><trkpt lat="42.9477533" lon="2.3328867"><ele>291.0</ele><time>2026-04-11T11:15:36.972Z</time></trkpt><trkpt lat="42.9476117" lon="2.332675"><ele>291.0</ele><time>2026-04-11T11:15:37.97Z</time></trkpt><trkpt lat="42.9474683" lon="2.33246"><ele>291.0</ele><time>2026-04-11T11:15:38.97Z</time></trkpt><trkpt lat="42.94733" lon="2.3322417"><ele>288.6666666666667</ele><time>2026-04-11T11:15:39.97Z</time></trkpt><trkpt lat="42.947195" lon="2.3320267"><ele>286.33333333333337</ele><time>2026-04-11T11:15:40.971Z</time></trkpt><trkpt lat="42.947065" lon="2.331805"><ele>284.0</ele><time>2026-04-11T11:15:41.97Z</time></trkpt><trkpt lat="42.9469467" lon="2.3315767"><ele>285.6666666666667</ele><time>2026-04-11T11:15:42.97Z</time></trkpt><trkpt lat="42.94685" lon="2.3313383"><ele>287.3333333333333</ele><time>2026-04-11T11:15:43.971Z</time></trkpt><trkpt lat="42.9467733" lon="2.3310883"><ele>289.0</ele><time>2026-04-11T11:15:44.971Z</time></trkpt><trkpt lat="42.9467067" lon="2.33082"><ele>285.66666666666663</ele><time>2026-04-11T11:15:45.97Z</time></trkpt><trkpt lat="42.9466467" lon="2.33054"><ele>282.3333333333333</ele><time>2026-04-11T11:15:46.97Z</time></trkpt><trkpt lat="42.9465867" lon="2.3302533"><ele>279.0</ele><time>2026-04-11T11:15:47.97Z</time></trkpt><trkpt lat="42.9465267" lon="2.3299733"><ele>278.3333333333333</ele><time>2026-04-11T11:15:48.971Z</time></trkpt><trkpt lat="42.94647" lon="2.3297117"><ele>277.66666666666663</ele><time>2026-04-11T11:15:49.97Z</time></trkpt><trkpt lat="42.9464117" lon="2.329465"><ele>277.0</ele><time>2026-04-11T11:15:50.971Z</time></trkpt><trkpt lat="42.94636" lon="2.3292283"><ele>277.0</ele><time>2026-04-11T11:15:51.97Z</time></trkpt><trkpt lat="42.9463233" lon="2.3289983"><ele>277.0</ele><time>2026-04-11T11:15:52.97Z</time></trkpt><trkpt lat="42.9463083" lon="2.3287633"><ele>277.0</ele><time>2026-04-11T11:15:53.97Z</time></trkpt><trkpt lat="42.9463067" lon="2.3285283"><ele>276.3333333333333</ele><time>2026-04-11T11:15:54.97Z</time></trkpt><trkpt lat="42.94631" lon="2.32829"><ele>275.6666666666667</ele><time>2026-04-11T11:15:55.97Z</time></trkpt><trkpt lat="42.9463183" lon="2.32805"><ele>275.0</ele><time>2026-04-11T11:15:56.971Z</time></trkpt><trkpt lat="42.946325" lon="2.3278133"><ele>275.0</ele><time>2026-04-11T11:15:57.972Z</time></trkpt><trkpt lat="42.9463317" lon="2.32758"><ele>275.0</ele><time>2026-04-11T11:15:58.97Z</time></trkpt><trkpt lat="42.9463367" lon="2.3273683"><ele>275.0</ele><time>2026-04-11T11:15:59.97Z</time></trkpt><trkpt lat="42.9463383" lon="2.32718"><ele>275.0</ele><time>2026-04-11T11:16:00.97Z</time></trkpt><trkpt lat="42.946345" lon="2.3269817"><ele>275.0</ele><time>2026-04-11T11:16:01.969Z</time></trkpt><trkpt lat="42.94635" lon="2.3267867"><ele>275.0</ele><time>2026-04-11T11:16:02.97Z</time></trkpt><trkpt lat="42.9463483" lon="2.3266"><ele>275.0</ele><time>2026-04-11T11:16:03.972Z</time></trkpt><trkpt lat="42.94635" lon="2.326415"><ele>274.25</ele><time>2026-04-11T11:16:04.97Z</time></trkpt><trkpt lat="42.9463533" lon="2.3262317"><ele>273.5</ele><time>2026-04-11T11:16:05.97Z</time></trkpt><trkpt lat="42.946355" lon="2.3260517"><ele>272.75</ele><time>2026-04-11T11:16:06.97Z</time></trkpt><trkpt lat="42.9463533" lon="2.3258783"><ele>272.0</ele><time>2026-04-11T11:16:07.97Z</time></trkpt><trkpt lat="42.946355" lon="2.3257"><ele>272.0</ele><time>2026-04-11T11:16:08.971Z</time></trkpt><trkpt lat="42.9463583" lon="2.3255233"><ele>272.0</ele><time>2026-04-11T11:16:09.97Z</time></trkpt><trkpt lat="42.9463633" lon="2.325345"><ele>272.0</ele><time>2026-04-11T11:16:10.97Z</time></trkpt><trkpt lat="42.94637" lon="2.3251783"><ele>272.0</ele><time>2026-04-11T11:16:11.971Z</time></trkpt><trkpt lat="42.946375" lon="2.32502"><ele>272.0</ele><time>2026-04-11T11:16:12.973Z</time></trkpt><trkpt lat="42.9463767" lon="2.324855"><ele>272.0</ele><time>2026-04-11T11:16:13.97Z</time></trkpt><trkpt lat="42.9463817" lon="2.324695"><ele>272.0</ele><time>2026-04-11T11:16:14.97Z</time></trkpt><trkpt lat="42.9463883" lon="2.324545"><ele>272.0</ele><time>2026-04-11T11:16:15.97Z</time></trkpt><trkpt lat="42.9463967" lon="2.3244"><ele>272.6</ele><time>2026-04-11T11:16:16.97Z</time></trkpt><trkpt lat="42.9463917" lon="2.3242817"><ele>273.2</ele><time>2026-04-11T11:16:17.97Z</time></trkpt><trkpt lat="42.9463833" lon="2.3241833"><ele>273.8</ele><time>2026-04-11T11:16:18.97Z</time></trkpt><trkpt lat="42.9463783" lon="2.3240933"><ele>274.4</ele><time>2026-04-11T11:16:19.971Z</time></trkpt><trkpt lat="42.9463483" lon="2.3239367"><ele>275.0</ele><time>2026-04-11T11:16:21.971Z</time></trkpt><trkpt lat="42.9463267" lon="2.323795"><ele>275.0</ele><time>2026-04-11T11:16:23.971Z</time></trkpt><trkpt lat="42.9463" lon="2.3236517"><ele>275.0</ele><time>2026-04-11T11:16:25.97Z</time></trkpt><trkpt lat="42.9462717" lon="2.3235267"><ele>275.0</ele><time>2026-04-11T11:16:27.97Z</time></trkpt><trkpt lat="42.9462633" lon="2.323435"><ele>275.0</ele><time>2026-04-11T11:16:29.97Z</time></trkpt><trkpt lat="42.946265" lon="2.3233433"><ele>275.0</ele><time>2026-04-11T11:16:34.97Z</time></trkpt><trkpt lat="42.946225" lon="2.3232333"><ele>275.0</ele><time>2026-04-11T11:16:39.97Z</time></trkpt><trkpt lat="42.9461483" lon="2.3231733"><ele>275.0</ele><time>2026-04-11T11:16:42.97Z</time></trkpt><trkpt lat="42.9460533" lon="2.323185"><ele>275.0</ele><time>2026-04-11T11:16:45.97Z</time></trkpt><trkpt lat="42.9459867" lon="2.3231783"><ele>275.0</ele><time>2026-04-11T11:16:47.97Z</time></trkpt><trkpt lat="42.94595" lon="2.3230867"><ele>275.0</ele><time>2026-04-11T11:16:50.97Z</time></trkpt><trkpt lat="42.9459133" lon="2.3230067"><ele>275.0</ele><time>2026-04-11T11:16:53.971Z</time></trkpt><trkpt lat="42.9462444" lon="2.3233402"><ele>275.0</ele><time>2026-04-11T11:23:17.97Z</time></trkpt><trkpt lat="42.9463937" lon="2.3234693"><ele>275.0</ele><time>2026-04-11T11:25:27.97Z</time></trkpt></trkseg></trk></gpx>